<?xml version='1.0' encoding='UTF-8'?><gpx version="1.1" creator="JPX - https://github.com/jenetics/jpx" xmlns="http://www.topografix.com/GPX/1/1"><trk><trkseg><trkpt lat="46.1076051" lon="12.1912233"><ele>355.0</ele><time>2026-04-25T10:58:28.447Z</time></trkpt><trkpt lat="46.1074869" lon="12.1911833"><ele>355.0</ele><time>2026-04-25T10:58:30.442Z</time></trkpt><trkpt lat="46.1073742" lon="12.191135"><ele>355.0</ele><time>2026-04-25T10:58:32.448Z</time></trkpt><trkpt lat="46.1072716" lon="12.1910806"><ele>355.0</ele><time>2026-04-25T10:58:34.453Z</time></trkpt><trkpt lat="46.1071686" lon="12.1910485"><ele>355.0</ele><time>2026-04-25T10:58:36.447Z</time></trkpt><trkpt lat="46.1070864" lon="12.191079"><ele>355.0</ele><time>2026-04-25T10:58:38.446Z</time></trkpt><trkpt lat="46.1071676" lon="12.1910396"><ele>355.0</ele><time>2026-04-25T10:58:45.446Z</time></trkpt><trkpt lat="46.1072588" lon="12.1910825"><ele>355.0</ele><time>2026-04-25T10:58:47.447Z</time></trkpt><trkpt lat="46.1073691" lon="12.1911457"><ele>355.0</ele><time>2026-04-25T10:58:49.445Z</time></trkpt><trkpt lat="46.1074314" lon="12.1911762"><ele>355.0</ele><time>2026-04-25T10:58:50.453Z</time></trkpt><trkpt lat="46.1074953" lon="12.1911988"><ele>355.0</ele><time>2026-04-25T10:58:51.443Z</time></trkpt><trkpt lat="46.1075603" lon="12.1912123"><ele>355.0</ele><time>2026-04-25T10:58:52.443Z</time></trkpt><trkpt lat="46.1076253" lon="12.191226"><ele>355.0</ele><time>2026-04-25T10:58:53.444Z</time></trkpt><trkpt lat="46.1076922" lon="12.1912367"><ele>355.0</ele><time>2026-04-25T10:58:54.445Z</time></trkpt><trkpt lat="46.1077595" lon="12.1912363"><ele>355.0</ele><time>2026-04-25T10:58:55.447Z</time></trkpt><trkpt lat="46.1078261" lon="12.1912231"><ele>355.0</ele><time>2026-04-25T10:58:56.457Z</time></trkpt><trkpt lat="46.1078925" lon="12.1912129"><ele>355.0</ele><time>2026-04-25T10:58:57.457Z</time></trkpt><trkpt lat="46.107961" lon="12.191202"><ele>355.0</ele><time>2026-04-25T10:58:58.455Z</time></trkpt><trkpt lat="46.1080272" lon="12.1911815"><ele>355.0</ele><time>2026-04-25T10:58:59.445Z</time></trkpt><trkpt lat="46.1080951" lon="12.1911448"><ele>355.0</ele><time>2026-04-25T10:59:00.457Z</time></trkpt><trkpt lat="46.1081564" lon="12.1910973"><ele>355.0</ele><time>2026-04-25T10:59:01.453Z</time></trkpt><trkpt lat="46.1082209" lon="12.1910486"><ele>355.0</ele><time>2026-04-25T10:59:02.455Z</time></trkpt><trkpt lat="46.1082796" lon="12.1909915"><ele>355.0</ele><time>2026-04-25T10:59:03.445Z</time></trkpt><trkpt lat="46.1083397" lon="12.1909321"><ele>354.8333333333333</ele><time>2026-04-25T10:59:04.446Z</time></trkpt><trkpt lat="46.1084" lon="12.190873"><ele>354.66666666666663</ele><time>2026-04-25T10:59:05.46Z</time></trkpt><trkpt lat="46.1084606" lon="12.1908099"><ele>354.5</ele><time>2026-04-25T10:59:06.444Z</time></trkpt><trkpt lat="46.1085263" lon="12.1907497"><ele>354.3333333333333</ele><time>2026-04-25T10:59:07.444Z</time></trkpt><trkpt lat="46.1085932" lon="12.190692"><ele>354.1666666666667</ele><time>2026-04-25T10:59:08.459Z</time></trkpt><trkpt lat="46.1086551" lon="12.1906343"><ele>354.0</ele><time>2026-04-25T10:59:09.455Z</time></trkpt><trkpt lat="46.1087216" lon="12.1905774"><ele>353.7142857142857</ele><time>2026-04-25T10:59:10.451Z</time></trkpt><trkpt lat="46.1087857" lon="12.1905213"><ele>353.4285714285714</ele><time>2026-04-25T10:59:11.446Z</time></trkpt><trkpt lat="46.1088519" lon="12.1904654"><ele>353.1428571428571</ele><time>2026-04-25T10:59:12.445Z</time></trkpt><trkpt lat="46.1089161" lon="12.1904075"><ele>352.8571428571429</ele><time>2026-04-25T10:59:13.462Z</time></trkpt><trkpt lat="46.1089789" lon="12.190354"><ele>352.57142857142856</ele><time>2026-04-25T10:59:14.442Z</time></trkpt><trkpt lat="46.1090447" lon="12.1903009"><ele>352.2857142857143</ele><time>2026-04-25T10:59:15.455Z</time></trkpt><trkpt lat="46.1091085" lon="12.1902498"><ele>352.0</ele><time>2026-04-25T10:59:16.454Z</time></trkpt><trkpt lat="46.109171" lon="12.1902015"><ele>352.0</ele><time>2026-04-25T10:59:17.444Z</time></trkpt><trkpt lat="46.1092352" lon="12.1901491"><ele>352.0</ele><time>2026-04-25T10:59:18.46Z</time></trkpt><trkpt lat="46.1092933" lon="12.1900901"><ele>352.0</ele><time>2026-04-25T10:59:19.454Z</time></trkpt><trkpt lat="46.1093556" lon="12.1900402"><ele>352.0</ele><time>2026-04-25T10:59:20.446Z</time></trkpt><trkpt lat="46.1094122" lon="12.1899877"><ele>352.0</ele><time>2026-04-25T10:59:21.465Z</time></trkpt><trkpt lat="46.1094692" lon="12.1899326"><ele>352.0</ele><time>2026-04-25T10:59:22.437Z</time></trkpt><trkpt lat="46.1095239" lon="12.1898753"><ele>352.0</ele><time>2026-04-25T10:59:23.466Z</time></trkpt><trkpt lat="46.1095814" lon="12.1898232"><ele>352.0</ele><time>2026-04-25T10:59:24.445Z</time></trkpt><trkpt lat="46.1096377" lon="12.1897656"><ele>352.0</ele><time>2026-04-25T10:59:25.444Z</time></trkpt><trkpt lat="46.1096926" lon="12.1897054"><ele>352.0</ele><time>2026-04-25T10:59:26.445Z</time></trkpt><trkpt lat="46.1097497" lon="12.1896523"><ele>352.0</ele><time>2026-04-25T10:59:27.445Z</time></trkpt><trkpt lat="46.1098064" lon="12.1895902"><ele>352.0</ele><time>2026-04-25T10:59:28.444Z</time></trkpt><trkpt lat="46.1098642" lon="12.1895279"><ele>352.0</ele><time>2026-04-25T10:59:29.444Z</time></trkpt><trkpt lat="46.1099218" lon="12.189467"><ele>352.0</ele><time>2026-04-25T10:59:30.447Z</time></trkpt><trkpt lat="46.1099792" lon="12.1894067"><ele>351.42857142857144</ele><time>2026-04-25T10:59:31.45Z</time></trkpt><trkpt lat="46.110036" lon="12.1893416"><ele>350.85714285714283</ele><time>2026-04-25T10:59:32.443Z</time></trkpt><trkpt lat="46.1100908" lon="12.1892796"><ele>350.2857142857143</ele><time>2026-04-25T10:59:33.445Z</time></trkpt><trkpt lat="46.110147" lon="12.1892216"><ele>349.7142857142857</ele><time>2026-04-25T10:59:34.454Z</time></trkpt><trkpt lat="46.1102044" lon="12.1891658"><ele>349.14285714285717</ele><time>2026-04-25T10:59:35.534Z</time></trkpt><trkpt lat="46.1102601" lon="12.1891164"><ele>348.57142857142856</ele><time>2026-04-25T10:59:36.445Z</time></trkpt><trkpt lat="46.1103197" lon="12.1890725"><ele>348.0</ele><time>2026-04-25T10:59:37.454Z</time></trkpt><trkpt lat="46.1103863" lon="12.1890422"><ele>348.0</ele><time>2026-04-25T10:59:38.448Z</time></trkpt><trkpt lat="46.110454" lon="12.1890262"><ele>348.0</ele><time>2026-04-25T10:59:39.444Z</time></trkpt><trkpt lat="46.1105239" lon="12.1890178"><ele>348.0</ele><time>2026-04-25T10:59:40.446Z</time></trkpt><trkpt lat="46.1105959" lon="12.1890123"><ele>348.0</ele><time>2026-04-25T10:59:41.445Z</time></trkpt><trkpt lat="46.1106634" lon="12.1890067"><ele>348.0</ele><time>2026-04-25T10:59:42.446Z</time></trkpt><trkpt lat="46.1107339" lon="12.1890044"><ele>348.0</ele><time>2026-04-25T10:59:43.456Z</time></trkpt><trkpt lat="46.1108021" lon="12.1889932"><ele>348.0</ele><time>2026-04-25T10:59:44.45Z</time></trkpt><trkpt lat="46.1108718" lon="12.1889818"><ele>347.57142857142856</ele><time>2026-04-25T10:59:45.445Z</time></trkpt><trkpt lat="46.1109394" lon="12.1889591"><ele>347.14285714285717</ele><time>2026-04-25T10:59:46.444Z</time></trkpt><trkpt lat="46.1110075" lon="12.1889369"><ele>346.7142857142857</ele><time>2026-04-25T10:59:47.443Z</time></trkpt><trkpt lat="46.1110774" lon="12.188915"><ele>346.2857142857143</ele><time>2026-04-25T10:59:48.445Z</time></trkpt><trkpt lat="46.1111427" lon="12.1888976"><ele>345.85714285714283</ele><time>2026-04-25T10:59:49.453Z</time></trkpt><trkpt lat="46.1112127" lon="12.1888697"><ele>345.42857142857144</ele><time>2026-04-25T10:59:50.45Z</time></trkpt><trkpt lat="46.1112869" lon="12.1888419"><ele>345.0</ele><time>2026-04-25T10:59:51.459Z</time></trkpt><trkpt lat="46.1113632" lon="12.1888217"><ele>345.0</ele><time>2026-04-25T10:59:52.446Z</time></trkpt><trkpt lat="46.1114357" lon="12.1888037"><ele>345.0</ele><time>2026-04-25T10:59:53.445Z</time></trkpt><trkpt lat="46.1115109" lon="12.18879"><ele>345.0</ele><time>2026-04-25T10:59:54.447Z</time></trkpt><trkpt lat="46.1115754" lon="12.1887748"><ele>345.0</ele><time>2026-04-25T10:59:55.462Z</time></trkpt><trkpt lat="46.111646" lon="12.1887633"><ele>345.0</ele><time>2026-04-25T10:59:56.453Z</time></trkpt><trkpt lat="46.1117217" lon="12.1887553"><ele>345.0</ele><time>2026-04-25T10:59:57.459Z</time></trkpt><trkpt lat="46.111794" lon="12.1887472"><ele>345.0</ele><time>2026-04-25T10:59:58.455Z</time></trkpt><trkpt lat="46.1118757" lon="12.188739"><ele>345.5</ele><time>2026-04-25T10:59:59.445Z</time></trkpt><trkpt lat="46.1119518" lon="12.1887193"><ele>346.0</ele><time>2026-04-25T11:00:00.449Z</time></trkpt><trkpt lat="46.1120205" lon="12.1887051"><ele>346.5</ele><time>2026-04-25T11:00:01.462Z</time></trkpt><trkpt lat="46.1120853" lon="12.1886617"><ele>347.0</ele><time>2026-04-25T11:00:02.443Z</time></trkpt><trkpt lat="46.1121568" lon="12.1885091"><ele>347.5</ele><time>2026-04-25T11:00:04.455Z</time></trkpt><trkpt lat="46.1122254" lon="12.1884138"><ele>348.0</ele><time>2026-04-25T11:00:06.446Z</time></trkpt><trkpt lat="46.1122969" lon="12.1883751"><ele>348.0</ele><time>2026-04-25T11:00:08.448Z</time></trkpt><trkpt lat="46.1123284" lon="12.1882893"><ele>348.0</ele><time>2026-04-25T11:01:20.459Z</time></trkpt><trkpt lat="46.11225" lon="12.1883137"><ele>348.0</ele><time>2026-04-25T11:01:24.455Z</time></trkpt><trkpt lat="46.1122046" lon="12.1884178"><ele>348.0</ele><time>2026-04-25T11:01:26.458Z</time></trkpt><trkpt lat="46.1121499" lon="12.1885189"><ele>348.0</ele><time>2026-04-25T11:01:28.448Z</time></trkpt><trkpt lat="46.1120888" lon="12.188622"><ele>348.0</ele><time>2026-04-25T11:01:30.454Z</time></trkpt><trkpt lat="46.112015" lon="12.1887092"><ele>348.0</ele><time>2026-04-25T11:01:32.443Z</time></trkpt><trkpt lat="46.1119007" lon="12.1887034"><ele>348.0</ele><time>2026-04-25T11:01:34.46Z</time></trkpt><trkpt lat="46.1117805" lon="12.1887313"><ele>348.0</ele><time>2026-04-25T11:01:36.457Z</time></trkpt><trkpt lat="46.1117155" lon="12.1887356"><ele>348.0</ele><time>2026-04-25T11:01:37.46Z</time></trkpt><trkpt lat="46.1116021" lon="12.1887467"><ele>348.0</ele><time>2026-04-25T11:01:39.442Z</time></trkpt><trkpt lat="46.1115212" lon="12.188762"><ele>347.5</ele><time>2026-04-25T11:01:41.445Z</time></trkpt><trkpt lat="46.111402" lon="12.1887879"><ele>347.0</ele><time>2026-04-25T11:01:43.446Z</time></trkpt><trkpt lat="46.1113379" lon="12.1888069"><ele>346.5</ele><time>2026-04-25T11:01:44.444Z</time></trkpt><trkpt lat="46.111274" lon="12.1888224"><ele>346.0</ele><time>2026-04-25T11:01:45.444Z</time></trkpt><trkpt lat="46.111148" lon="12.1888545"><ele>345.5</ele><time>2026-04-25T11:01:47.445Z</time></trkpt><trkpt lat="46.1110854" lon="12.188871"><ele>345.0</ele><time>2026-04-25T11:01:48.458Z</time></trkpt><trkpt lat="46.1110206" lon="12.1888923"><ele>345.0</ele><time>2026-04-25T11:01:49.457Z</time></trkpt><trkpt lat="46.1109013" lon="12.1889334"><ele>345.0</ele><time>2026-04-25T11:01:51.59Z</time></trkpt><trkpt lat="46.1107735" lon="12.1889693"><ele>345.0</ele><time>2026-04-25T11:01:53.464Z</time></trkpt><trkpt lat="46.1107102" lon="12.1889839"><ele>345.0</ele><time>2026-04-25T11:01:54.458Z</time></trkpt><trkpt lat="46.1105817" lon="12.1889947"><ele>345.0</ele><time>2026-04-25T11:01:56.468Z</time></trkpt><trkpt lat="46.1104658" lon="12.1890086"><ele>345.6</ele><time>2026-04-25T11:01:58.469Z</time></trkpt><trkpt lat="46.1104012" lon="12.1890168"><ele>346.2</ele><time>2026-04-25T11:01:59.458Z</time></trkpt><trkpt lat="46.110338" lon="12.1890342"><ele>346.79999999999995</ele><time>2026-04-25T11:02:00.452Z</time></trkpt><trkpt lat="46.1102266" lon="12.1891107"><ele>347.4</ele><time>2026-04-25T11:02:02.458Z</time></trkpt><trkpt lat="46.1101233" lon="12.1892068"><ele>348.0</ele><time>2026-04-25T11:02:04.455Z</time></trkpt><trkpt lat="46.1100186" lon="12.1893093"><ele>348.0</ele><time>2026-04-25T11:02:06.457Z</time></trkpt><trkpt lat="46.1099662" lon="12.1893638"><ele>348.0</ele><time>2026-04-25T11:02:07.459Z</time></trkpt><trkpt lat="46.1099145" lon="12.189417"><ele>348.0</ele><time>2026-04-25T11:02:08.463Z</time></trkpt><trkpt lat="46.1098135" lon="12.1895228"><ele>348.0</ele><time>2026-04-25T11:02:10.458Z</time></trkpt><trkpt lat="46.1097121" lon="12.1896265"><ele>348.0</ele><time>2026-04-25T11:02:12.456Z</time></trkpt><trkpt lat="46.1096584" lon="12.1896797"><ele>348.0</ele><time>2026-04-25T11:02:13.462Z</time></trkpt><trkpt lat="46.1096074" lon="12.1897393"><ele>348.6666666666667</ele><time>2026-04-25T11:02:14.447Z</time></trkpt><trkpt lat="46.1095567" lon="12.1897942"><ele>349.3333333333333</ele><time>2026-04-25T11:02:15.454Z</time></trkpt><trkpt lat="46.1094555" lon="12.1898989"><ele>350.0</ele><time>2026-04-25T11:02:17.456Z</time></trkpt><trkpt lat="46.109357" lon="12.1900111"><ele>350.66666666666663</ele><time>2026-04-25T11:02:19.456Z</time></trkpt><trkpt lat="46.1093031" lon="12.1900585"><ele>351.3333333333333</ele><time>2026-04-25T11:02:20.464Z</time></trkpt><trkpt lat="46.1092475" lon="12.1901035"><ele>352.0</ele><time>2026-04-25T11:02:21.452Z</time></trkpt><trkpt lat="46.1091924" lon="12.1901547"><ele>352.0</ele><time>2026-04-25T11:02:22.463Z</time></trkpt><trkpt lat="46.1091381" lon="12.1902026"><ele>352.0</ele><time>2026-04-25T11:02:23.452Z</time></trkpt><trkpt lat="46.1090312" lon="12.1902945"><ele>352.0</ele><time>2026-04-25T11:02:25.463Z</time></trkpt><trkpt lat="46.1089207" lon="12.19038"><ele>352.0</ele><time>2026-04-25T11:02:27.449Z</time></trkpt><trkpt lat="46.108814" lon="12.1904667"><ele>352.0</ele><time>2026-04-25T11:02:29.456Z</time></trkpt><trkpt lat="46.1087597" lon="12.1905128"><ele>352.0</ele><time>2026-04-25T11:02:30.471Z</time></trkpt><trkpt lat="46.1086526" lon="12.1906062"><ele>352.0</ele><time>2026-04-25T11:02:32.462Z</time></trkpt><trkpt lat="46.108546" lon="12.1907008"><ele>352.0</ele><time>2026-04-25T11:02:34.45Z</time></trkpt><trkpt lat="46.108443" lon="12.1907918"><ele>352.0</ele><time>2026-04-25T11:02:36.451Z</time></trkpt><trkpt lat="46.1083877" lon="12.1908378"><ele>352.0</ele><time>2026-04-25T11:02:37.459Z</time></trkpt><trkpt lat="46.1082924" lon="12.1909448"><ele>352.6</ele><time>2026-04-25T11:02:39.459Z</time></trkpt><trkpt lat="46.108239" lon="12.1909984"><ele>353.20000000000005</ele><time>2026-04-25T11:02:40.46Z</time></trkpt><trkpt lat="46.1081334" lon="12.1910833"><ele>353.8</ele><time>2026-04-25T11:02:42.458Z</time></trkpt><trkpt lat="46.1080234" lon="12.1911424"><ele>354.4</ele><time>2026-04-25T11:02:44.46Z</time></trkpt><trkpt lat="46.1079055" lon="12.1911792"><ele>355.0</ele><time>2026-04-25T11:02:46.461Z</time></trkpt><trkpt lat="46.1078435" lon="12.1911968"><ele>355.0</ele><time>2026-04-25T11:02:47.453Z</time></trkpt><trkpt lat="46.1077812" lon="12.19121"><ele>355.0</ele><time>2026-04-25T11:02:48.458Z</time></trkpt><trkpt lat="46.1076572" lon="12.1912111"><ele>355.0</ele><time>2026-04-25T11:02:50.453Z</time></trkpt><trkpt lat="46.1075376" lon="12.191173"><ele>355.0</ele><time>2026-04-25T11:02:52.457Z</time></trkpt><trkpt lat="46.1074137" lon="12.1911394"><ele>355.0</ele><time>2026-04-25T11:02:54.457Z</time></trkpt><trkpt lat="46.1073006" lon="12.1910887"><ele>355.66666666666663</ele><time>2026-04-25T11:02:56.454Z</time></trkpt><trkpt lat="46.1072405" lon="12.1910604"><ele>356.3333333333333</ele><time>2026-04-25T11:02:57.461Z</time></trkpt><trkpt lat="46.1071345" lon="12.1910497"><ele>357.0</ele><time>2026-04-25T11:02:59.455Z</time></trkpt><trkpt lat="46.1070427" lon="12.1910106"><ele>357.6666666666667</ele><time>2026-04-25T11:03:01.452Z</time></trkpt><trkpt lat="46.1069773" lon="12.1909256"><ele>358.33333333333337</ele><time>2026-04-25T11:03:04.447Z</time></trkpt><trkpt lat="46.1068941" lon="12.190887"><ele>359.0</ele><time>2026-04-25T11:03:06.464Z</time></trkpt><trkpt lat="46.106841" lon="12.1908122"><ele>359.0</ele><time>2026-04-25T11:03:08.469Z</time></trkpt><trkpt lat="46.1068138" lon="12.1907187"><ele>359.0</ele><time>2026-04-25T11:03:10.443Z</time></trkpt><trkpt lat="46.1067516" lon="12.190791"><ele>359.0</ele><time>2026-04-25T11:03:16.445Z</time></trkpt><trkpt lat="46.1066696" lon="12.1908417"><ele>359.0</ele><time>2026-04-25T11:03:20.448Z</time></trkpt><trkpt lat="46.106637" lon="12.1907534"><ele>359.0</ele><time>2026-04-25T11:03:22.447Z</time></trkpt><trkpt lat="46.1066222" lon="12.1906503"><ele>359.0</ele><time>2026-04-25T11:03:24.444Z</time></trkpt><trkpt lat="46.1066179" lon="12.1907424"><ele>359.0</ele><time>2026-04-25T11:03:29.444Z</time></trkpt><trkpt lat="46.1066413" lon="12.1908481"><ele>359.0</ele><time>2026-04-25T11:03:31.444Z</time></trkpt><trkpt lat="46.1066653" lon="12.1909774"><ele>359.0</ele><time>2026-04-25T11:03:33.444Z</time></trkpt><trkpt lat="46.1066904" lon="12.1910814"><ele>359.0</ele><time>2026-04-25T11:03:35.456Z</time></trkpt><trkpt lat="46.1066006" lon="12.1910825"><ele>359.0</ele><time>2026-04-25T11:03:38.449Z</time></trkpt><trkpt lat="46.1065165" lon="12.1910551"><ele>359.0</ele><time>2026-04-25T11:03:40.452Z</time></trkpt><trkpt lat="46.1064213" lon="12.1910337"><ele>359.0</ele><time>2026-04-25T11:03:42.453Z</time></trkpt><trkpt lat="46.1063209" lon="12.1910178"><ele>359.4</ele><time>2026-04-25T11:03:44.462Z</time></trkpt><trkpt lat="46.1062189" lon="12.1910054"><ele>359.79999999999995</ele><time>2026-04-25T11:03:46.448Z</time></trkpt><trkpt lat="46.1061148" lon="12.190997"><ele>360.20000000000005</ele><time>2026-04-25T11:03:48.45Z</time></trkpt><trkpt lat="46.1060018" lon="12.1909905"><ele>360.6</ele><time>2026-04-25T11:03:50.464Z</time></trkpt><trkpt lat="46.1059036" lon="12.190919"><ele>361.0</ele><time>2026-04-25T11:03:52.457Z</time></trkpt><trkpt lat="46.1058258" lon="12.1908074"><ele>361.0</ele><time>2026-04-25T11:03:54.454Z</time></trkpt><trkpt lat="46.1057511" lon="12.1906893"><ele>361.0</ele><time>2026-04-25T11:03:56.462Z</time></trkpt><trkpt lat="46.1056754" lon="12.1905561"><ele>361.0</ele><time>2026-04-25T11:03:58.453Z</time></trkpt><trkpt lat="46.105637" lon="12.1904837"><ele>361.0</ele><time>2026-04-25T11:03:59.447Z</time></trkpt><trkpt lat="46.1055567" lon="12.1903497"><ele>361.0</ele><time>2026-04-25T11:04:01.456Z</time></trkpt><trkpt lat="46.1055156" lon="12.1902806"><ele>360.8333333333333</ele><time>2026-04-25T11:04:02.456Z</time></trkpt><trkpt lat="46.1054356" lon="12.1901379"><ele>360.66666666666663</ele><time>2026-04-25T11:04:04.448Z</time></trkpt><trkpt lat="46.1053594" lon="12.1900029"><ele>360.5</ele><time>2026-04-25T11:04:06.456Z</time></trkpt><trkpt lat="46.1053188" lon="12.1899322"><ele>360.3333333333333</ele><time>2026-04-25T11:04:07.451Z</time></trkpt><trkpt lat="46.1052791" lon="12.1898584"><ele>360.1666666666667</ele><time>2026-04-25T11:04:08.454Z</time></trkpt><trkpt lat="46.1052377" lon="12.1897867"><ele>360.0</ele><time>2026-04-25T11:04:09.446Z</time></trkpt><trkpt lat="46.1051954" lon="12.1897188"><ele>360.0</ele><time>2026-04-25T11:04:10.447Z</time></trkpt><trkpt lat="46.1051523" lon="12.18965"><ele>360.0</ele><time>2026-04-25T11:04:11.451Z</time></trkpt><trkpt lat="46.1051091" lon="12.1895824"><ele>360.0</ele><time>2026-04-25T11:04:12.447Z</time></trkpt><trkpt lat="46.1050231" lon="12.1894494"><ele>360.0</ele><time>2026-04-25T11:04:14.452Z</time></trkpt><trkpt lat="46.1049771" lon="12.1893867"><ele>360.0</ele><time>2026-04-25T11:04:15.46Z</time></trkpt><trkpt lat="46.1048815" lon="12.1892734"><ele>360.0</ele><time>2026-04-25T11:04:17.45Z</time></trkpt><trkpt lat="46.1047765" lon="12.1891837"><ele>360.0</ele><time>2026-04-25T11:04:19.445Z</time></trkpt><trkpt lat="46.1046618" lon="12.1891129"><ele>360.0</ele><time>2026-04-25T11:04:21.446Z</time></trkpt><trkpt lat="46.1046032" lon="12.1890764"><ele>360.0</ele><time>2026-04-25T11:04:22.455Z</time></trkpt><trkpt lat="46.1045162" lon="12.1889495"><ele>360.0</ele><time>2026-04-25T11:04:24.447Z</time></trkpt><trkpt lat="46.1044828" lon="12.1888719"><ele>360.0</ele><time>2026-04-25T11:04:25.453Z</time></trkpt><trkpt lat="46.1044512" lon="12.1887906"><ele>360.0</ele><time>2026-04-25T11:04:26.455Z</time></trkpt><trkpt lat="46.1044221" lon="12.1887026"><ele>359.7142857142857</ele><time>2026-04-25T11:04:27.449Z</time></trkpt><trkpt lat="46.1043874" lon="12.1886157"><ele>359.42857142857144</ele><time>2026-04-25T11:04:28.455Z</time></trkpt><trkpt lat="46.1043565" lon="12.1885306"><ele>359.14285714285717</ele><time>2026-04-25T11:04:29.464Z</time></trkpt><trkpt lat="46.1043273" lon="12.1884367"><ele>358.8571428571429</ele><time>2026-04-25T11:04:30.455Z</time></trkpt><trkpt lat="46.1042954" lon="12.1883422"><ele>358.57142857142856</ele><time>2026-04-25T11:04:31.448Z</time></trkpt><trkpt lat="46.1042662" lon="12.1882502"><ele>358.28571428571433</ele><time>2026-04-25T11:04:32.463Z</time></trkpt><trkpt lat="46.1042298" lon="12.1881562"><ele>358.0</ele><time>2026-04-25T11:04:33.455Z</time></trkpt><trkpt lat="46.1041996" lon="12.1880712"><ele>357.79999999999995</ele><time>2026-04-25T11:04:34.45Z</time></trkpt><trkpt lat="46.1041695" lon="12.1879788"><ele>357.6</ele><time>2026-04-25T11:04:35.442Z</time></trkpt><trkpt lat="46.1041414" lon="12.1878916"><ele>357.4</ele><time>2026-04-25T11:04:36.441Z</time></trkpt><trkpt lat="46.1041142" lon="12.1878034"><ele>357.20000000000005</ele><time>2026-04-25T11:04:37.462Z</time></trkpt><trkpt lat="46.1040664" lon="12.1876329"><ele>357.0</ele><time>2026-04-25T11:04:39.455Z</time></trkpt><trkpt lat="46.1040125" lon="12.1874685"><ele>356.7142857142857</ele><time>2026-04-25T11:04:41.447Z</time></trkpt><trkpt lat="46.1039874" lon="12.1873819"><ele>356.42857142857144</ele><time>2026-04-25T11:04:42.455Z</time></trkpt><trkpt lat="46.1039593" lon="12.1872973"><ele>356.1428571428571</ele><time>2026-04-25T11:04:43.455Z</time></trkpt><trkpt lat="46.1039388" lon="12.187207"><ele>355.8571428571429</ele><time>2026-04-25T11:04:44.457Z</time></trkpt><trkpt lat="46.1039277" lon="12.1871124"><ele>355.57142857142856</ele><time>2026-04-25T11:04:45.454Z</time></trkpt><trkpt lat="46.1039166" lon="12.187018"><ele>355.2857142857143</ele><time>2026-04-25T11:04:46.456Z</time></trkpt><trkpt lat="46.1039088" lon="12.186918"><ele>355.0</ele><time>2026-04-25T11:04:47.45Z</time></trkpt><trkpt lat="46.1039118" lon="12.1868204"><ele>354.85714285714283</ele><time>2026-04-25T11:04:48.463Z</time></trkpt><trkpt lat="46.1039049" lon="12.1867229"><ele>354.7142857142857</ele><time>2026-04-25T11:04:49.455Z</time></trkpt><trkpt lat="46.1038985" lon="12.1866275"><ele>354.57142857142856</ele><time>2026-04-25T11:04:50.464Z</time></trkpt><trkpt lat="46.1038911" lon="12.1865243"><ele>354.42857142857144</ele><time>2026-04-25T11:04:51.455Z</time></trkpt><trkpt lat="46.1038885" lon="12.1864269"><ele>354.2857142857143</ele><time>2026-04-25T11:04:52.445Z</time></trkpt><trkpt lat="46.1038849" lon="12.1863315"><ele>354.14285714285717</ele><time>2026-04-25T11:04:53.448Z</time></trkpt><trkpt lat="46.1038799" lon="12.1862305"><ele>354.0</ele><time>2026-04-25T11:04:54.445Z</time></trkpt><trkpt lat="46.10388" lon="12.1861296"><ele>354.0</ele><time>2026-04-25T11:04:55.446Z</time></trkpt><trkpt lat="46.1038785" lon="12.186032"><ele>354.0</ele><time>2026-04-25T11:04:56.455Z</time></trkpt><trkpt lat="46.1038736" lon="12.1859336"><ele>354.0</ele><time>2026-04-25T11:04:57.454Z</time></trkpt><trkpt lat="46.1038677" lon="12.185841"><ele>354.0</ele><time>2026-04-25T11:04:58.452Z</time></trkpt><trkpt lat="46.1038665" lon="12.1857438"><ele>354.0</ele><time>2026-04-25T11:04:59.455Z</time></trkpt><trkpt lat="46.1038673" lon="12.1856429"><ele>354.0</ele><time>2026-04-25T11:05:00.45Z</time></trkpt><trkpt lat="46.1038645" lon="12.1855426"><ele>354.0</ele><time>2026-04-25T11:05:01.455Z</time></trkpt><trkpt lat="46.1038601" lon="12.1854472"><ele>353.8333333333333</ele><time>2026-04-25T11:05:02.444Z</time></trkpt><trkpt lat="46.1038588" lon="12.1853479"><ele>353.6666666666667</ele><time>2026-04-25T11:05:03.451Z</time></trkpt><trkpt lat="46.1038556" lon="12.1852517"><ele>353.5</ele><time>2026-04-25T11:05:04.462Z</time></trkpt><trkpt lat="46.1038479" lon="12.1851581"><ele>353.33333333333337</ele><time>2026-04-25T11:05:05.463Z</time></trkpt><trkpt lat="46.1038467" lon="12.1850597"><ele>353.1666666666667</ele><time>2026-04-25T11:05:06.455Z</time></trkpt><trkpt lat="46.1038488" lon="12.1849653"><ele>353.0</ele><time>2026-04-25T11:05:07.576Z</time></trkpt><trkpt lat="46.1038615" lon="12.1847717"><ele>352.7142857142857</ele><time>2026-04-25T11:05:09.454Z</time></trkpt><trkpt lat="46.1038599" lon="12.1846793"><ele>352.42857142857144</ele><time>2026-04-25T11:05:10.451Z</time></trkpt><trkpt lat="46.1038529" lon="12.1845815"><ele>352.14285714285717</ele><time>2026-04-25T11:05:11.463Z</time></trkpt><trkpt lat="46.1038444" lon="12.1844842"><ele>351.8571428571429</ele><time>2026-04-25T11:05:12.447Z</time></trkpt><trkpt lat="46.1038302" lon="12.1843874"><ele>351.57142857142856</ele><time>2026-04-25T11:05:13.445Z</time></trkpt><trkpt lat="46.1038215" lon="12.1842878"><ele>351.28571428571433</ele><time>2026-04-25T11:05:14.453Z</time></trkpt><trkpt lat="46.1038113" lon="12.1841834"><ele>351.0</ele><time>2026-04-25T11:05:15.45Z</time></trkpt><trkpt lat="46.1038015" lon="12.1840861"><ele>350.6666666666667</ele><time>2026-04-25T11:05:16.455Z</time></trkpt><trkpt lat="46.1037898" lon="12.1839889"><ele>350.3333333333333</ele><time>2026-04-25T11:05:17.452Z</time></trkpt><trkpt lat="46.1037702" lon="12.1838945"><ele>350.0</ele><time>2026-04-25T11:05:18.441Z</time></trkpt><trkpt lat="46.1037356" lon="12.1838113"><ele>349.66666666666663</ele><time>2026-04-25T11:05:19.446Z</time></trkpt><trkpt lat="46.103694" lon="12.1837415"><ele>349.3333333333333</ele><time>2026-04-25T11:05:20.452Z</time></trkpt><trkpt lat="46.1036518" lon="12.1835675"><ele>349.0</ele><time>2026-04-25T11:05:22.445Z</time></trkpt><trkpt lat="46.103635" lon="12.1834726"><ele>348.99999999999994</ele><time>2026-04-25T11:05:23.454Z</time></trkpt><trkpt lat="46.1036236" lon="12.1833757"><ele>349.0</ele><time>2026-04-25T11:05:24.453Z</time></trkpt><trkpt lat="46.1036134" lon="12.1832755"><ele>349.0</ele><time>2026-04-25T11:05:25.446Z</time></trkpt><trkpt lat="46.1035967" lon="12.1831739"><ele>349.0</ele><time>2026-04-25T11:05:26.449Z</time></trkpt><trkpt lat="46.103568" lon="12.1830702"><ele>349.0</ele><time>2026-04-25T11:05:27.45Z</time></trkpt><trkpt lat="46.1035277" lon="12.1829808"><ele>348.99999999999994</ele><time>2026-04-25T11:05:28.464Z</time></trkpt><trkpt lat="46.1034808" lon="12.1829091"><ele>349.0</ele><time>2026-04-25T11:05:29.454Z</time></trkpt><trkpt lat="46.1034558" lon="12.1827388"><ele>348.4</ele><time>2026-04-25T11:05:31.453Z</time></trkpt><trkpt lat="46.103451" lon="12.1826125"><ele>347.79999999999995</ele><time>2026-04-25T11:05:33.455Z</time></trkpt><trkpt lat="46.1034044" lon="12.1824798"><ele>347.20000000000005</ele><time>2026-04-25T11:05:35.454Z</time></trkpt><trkpt lat="46.103348" lon="12.1823308"><ele>346.6</ele><time>2026-04-25T11:05:37.45Z</time></trkpt><trkpt lat="46.1032796" lon="12.1822005"><ele>346.0</ele><time>2026-04-25T11:05:39.444Z</time></trkpt><trkpt lat="46.1032016" lon="12.1820867"><ele>345.6</ele><time>2026-04-25T11:05:41.454Z</time></trkpt><trkpt lat="46.1031131" lon="12.1819908"><ele>345.20000000000005</ele><time>2026-04-25T11:05:43.448Z</time></trkpt><trkpt lat="46.1030077" lon="12.1818835"><ele>344.79999999999995</ele><time>2026-04-25T11:05:45.447Z</time></trkpt><trkpt lat="46.1029457" lon="12.1818325"><ele>344.4</ele><time>2026-04-25T11:05:46.463Z</time></trkpt><trkpt lat="46.102886" lon="12.1817737"><ele>344.0</ele><time>2026-04-25T11:05:47.456Z</time></trkpt><trkpt lat="46.1028185" lon="12.1817125"><ele>344.0</ele><time>2026-04-25T11:05:48.456Z</time></trkpt><trkpt lat="46.1027492" lon="12.1816788"><ele>344.0</ele><time>2026-04-25T11:05:49.441Z</time></trkpt><trkpt lat="46.1026765" lon="12.1816288"><ele>344.0</ele><time>2026-04-25T11:05:52.452Z</time></trkpt><trkpt lat="46.1027476" lon="12.1815882"><ele>344.0</ele><time>2026-04-25T11:05:56.451Z</time></trkpt><trkpt lat="46.1028176" lon="12.181558"><ele>344.0</ele><time>2026-04-25T11:05:58.46Z</time></trkpt><trkpt lat="46.1029166" lon="12.1814775"><ele>344.0</ele><time>2026-04-25T11:06:00.447Z</time></trkpt><trkpt lat="46.1029566" lon="12.1813495"><ele>343.83333333333337</ele><time>2026-04-25T11:06:02.45Z</time></trkpt><trkpt lat="46.1028993" lon="12.1812814"><ele>343.6666666666667</ele><time>2026-04-25T11:06:03.444Z</time></trkpt><trkpt lat="46.1028217" lon="12.1811434"><ele>343.5</ele><time>2026-04-25T11:06:05.438Z</time></trkpt><trkpt lat="46.1027773" lon="12.1810644"><ele>343.3333333333333</ele><time>2026-04-25T11:06:06.464Z</time></trkpt><trkpt lat="46.1027339" lon="12.1809807"><ele>343.16666666666663</ele><time>2026-04-25T11:06:07.458Z</time></trkpt><trkpt lat="46.1026978" lon="12.1808876"><ele>343.0</ele><time>2026-04-25T11:06:08.449Z</time></trkpt><trkpt lat="46.1026693" lon="12.1807949"><ele>343.0</ele><time>2026-04-25T11:06:09.454Z</time></trkpt><trkpt lat="46.1026329" lon="12.1807021"><ele>343.0</ele><time>2026-04-25T11:06:10.453Z</time></trkpt><trkpt lat="46.1025927" lon="12.1806094"><ele>343.0</ele><time>2026-04-25T11:06:11.463Z</time></trkpt><trkpt lat="46.1025503" lon="12.1805301"><ele>343.0</ele><time>2026-04-25T11:06:12.441Z</time></trkpt><trkpt lat="46.1025038" lon="12.1804486"><ele>343.0</ele><time>2026-04-25T11:06:13.444Z</time></trkpt><trkpt lat="46.1025024" lon="12.180292"><ele>343.0</ele><time>2026-04-25T11:06:15.455Z</time></trkpt><trkpt lat="46.1025657" lon="12.1802028"><ele>343.0</ele><time>2026-04-25T11:06:17.444Z</time></trkpt><trkpt lat="46.1026639" lon="12.1801119"><ele>343.0</ele><time>2026-04-25T11:06:19.44Z</time></trkpt><trkpt lat="46.1027176" lon="12.1800507"><ele>343.0</ele><time>2026-04-25T11:06:20.442Z</time></trkpt><trkpt lat="46.1027805" lon="12.1799156"><ele>343.0</ele><time>2026-04-25T11:06:22.454Z</time></trkpt><trkpt lat="46.1028379" lon="12.1797648"><ele>343.0</ele><time>2026-04-25T11:06:24.453Z</time></trkpt><trkpt lat="46.1029362" lon="12.1797005"><ele>343.0</ele><time>2026-04-25T11:06:26.456Z</time></trkpt><trkpt lat="46.1030288" lon="12.1796783"><ele>343.0</ele><time>2026-04-25T11:06:28.438Z</time></trkpt><trkpt lat="46.1031197" lon="12.1796649"><ele>343.0</ele><time>2026-04-25T11:06:30.453Z</time></trkpt><trkpt lat="46.1031972" lon="12.179643"><ele>343.0</ele><time>2026-04-25T11:06:32.462Z</time></trkpt><trkpt lat="46.1032864" lon="12.1796244"><ele>343.0</ele><time>2026-04-25T11:06:35.463Z</time></trkpt><trkpt lat="46.1033714" lon="12.1796127"><ele>343.0</ele><time>2026-04-25T11:06:38.45Z</time></trkpt><trkpt lat="46.1034403" lon="12.1796053"><ele>342.59999999999997</ele><time>2026-04-25T11:06:41.454Z</time></trkpt><trkpt lat="46.1034913" lon="12.1794607"><ele>342.2</ele><time>2026-04-25T11:06:45.442Z</time></trkpt><trkpt lat="46.1034774" lon="12.1793399"><ele>341.8</ele><time>2026-04-25T11:06:47.459Z</time></trkpt><trkpt lat="46.1034476" lon="12.1791942"><ele>341.4</ele><time>2026-04-25T11:06:49.45Z</time></trkpt><trkpt lat="46.1034248" lon="12.179049"><ele>341.0</ele><time>2026-04-25T11:06:51.464Z</time></trkpt><trkpt lat="46.1033961" lon="12.1788948"><ele>340.75</ele><time>2026-04-25T11:06:53.464Z</time></trkpt><trkpt lat="46.1033713" lon="12.1787466"><ele>340.5</ele><time>2026-04-25T11:06:55.447Z</time></trkpt><trkpt lat="46.1033572" lon="12.1785904"><ele>340.25</ele><time>2026-04-25T11:06:57.45Z</time></trkpt><trkpt lat="46.1033431" lon="12.1784133"><ele>340.0</ele><time>2026-04-25T11:06:59.453Z</time></trkpt><trkpt lat="46.1033237" lon="12.1782381"><ele>340.25</ele><time>2026-04-25T11:07:01.447Z</time></trkpt><trkpt lat="46.1033148" lon="12.1780599"><ele>340.5</ele><time>2026-04-25T11:07:03.446Z</time></trkpt><trkpt lat="46.1033139" lon="12.1778897"><ele>340.75</ele><time>2026-04-25T11:07:05.439Z</time></trkpt><trkpt lat="46.1033254" lon="12.1777166"><ele>341.0</ele><time>2026-04-25T11:07:07.455Z</time></trkpt><trkpt lat="46.103332" lon="12.1775515"><ele>341.0</ele><time>2026-04-25T11:07:09.442Z</time></trkpt><trkpt lat="46.1033136" lon="12.1773868"><ele>341.0</ele><time>2026-04-25T11:07:11.452Z</time></trkpt><trkpt lat="46.1032788" lon="12.177299"><ele>341.0</ele><time>2026-04-25T11:07:12.444Z</time></trkpt><trkpt lat="46.1032483" lon="12.1772128"><ele>341.0</ele><time>2026-04-25T11:07:13.445Z</time></trkpt><trkpt lat="46.1032122" lon="12.1771314"><ele>341.0</ele><time>2026-04-25T11:07:14.451Z</time></trkpt><trkpt lat="46.1031788" lon="12.1770421"><ele>341.0</ele><time>2026-04-25T11:07:15.455Z</time></trkpt><trkpt lat="46.1031229" lon="12.1768722"><ele>339.85714285714283</ele><time>2026-04-25T11:07:17.454Z</time></trkpt><trkpt lat="46.1031011" lon="12.1767821"><ele>338.7142857142857</ele><time>2026-04-25T11:07:18.444Z</time></trkpt><trkpt lat="46.1030752" lon="12.1766978"><ele>337.57142857142856</ele><time>2026-04-25T11:07:19.454Z</time></trkpt><trkpt lat="46.1030556" lon="12.1766057"><ele>336.42857142857144</ele><time>2026-04-25T11:07:20.453Z</time></trkpt><trkpt lat="46.1030426" lon="12.1765086"><ele>335.2857142857143</ele><time>2026-04-25T11:07:21.447Z</time></trkpt><trkpt lat="46.1030373" lon="12.1764152"><ele>334.14285714285717</ele><time>2026-04-25T11:07:22.441Z</time></trkpt><trkpt lat="46.1030359" lon="12.1763167"><ele>333.0</ele><time>2026-04-25T11:07:23.451Z</time></trkpt><trkpt lat="46.1030411" lon="12.176226"><ele>332.79999999999995</ele><time>2026-04-25T11:07:24.449Z</time></trkpt><trkpt lat="46.1030552" lon="12.1761287"><ele>332.6</ele><time>2026-04-25T11:07:25.452Z</time></trkpt><trkpt lat="46.1030778" lon="12.1760414"><ele>332.4</ele><time>2026-04-25T11:07:26.449Z</time></trkpt><trkpt lat="46.1031217" lon="12.1758699"><ele>332.20000000000005</ele><time>2026-04-25T11:07:28.456Z</time></trkpt><trkpt lat="46.1031403" lon="12.1756928"><ele>332.0</ele><time>2026-04-25T11:07:30.455Z</time></trkpt><trkpt lat="46.1031251" lon="12.1756005"><ele>332.0</ele><time>2026-04-25T11:07:31.443Z</time></trkpt><trkpt lat="46.1031042" lon="12.1754223"><ele>332.0</ele><time>2026-04-25T11:07:33.455Z</time></trkpt><trkpt lat="46.1030599" lon="12.1753409"><ele>332.0</ele><time>2026-04-25T11:07:34.442Z</time></trkpt><trkpt lat="46.1030206" lon="12.1752677"><ele>332.0</ele><time>2026-04-25T11:07:35.448Z</time></trkpt><trkpt lat="46.1029409" lon="12.1751363"><ele>332.0</ele><time>2026-04-25T11:07:37.442Z</time></trkpt><trkpt lat="46.1028691" lon="12.1750255"><ele>332.0</ele><time>2026-04-25T11:07:39.444Z</time></trkpt><trkpt lat="46.1028055" lon="12.174916"><ele>332.0</ele><time>2026-04-25T11:07:41.45Z</time></trkpt><trkpt lat="46.1027485" lon="12.1748205"><ele>332.0</ele><time>2026-04-25T11:07:43.451Z</time></trkpt><trkpt lat="46.1027022" lon="12.1747263"><ele>332.0</ele><time>2026-04-25T11:07:45.449Z</time></trkpt><trkpt lat="46.1026695" lon="12.174619"><ele>332.0</ele><time>2026-04-25T11:07:48.446Z</time></trkpt><trkpt lat="46.1026497" lon="12.1745296"><ele>332.0</ele><time>2026-04-25T11:07:50.439Z</time></trkpt><trkpt lat="46.1026224" lon="12.17443"><ele>330.8</ele><time>2026-04-25T11:07:52.447Z</time></trkpt><trkpt lat="46.1025853" lon="12.174311"><ele>329.6</ele><time>2026-04-25T11:07:54.445Z</time></trkpt><trkpt lat="46.102538" lon="12.1741732"><ele>328.40000000000003</ele><time>2026-04-25T11:07:56.438Z</time></trkpt><trkpt lat="46.1024671" lon="12.1740384"><ele>327.20000000000005</ele><time>2026-04-25T11:07:58.461Z</time></trkpt><trkpt lat="46.1024049" lon="12.173964"><ele>326.0</ele><time>2026-04-25T11:08:00.44Z</time></trkpt><trkpt lat="46.102397" lon="12.1738622"><ele>325.6666666666667</ele><time>2026-04-25T11:08:02.448Z</time></trkpt><trkpt lat="46.102376" lon="12.1737683"><ele>325.33333333333337</ele><time>2026-04-25T11:08:06.455Z</time></trkpt><trkpt lat="46.102378" lon="12.1736757"><ele>325.0</ele><time>2026-04-25T11:08:08.442Z</time></trkpt><trkpt lat="46.1023815" lon="12.1735796"><ele>324.6666666666667</ele><time>2026-04-25T11:08:11.443Z</time></trkpt><trkpt lat="46.1023445" lon="12.1734339"><ele>324.3333333333333</ele><time>2026-04-25T11:08:13.567Z</time></trkpt><trkpt lat="46.102319" lon="12.1733277"><ele>324.0</ele><time>2026-04-25T11:08:15.454Z</time></trkpt><trkpt lat="46.1022992" lon="12.1732271"><ele>324.0</ele><time>2026-04-25T11:09:24.451Z</time></trkpt></trkseg><trkseg><trkpt lat="46.0871411" lon="12.1311187"><ele>310.0</ele><time>2026-04-25T11:38:05.443Z</time></trkpt><trkpt lat="46.0872163" lon="12.1310328"><ele>310.0</ele><time>2026-04-25T11:38:09.442Z</time></trkpt><trkpt lat="46.0872957" lon="12.1309641"><ele>310.0</ele><time>2026-04-25T11:38:11.45Z</time></trkpt><trkpt lat="46.0873793" lon="12.1308942"><ele>310.0</ele><time>2026-04-25T11:38:13.449Z</time></trkpt><trkpt lat="46.0874571" lon="12.1308082"><ele>310.0</ele><time>2026-04-25T11:38:15.443Z</time></trkpt><trkpt lat="46.087525" lon="12.1306901"><ele>309.0</ele><time>2026-04-25T11:38:17.444Z</time></trkpt><trkpt lat="46.0875649" lon="12.13061"><ele>308.0</ele><time>2026-04-25T11:38:19.444Z</time></trkpt><trkpt lat="46.0876335" lon="12.1305439"><ele>307.0</ele><time>2026-04-25T11:38:21.449Z</time></trkpt><trkpt lat="46.0877344" lon="12.1304606"><ele>306.0</ele><time>2026-04-25T11:38:23.441Z</time></trkpt><trkpt lat="46.087842" lon="12.130366"><ele>305.0</ele><time>2026-04-25T11:38:25.442Z</time></trkpt><trkpt lat="46.0879507" lon="12.1302692"><ele>305.0</ele><time>2026-04-25T11:38:27.448Z</time></trkpt><trkpt lat="46.0880593" lon="12.1301788"><ele>305.0</ele><time>2026-04-25T11:38:29.44Z</time></trkpt><trkpt lat="46.0881698" lon="12.1300892"><ele>305.0</ele><time>2026-04-25T11:38:31.442Z</time></trkpt><trkpt lat="46.0882725" lon="12.1300037"><ele>305.0</ele><time>2026-04-25T11:38:33.444Z</time></trkpt><trkpt lat="46.0883688" lon="12.1298989"><ele>304.5</ele><time>2026-04-25T11:38:35.448Z</time></trkpt><trkpt lat="46.0884646" lon="12.1297988"><ele>304.0</ele><time>2026-04-25T11:38:37.441Z</time></trkpt><trkpt lat="46.0885205" lon="12.129756"><ele>303.5</ele><time>2026-04-25T11:38:38.448Z</time></trkpt><trkpt lat="46.0885945" lon="12.1296717"><ele>303.0</ele><time>2026-04-25T11:38:40.446Z</time></trkpt><trkpt lat="46.0885992" lon="12.1295455"><ele>302.5</ele><time>2026-04-25T11:38:42.441Z</time></trkpt><trkpt lat="46.0885863" lon="12.1294426"><ele>302.0</ele><time>2026-04-25T11:38:44.444Z</time></trkpt><trkpt lat="46.0886689" lon="12.1295015"><ele>302.0</ele><time>2026-04-25T11:38:48.451Z</time></trkpt><trkpt lat="46.0887456" lon="12.1295342"><ele>302.0</ele><time>2026-04-25T11:38:50.45Z</time></trkpt><trkpt lat="46.0888358" lon="12.1294761"><ele>302.0</ele><time>2026-04-25T11:38:52.449Z</time></trkpt><trkpt lat="46.0889368" lon="12.1294028"><ele>302.0</ele><time>2026-04-25T11:38:54.45Z</time></trkpt><trkpt lat="46.0890442" lon="12.1293205"><ele>302.0</ele><time>2026-04-25T11:38:56.449Z</time></trkpt><trkpt lat="46.0891519" lon="12.1292297"><ele>302.2</ele><time>2026-04-25T11:38:58.449Z</time></trkpt><trkpt lat="46.0892532" lon="12.1291236"><ele>302.4</ele><time>2026-04-25T11:39:00.45Z</time></trkpt><trkpt lat="46.0892999" lon="12.1290603"><ele>302.6</ele><time>2026-04-25T11:39:01.451Z</time></trkpt><trkpt lat="46.0893934" lon="12.1289451"><ele>302.8</ele><time>2026-04-25T11:39:03.442Z</time></trkpt><trkpt lat="46.0894881" lon="12.1288325"><ele>303.0</ele><time>2026-04-25T11:39:05.443Z</time></trkpt><trkpt lat="46.0895341" lon="12.1287703"><ele>303.0</ele><time>2026-04-25T11:39:06.45Z</time></trkpt><trkpt lat="46.0895787" lon="12.1287018"><ele>303.0</ele><time>2026-04-25T11:39:07.441Z</time></trkpt><trkpt lat="46.0896259" lon="12.1286399"><ele>303.0</ele><time>2026-04-25T11:39:08.45Z</time></trkpt><trkpt lat="46.0896704" lon="12.1285737"><ele>303.0</ele><time>2026-04-25T11:39:09.449Z</time></trkpt><trkpt lat="46.0897575" lon="12.1284476"><ele>303.0</ele><time>2026-04-25T11:39:11.45Z</time></trkpt><trkpt lat="46.0898381" lon="12.128314"><ele>303.0</ele><time>2026-04-25T11:39:13.438Z</time></trkpt><trkpt lat="46.0899184" lon="12.1281756"><ele>302.0</ele><time>2026-04-25T11:39:15.45Z</time></trkpt><trkpt lat="46.0899949" lon="12.1280327"><ele>301.0</ele><time>2026-04-25T11:39:17.451Z</time></trkpt><trkpt lat="46.090034" lon="12.1279597"><ele>300.0</ele><time>2026-04-25T11:39:18.45Z</time></trkpt><trkpt lat="46.0901053" lon="12.127818"><ele>299.0</ele><time>2026-04-25T11:39:20.452Z</time></trkpt><trkpt lat="46.0901717" lon="12.1276868"><ele>298.0</ele><time>2026-04-25T11:39:22.45Z</time></trkpt><trkpt lat="46.0902374" lon="12.1275564"><ele>298.0</ele><time>2026-04-25T11:39:24.445Z</time></trkpt><trkpt lat="46.0902988" lon="12.1274077"><ele>298.0</ele><time>2026-04-25T11:39:26.452Z</time></trkpt><trkpt lat="46.0903659" lon="12.1272618"><ele>298.0</ele><time>2026-04-25T11:39:28.451Z</time></trkpt><trkpt lat="46.0904326" lon="12.1271134"><ele>298.0</ele><time>2026-04-25T11:39:30.442Z</time></trkpt><trkpt lat="46.0905004" lon="12.1269628"><ele>297.3333333333333</ele><time>2026-04-25T11:39:32.45Z</time></trkpt><trkpt lat="46.0905679" lon="12.1268158"><ele>296.66666666666663</ele><time>2026-04-25T11:39:34.451Z</time></trkpt><trkpt lat="46.0906007" lon="12.1267348"><ele>296.0</ele><time>2026-04-25T11:39:35.45Z</time></trkpt><trkpt lat="46.0906702" lon="12.126597"><ele>295.3333333333333</ele><time>2026-04-25T11:39:37.441Z</time></trkpt><trkpt lat="46.0907065" lon="12.1265218"><ele>294.6666666666667</ele><time>2026-04-25T11:39:38.45Z</time></trkpt><trkpt lat="46.0907414" lon="12.1264459"><ele>294.0</ele><time>2026-04-25T11:39:39.452Z</time></trkpt><trkpt lat="46.09081" lon="12.1262985"><ele>293.4</ele><time>2026-04-25T11:39:41.45Z</time></trkpt><trkpt lat="46.0908439" lon="12.12622"><ele>292.79999999999995</ele><time>2026-04-25T11:39:42.45Z</time></trkpt><trkpt lat="46.0909126" lon="12.1260695"><ele>292.20000000000005</ele><time>2026-04-25T11:39:44.44Z</time></trkpt><trkpt lat="46.0909768" lon="12.1259173"><ele>291.6</ele><time>2026-04-25T11:39:46.451Z</time></trkpt><trkpt lat="46.091013" lon="12.125841"><ele>291.0</ele><time>2026-04-25T11:39:47.45Z</time></trkpt><trkpt lat="46.0910811" lon="12.1256938"><ele>290.8333333333333</ele><time>2026-04-25T11:39:49.449Z</time></trkpt><trkpt lat="46.0911165" lon="12.1256162"><ele>290.6666666666667</ele><time>2026-04-25T11:39:50.449Z</time></trkpt><trkpt lat="46.0911795" lon="12.1254704"><ele>290.5</ele><time>2026-04-25T11:39:52.452Z</time></trkpt><trkpt lat="46.0912147" lon="12.1253917"><ele>290.33333333333337</ele><time>2026-04-25T11:39:53.444Z</time></trkpt><trkpt lat="46.0912486" lon="12.1253143"><ele>290.1666666666667</ele><time>2026-04-25T11:39:54.44Z</time></trkpt><trkpt lat="46.0912829" lon="12.1252379"><ele>290.0</ele><time>2026-04-25T11:39:55.45Z</time></trkpt><trkpt lat="46.091352" lon="12.1250878"><ele>290.0</ele><time>2026-04-25T11:39:57.45Z</time></trkpt><trkpt lat="46.0913868" lon="12.1250111"><ele>290.0</ele><time>2026-04-25T11:39:58.45Z</time></trkpt><trkpt lat="46.0914545" lon="12.1248575"><ele>290.0</ele><time>2026-04-25T11:40:00.449Z</time></trkpt><trkpt lat="46.091523" lon="12.1247056"><ele>290.0</ele><time>2026-04-25T11:40:02.449Z</time></trkpt><trkpt lat="46.0915568" lon="12.1246282"><ele>290.0</ele><time>2026-04-25T11:40:03.442Z</time></trkpt><trkpt lat="46.0915955" lon="12.1245538"><ele>290.0</ele><time>2026-04-25T11:40:04.45Z</time></trkpt><trkpt lat="46.0916626" lon="12.1244039"><ele>291.0</ele><time>2026-04-25T11:40:06.449Z</time></trkpt><trkpt lat="46.091697" lon="12.1243254"><ele>292.0</ele><time>2026-04-25T11:40:07.449Z</time></trkpt><trkpt lat="46.0917347" lon="12.124252"><ele>293.0</ele><time>2026-04-25T11:40:08.438Z</time></trkpt><trkpt lat="46.0918018" lon="12.1240991"><ele>294.0</ele><time>2026-04-25T11:40:10.448Z</time></trkpt><trkpt lat="46.0918725" lon="12.1239564"><ele>295.0</ele><time>2026-04-25T11:40:12.44Z</time></trkpt><trkpt lat="46.0919196" lon="12.1237976"><ele>295.0</ele><time>2026-04-25T11:40:14.438Z</time></trkpt><trkpt lat="46.0919713" lon="12.1236468"><ele>295.0</ele><time>2026-04-25T11:40:16.449Z</time></trkpt><trkpt lat="46.092041" lon="12.1235082"><ele>295.0</ele><time>2026-04-25T11:40:18.537Z</time></trkpt><trkpt lat="46.0921138" lon="12.123361"><ele>295.0</ele><time>2026-04-25T11:40:20.443Z</time></trkpt><trkpt lat="46.0922076" lon="12.1232492"><ele>295.0</ele><time>2026-04-25T11:40:22.448Z</time></trkpt><trkpt lat="46.0922972" lon="12.1231457"><ele>295.0</ele><time>2026-04-25T11:40:24.449Z</time></trkpt><trkpt lat="46.092394" lon="12.1230484"><ele>295.0</ele><time>2026-04-25T11:40:26.45Z</time></trkpt><trkpt lat="46.0924739" lon="12.1229238"><ele>295.0</ele><time>2026-04-25T11:40:28.443Z</time></trkpt><trkpt lat="46.0925441" lon="12.1227893"><ele>297.5</ele><time>2026-04-25T11:40:30.444Z</time></trkpt><trkpt lat="46.0926048" lon="12.1226378"><ele>300.0</ele><time>2026-04-25T11:40:32.439Z</time></trkpt><trkpt lat="46.0926351" lon="12.1224673"><ele>302.5</ele><time>2026-04-25T11:40:34.45Z</time></trkpt><trkpt lat="46.0926466" lon="12.1222911"><ele>305.0</ele><time>2026-04-25T11:40:36.443Z</time></trkpt><trkpt lat="46.092655" lon="12.1221307"><ele>305.0</ele><time>2026-04-25T11:40:38.451Z</time></trkpt><trkpt lat="46.092661" lon="12.1219706"><ele>305.0</ele><time>2026-04-25T11:40:40.451Z</time></trkpt><trkpt lat="46.0926631" lon="12.1218047"><ele>305.0</ele><time>2026-04-25T11:40:42.453Z</time></trkpt><trkpt lat="46.0926679" lon="12.1216334"><ele>305.0</ele><time>2026-04-25T11:40:44.443Z</time></trkpt><trkpt lat="46.0926795" lon="12.1214819"><ele>305.2</ele><time>2026-04-25T11:40:46.45Z</time></trkpt><trkpt lat="46.0926889" lon="12.121344"><ele>305.4</ele><time>2026-04-25T11:40:48.448Z</time></trkpt><trkpt lat="46.09272" lon="12.1212134"><ele>305.6</ele><time>2026-04-25T11:40:50.451Z</time></trkpt><trkpt lat="46.092819" lon="12.1211512"><ele>305.8</ele><time>2026-04-25T11:40:52.441Z</time></trkpt><trkpt lat="46.0929076" lon="12.1211502"><ele>306.0</ele><time>2026-04-25T11:40:54.444Z</time></trkpt><trkpt lat="46.0930036" lon="12.1211108"><ele>306.0</ele><time>2026-04-25T11:40:56.442Z</time></trkpt><trkpt lat="46.0930737" lon="12.1209812"><ele>306.0</ele><time>2026-04-25T11:40:58.448Z</time></trkpt><trkpt lat="46.0931175" lon="12.1208176"><ele>306.0</ele><time>2026-04-25T11:41:00.445Z</time></trkpt><trkpt lat="46.0931507" lon="12.120644"><ele>306.0</ele><time>2026-04-25T11:41:02.454Z</time></trkpt><trkpt lat="46.0931806" lon="12.1204716"><ele>305.6</ele><time>2026-04-25T11:41:04.454Z</time></trkpt><trkpt lat="46.0932135" lon="12.120297"><ele>305.20000000000005</ele><time>2026-04-25T11:41:06.454Z</time></trkpt><trkpt lat="46.0932299" lon="12.1202046"><ele>304.79999999999995</ele><time>2026-04-25T11:41:07.451Z</time></trkpt><trkpt lat="46.0932707" lon="12.1200359"><ele>304.4</ele><time>2026-04-25T11:41:09.443Z</time></trkpt><trkpt lat="46.0933127" lon="12.1198669"><ele>304.0</ele><time>2026-04-25T11:41:11.451Z</time></trkpt><trkpt lat="46.0933587" lon="12.1196972"><ele>305.7142857142857</ele><time>2026-04-25T11:41:13.443Z</time></trkpt><trkpt lat="46.0933832" lon="12.119611"><ele>307.42857142857144</ele><time>2026-04-25T11:41:14.452Z</time></trkpt><trkpt lat="46.0934386" lon="12.1194522"><ele>309.14285714285717</ele><time>2026-04-25T11:41:16.444Z</time></trkpt><trkpt lat="46.0934679" lon="12.1193703"><ele>310.8571428571429</ele><time>2026-04-25T11:41:17.452Z</time></trkpt><trkpt lat="46.0934875" lon="12.1192771"><ele>312.57142857142856</ele><time>2026-04-25T11:41:18.451Z</time></trkpt><trkpt lat="46.0935166" lon="12.1191928"><ele>314.28571428571433</ele><time>2026-04-25T11:41:19.45Z</time></trkpt><trkpt lat="46.0935467" lon="12.1191128"><ele>316.0</ele><time>2026-04-25T11:41:20.451Z</time></trkpt><trkpt lat="46.0935732" lon="12.1190283"><ele>316.00000000000006</ele><time>2026-04-25T11:41:21.451Z</time></trkpt><trkpt lat="46.0936" lon="12.1189437"><ele>316.0</ele><time>2026-04-25T11:41:22.45Z</time></trkpt><trkpt lat="46.0936275" lon="12.1188602"><ele>316.0</ele><time>2026-04-25T11:41:23.448Z</time></trkpt><trkpt lat="46.0936565" lon="12.1187745"><ele>316.0</ele><time>2026-04-25T11:41:24.442Z</time></trkpt><trkpt lat="46.0936821" lon="12.1186879"><ele>316.0</ele><time>2026-04-25T11:41:25.45Z</time></trkpt><trkpt lat="46.0937138" lon="12.1186032"><ele>316.00000000000006</ele><time>2026-04-25T11:41:26.452Z</time></trkpt><trkpt lat="46.093745" lon="12.118519"><ele>316.0</ele><time>2026-04-25T11:41:27.45Z</time></trkpt><trkpt lat="46.0937751" lon="12.1184336"><ele>316.00000000000006</ele><time>2026-04-25T11:41:28.45Z</time></trkpt><trkpt lat="46.0938029" lon="12.1183431"><ele>316.0</ele><time>2026-04-25T11:41:29.451Z</time></trkpt><trkpt lat="46.0938315" lon="12.1182586"><ele>316.0</ele><time>2026-04-25T11:41:30.441Z</time></trkpt><trkpt lat="46.0938593" lon="12.1181725"><ele>316.0</ele><time>2026-04-25T11:41:31.442Z</time></trkpt><trkpt lat="46.0938867" lon="12.1180876"><ele>316.0</ele><time>2026-04-25T11:41:32.44Z</time></trkpt><trkpt lat="46.0939141" lon="12.1179969"><ele>316.00000000000006</ele><time>2026-04-25T11:41:33.442Z</time></trkpt><trkpt lat="46.0939398" lon="12.1179092"><ele>316.0</ele><time>2026-04-25T11:41:34.443Z</time></trkpt><trkpt lat="46.0939642" lon="12.1178187"><ele>315.5714285714286</ele><time>2026-04-25T11:41:35.451Z</time></trkpt><trkpt lat="46.0939887" lon="12.1177258"><ele>315.14285714285717</ele><time>2026-04-25T11:41:36.451Z</time></trkpt><trkpt lat="46.0940119" lon="12.1176343"><ele>314.7142857142857</ele><time>2026-04-25T11:41:37.445Z</time></trkpt><trkpt lat="46.0940307" lon="12.1175358"><ele>314.28571428571433</ele><time>2026-04-25T11:41:38.443Z</time></trkpt><trkpt lat="46.0940489" lon="12.1174366"><ele>313.8571428571429</ele><time>2026-04-25T11:41:39.453Z</time></trkpt><trkpt lat="46.0940688" lon="12.1173365"><ele>313.42857142857144</ele><time>2026-04-25T11:41:40.453Z</time></trkpt><trkpt lat="46.0940877" lon="12.1172396"><ele>313.0</ele><time>2026-04-25T11:41:41.453Z</time></trkpt><trkpt lat="46.0941066" lon="12.1171366"><ele>313.0</ele><time>2026-04-25T11:41:42.454Z</time></trkpt><trkpt lat="46.0941201" lon="12.1170356"><ele>313.0</ele><time>2026-04-25T11:41:43.457Z</time></trkpt><trkpt lat="46.0941326" lon="12.1169352"><ele>313.0</ele><time>2026-04-25T11:41:44.454Z</time></trkpt><trkpt lat="46.0941486" lon="12.1168364"><ele>313.0</ele><time>2026-04-25T11:41:45.448Z</time></trkpt><trkpt lat="46.0941597" lon="12.1167409"><ele>313.0</ele><time>2026-04-25T11:41:46.443Z</time></trkpt><trkpt lat="46.0941706" lon="12.116641"><ele>313.0</ele><time>2026-04-25T11:41:47.453Z</time></trkpt><trkpt lat="46.0941786" lon="12.1165384"><ele>313.0</ele><time>2026-04-25T11:41:48.452Z</time></trkpt><trkpt lat="46.0941882" lon="12.1164343"><ele>312.7142857142857</ele><time>2026-04-25T11:41:49.453Z</time></trkpt><trkpt lat="46.0941962" lon="12.1163301"><ele>312.42857142857144</ele><time>2026-04-25T11:41:50.453Z</time></trkpt><trkpt lat="46.0942002" lon="12.1162232"><ele>312.1428571428571</ele><time>2026-04-25T11:41:51.454Z</time></trkpt><trkpt lat="46.0942002" lon="12.1161129"><ele>311.8571428571429</ele><time>2026-04-25T11:41:52.441Z</time></trkpt><trkpt lat="46.0942017" lon="12.1160056"><ele>311.5714285714286</ele><time>2026-04-25T11:41:53.442Z</time></trkpt><trkpt lat="46.0942017" lon="12.1159062"><ele>311.2857142857143</ele><time>2026-04-25T11:41:54.443Z</time></trkpt><trkpt lat="46.0942004" lon="12.1157905"><ele>311.0</ele><time>2026-04-25T11:41:55.451Z</time></trkpt><trkpt lat="46.0941971" lon="12.1156803"><ele>310.6666666666667</ele><time>2026-04-25T11:41:56.45Z</time></trkpt><trkpt lat="46.0941943" lon="12.1155714"><ele>310.33333333333337</ele><time>2026-04-25T11:41:57.451Z</time></trkpt><trkpt lat="46.0941898" lon="12.1154497"><ele>310.0</ele><time>2026-04-25T11:41:58.444Z</time></trkpt><trkpt lat="46.0941876" lon="12.1153421"><ele>309.6666666666667</ele><time>2026-04-25T11:41:59.452Z</time></trkpt><trkpt lat="46.0941837" lon="12.1152258"><ele>309.3333333333333</ele><time>2026-04-25T11:42:00.451Z</time></trkpt><trkpt lat="46.0941811" lon="12.1151112"><ele>309.0</ele><time>2026-04-25T11:42:01.452Z</time></trkpt><trkpt lat="46.0941796" lon="12.1149943"><ele>308.8333333333333</ele><time>2026-04-25T11:42:02.447Z</time></trkpt><trkpt lat="46.0941755" lon="12.1148775"><ele>308.6666666666667</ele><time>2026-04-25T11:42:03.447Z</time></trkpt><trkpt lat="46.0941708" lon="12.114761"><ele>308.5</ele><time>2026-04-25T11:42:04.451Z</time></trkpt><trkpt lat="46.0941674" lon="12.1146454"><ele>308.33333333333337</ele><time>2026-04-25T11:42:05.45Z</time></trkpt><trkpt lat="46.0941657" lon="12.1145284"><ele>308.1666666666667</ele><time>2026-04-25T11:42:06.449Z</time></trkpt><trkpt lat="46.0941604" lon="12.1144159"><ele>308.0</ele><time>2026-04-25T11:42:07.452Z</time></trkpt><trkpt lat="46.0941579" lon="12.1142992"><ele>308.0</ele><time>2026-04-25T11:42:08.453Z</time></trkpt><trkpt lat="46.0941543" lon="12.1141872"><ele>308.0</ele><time>2026-04-25T11:42:09.451Z</time></trkpt><trkpt lat="46.0941464" lon="12.1140682"><ele>308.0</ele><time>2026-04-25T11:42:10.45Z</time></trkpt><trkpt lat="46.0941449" lon="12.1139502"><ele>308.0</ele><time>2026-04-25T11:42:11.444Z</time></trkpt><trkpt lat="46.0941416" lon="12.1138314"><ele>308.0</ele><time>2026-04-25T11:42:12.443Z</time></trkpt><trkpt lat="46.0941387" lon="12.113715"><ele>308.0</ele><time>2026-04-25T11:42:13.441Z</time></trkpt><trkpt lat="46.0941358" lon="12.1136007"><ele>307.6666666666667</ele><time>2026-04-25T11:42:14.452Z</time></trkpt><trkpt lat="46.0941292" lon="12.1134891"><ele>307.33333333333337</ele><time>2026-04-25T11:42:15.451Z</time></trkpt><trkpt lat="46.0941254" lon="12.1133747"><ele>307.0</ele><time>2026-04-25T11:42:16.444Z</time></trkpt><trkpt lat="46.0941202" lon="12.1132566"><ele>306.6666666666667</ele><time>2026-04-25T11:42:17.452Z</time></trkpt><trkpt lat="46.0941156" lon="12.1131376"><ele>306.3333333333333</ele><time>2026-04-25T11:42:18.452Z</time></trkpt><trkpt lat="46.094112" lon="12.1130193"><ele>306.0</ele><time>2026-04-25T11:42:19.452Z</time></trkpt><trkpt lat="46.0941088" lon="12.1128996"><ele>305.8</ele><time>2026-04-25T11:42:20.451Z</time></trkpt><trkpt lat="46.0941058" lon="12.112781"><ele>305.6</ele><time>2026-04-25T11:42:21.568Z</time></trkpt><trkpt lat="46.0940975" lon="12.11254"><ele>305.4</ele><time>2026-04-25T11:42:23.446Z</time></trkpt><trkpt lat="46.0940951" lon="12.1124242"><ele>305.2</ele><time>2026-04-25T11:42:24.445Z</time></trkpt><trkpt lat="46.0940925" lon="12.1123088"><ele>305.0</ele><time>2026-04-25T11:42:25.449Z</time></trkpt><trkpt lat="46.0940888" lon="12.1121926"><ele>304.83333333333337</ele><time>2026-04-25T11:42:26.441Z</time></trkpt><trkpt lat="46.0940872" lon="12.1120771"><ele>304.6666666666667</ele><time>2026-04-25T11:42:27.45Z</time></trkpt><trkpt lat="46.0940874" lon="12.1119627"><ele>304.5</ele><time>2026-04-25T11:42:28.45Z</time></trkpt><trkpt lat="46.0940907" lon="12.1118501"><ele>304.3333333333333</ele><time>2026-04-25T11:42:29.449Z</time></trkpt><trkpt lat="46.0940957" lon="12.1117357"><ele>304.16666666666663</ele><time>2026-04-25T11:42:30.439Z</time></trkpt><trkpt lat="46.0941052" lon="12.1116228"><ele>304.0</ele><time>2026-04-25T11:42:31.441Z</time></trkpt><trkpt lat="46.0941178" lon="12.1115141"><ele>303.0</ele><time>2026-04-25T11:42:32.448Z</time></trkpt><trkpt lat="46.094129" lon="12.1114054"><ele>302.0</ele><time>2026-04-25T11:42:33.444Z</time></trkpt><trkpt lat="46.0941416" lon="12.1112954"><ele>301.0</ele><time>2026-04-25T11:42:34.441Z</time></trkpt><trkpt lat="46.094151" lon="12.1111877"><ele>300.0</ele><time>2026-04-25T11:42:35.442Z</time></trkpt><trkpt lat="46.0941618" lon="12.111079"><ele>299.0</ele><time>2026-04-25T11:42:36.45Z</time></trkpt><trkpt lat="46.0941746" lon="12.1109711"><ele>298.0</ele><time>2026-04-25T11:42:37.45Z</time></trkpt><trkpt lat="46.0941894" lon="12.1108643"><ele>298.0</ele><time>2026-04-25T11:42:38.449Z</time></trkpt><trkpt lat="46.0942028" lon="12.1107568"><ele>298.0</ele><time>2026-04-25T11:42:39.448Z</time></trkpt><trkpt lat="46.0942148" lon="12.1106481"><ele>298.0</ele><time>2026-04-25T11:42:40.449Z</time></trkpt><trkpt lat="46.0942308" lon="12.1105438"><ele>298.0</ele><time>2026-04-25T11:42:41.445Z</time></trkpt><trkpt lat="46.0942447" lon="12.1104398"><ele>298.0</ele><time>2026-04-25T11:42:42.439Z</time></trkpt><trkpt lat="46.0942588" lon="12.1103337"><ele>298.0</ele><time>2026-04-25T11:42:43.442Z</time></trkpt><trkpt lat="46.0942733" lon="12.110232"><ele>298.0</ele><time>2026-04-25T11:42:44.449Z</time></trkpt><trkpt lat="46.0942877" lon="12.1101301"><ele>298.1428571428571</ele><time>2026-04-25T11:42:45.449Z</time></trkpt><trkpt lat="46.0942985" lon="12.110031"><ele>298.2857142857143</ele><time>2026-04-25T11:42:46.448Z</time></trkpt><trkpt lat="46.0943092" lon="12.1099282"><ele>298.42857142857144</ele><time>2026-04-25T11:42:47.449Z</time></trkpt><trkpt lat="46.0943259" lon="12.1098297"><ele>298.57142857142856</ele><time>2026-04-25T11:42:48.451Z</time></trkpt><trkpt lat="46.0943412" lon="12.1097289"><ele>298.7142857142857</ele><time>2026-04-25T11:42:49.44Z</time></trkpt><trkpt lat="46.0943572" lon="12.1096264"><ele>298.85714285714283</ele><time>2026-04-25T11:42:50.438Z</time></trkpt><trkpt lat="46.0943692" lon="12.1095255"><ele>299.0</ele><time>2026-04-25T11:42:51.449Z</time></trkpt><trkpt lat="46.0943804" lon="12.1094275"><ele>299.0</ele><time>2026-04-25T11:42:52.438Z</time></trkpt><trkpt lat="46.0943925" lon="12.1093302"><ele>299.0</ele><time>2026-04-25T11:42:53.44Z</time></trkpt><trkpt lat="46.0944028" lon="12.1092317"><ele>299.0</ele><time>2026-04-25T11:42:54.449Z</time></trkpt><trkpt lat="46.0944145" lon="12.1091338"><ele>299.0</ele><time>2026-04-25T11:42:55.448Z</time></trkpt><trkpt lat="46.0944279" lon="12.1090336"><ele>299.0</ele><time>2026-04-25T11:42:56.44Z</time></trkpt><trkpt lat="46.0944392" lon="12.1089364"><ele>299.0</ele><time>2026-04-25T11:42:57.44Z</time></trkpt><trkpt lat="46.0944493" lon="12.10884"><ele>299.0</ele><time>2026-04-25T11:42:58.443Z</time></trkpt><trkpt lat="46.0944591" lon="12.1087423"><ele>299.2857142857143</ele><time>2026-04-25T11:42:59.439Z</time></trkpt><trkpt lat="46.0944651" lon="12.1086454"><ele>299.57142857142856</ele><time>2026-04-25T11:43:00.45Z</time></trkpt><trkpt lat="46.0944721" lon="12.1085473"><ele>299.8571428571429</ele><time>2026-04-25T11:43:01.438Z</time></trkpt><trkpt lat="46.0944763" lon="12.1084487"><ele>300.1428571428571</ele><time>2026-04-25T11:43:02.443Z</time></trkpt><trkpt lat="46.0944786" lon="12.108348"><ele>300.42857142857144</ele><time>2026-04-25T11:43:03.446Z</time></trkpt><trkpt lat="46.0944809" lon="12.1082482"><ele>300.7142857142857</ele><time>2026-04-25T11:43:04.45Z</time></trkpt><trkpt lat="46.0944804" lon="12.1081562"><ele>301.0</ele><time>2026-04-25T11:43:05.45Z</time></trkpt><trkpt lat="46.0944825" lon="12.1080552"><ele>301.0</ele><time>2026-04-25T11:43:06.449Z</time></trkpt><trkpt lat="46.0944828" lon="12.1079533"><ele>301.0</ele><time>2026-04-25T11:43:07.45Z</time></trkpt><trkpt lat="46.0944804" lon="12.107855"><ele>301.0</ele><time>2026-04-25T11:43:08.451Z</time></trkpt><trkpt lat="46.0944777" lon="12.1077565"><ele>301.0</ele><time>2026-04-25T11:43:09.45Z</time></trkpt><trkpt lat="46.0944756" lon="12.1076564"><ele>301.0</ele><time>2026-04-25T11:43:10.444Z</time></trkpt><trkpt lat="46.0944716" lon="12.1075546"><ele>301.0</ele><time>2026-04-25T11:43:11.451Z</time></trkpt><trkpt lat="46.0944664" lon="12.1074516"><ele>301.0</ele><time>2026-04-25T11:43:12.444Z</time></trkpt><trkpt lat="46.0944571" lon="12.1073514"><ele>300.2857142857143</ele><time>2026-04-25T11:43:13.443Z</time></trkpt><trkpt lat="46.094447" lon="12.1072508"><ele>299.57142857142856</ele><time>2026-04-25T11:43:14.45Z</time></trkpt><trkpt lat="46.0944366" lon="12.1071511"><ele>298.8571428571429</ele><time>2026-04-25T11:43:15.451Z</time></trkpt><trkpt lat="46.0944264" lon="12.1070469"><ele>298.1428571428571</ele><time>2026-04-25T11:43:16.446Z</time></trkpt><trkpt lat="46.0944145" lon="12.1069433"><ele>297.42857142857144</ele><time>2026-04-25T11:43:17.447Z</time></trkpt><trkpt lat="46.0944006" lon="12.1068407"><ele>296.7142857142857</ele><time>2026-04-25T11:43:18.452Z</time></trkpt><trkpt lat="46.0943867" lon="12.1067334"><ele>296.0</ele><time>2026-04-25T11:43:19.452Z</time></trkpt><trkpt lat="46.0943765" lon="12.1066307"><ele>295.7142857142857</ele><time>2026-04-25T11:43:20.441Z</time></trkpt><trkpt lat="46.0943647" lon="12.1065258"><ele>295.42857142857144</ele><time>2026-04-25T11:43:21.45Z</time></trkpt><trkpt lat="46.0943524" lon="12.1064195"><ele>295.1428571428571</ele><time>2026-04-25T11:43:22.45Z</time></trkpt><trkpt lat="46.0943392" lon="12.1063133"><ele>294.8571428571429</ele><time>2026-04-25T11:43:23.448Z</time></trkpt><trkpt lat="46.0943273" lon="12.1062092"><ele>294.57142857142856</ele><time>2026-04-25T11:43:24.445Z</time></trkpt><trkpt lat="46.094315" lon="12.1061012"><ele>294.2857142857143</ele><time>2026-04-25T11:43:25.447Z</time></trkpt><trkpt lat="46.094304" lon="12.1059959"><ele>294.0</ele><time>2026-04-25T11:43:26.449Z</time></trkpt><trkpt lat="46.0942902" lon="12.1058893"><ele>294.0</ele><time>2026-04-25T11:43:27.45Z</time></trkpt><trkpt lat="46.0942775" lon="12.1057806"><ele>294.0</ele><time>2026-04-25T11:43:28.45Z</time></trkpt><trkpt lat="46.0942644" lon="12.1056742"><ele>294.0</ele><time>2026-04-25T11:43:29.443Z</time></trkpt><trkpt lat="46.0942529" lon="12.1055692"><ele>294.0</ele><time>2026-04-25T11:43:30.44Z</time></trkpt><trkpt lat="46.0942422" lon="12.1054638"><ele>294.0</ele><time>2026-04-25T11:43:31.441Z</time></trkpt><trkpt lat="46.0942301" lon="12.1053624"><ele>294.0</ele><time>2026-04-25T11:43:32.442Z</time></trkpt><trkpt lat="46.094218" lon="12.1052551"><ele>294.0</ele><time>2026-04-25T11:43:33.449Z</time></trkpt><trkpt lat="46.0942053" lon="12.1051526"><ele>294.14285714285717</ele><time>2026-04-25T11:43:34.449Z</time></trkpt><trkpt lat="46.0941941" lon="12.1050511"><ele>294.2857142857143</ele><time>2026-04-25T11:43:35.439Z</time></trkpt><trkpt lat="46.0941852" lon="12.1049513"><ele>294.42857142857144</ele><time>2026-04-25T11:43:36.439Z</time></trkpt><trkpt lat="46.094174" lon="12.1048479"><ele>294.57142857142856</ele><time>2026-04-25T11:43:37.442Z</time></trkpt><trkpt lat="46.0941641" lon="12.1047501"><ele>294.7142857142857</ele><time>2026-04-25T11:43:38.441Z</time></trkpt><trkpt lat="46.0941588" lon="12.1046496"><ele>294.8571428571429</ele><time>2026-04-25T11:43:39.449Z</time></trkpt><trkpt lat="46.0941508" lon="12.1045518"><ele>295.0</ele><time>2026-04-25T11:43:40.437Z</time></trkpt><trkpt lat="46.0941451" lon="12.1044534"><ele>295.16666666666663</ele><time>2026-04-25T11:43:41.441Z</time></trkpt><trkpt lat="46.0941384" lon="12.1043591"><ele>295.3333333333333</ele><time>2026-04-25T11:43:42.441Z</time></trkpt><trkpt lat="46.0941372" lon="12.1042624"><ele>295.5</ele><time>2026-04-25T11:43:43.446Z</time></trkpt><trkpt lat="46.0941382" lon="12.1041654"><ele>295.6666666666667</ele><time>2026-04-25T11:43:44.449Z</time></trkpt><trkpt lat="46.094138" lon="12.1040698"><ele>295.83333333333337</ele><time>2026-04-25T11:43:45.449Z</time></trkpt><trkpt lat="46.0941277" lon="12.1038891"><ele>296.0</ele><time>2026-04-25T11:43:47.447Z</time></trkpt><trkpt lat="46.0941169" lon="12.1037985"><ele>296.0</ele><time>2026-04-25T11:43:48.441Z</time></trkpt><trkpt lat="46.0941086" lon="12.1037072"><ele>296.0</ele><time>2026-04-25T11:43:49.448Z</time></trkpt><trkpt lat="46.0940963" lon="12.1035357"><ele>296.0</ele><time>2026-04-25T11:43:51.597Z</time></trkpt><trkpt lat="46.0940219" lon="12.1033935"><ele>296.0</ele><time>2026-04-25T11:43:53.441Z</time></trkpt><trkpt lat="46.0939103" lon="12.1032966"><ele>296.0</ele><time>2026-04-25T11:43:55.442Z</time></trkpt><trkpt lat="46.0938594" lon="12.1032386"><ele>295.7142857142857</ele><time>2026-04-25T11:43:56.439Z</time></trkpt><trkpt lat="46.0938195" lon="12.1031638"><ele>295.42857142857144</ele><time>2026-04-25T11:43:57.449Z</time></trkpt><trkpt lat="46.0937935" lon="12.1030755"><ele>295.1428571428571</ele><time>2026-04-25T11:43:58.449Z</time></trkpt><trkpt lat="46.0937819" lon="12.1029836"><ele>294.8571428571429</ele><time>2026-04-25T11:43:59.449Z</time></trkpt><trkpt lat="46.0937826" lon="12.1028917"><ele>294.57142857142856</ele><time>2026-04-25T11:44:00.45Z</time></trkpt><trkpt lat="46.0937912" lon="12.1027965"><ele>294.2857142857143</ele><time>2026-04-25T11:44:01.44Z</time></trkpt><trkpt lat="46.0938033" lon="12.1026982"><ele>294.0</ele><time>2026-04-25T11:44:02.44Z</time></trkpt><trkpt lat="46.0938187" lon="12.1026005"><ele>294.0</ele><time>2026-04-25T11:44:03.449Z</time></trkpt><trkpt lat="46.0938294" lon="12.1025049"><ele>294.0</ele><time>2026-04-25T11:44:04.441Z</time></trkpt><trkpt lat="46.093837" lon="12.1024082"><ele>294.0</ele><time>2026-04-25T11:44:05.449Z</time></trkpt><trkpt lat="46.0938406" lon="12.1023118"><ele>294.0</ele><time>2026-04-25T11:44:06.45Z</time></trkpt><trkpt lat="46.0938403" lon="12.1022126"><ele>294.0</ele><time>2026-04-25T11:44:07.441Z</time></trkpt><trkpt lat="46.0938378" lon="12.1021165"><ele>294.0</ele><time>2026-04-25T11:44:08.45Z</time></trkpt><trkpt lat="46.0938306" lon="12.1020205"><ele>294.0</ele><time>2026-04-25T11:44:09.448Z</time></trkpt><trkpt lat="46.0938241" lon="12.1019207"><ele>294.0</ele><time>2026-04-25T11:44:10.449Z</time></trkpt><trkpt lat="46.0938174" lon="12.1018273"><ele>294.0</ele><time>2026-04-25T11:44:11.448Z</time></trkpt><trkpt lat="46.0938098" lon="12.1017298"><ele>294.0</ele><time>2026-04-25T11:44:12.44Z</time></trkpt><trkpt lat="46.0938025" lon="12.1016354"><ele>294.0</ele><time>2026-04-25T11:44:13.456Z</time></trkpt><trkpt lat="46.0937945" lon="12.1015392"><ele>294.0</ele><time>2026-04-25T11:44:14.441Z</time></trkpt><trkpt lat="46.0937853" lon="12.1014447"><ele>294.0</ele><time>2026-04-25T11:44:15.448Z</time></trkpt><trkpt lat="46.0937787" lon="12.1013473"><ele>294.0</ele><time>2026-04-25T11:44:16.448Z</time></trkpt><trkpt lat="46.0937766" lon="12.101252"><ele>293.57142857142856</ele><time>2026-04-25T11:44:17.448Z</time></trkpt><trkpt lat="46.0937797" lon="12.1011524"><ele>293.1428571428571</ele><time>2026-04-25T11:44:18.44Z</time></trkpt><trkpt lat="46.0937917" lon="12.101055"><ele>292.7142857142857</ele><time>2026-04-25T11:44:19.44Z</time></trkpt><trkpt lat="46.0938084" lon="12.1009579"><ele>292.2857142857143</ele><time>2026-04-25T11:44:20.44Z</time></trkpt><trkpt lat="46.093827" lon="12.1008526"><ele>291.85714285714283</ele><time>2026-04-25T11:44:21.441Z</time></trkpt><trkpt lat="46.0938466" lon="12.10075"><ele>291.42857142857144</ele><time>2026-04-25T11:44:22.45Z</time></trkpt><trkpt lat="46.0938693" lon="12.1006457"><ele>291.0</ele><time>2026-04-25T11:44:23.446Z</time></trkpt><trkpt lat="46.0938911" lon="12.1005428"><ele>291.0</ele><time>2026-04-25T11:44:24.443Z</time></trkpt><trkpt lat="46.0939093" lon="12.1004417"><ele>291.0</ele><time>2026-04-25T11:44:25.442Z</time></trkpt><trkpt lat="46.0939275" lon="12.1003365"><ele>291.0</ele><time>2026-04-25T11:44:26.451Z</time></trkpt><trkpt lat="46.0939482" lon="12.1002348"><ele>291.0</ele><time>2026-04-25T11:44:27.45Z</time></trkpt><trkpt lat="46.0939681" lon="12.1001355"><ele>291.0</ele><time>2026-04-25T11:44:28.44Z</time></trkpt><trkpt lat="46.0939825" lon="12.1000329"><ele>291.0</ele><time>2026-04-25T11:44:29.45Z</time></trkpt><trkpt lat="46.0939857" lon="12.0999237"><ele>291.0</ele><time>2026-04-25T11:44:30.447Z</time></trkpt><trkpt lat="46.0939761" lon="12.0998159"><ele>291.1428571428571</ele><time>2026-04-25T11:44:31.441Z</time></trkpt><trkpt lat="46.0939522" lon="12.0997135"><ele>291.2857142857143</ele><time>2026-04-25T11:44:32.45Z</time></trkpt><trkpt lat="46.0939124" lon="12.0996288"><ele>291.42857142857144</ele><time>2026-04-25T11:44:33.451Z</time></trkpt><trkpt lat="46.0938665" lon="12.0995451"><ele>291.57142857142856</ele><time>2026-04-25T11:44:34.442Z</time></trkpt><trkpt lat="46.0938235" lon="12.099464"><ele>291.7142857142857</ele><time>2026-04-25T11:44:35.45Z</time></trkpt><trkpt lat="46.0937826" lon="12.0993782"><ele>291.85714285714283</ele><time>2026-04-25T11:44:36.44Z</time></trkpt><trkpt lat="46.0937382" lon="12.0992937"><ele>292.0</ele><time>2026-04-25T11:44:37.45Z</time></trkpt><trkpt lat="46.0936955" lon="12.0992052"><ele>292.0</ele><time>2026-04-25T11:44:38.44Z</time></trkpt><trkpt lat="46.0936559" lon="12.0991162"><ele>292.0</ele><time>2026-04-25T11:44:39.449Z</time></trkpt><trkpt lat="46.0936179" lon="12.0990281"><ele>292.0</ele><time>2026-04-25T11:44:40.44Z</time></trkpt><trkpt lat="46.0935893" lon="12.0989382"><ele>292.0</ele><time>2026-04-25T11:44:41.448Z</time></trkpt><trkpt lat="46.0935674" lon="12.0988435"><ele>292.0</ele><time>2026-04-25T11:44:42.449Z</time></trkpt><trkpt lat="46.0935485" lon="12.0987496"><ele>292.0</ele><time>2026-04-25T11:44:43.444Z</time></trkpt><trkpt lat="46.0935316" lon="12.0986573"><ele>292.0</ele><time>2026-04-25T11:44:44.439Z</time></trkpt><trkpt lat="46.0935152" lon="12.0985638"><ele>292.1428571428571</ele><time>2026-04-25T11:44:45.451Z</time></trkpt><trkpt lat="46.0935027" lon="12.09847"><ele>292.2857142857143</ele><time>2026-04-25T11:44:46.45Z</time></trkpt><trkpt lat="46.0934862" lon="12.0983803"><ele>292.42857142857144</ele><time>2026-04-25T11:44:47.451Z</time></trkpt><trkpt lat="46.0934736" lon="12.0982906"><ele>292.57142857142856</ele><time>2026-04-25T11:44:48.441Z</time></trkpt><trkpt lat="46.0934573" lon="12.0982018"><ele>292.7142857142857</ele><time>2026-04-25T11:44:49.451Z</time></trkpt><trkpt lat="46.0934357" lon="12.0981072"><ele>292.85714285714283</ele><time>2026-04-25T11:44:50.449Z</time></trkpt><trkpt lat="46.09342" lon="12.0980176"><ele>293.0</ele><time>2026-04-25T11:44:51.44Z</time></trkpt><trkpt lat="46.0934055" lon="12.0979269"><ele>293.1666666666667</ele><time>2026-04-25T11:44:52.442Z</time></trkpt><trkpt lat="46.0933942" lon="12.097837"><ele>293.33333333333337</ele><time>2026-04-25T11:44:53.456Z</time></trkpt><trkpt lat="46.0933762" lon="12.0977464"><ele>293.5</ele><time>2026-04-25T11:44:54.448Z</time></trkpt><trkpt lat="46.0933613" lon="12.0976544"><ele>293.6666666666667</ele><time>2026-04-25T11:44:55.441Z</time></trkpt><trkpt lat="46.0933176" lon="12.0974849"><ele>293.8333333333333</ele><time>2026-04-25T11:44:57.441Z</time></trkpt><trkpt lat="46.0932945" lon="12.0973955"><ele>294.0</ele><time>2026-04-25T11:44:58.449Z</time></trkpt><trkpt lat="46.09325" lon="12.0972273"><ele>294.0</ele><time>2026-04-25T11:45:00.44Z</time></trkpt><trkpt lat="46.0931992" lon="12.0970583"><ele>294.0</ele><time>2026-04-25T11:45:02.44Z</time></trkpt><trkpt lat="46.0931724" lon="12.0969753"><ele>294.0</ele><time>2026-04-25T11:45:03.438Z</time></trkpt><trkpt lat="46.0931128" lon="12.0968128"><ele>294.0</ele><time>2026-04-25T11:45:05.45Z</time></trkpt><trkpt lat="46.0930489" lon="12.096669"><ele>294.0</ele><time>2026-04-25T11:45:07.449Z</time></trkpt><trkpt lat="46.0930852" lon="12.0965466"><ele>294.2</ele><time>2026-04-25T11:45:09.45Z</time></trkpt><trkpt lat="46.0931776" lon="12.0964832"><ele>294.4</ele><time>2026-04-25T11:45:11.45Z</time></trkpt><trkpt lat="46.0932762" lon="12.096398"><ele>294.6</ele><time>2026-04-25T11:45:13.458Z</time></trkpt><trkpt lat="46.0933317" lon="12.0963528"><ele>294.8</ele><time>2026-04-25T11:45:14.449Z</time></trkpt><trkpt lat="46.0933874" lon="12.0963091"><ele>295.0</ele><time>2026-04-25T11:45:15.448Z</time></trkpt><trkpt lat="46.0934915" lon="12.0962169"><ele>295.4</ele><time>2026-04-25T11:45:17.449Z</time></trkpt><trkpt lat="46.0935846" lon="12.0961148"><ele>295.8</ele><time>2026-04-25T11:45:19.439Z</time></trkpt><trkpt lat="46.0936195" lon="12.0959662"><ele>296.2</ele><time>2026-04-25T11:45:21.44Z</time></trkpt><trkpt lat="46.0936326" lon="12.0958224"><ele>296.6</ele><time>2026-04-25T11:45:23.449Z</time></trkpt><trkpt lat="46.093693" lon="12.0957123"><ele>297.0</ele><time>2026-04-25T11:45:25.439Z</time></trkpt><trkpt lat="46.0937824" lon="12.0956225"><ele>297.0</ele><time>2026-04-25T11:45:27.452Z</time></trkpt><trkpt lat="46.0938828" lon="12.0955241"><ele>297.0</ele><time>2026-04-25T11:45:29.451Z</time></trkpt><trkpt lat="46.0939864" lon="12.0954153"><ele>297.0</ele><time>2026-04-25T11:45:31.448Z</time></trkpt><trkpt lat="46.0940791" lon="12.0953126"><ele>297.0</ele><time>2026-04-25T11:45:33.441Z</time></trkpt><trkpt lat="46.0941562" lon="12.0951998"><ele>297.0</ele><time>2026-04-25T11:45:35.449Z</time></trkpt><trkpt lat="46.0942271" lon="12.0950753"><ele>297.0</ele><time>2026-04-25T11:45:37.449Z</time></trkpt><trkpt lat="46.0942978" lon="12.0949394"><ele>297.0</ele><time>2026-04-25T11:45:39.449Z</time></trkpt><trkpt lat="46.0943707" lon="12.0948038"><ele>297.0</ele><time>2026-04-25T11:45:41.45Z</time></trkpt><trkpt lat="46.0944501" lon="12.0946933"><ele>297.0</ele><time>2026-04-25T11:45:43.455Z</time></trkpt><trkpt lat="46.0945251" lon="12.0945906"><ele>297.0</ele><time>2026-04-25T11:45:45.439Z</time></trkpt><trkpt lat="46.0946043" lon="12.0944915"><ele>297.0</ele><time>2026-04-25T11:45:47.444Z</time></trkpt><trkpt lat="46.0946944" lon="12.0943634"><ele>297.0</ele><time>2026-04-25T11:45:49.45Z</time></trkpt><trkpt lat="46.0947763" lon="12.0942507"><ele>297.0</ele><time>2026-04-25T11:45:51.447Z</time></trkpt><trkpt lat="46.0948242" lon="12.0941833"><ele>297.0</ele><time>2026-04-25T11:45:52.447Z</time></trkpt><trkpt lat="46.0948766" lon="12.0941114"><ele>297.0</ele><time>2026-04-25T11:45:53.447Z</time></trkpt><trkpt lat="46.0949283" lon="12.0940359"><ele>297.0</ele><time>2026-04-25T11:45:54.439Z</time></trkpt><trkpt lat="46.0950126" lon="12.0939306"><ele>297.0</ele><time>2026-04-25T11:45:56.453Z</time></trkpt><trkpt lat="46.0951048" lon="12.0938701"><ele>297.0</ele><time>2026-04-25T11:45:58.451Z</time></trkpt><trkpt lat="46.0952115" lon="12.0938543"><ele>297.0</ele><time>2026-04-25T11:46:00.45Z</time></trkpt><trkpt lat="46.0953121" lon="12.0937827"><ele>297.0</ele><time>2026-04-25T11:46:02.447Z</time></trkpt><trkpt lat="46.0953837" lon="12.0936379"><ele>297.0</ele><time>2026-04-25T11:46:04.44Z</time></trkpt><trkpt lat="46.095423" lon="12.0935645"><ele>297.0</ele><time>2026-04-25T11:46:05.451Z</time></trkpt><trkpt lat="46.0954922" lon="12.0934108"><ele>297.0</ele><time>2026-04-25T11:46:07.451Z</time></trkpt><trkpt lat="46.0955349" lon="12.0933419"><ele>297.2</ele><time>2026-04-25T11:46:08.449Z</time></trkpt><trkpt lat="46.0956171" lon="12.0932069"><ele>297.4</ele><time>2026-04-25T11:46:10.448Z</time></trkpt><trkpt lat="46.0957004" lon="12.0930746"><ele>297.6</ele><time>2026-04-25T11:46:12.44Z</time></trkpt><trkpt lat="46.0957397" lon="12.0930015"><ele>297.8</ele><time>2026-04-25T11:46:13.564Z</time></trkpt><trkpt lat="46.0958232" lon="12.092874"><ele>298.0</ele><time>2026-04-25T11:46:15.452Z</time></trkpt><trkpt lat="46.0958735" lon="12.0928175"><ele>298.2</ele><time>2026-04-25T11:46:16.444Z</time></trkpt><trkpt lat="46.0959304" lon="12.0927717"><ele>298.4</ele><time>2026-04-25T11:46:17.452Z</time></trkpt><trkpt lat="46.0960502" lon="12.0927274"><ele>298.59999999999997</ele><time>2026-04-25T11:46:19.45Z</time></trkpt><trkpt lat="46.096115" lon="12.0927291"><ele>298.8</ele><time>2026-04-25T11:46:20.45Z</time></trkpt><trkpt lat="46.0962423" lon="12.0927498"><ele>299.0</ele><time>2026-04-25T11:46:22.442Z</time></trkpt><trkpt lat="46.0963561" lon="12.0927798"><ele>299.0</ele><time>2026-04-25T11:46:24.441Z</time></trkpt><trkpt lat="46.0964675" lon="12.0928365"><ele>299.0</ele><time>2026-04-25T11:46:26.453Z</time></trkpt><trkpt lat="46.0965772" lon="12.0928971"><ele>299.0</ele><time>2026-04-25T11:46:28.449Z</time></trkpt><trkpt lat="46.0966835" lon="12.0929799"><ele>299.0</ele><time>2026-04-25T11:46:30.44Z</time></trkpt><trkpt lat="46.0967913" lon="12.0930514"><ele>299.25</ele><time>2026-04-25T11:46:32.45Z</time></trkpt><trkpt lat="46.0969133" lon="12.0931043"><ele>299.5</ele><time>2026-04-25T11:46:34.442Z</time></trkpt><trkpt lat="46.0970278" lon="12.0931348"><ele>299.75</ele><time>2026-04-25T11:46:36.45Z</time></trkpt><trkpt lat="46.0971571" lon="12.0931411"><ele>300.0</ele><time>2026-04-25T11:46:38.441Z</time></trkpt><trkpt lat="46.0972816" lon="12.0931368"><ele>300.0</ele><time>2026-04-25T11:46:40.449Z</time></trkpt><trkpt lat="46.097347" lon="12.0931545"><ele>300.0</ele><time>2026-04-25T11:46:41.448Z</time></trkpt><trkpt lat="46.0974651" lon="12.0931874"><ele>300.0</ele><time>2026-04-25T11:46:43.45Z</time></trkpt><trkpt lat="46.0975863" lon="12.0932353"><ele>300.0</ele><time>2026-04-25T11:46:45.449Z</time></trkpt><trkpt lat="46.097699" lon="12.0932839"><ele>300.0</ele><time>2026-04-25T11:46:47.449Z</time></trkpt><trkpt lat="46.0978132" lon="12.093327"><ele>300.4</ele><time>2026-04-25T11:46:49.439Z</time></trkpt><trkpt lat="46.0979176" lon="12.0933584"><ele>300.8</ele><time>2026-04-25T11:46:51.449Z</time></trkpt><trkpt lat="46.0980055" lon="12.0933785"><ele>301.2</ele><time>2026-04-25T11:46:53.455Z</time></trkpt><trkpt lat="46.0980803" lon="12.0933901"><ele>301.6</ele><time>2026-04-25T11:46:55.442Z</time></trkpt><trkpt lat="46.0981701" lon="12.0933466"><ele>302.0</ele><time>2026-04-25T11:46:58.454Z</time></trkpt><trkpt lat="46.098229" lon="12.0932582"><ele>302.0</ele><time>2026-04-25T11:47:00.449Z</time></trkpt><trkpt lat="46.0982823" lon="12.0931537"><ele>302.0</ele><time>2026-04-25T11:47:02.439Z</time></trkpt><trkpt lat="46.0983296" lon="12.0930285"><ele>302.0</ele><time>2026-04-25T11:47:04.45Z</time></trkpt><trkpt lat="46.0983826" lon="12.092902"><ele>302.0</ele><time>2026-04-25T11:47:06.441Z</time></trkpt><trkpt lat="46.0984389" lon="12.0927802"><ele>302.0</ele><time>2026-04-25T11:47:08.442Z</time></trkpt><trkpt lat="46.0984904" lon="12.0926491"><ele>302.0</ele><time>2026-04-25T11:47:10.439Z</time></trkpt><trkpt lat="46.0985523" lon="12.0925241"><ele>302.0</ele><time>2026-04-25T11:47:12.449Z</time></trkpt><trkpt lat="46.0986056" lon="12.0923939"><ele>302.0</ele><time>2026-04-25T11:47:14.449Z</time></trkpt><trkpt lat="46.0986602" lon="12.0922743"><ele>302.0</ele><time>2026-04-25T11:47:16.443Z</time></trkpt><trkpt lat="46.0987179" lon="12.0921658"><ele>302.0</ele><time>2026-04-25T11:47:18.45Z</time></trkpt><trkpt lat="46.0987809" lon="12.0920784"><ele>302.2</ele><time>2026-04-25T11:47:20.449Z</time></trkpt><trkpt lat="46.0988394" lon="12.0919893"><ele>302.4</ele><time>2026-04-25T11:47:22.434Z</time></trkpt><trkpt lat="46.0988992" lon="12.0918908"><ele>302.6</ele><time>2026-04-25T11:47:24.437Z</time></trkpt><trkpt lat="46.0989636" lon="12.0917822"><ele>302.8</ele><time>2026-04-25T11:47:26.442Z</time></trkpt><trkpt lat="46.0990274" lon="12.0916812"><ele>303.0</ele><time>2026-04-25T11:47:28.44Z</time></trkpt><trkpt lat="46.0991003" lon="12.0915826"><ele>303.2</ele><time>2026-04-25T11:47:30.441Z</time></trkpt><trkpt lat="46.0991713" lon="12.091487"><ele>303.4</ele><time>2026-04-25T11:47:32.439Z</time></trkpt><trkpt lat="46.0992378" lon="12.091389"><ele>303.59999999999997</ele><time>2026-04-25T11:47:34.449Z</time></trkpt><trkpt lat="46.0993112" lon="12.0912858"><ele>303.8</ele><time>2026-04-25T11:47:36.438Z</time></trkpt><trkpt lat="46.0993807" lon="12.0911702"><ele>304.0</ele><time>2026-04-25T11:47:38.437Z</time></trkpt><trkpt lat="46.0994412" lon="12.0910465"><ele>304.0</ele><time>2026-04-25T11:47:40.442Z</time></trkpt><trkpt lat="46.0995046" lon="12.0909235"><ele>304.0</ele><time>2026-04-25T11:47:42.441Z</time></trkpt><trkpt lat="46.0995687" lon="12.09079"><ele>304.0</ele><time>2026-04-25T11:47:44.45Z</time></trkpt><trkpt lat="46.0996378" lon="12.090662"><ele>304.0</ele><time>2026-04-25T11:47:46.44Z</time></trkpt><trkpt lat="46.0997077" lon="12.0905345"><ele>304.0</ele><time>2026-04-25T11:47:48.438Z</time></trkpt><trkpt lat="46.0998" lon="12.0904476"><ele>304.0</ele><time>2026-04-25T11:47:50.452Z</time></trkpt><trkpt lat="46.0999018" lon="12.0904034"><ele>304.0</ele><time>2026-04-25T11:47:52.438Z</time></trkpt><trkpt lat="46.1000135" lon="12.0903778"><ele>304.0</ele><time>2026-04-25T11:47:54.44Z</time></trkpt><trkpt lat="46.1001146" lon="12.0903425"><ele>304.0</ele><time>2026-04-25T11:47:56.444Z</time></trkpt><trkpt lat="46.1002137" lon="12.0902838"><ele>304.0</ele><time>2026-04-25T11:47:58.448Z</time></trkpt><trkpt lat="46.100299" lon="12.090185"><ele>303.8</ele><time>2026-04-25T11:48:00.45Z</time></trkpt><trkpt lat="46.1003635" lon="12.0900625"><ele>303.59999999999997</ele><time>2026-04-25T11:48:02.437Z</time></trkpt><trkpt lat="46.1004236" lon="12.089945"><ele>303.4</ele><time>2026-04-25T11:48:04.449Z</time></trkpt><trkpt lat="46.1005159" lon="12.0899478"><ele>303.2</ele><time>2026-04-25T11:48:06.442Z</time></trkpt><trkpt lat="46.1006052" lon="12.0900191"><ele>303.0</ele><time>2026-04-25T11:48:08.44Z</time></trkpt><trkpt lat="46.1007003" lon="12.0901043"><ele>303.25</ele><time>2026-04-25T11:48:10.45Z</time></trkpt><trkpt lat="46.1007965" lon="12.0901955"><ele>303.5</ele><time>2026-04-25T11:48:12.45Z</time></trkpt><trkpt lat="46.1009" lon="12.0902324"><ele>303.75</ele><time>2026-04-25T11:48:14.449Z</time></trkpt><trkpt lat="46.1010193" lon="12.0902487"><ele>304.0</ele><time>2026-04-25T11:48:16.439Z</time></trkpt><trkpt lat="46.1011388" lon="12.0902381"><ele>304.0</ele><time>2026-04-25T11:48:18.443Z</time></trkpt><trkpt lat="46.1012501" lon="12.0902917"><ele>304.0</ele><time>2026-04-25T11:48:20.443Z</time></trkpt><trkpt lat="46.1014014" lon="12.0904394"><ele>304.0</ele><time>2026-04-25T11:48:23.441Z</time></trkpt><trkpt lat="46.1014848" lon="12.0905304"><ele>304.0</ele><time>2026-04-25T11:48:25.44Z</time></trkpt><trkpt lat="46.1015461" lon="12.0905079"><ele>304.2</ele><time>2026-04-25T11:48:27.45Z</time></trkpt><trkpt lat="46.1016021" lon="12.0904179"><ele>304.4</ele><time>2026-04-25T11:48:29.451Z</time></trkpt><trkpt lat="46.1016605" lon="12.09031"><ele>304.6</ele><time>2026-04-25T11:48:31.447Z</time></trkpt><trkpt lat="46.101712" lon="12.0901975"><ele>304.8</ele><time>2026-04-25T11:48:33.467Z</time></trkpt><trkpt lat="46.1017661" lon="12.0900838"><ele>305.0</ele><time>2026-04-25T11:48:35.441Z</time></trkpt><trkpt lat="46.1018193" lon="12.0899682"><ele>304.8</ele><time>2026-04-25T11:48:37.441Z</time></trkpt><trkpt lat="46.101865" lon="12.0898427"><ele>304.6</ele><time>2026-04-25T11:48:39.454Z</time></trkpt><trkpt lat="46.1019297" lon="12.0897384"><ele>304.4</ele><time>2026-04-25T11:48:41.434Z</time></trkpt><trkpt lat="46.1019862" lon="12.089623"><ele>304.2</ele><time>2026-04-25T11:48:43.453Z</time></trkpt><trkpt lat="46.1020512" lon="12.0895103"><ele>304.0</ele><time>2026-04-25T11:48:45.449Z</time></trkpt><trkpt lat="46.1021111" lon="12.0893889"><ele>304.0</ele><time>2026-04-25T11:48:47.449Z</time></trkpt><trkpt lat="46.1021751" lon="12.0892747"><ele>304.0</ele><time>2026-04-25T11:48:49.453Z</time></trkpt><trkpt lat="46.1022294" lon="12.089155"><ele>304.0</ele><time>2026-04-25T11:48:51.442Z</time></trkpt><trkpt lat="46.1022801" lon="12.0890393"><ele>304.0</ele><time>2026-04-25T11:48:53.438Z</time></trkpt><trkpt lat="46.1023142" lon="12.0889396"><ele>304.0</ele><time>2026-04-25T11:48:55.45Z</time></trkpt><trkpt lat="46.102379" lon="12.08896"><ele>304.0</ele><time>2026-04-25T11:48:58.441Z</time></trkpt><trkpt lat="46.1024377" lon="12.0890193"><ele>304.2</ele><time>2026-04-25T11:49:00.442Z</time></trkpt><trkpt lat="46.1025059" lon="12.0890911"><ele>304.4</ele><time>2026-04-25T11:49:02.449Z</time></trkpt><trkpt lat="46.1025744" lon="12.0891751"><ele>304.6</ele><time>2026-04-25T11:49:04.446Z</time></trkpt><trkpt lat="46.1026571" lon="12.089249"><ele>304.8</ele><time>2026-04-25T11:49:06.454Z</time></trkpt><trkpt lat="46.1027369" lon="12.0893301"><ele>305.0</ele><time>2026-04-25T11:49:08.441Z</time></trkpt><trkpt lat="46.1028182" lon="12.0894118"><ele>305.0</ele><time>2026-04-25T11:49:10.441Z</time></trkpt><trkpt lat="46.1028985" lon="12.0894939"><ele>305.0</ele><time>2026-04-25T11:49:12.443Z</time></trkpt><trkpt lat="46.1029802" lon="12.0895822"><ele>305.0</ele><time>2026-04-25T11:49:14.452Z</time></trkpt><trkpt lat="46.1030655" lon="12.0896752"><ele>305.0</ele><time>2026-04-25T11:49:16.443Z</time></trkpt><trkpt lat="46.1031499" lon="12.0897576"><ele>305.0</ele><time>2026-04-25T11:49:18.453Z</time></trkpt><trkpt lat="46.103238" lon="12.0898394"><ele>305.0</ele><time>2026-04-25T11:49:20.449Z</time></trkpt><trkpt lat="46.1033264" lon="12.0899171"><ele>305.0</ele><time>2026-04-25T11:49:22.45Z</time></trkpt><trkpt lat="46.1034171" lon="12.0899867"><ele>305.0</ele><time>2026-04-25T11:49:24.45Z</time></trkpt><trkpt lat="46.103506" lon="12.0900552"><ele>305.0</ele><time>2026-04-25T11:49:26.442Z</time></trkpt><trkpt lat="46.1035967" lon="12.0901297"><ele>305.0</ele><time>2026-04-25T11:49:28.446Z</time></trkpt><trkpt lat="46.1036869" lon="12.0902018"><ele>305.2</ele><time>2026-04-25T11:49:30.441Z</time></trkpt><trkpt lat="46.1037801" lon="12.0902681"><ele>305.4</ele><time>2026-04-25T11:49:32.45Z</time></trkpt><trkpt lat="46.1038647" lon="12.0903414"><ele>305.6</ele><time>2026-04-25T11:49:34.452Z</time></trkpt><trkpt lat="46.1039558" lon="12.090411"><ele>305.8</ele><time>2026-04-25T11:49:36.449Z</time></trkpt><trkpt lat="46.1040467" lon="12.0904806"><ele>306.0</ele><time>2026-04-25T11:49:38.439Z</time></trkpt><trkpt lat="46.1041386" lon="12.0905531"><ele>306.2</ele><time>2026-04-25T11:49:40.453Z</time></trkpt><trkpt lat="46.1042302" lon="12.0906236"><ele>306.40000000000003</ele><time>2026-04-25T11:49:42.448Z</time></trkpt><trkpt lat="46.104318" lon="12.0906958"><ele>306.6</ele><time>2026-04-25T11:49:44.45Z</time></trkpt><trkpt lat="46.1044101" lon="12.0907721"><ele>306.8</ele><time>2026-04-25T11:49:46.448Z</time></trkpt><trkpt lat="46.1045069" lon="12.0908486"><ele>307.0</ele><time>2026-04-25T11:49:48.453Z</time></trkpt><trkpt lat="46.1046043" lon="12.090927"><ele>307.0</ele><time>2026-04-25T11:49:50.452Z</time></trkpt><trkpt lat="46.1047023" lon="12.0910042"><ele>307.0</ele><time>2026-04-25T11:49:52.449Z</time></trkpt><trkpt lat="46.1047938" lon="12.0910854"><ele>307.0</ele><time>2026-04-25T11:49:54.451Z</time></trkpt><trkpt lat="46.1048863" lon="12.0911619"><ele>307.0</ele><time>2026-04-25T11:49:56.44Z</time></trkpt><trkpt lat="46.104986" lon="12.0912162"><ele>307.0</ele><time>2026-04-25T11:49:58.443Z</time></trkpt><trkpt lat="46.1050901" lon="12.0912631"><ele>307.0</ele><time>2026-04-25T11:50:00.45Z</time></trkpt><trkpt lat="46.1051857" lon="12.0913274"><ele>307.0</ele><time>2026-04-25T11:50:02.442Z</time></trkpt><trkpt lat="46.1052764" lon="12.0913979"><ele>307.0</ele><time>2026-04-25T11:50:04.449Z</time></trkpt><trkpt lat="46.1053578" lon="12.0914598"><ele>307.0</ele><time>2026-04-25T11:50:06.45Z</time></trkpt><trkpt lat="46.1054184" lon="12.0914937"><ele>307.0</ele><time>2026-04-25T11:50:08.448Z</time></trkpt><trkpt lat="46.105455" lon="12.0913728"><ele>307.0</ele><time>2026-04-25T11:50:51.441Z</time></trkpt><trkpt lat="46.1054998" lon="12.0912848"><ele>307.0</ele><time>2026-04-25T11:50:53.45Z</time></trkpt><trkpt lat="46.1055431" lon="12.0911904"><ele>307.0</ele><time>2026-04-25T11:50:55.442Z</time></trkpt><trkpt lat="46.105588" lon="12.0910903"><ele>307.0</ele><time>2026-04-25T11:50:57.452Z</time></trkpt><trkpt lat="46.1056324" lon="12.0909856"><ele>307.0</ele><time>2026-04-25T11:50:59.446Z</time></trkpt><trkpt lat="46.1056767" lon="12.0908802"><ele>307.0</ele><time>2026-04-25T11:51:01.435Z</time></trkpt><trkpt lat="46.1057201" lon="12.0907734"><ele>308.0</ele><time>2026-04-25T11:51:03.441Z</time></trkpt><trkpt lat="46.1057662" lon="12.0906666"><ele>309.0</ele><time>2026-04-25T11:51:05.45Z</time></trkpt><trkpt lat="46.1058111" lon="12.0905645"><ele>310.0</ele><time>2026-04-25T11:51:07.45Z</time></trkpt><trkpt lat="46.105852" lon="12.0904705"><ele>311.0</ele><time>2026-04-25T11:51:09.451Z</time></trkpt><trkpt lat="46.1058902" lon="12.0903913"><ele>312.0</ele><time>2026-04-25T11:51:11.445Z</time></trkpt><trkpt lat="46.1058509" lon="12.0904733"><ele>313.0</ele><time>2026-04-25T11:53:18.435Z</time></trkpt><trkpt lat="46.10581" lon="12.0905578"><ele>313.0</ele><time>2026-04-25T11:53:20.448Z</time></trkpt><trkpt lat="46.1057695" lon="12.0906637"><ele>313.0</ele><time>2026-04-25T11:53:22.447Z</time></trkpt><trkpt lat="46.105732" lon="12.0907732"><ele>313.0</ele><time>2026-04-25T11:53:24.443Z</time></trkpt><trkpt lat="46.1057015" lon="12.0908687"><ele>313.0</ele><time>2026-04-25T11:53:26.441Z</time></trkpt><trkpt lat="46.1056607" lon="12.0909801"><ele>313.0</ele><time>2026-04-25T11:53:29.446Z</time></trkpt><trkpt lat="46.1056162" lon="12.0910859"><ele>313.0</ele><time>2026-04-25T11:53:32.447Z</time></trkpt><trkpt lat="46.1055698" lon="12.0911982"><ele>312.3333333333333</ele><time>2026-04-25T11:53:35.438Z</time></trkpt><trkpt lat="46.1055322" lon="12.0912828"><ele>311.66666666666663</ele><time>2026-04-25T11:53:37.439Z</time></trkpt><trkpt lat="46.1054941" lon="12.0913658"><ele>311.0</ele><time>2026-04-25T11:53:39.443Z</time></trkpt><trkpt lat="46.1054467" lon="12.0914692"><ele>310.3333333333333</ele><time>2026-04-25T11:53:42.439Z</time></trkpt><trkpt lat="46.1054661" lon="12.0915712"><ele>309.6666666666667</ele><time>2026-04-25T11:53:48.443Z</time></trkpt><trkpt lat="46.1055392" lon="12.0916201"><ele>309.0</ele><time>2026-04-25T11:53:51.439Z</time></trkpt><trkpt lat="46.1056101" lon="12.091676"><ele>309.0</ele><time>2026-04-25T11:53:54.443Z</time></trkpt><trkpt lat="46.1056905" lon="12.091718"><ele>309.0</ele><time>2026-04-25T11:53:57.442Z</time></trkpt><trkpt lat="46.1057374" lon="12.0916427"><ele>309.0</ele><time>2026-04-25T11:54:00.441Z</time></trkpt><trkpt lat="46.1057767" lon="12.0915483"><ele>309.0</ele><time>2026-04-25T11:54:03.449Z</time></trkpt><trkpt lat="46.1058214" lon="12.0914597"><ele>309.0</ele><time>2026-04-25T11:54:05.451Z</time></trkpt><trkpt lat="46.1058604" lon="12.0913563"><ele>309.0</ele><time>2026-04-25T11:54:07.442Z</time></trkpt><trkpt lat="46.1059006" lon="12.0912536"><ele>308.6666666666667</ele><time>2026-04-25T11:54:09.445Z</time></trkpt><trkpt lat="46.1059417" lon="12.0911523"><ele>308.3333333333333</ele><time>2026-04-25T11:54:11.437Z</time></trkpt><trkpt lat="46.1059823" lon="12.091054"><ele>308.0</ele><time>2026-04-25T11:54:13.441Z</time></trkpt><trkpt lat="46.1060516" lon="12.0909156"><ele>307.66666666666663</ele><time>2026-04-25T11:54:16.45Z</time></trkpt><trkpt lat="46.1060962" lon="12.0908265"><ele>307.3333333333333</ele><time>2026-04-25T11:54:18.442Z</time></trkpt><trkpt lat="46.1061446" lon="12.0907292"><ele>307.0</ele><time>2026-04-25T11:54:20.447Z</time></trkpt><trkpt lat="46.1061883" lon="12.0906308"><ele>308.0</ele><time>2026-04-25T11:54:22.452Z</time></trkpt><trkpt lat="46.1062461" lon="12.0904864"><ele>309.0</ele><time>2026-04-25T11:54:25.442Z</time></trkpt><trkpt lat="46.1062738" lon="12.0903866"><ele>310.0</ele><time>2026-04-25T11:54:27.45Z</time></trkpt><trkpt lat="46.1062857" lon="12.0902901"><ele>311.0</ele><time>2026-04-25T11:54:29.442Z</time></trkpt><trkpt lat="46.1062895" lon="12.0901992"><ele>312.0</ele><time>2026-04-25T11:54:31.441Z</time></trkpt><trkpt lat="46.1062772" lon="12.0900788"><ele>313.0</ele><time>2026-04-25T11:54:34.446Z</time></trkpt><trkpt lat="46.1062445" lon="12.0899716"><ele>314.57142857142856</ele><time>2026-04-25T11:54:37.441Z</time></trkpt><trkpt lat="46.1061835" lon="12.0898648"><ele>316.14285714285717</ele><time>2026-04-25T11:54:40.449Z</time></trkpt><trkpt lat="46.1061383" lon="12.0897996"><ele>317.7142857142857</ele><time>2026-04-25T11:54:42.442Z</time></trkpt><trkpt lat="46.1060872" lon="12.089739"><ele>319.2857142857143</ele><time>2026-04-25T11:54:44.447Z</time></trkpt><trkpt lat="46.1060337" lon="12.089683"><ele>320.85714285714283</ele><time>2026-04-25T11:54:46.442Z</time></trkpt><trkpt lat="46.1059768" lon="12.0896256"><ele>322.42857142857144</ele><time>2026-04-25T11:54:48.45Z</time></trkpt><trkpt lat="46.1059148" lon="12.0895759"><ele>324.0</ele><time>2026-04-25T11:54:50.449Z</time></trkpt><trkpt lat="46.1058499" lon="12.0895269"><ele>324.0</ele><time>2026-04-25T11:54:52.448Z</time></trkpt><trkpt lat="46.1057886" lon="12.089474"><ele>324.0</ele><time>2026-04-25T11:54:54.451Z</time></trkpt><trkpt lat="46.1057243" lon="12.0894242"><ele>324.0</ele><time>2026-04-25T11:54:56.452Z</time></trkpt><trkpt lat="46.1056543" lon="12.0893717"><ele>324.0</ele><time>2026-04-25T11:54:58.445Z</time></trkpt><trkpt lat="46.1055882" lon="12.0893155"><ele>324.0</ele><time>2026-04-25T11:55:00.444Z</time></trkpt><trkpt lat="46.1055231" lon="12.0892652"><ele>324.0</ele><time>2026-04-25T11:55:02.444Z</time></trkpt><trkpt lat="46.1054566" lon="12.0892144"><ele>324.0</ele><time>2026-04-25T11:55:04.448Z</time></trkpt><trkpt lat="46.1053884" lon="12.0891724"><ele>324.5</ele><time>2026-04-25T11:55:06.45Z</time></trkpt><trkpt lat="46.105319" lon="12.0891292"><ele>325.0</ele><time>2026-04-25T11:55:08.436Z</time></trkpt><trkpt lat="46.1052495" lon="12.089087"><ele>325.5</ele><time>2026-04-25T11:55:10.452Z</time></trkpt><trkpt lat="46.1051796" lon="12.0890507"><ele>326.0</ele><time>2026-04-25T11:55:12.449Z</time></trkpt><trkpt lat="46.10511" lon="12.0890157"><ele>326.5</ele><time>2026-04-25T11:55:14.446Z</time></trkpt><trkpt lat="46.1050389" lon="12.0889845"><ele>327.0</ele><time>2026-04-25T11:55:16.446Z</time></trkpt><trkpt lat="46.1049661" lon="12.0889512"><ele>325.85714285714283</ele><time>2026-04-25T11:55:18.451Z</time></trkpt><trkpt lat="46.1048965" lon="12.0889161"><ele>324.7142857142857</ele><time>2026-04-25T11:55:20.459Z</time></trkpt><trkpt lat="46.104829" lon="12.0888825"><ele>323.57142857142856</ele><time>2026-04-25T11:55:22.45Z</time></trkpt><trkpt lat="46.1047664" lon="12.0888428"><ele>322.42857142857144</ele><time>2026-04-25T11:55:24.442Z</time></trkpt><trkpt lat="46.1047187" lon="12.0887705"><ele>321.2857142857143</ele><time>2026-04-25T11:55:26.447Z</time></trkpt><trkpt lat="46.1046989" lon="12.0886706"><ele>320.14285714285717</ele><time>2026-04-25T11:55:28.444Z</time></trkpt><trkpt lat="46.1047047" lon="12.0885585"><ele>319.0</ele><time>2026-04-25T11:55:30.453Z</time></trkpt><trkpt lat="46.1047277" lon="12.0884545"><ele>319.0</ele><time>2026-04-25T11:55:32.451Z</time></trkpt><trkpt lat="46.1047618" lon="12.0883609"><ele>319.0</ele><time>2026-04-25T11:55:34.45Z</time></trkpt><trkpt lat="46.1048004" lon="12.0882748"><ele>319.0</ele><time>2026-04-25T11:55:36.452Z</time></trkpt><trkpt lat="46.1048397" lon="12.0881957"><ele>319.0</ele><time>2026-04-25T11:55:38.442Z</time></trkpt><trkpt lat="46.1048826" lon="12.0881165"><ele>319.0</ele><time>2026-04-25T11:55:40.448Z</time></trkpt><trkpt lat="46.1049228" lon="12.08803"><ele>319.0</ele><time>2026-04-25T11:55:42.448Z</time></trkpt><trkpt lat="46.1049603" lon="12.0879452"><ele>319.0</ele><time>2026-04-25T11:55:44.438Z</time></trkpt><trkpt lat="46.1050013" lon="12.0878666"><ele>320.66666666666663</ele><time>2026-04-25T11:55:46.438Z</time></trkpt><trkpt lat="46.1050395" lon="12.0877842"><ele>322.3333333333333</ele><time>2026-04-25T11:55:48.448Z</time></trkpt><trkpt lat="46.1050763" lon="12.0877016"><ele>324.0</ele><time>2026-04-25T11:55:50.44Z</time></trkpt><trkpt lat="46.1051247" lon="12.0875886"><ele>325.6666666666667</ele><time>2026-04-25T11:55:53.454Z</time></trkpt><trkpt lat="46.1052032" lon="12.0875048"><ele>327.33333333333337</ele><time>2026-04-25T11:55:56.443Z</time></trkpt><trkpt lat="46.1052895" lon="12.0875055"><ele>329.0</ele><time>2026-04-25T11:55:58.444Z</time></trkpt><trkpt lat="46.1053746" lon="12.0875183"><ele>329.0</ele><time>2026-04-25T11:56:00.444Z</time></trkpt><trkpt lat="46.1054664" lon="12.0875258"><ele>329.0</ele><time>2026-04-25T11:56:02.447Z</time></trkpt><trkpt lat="46.105556" lon="12.0875231"><ele>329.0</ele><time>2026-04-25T11:56:04.452Z</time></trkpt><trkpt lat="46.1056479" lon="12.0875127"><ele>329.0</ele><time>2026-04-25T11:56:06.452Z</time></trkpt><trkpt lat="46.1057463" lon="12.0875061"><ele>329.0</ele><time>2026-04-25T11:56:08.452Z</time></trkpt><trkpt lat="46.1058446" lon="12.0875095"><ele>328.6</ele><time>2026-04-25T11:56:10.442Z</time></trkpt><trkpt lat="46.1059458" lon="12.0875494"><ele>328.2</ele><time>2026-04-25T11:56:12.446Z</time></trkpt><trkpt lat="46.1060325" lon="12.0876007"><ele>327.8</ele><time>2026-04-25T11:56:14.45Z</time></trkpt><trkpt lat="46.1061167" lon="12.0876556"><ele>327.40000000000003</ele><time>2026-04-25T11:56:16.441Z</time></trkpt><trkpt lat="46.1062014" lon="12.0877061"><ele>327.0</ele><time>2026-04-25T11:56:18.449Z</time></trkpt><trkpt lat="46.1062719" lon="12.087724"><ele>327.0</ele><time>2026-04-25T11:56:21.45Z</time></trkpt><trkpt lat="46.1062347" lon="12.0876067"><ele>327.0</ele><time>2026-04-25T11:56:24.443Z</time></trkpt><trkpt lat="46.1061557" lon="12.0875366"><ele>327.0</ele><time>2026-04-25T11:56:26.45Z</time></trkpt><trkpt lat="46.1060801" lon="12.0874365"><ele>327.0</ele><time>2026-04-25T11:56:29.438Z</time></trkpt><trkpt lat="46.1060102" lon="12.0873636"><ele>327.0</ele><time>2026-04-25T11:56:31.44Z</time></trkpt><trkpt lat="46.105952" lon="12.087298"><ele>327.0</ele><time>2026-04-25T11:56:33.452Z</time></trkpt><trkpt lat="46.1058971" lon="12.0872286"><ele>327.20000000000005</ele><time>2026-04-25T11:56:35.442Z</time></trkpt><trkpt lat="46.1058362" lon="12.087142"><ele>327.4</ele><time>2026-04-25T11:56:37.443Z</time></trkpt><trkpt lat="46.1057594" lon="12.0870277"><ele>327.6</ele><time>2026-04-25T11:56:39.451Z</time></trkpt><trkpt lat="46.1057074" lon="12.0868923"><ele>327.79999999999995</ele><time>2026-04-25T11:56:41.45Z</time></trkpt><trkpt lat="46.1056942" lon="12.0868012"><ele>328.0</ele><time>2026-04-25T11:56:42.452Z</time></trkpt><trkpt lat="46.105729" lon="12.0866304"><ele>324.5</ele><time>2026-04-25T11:56:44.442Z</time></trkpt><trkpt lat="46.1058068" lon="12.0864891"><ele>321.0</ele><time>2026-04-25T11:56:46.451Z</time></trkpt><trkpt lat="46.1058458" lon="12.0864154"><ele>317.5</ele><time>2026-04-25T11:56:47.448Z</time></trkpt><trkpt lat="46.1058824" lon="12.0863365"><ele>314.0</ele><time>2026-04-25T11:56:48.434Z</time></trkpt><trkpt lat="46.10592" lon="12.0862611"><ele>310.5</ele><time>2026-04-25T11:56:49.451Z</time></trkpt><trkpt lat="46.1059606" lon="12.0861916"><ele>307.0</ele><time>2026-04-25T11:56:50.447Z</time></trkpt><trkpt lat="46.1059982" lon="12.086108"><ele>306.99999999999994</ele><time>2026-04-25T11:56:51.444Z</time></trkpt><trkpt lat="46.1060456" lon="12.0860426"><ele>307.0</ele><time>2026-04-25T11:56:52.448Z</time></trkpt><trkpt lat="46.1060934" lon="12.0859765"><ele>307.0</ele><time>2026-04-25T11:56:53.46Z</time></trkpt><trkpt lat="46.1061378" lon="12.0858862"><ele>307.0</ele><time>2026-04-25T11:56:55.443Z</time></trkpt><trkpt lat="46.106104" lon="12.0858091"><ele>307.0</ele><time>2026-04-25T11:56:57.441Z</time></trkpt><trkpt lat="46.1060318" lon="12.0857843"><ele>306.99999999999994</ele><time>2026-04-25T11:56:59.45Z</time></trkpt><trkpt lat="46.1059564" lon="12.0857467"><ele>307.0</ele><time>2026-04-25T11:57:01.451Z</time></trkpt><trkpt lat="46.1058787" lon="12.0857064"><ele>306.16666666666663</ele><time>2026-04-25T11:57:03.451Z</time></trkpt><trkpt lat="46.1058108" lon="12.0856724"><ele>305.3333333333333</ele><time>2026-04-25T11:57:05.439Z</time></trkpt><trkpt lat="46.105744" lon="12.0856386"><ele>304.5</ele><time>2026-04-25T11:57:07.439Z</time></trkpt><trkpt lat="46.1056787" lon="12.0855966"><ele>303.6666666666667</ele><time>2026-04-25T11:57:09.442Z</time></trkpt><trkpt lat="46.105595" lon="12.0855574"><ele>302.83333333333337</ele><time>2026-04-25T11:57:11.444Z</time></trkpt><trkpt lat="46.1055118" lon="12.0855273"><ele>302.0</ele><time>2026-04-25T11:57:13.444Z</time></trkpt><trkpt lat="46.1054259" lon="12.0855007"><ele>302.0</ele><time>2026-04-25T11:57:15.443Z</time></trkpt><trkpt lat="46.1053468" lon="12.0854762"><ele>302.0</ele><time>2026-04-25T11:57:17.446Z</time></trkpt><trkpt lat="46.1052666" lon="12.0854412"><ele>302.0</ele><time>2026-04-25T11:57:19.449Z</time></trkpt><trkpt lat="46.1051908" lon="12.0853982"><ele>302.0</ele><time>2026-04-25T11:57:21.45Z</time></trkpt><trkpt lat="46.1051228" lon="12.0853362"><ele>302.0</ele><time>2026-04-25T11:57:23.439Z</time></trkpt><trkpt lat="46.1050491" lon="12.0852431"><ele>302.0</ele><time>2026-04-25T11:57:25.44Z</time></trkpt><trkpt lat="46.1049739" lon="12.0851626"><ele>302.2</ele><time>2026-04-25T11:57:27.447Z</time></trkpt><trkpt lat="46.1048996" lon="12.0850668"><ele>302.4</ele><time>2026-04-25T11:57:29.441Z</time></trkpt><trkpt lat="46.1048195" lon="12.0849603"><ele>302.6</ele><time>2026-04-25T11:57:31.439Z</time></trkpt><trkpt lat="46.1047394" lon="12.084866"><ele>302.8</ele><time>2026-04-25T11:57:33.451Z</time></trkpt><trkpt lat="46.1046364" lon="12.0848103"><ele>303.0</ele><time>2026-04-25T11:57:35.449Z</time></trkpt><trkpt lat="46.1045298" lon="12.0847376"><ele>303.0</ele><time>2026-04-25T11:57:37.441Z</time></trkpt><trkpt lat="46.10442" lon="12.0846619"><ele>303.0</ele><time>2026-04-25T11:57:39.438Z</time></trkpt><trkpt lat="46.1043216" lon="12.0845729"><ele>303.0</ele><time>2026-04-25T11:57:41.438Z</time></trkpt><trkpt lat="46.1042177" lon="12.08449"><ele>303.0</ele><time>2026-04-25T11:57:43.439Z</time></trkpt><trkpt lat="46.1041108" lon="12.0844308"><ele>306.25</ele><time>2026-04-25T11:57:45.438Z</time></trkpt><trkpt lat="46.1040068" lon="12.0843496"><ele>309.5</ele><time>2026-04-25T11:57:47.439Z</time></trkpt><trkpt lat="46.1038969" lon="12.0842796"><ele>312.75</ele><time>2026-04-25T11:57:49.449Z</time></trkpt><trkpt lat="46.1037929" lon="12.0841916"><ele>316.0</ele><time>2026-04-25T11:57:51.45Z</time></trkpt><trkpt lat="46.1036889" lon="12.0841188"><ele>311.75</ele><time>2026-04-25T11:57:53.45Z</time></trkpt><trkpt lat="46.103582" lon="12.0840593"><ele>307.5</ele><time>2026-04-25T11:57:55.445Z</time></trkpt><trkpt lat="46.1034768" lon="12.0840001"><ele>303.25</ele><time>2026-04-25T11:57:57.441Z</time></trkpt><trkpt lat="46.1033726" lon="12.0839315"><ele>299.0</ele><time>2026-04-25T11:57:59.447Z</time></trkpt><trkpt lat="46.1032646" lon="12.0838555"><ele>299.33333333333337</ele><time>2026-04-25T11:58:01.445Z</time></trkpt><trkpt lat="46.1031546" lon="12.0837827"><ele>299.6666666666667</ele><time>2026-04-25T11:58:03.448Z</time></trkpt><trkpt lat="46.1030876" lon="12.0837576"><ele>300.0</ele><time>2026-04-25T11:58:04.441Z</time></trkpt><trkpt lat="46.1030195" lon="12.0837078"><ele>300.3333333333333</ele><time>2026-04-25T11:58:05.438Z</time></trkpt><trkpt lat="46.1029561" lon="12.0836452"><ele>300.66666666666663</ele><time>2026-04-25T11:58:06.45Z</time></trkpt><trkpt lat="46.1028941" lon="12.0835952"><ele>301.0</ele><time>2026-04-25T11:58:07.438Z</time></trkpt><trkpt lat="46.1028278" lon="12.0835438"><ele>301.0</ele><time>2026-04-25T11:58:08.437Z</time></trkpt><trkpt lat="46.1027637" lon="12.0834916"><ele>301.0</ele><time>2026-04-25T11:58:09.438Z</time></trkpt><trkpt lat="46.1026973" lon="12.0834513"><ele>301.0</ele><time>2026-04-25T11:58:10.436Z</time></trkpt><trkpt lat="46.1026316" lon="12.0834091"><ele>301.0</ele><time>2026-04-25T11:58:11.44Z</time></trkpt><trkpt lat="46.1025581" lon="12.0833807"><ele>301.0</ele><time>2026-04-25T11:58:12.45Z</time></trkpt><trkpt lat="46.1024825" lon="12.0833576"><ele>301.0</ele><time>2026-04-25T11:58:13.449Z</time></trkpt><trkpt lat="46.1024095" lon="12.0833474"><ele>301.0</ele><time>2026-04-25T11:58:14.438Z</time></trkpt><trkpt lat="46.1023259" lon="12.0833488"><ele>301.3333333333333</ele><time>2026-04-25T11:58:15.438Z</time></trkpt><trkpt lat="46.1022493" lon="12.0833782"><ele>301.66666666666663</ele><time>2026-04-25T11:58:16.436Z</time></trkpt><trkpt lat="46.102175" lon="12.0834225"><ele>302.0</ele><time>2026-04-25T11:58:17.437Z</time></trkpt><trkpt lat="46.1021011" lon="12.0834819"><ele>302.3333333333333</ele><time>2026-04-25T11:58:18.438Z</time></trkpt><trkpt lat="46.1020232" lon="12.083511"><ele>302.6666666666667</ele><time>2026-04-25T11:58:19.447Z</time></trkpt><trkpt lat="46.101941" lon="12.0835144"><ele>303.0</ele><time>2026-04-25T11:58:20.45Z</time></trkpt><trkpt lat="46.1018599" lon="12.0835082"><ele>303.0</ele><time>2026-04-25T11:58:21.445Z</time></trkpt><trkpt lat="46.1017779" lon="12.0834933"><ele>303.0</ele><time>2026-04-25T11:58:22.439Z</time></trkpt><trkpt lat="46.101692" lon="12.0834803"><ele>303.0</ele><time>2026-04-25T11:58:23.449Z</time></trkpt><trkpt lat="46.1016083" lon="12.0834799"><ele>303.0</ele><time>2026-04-25T11:58:24.45Z</time></trkpt><trkpt lat="46.1015271" lon="12.0834664"><ele>303.0</ele><time>2026-04-25T11:58:25.447Z</time></trkpt><trkpt lat="46.1014555" lon="12.0834447"><ele>303.0</ele><time>2026-04-25T11:58:26.448Z</time></trkpt><trkpt lat="46.1013944" lon="12.0834078"><ele>303.14285714285717</ele><time>2026-04-25T11:58:27.449Z</time></trkpt><trkpt lat="46.1013291" lon="12.0833712"><ele>303.2857142857143</ele><time>2026-04-25T11:58:28.449Z</time></trkpt><trkpt lat="46.1012674" lon="12.0833402"><ele>303.42857142857144</ele><time>2026-04-25T11:58:29.447Z</time></trkpt><trkpt lat="46.1012002" lon="12.0833073"><ele>303.57142857142856</ele><time>2026-04-25T11:58:30.44Z</time></trkpt><trkpt lat="46.1011372" lon="12.0832673"><ele>303.7142857142857</ele><time>2026-04-25T11:58:31.45Z</time></trkpt><trkpt lat="46.1010713" lon="12.0832289"><ele>303.85714285714283</ele><time>2026-04-25T11:58:32.449Z</time></trkpt><trkpt lat="46.1010108" lon="12.0831792"><ele>304.0</ele><time>2026-04-25T11:58:33.454Z</time></trkpt><trkpt lat="46.1009558" lon="12.0831197"><ele>303.1428571428571</ele><time>2026-04-25T11:58:34.45Z</time></trkpt><trkpt lat="46.1008966" lon="12.083052"><ele>302.28571428571433</ele><time>2026-04-25T11:58:35.451Z</time></trkpt><trkpt lat="46.1008359" lon="12.0829995"><ele>301.42857142857144</ele><time>2026-04-25T11:58:36.45Z</time></trkpt><trkpt lat="46.1007734" lon="12.0829461"><ele>300.57142857142856</ele><time>2026-04-25T11:58:37.438Z</time></trkpt><trkpt lat="46.1007093" lon="12.0828883"><ele>299.71428571428567</ele><time>2026-04-25T11:58:38.442Z</time></trkpt><trkpt lat="46.1006461" lon="12.0828379"><ele>298.85714285714283</ele><time>2026-04-25T11:58:39.449Z</time></trkpt><trkpt lat="46.1005821" lon="12.0827841"><ele>298.0</ele><time>2026-04-25T11:58:40.45Z</time></trkpt><trkpt lat="46.1005211" lon="12.0827374"><ele>298.0</ele><time>2026-04-25T11:58:41.449Z</time></trkpt><trkpt lat="46.1004539" lon="12.0827143"><ele>298.0</ele><time>2026-04-25T11:58:42.448Z</time></trkpt><trkpt lat="46.1003839" lon="12.0827243"><ele>298.0</ele><time>2026-04-25T11:58:43.451Z</time></trkpt><trkpt lat="46.1003164" lon="12.0827465"><ele>298.0</ele><time>2026-04-25T11:58:44.451Z</time></trkpt><trkpt lat="46.1002465" lon="12.0827609"><ele>298.0</ele><time>2026-04-25T11:58:45.45Z</time></trkpt><trkpt lat="46.1001768" lon="12.0827601"><ele>298.0</ele><time>2026-04-25T11:58:46.451Z</time></trkpt><trkpt lat="46.1001044" lon="12.0827568"><ele>298.0</ele><time>2026-04-25T11:58:47.451Z</time></trkpt><trkpt lat="46.1000335" lon="12.0827535"><ele>298.0</ele><time>2026-04-25T11:58:48.45Z</time></trkpt><trkpt lat="46.099964" lon="12.0827546"><ele>298.0</ele><time>2026-04-25T11:58:49.447Z</time></trkpt><trkpt lat="46.0998934" lon="12.0827585"><ele>298.0</ele><time>2026-04-25T11:58:50.447Z</time></trkpt><trkpt lat="46.0998236" lon="12.0827787"><ele>298.0</ele><time>2026-04-25T11:58:51.577Z</time></trkpt><trkpt lat="46.0997063" lon="12.0828879"><ele>298.0</ele><time>2026-04-25T11:58:53.442Z</time></trkpt><trkpt lat="46.099649" lon="12.082941"><ele>298.0</ele><time>2026-04-25T11:58:54.45Z</time></trkpt><trkpt lat="46.0995873" lon="12.0829753"><ele>298.5</ele><time>2026-04-25T11:58:55.448Z</time></trkpt><trkpt lat="46.0995228" lon="12.0829808"><ele>299.0</ele><time>2026-04-25T11:58:56.45Z</time></trkpt><trkpt lat="46.0994579" lon="12.0829752"><ele>299.5</ele><time>2026-04-25T11:58:57.44Z</time></trkpt><trkpt lat="46.0993282" lon="12.0829571"><ele>300.0</ele><time>2026-04-25T11:58:59.448Z</time></trkpt><trkpt lat="46.0992635" lon="12.0829529"><ele>300.5</ele><time>2026-04-25T11:59:00.441Z</time></trkpt><trkpt lat="46.0991873" lon="12.0829473"><ele>301.0</ele><time>2026-04-25T11:59:01.442Z</time></trkpt><trkpt lat="46.0991204" lon="12.0829398"><ele>301.16666666666663</ele><time>2026-04-25T11:59:02.45Z</time></trkpt><trkpt lat="46.0990275" lon="12.082826"><ele>301.3333333333333</ele><time>2026-04-25T11:59:04.448Z</time></trkpt><trkpt lat="46.0989983" lon="12.0827329"><ele>301.5</ele><time>2026-04-25T11:59:05.441Z</time></trkpt><trkpt lat="46.0989595" lon="12.0826507"><ele>301.6666666666667</ele><time>2026-04-25T11:59:06.448Z</time></trkpt><trkpt lat="46.0988834" lon="12.0825882"><ele>301.83333333333337</ele><time>2026-04-25T11:59:07.44Z</time></trkpt><trkpt lat="46.0988181" lon="12.0825403"><ele>302.0</ele><time>2026-04-25T11:59:08.442Z</time></trkpt><trkpt lat="46.0987443" lon="12.0824931"><ele>302.0</ele><time>2026-04-25T11:59:09.45Z</time></trkpt><trkpt lat="46.0986696" lon="12.0824593"><ele>302.0</ele><time>2026-04-25T11:59:10.446Z</time></trkpt><trkpt lat="46.0985962" lon="12.0824214"><ele>302.0</ele><time>2026-04-25T11:59:11.448Z</time></trkpt><trkpt lat="46.0985202" lon="12.0823796"><ele>302.0</ele><time>2026-04-25T11:59:12.446Z</time></trkpt><trkpt lat="46.0984461" lon="12.0823471"><ele>302.0</ele><time>2026-04-25T11:59:13.452Z</time></trkpt><trkpt lat="46.0983683" lon="12.082302"><ele>302.0</ele><time>2026-04-25T11:59:14.449Z</time></trkpt><trkpt lat="46.0983026" lon="12.0822358"><ele>301.1666666666667</ele><time>2026-04-25T11:59:15.446Z</time></trkpt><trkpt lat="46.0982253" lon="12.0821842"><ele>300.33333333333337</ele><time>2026-04-25T11:59:16.449Z</time></trkpt><trkpt lat="46.098152" lon="12.0821395"><ele>299.5</ele><time>2026-04-25T11:59:17.448Z</time></trkpt><trkpt lat="46.0980745" lon="12.0820868"><ele>298.6666666666667</ele><time>2026-04-25T11:59:18.449Z</time></trkpt><trkpt lat="46.0979989" lon="12.0820397"><ele>297.8333333333333</ele><time>2026-04-25T11:59:19.447Z</time></trkpt><trkpt lat="46.0979184" lon="12.0819758"><ele>297.0</ele><time>2026-04-25T11:59:20.446Z</time></trkpt><trkpt lat="46.0978437" lon="12.0819255"><ele>297.0</ele><time>2026-04-25T11:59:21.45Z</time></trkpt><trkpt lat="46.097768" lon="12.0818636"><ele>297.0</ele><time>2026-04-25T11:59:22.449Z</time></trkpt><trkpt lat="46.0976877" lon="12.0818325"><ele>297.0</ele><time>2026-04-25T11:59:23.456Z</time></trkpt><trkpt lat="46.0976098" lon="12.0818114"><ele>297.0</ele><time>2026-04-25T11:59:24.447Z</time></trkpt><trkpt lat="46.0975369" lon="12.0818036"><ele>297.0</ele><time>2026-04-25T11:59:25.449Z</time></trkpt><trkpt lat="46.0974651" lon="12.0817864"><ele>297.0</ele><time>2026-04-25T11:59:26.449Z</time></trkpt><trkpt lat="46.097393" lon="12.0817627"><ele>297.0</ele><time>2026-04-25T11:59:27.448Z</time></trkpt><trkpt lat="46.0973253" lon="12.081735"><ele>297.0</ele><time>2026-04-25T11:59:28.438Z</time></trkpt><trkpt lat="46.0972589" lon="12.0817228"><ele>297.0</ele><time>2026-04-25T11:59:29.451Z</time></trkpt><trkpt lat="46.0971953" lon="12.0817364"><ele>297.0</ele><time>2026-04-25T11:59:30.45Z</time></trkpt><trkpt lat="46.0970979" lon="12.0818223"><ele>297.0</ele><time>2026-04-25T11:59:32.446Z</time></trkpt><trkpt lat="46.0970283" lon="12.0819185"><ele>297.0</ele><time>2026-04-25T11:59:34.452Z</time></trkpt><trkpt lat="46.0969435" lon="12.0819379"><ele>297.0</ele><time>2026-04-25T11:59:36.449Z</time></trkpt><trkpt lat="46.0968624" lon="12.0818972"><ele>297.0</ele><time>2026-04-25T11:59:38.45Z</time></trkpt><trkpt lat="46.0967777" lon="12.0818648"><ele>297.0</ele><time>2026-04-25T11:59:40.447Z</time></trkpt><trkpt lat="46.0966998" lon="12.0818143"><ele>297.0</ele><time>2026-04-25T11:59:42.45Z</time></trkpt><trkpt lat="46.0966184" lon="12.0817709"><ele>297.0</ele><time>2026-04-25T11:59:44.449Z</time></trkpt><trkpt lat="46.0965323" lon="12.081723"><ele>297.0</ele><time>2026-04-25T11:59:46.448Z</time></trkpt><trkpt lat="46.0964604" lon="12.0816667"><ele>296.6</ele><time>2026-04-25T11:59:48.451Z</time></trkpt><trkpt lat="46.0963733" lon="12.0815945"><ele>296.2</ele><time>2026-04-25T11:59:50.442Z</time></trkpt><trkpt lat="46.0962839" lon="12.0815196"><ele>295.8</ele><time>2026-04-25T11:59:52.448Z</time></trkpt><trkpt lat="46.0962033" lon="12.081431"><ele>295.4</ele><time>2026-04-25T11:59:54.454Z</time></trkpt><trkpt lat="46.0962055" lon="12.0813062"><ele>295.0</ele><time>2026-04-25T11:59:56.446Z</time></trkpt><trkpt lat="46.0962186" lon="12.0811662"><ele>295.0</ele><time>2026-04-25T11:59:58.449Z</time></trkpt><trkpt lat="46.0962361" lon="12.08101"><ele>295.0</ele><time>2026-04-25T12:00:00.449Z</time></trkpt><trkpt lat="46.096254" lon="12.0808455"><ele>295.0</ele><time>2026-04-25T12:00:02.441Z</time></trkpt><trkpt lat="46.0962717" lon="12.0806866"><ele>295.0</ele><time>2026-04-25T12:00:04.442Z</time></trkpt><trkpt lat="46.0962926" lon="12.0805141"><ele>294.5</ele><time>2026-04-25T12:00:06.44Z</time></trkpt><trkpt lat="46.0963137" lon="12.0803423"><ele>294.0</ele><time>2026-04-25T12:00:08.442Z</time></trkpt><trkpt lat="46.096338" lon="12.0801736"><ele>293.5</ele><time>2026-04-25T12:00:10.441Z</time></trkpt><trkpt lat="46.0963581" lon="12.0800059"><ele>293.0</ele><time>2026-04-25T12:00:12.448Z</time></trkpt><trkpt lat="46.0963787" lon="12.0798343"><ele>292.2</ele><time>2026-04-25T12:00:14.451Z</time></trkpt><trkpt lat="46.0963858" lon="12.0797428"><ele>291.4</ele><time>2026-04-25T12:00:15.453Z</time></trkpt><trkpt lat="46.0964055" lon="12.0795693"><ele>290.59999999999997</ele><time>2026-04-25T12:00:17.45Z</time></trkpt><trkpt lat="46.0964254" lon="12.0794021"><ele>289.8</ele><time>2026-04-25T12:00:19.451Z</time></trkpt><trkpt lat="46.0964457" lon="12.0792283"><ele>289.0</ele><time>2026-04-25T12:00:21.444Z</time></trkpt><trkpt lat="46.0964702" lon="12.0790582"><ele>288.8</ele><time>2026-04-25T12:00:23.456Z</time></trkpt><trkpt lat="46.0964802" lon="12.0789676"><ele>288.59999999999997</ele><time>2026-04-25T12:00:24.45Z</time></trkpt><trkpt lat="46.096504" lon="12.0787969"><ele>288.4</ele><time>2026-04-25T12:00:26.45Z</time></trkpt><trkpt lat="46.096528" lon="12.0786313"><ele>288.2</ele><time>2026-04-25T12:00:28.448Z</time></trkpt><trkpt lat="46.0965484" lon="12.0784599"><ele>288.0</ele><time>2026-04-25T12:00:30.452Z</time></trkpt><trkpt lat="46.0965701" lon="12.0782826"><ele>289.3333333333333</ele><time>2026-04-25T12:00:32.45Z</time></trkpt><trkpt lat="46.0965904" lon="12.0781043"><ele>290.6666666666667</ele><time>2026-04-25T12:00:34.448Z</time></trkpt><trkpt lat="46.0966054" lon="12.0780112"><ele>292.0</ele><time>2026-04-25T12:00:35.448Z</time></trkpt><trkpt lat="46.0966178" lon="12.0779192"><ele>293.33333333333337</ele><time>2026-04-25T12:00:36.449Z</time></trkpt><trkpt lat="46.0966295" lon="12.0778282"><ele>294.6666666666667</ele><time>2026-04-25T12:00:37.441Z</time></trkpt><trkpt lat="46.0966395" lon="12.0777365"><ele>296.0</ele><time>2026-04-25T12:00:38.441Z</time></trkpt><trkpt lat="46.0966513" lon="12.0776427"><ele>296.0</ele><time>2026-04-25T12:00:39.452Z</time></trkpt><trkpt lat="46.0966741" lon="12.0774726"><ele>296.0</ele><time>2026-04-25T12:00:41.448Z</time></trkpt><trkpt lat="46.0966978" lon="12.0772961"><ele>296.0</ele><time>2026-04-25T12:00:43.443Z</time></trkpt><trkpt lat="46.0967244" lon="12.0771246"><ele>296.0</ele><time>2026-04-25T12:00:45.443Z</time></trkpt><trkpt lat="46.0967438" lon="12.0769647"><ele>296.0</ele><time>2026-04-25T12:00:47.449Z</time></trkpt><trkpt lat="46.0967609" lon="12.0768101"><ele>296.0</ele><time>2026-04-25T12:00:49.449Z</time></trkpt><trkpt lat="46.0967839" lon="12.0766604"><ele>296.0</ele><time>2026-04-25T12:00:51.451Z</time></trkpt><trkpt lat="46.0968052" lon="12.0765205"><ele>296.0</ele><time>2026-04-25T12:00:53.439Z</time></trkpt><trkpt lat="46.0968382" lon="12.0763962"><ele>296.0</ele><time>2026-04-25T12:00:55.451Z</time></trkpt><trkpt lat="46.0969118" lon="12.0763286"><ele>295.6</ele><time>2026-04-25T12:00:57.45Z</time></trkpt><trkpt lat="46.096992" lon="12.0763052"><ele>295.20000000000005</ele><time>2026-04-25T12:00:59.449Z</time></trkpt><trkpt lat="46.0970854" lon="12.076286"><ele>294.79999999999995</ele><time>2026-04-25T12:01:01.441Z</time></trkpt><trkpt lat="46.0971893" lon="12.0762654"><ele>294.4</ele><time>2026-04-25T12:01:03.44Z</time></trkpt><trkpt lat="46.0972989" lon="12.0762422"><ele>294.0</ele><time>2026-04-25T12:01:05.451Z</time></trkpt><trkpt lat="46.0974104" lon="12.0762208"><ele>294.0</ele><time>2026-04-25T12:01:07.452Z</time></trkpt><trkpt lat="46.0975191" lon="12.0761971"><ele>294.0</ele><time>2026-04-25T12:01:09.441Z</time></trkpt><trkpt lat="46.097626" lon="12.0761732"><ele>294.0</ele><time>2026-04-25T12:01:11.449Z</time></trkpt><trkpt lat="46.0977192" lon="12.0761499"><ele>294.0</ele><time>2026-04-25T12:01:13.46Z</time></trkpt><trkpt lat="46.0976232" lon="12.0761624"><ele>294.0</ele><time>2026-04-25T12:01:22.442Z</time></trkpt><trkpt lat="46.0975567" lon="12.0761775"><ele>294.0</ele><time>2026-04-25T12:01:24.441Z</time></trkpt><trkpt lat="46.0974639" lon="12.0761915"><ele>294.0</ele><time>2026-04-25T12:01:27.448Z</time></trkpt><trkpt lat="46.0973973" lon="12.0762396"><ele>294.0</ele><time>2026-04-25T12:01:30.451Z</time></trkpt><trkpt lat="46.0974951" lon="12.0763395"><ele>294.0</ele><time>2026-04-25T12:01:33.45Z</time></trkpt><trkpt lat="46.0975755" lon="12.0763799"><ele>294.0</ele><time>2026-04-25T12:01:35.45Z</time></trkpt><trkpt lat="46.0976503" lon="12.0764253"><ele>294.0</ele><time>2026-04-25T12:01:38.452Z</time></trkpt><trkpt lat="46.09767" lon="12.0765381"><ele>294.0</ele><time>2026-04-25T12:01:42.45Z</time></trkpt><trkpt lat="46.0976729" lon="12.0766354"><ele>294.0</ele><time>2026-04-25T12:01:46.449Z</time></trkpt><trkpt lat="46.0976152" lon="12.076709"><ele>294.0</ele><time>2026-04-25T12:01:49.445Z</time></trkpt><trkpt lat="46.097549" lon="12.0767454"><ele>294.0</ele><time>2026-04-25T12:01:52.448Z</time></trkpt><trkpt lat="46.0974617" lon="12.0767606"><ele>294.0</ele><time>2026-04-25T12:01:55.451Z</time></trkpt><trkpt lat="46.0973967" lon="12.0767924"><ele>294.3333333333333</ele><time>2026-04-25T12:01:57.45Z</time></trkpt><trkpt lat="46.097346" lon="12.0769019"><ele>294.6666666666667</ele><time>2026-04-25T12:02:00.451Z</time></trkpt><trkpt lat="46.0973178" lon="12.0769957"><ele>295.0</ele><time>2026-04-25T12:02:02.451Z</time></trkpt><trkpt lat="46.0972837" lon="12.0770722"><ele>295.33333333333337</ele><time>2026-04-25T12:02:04.443Z</time></trkpt><trkpt lat="46.0972482" lon="12.0771507"><ele>295.6666666666667</ele><time>2026-04-25T12:02:06.451Z</time></trkpt><trkpt lat="46.0972476" lon="12.0772772"><ele>296.0</ele><time>2026-04-25T12:02:09.448Z</time></trkpt><trkpt lat="46.097308" lon="12.0773381"><ele>296.0</ele><time>2026-04-25T12:02:12.452Z</time></trkpt><trkpt lat="46.0973867" lon="12.0772964"><ele>296.0</ele><time>2026-04-25T12:02:15.453Z</time></trkpt><trkpt lat="46.0974622" lon="12.07732"><ele>296.0</ele><time>2026-04-25T12:02:18.45Z</time></trkpt><trkpt lat="46.0975295" lon="12.0773508"><ele>296.0</ele><time>2026-04-25T12:02:20.451Z</time></trkpt><trkpt lat="46.0975999" lon="12.0773946"><ele>296.0</ele><time>2026-04-25T12:02:22.452Z</time></trkpt><trkpt lat="46.097668" lon="12.0774499"><ele>296.0</ele><time>2026-04-25T12:02:24.451Z</time></trkpt><trkpt lat="46.0977371" lon="12.0775219"><ele>296.0</ele><time>2026-04-25T12:02:26.451Z</time></trkpt><trkpt lat="46.0978108" lon="12.0775924"><ele>296.0</ele><time>2026-04-25T12:02:28.451Z</time></trkpt><trkpt lat="46.0978829" lon="12.0776667"><ele>296.0</ele><time>2026-04-25T12:02:30.451Z</time></trkpt><trkpt lat="46.0979573" lon="12.0777393"><ele>296.0</ele><time>2026-04-25T12:02:32.45Z</time></trkpt><trkpt lat="46.0980517" lon="12.077763"><ele>296.0</ele><time>2026-04-25T12:02:34.452Z</time></trkpt><trkpt lat="46.0981278" lon="12.0777562"><ele>296.0</ele><time>2026-04-25T12:02:36.451Z</time></trkpt><trkpt lat="46.0982057" lon="12.0777428"><ele>296.1666666666667</ele><time>2026-04-25T12:02:38.439Z</time></trkpt><trkpt lat="46.0982916" lon="12.0777204"><ele>296.33333333333337</ele><time>2026-04-25T12:02:40.442Z</time></trkpt><trkpt lat="46.0983793" lon="12.0776873"><ele>296.5</ele><time>2026-04-25T12:02:42.451Z</time></trkpt><trkpt lat="46.0984592" lon="12.0776522"><ele>296.6666666666667</ele><time>2026-04-25T12:02:45.451Z</time></trkpt><trkpt lat="46.098528" lon="12.0776223"><ele>296.8333333333333</ele><time>2026-04-25T12:02:49.45Z</time></trkpt><trkpt lat="46.0986101" lon="12.0775783"><ele>297.0</ele><time>2026-04-25T12:02:52.45Z</time></trkpt><trkpt lat="46.0986614" lon="12.0775056"><ele>297.0</ele><time>2026-04-25T12:02:55.443Z</time></trkpt><trkpt lat="46.0987171" lon="12.0774254"><ele>297.0</ele><time>2026-04-25T12:02:59.445Z</time></trkpt><trkpt lat="46.0987855" lon="12.0774898"><ele>297.0</ele><time>2026-04-25T12:03:03.455Z</time></trkpt><trkpt lat="46.0988499" lon="12.0775197"><ele>297.0</ele><time>2026-04-25T12:03:05.45Z</time></trkpt><trkpt lat="46.0989347" lon="12.0774817"><ele>297.0</ele><time>2026-04-25T12:03:08.44Z</time></trkpt><trkpt lat="46.0990167" lon="12.0774293"><ele>297.0</ele><time>2026-04-25T12:03:11.453Z</time></trkpt><trkpt lat="46.0991055" lon="12.0773643"><ele>297.5</ele><time>2026-04-25T12:03:14.453Z</time></trkpt><trkpt lat="46.0991763" lon="12.077313"><ele>298.0</ele><time>2026-04-25T12:03:16.451Z</time></trkpt><trkpt lat="46.0992472" lon="12.0772632"><ele>298.5</ele><time>2026-04-25T12:03:18.453Z</time></trkpt><trkpt lat="46.0993203" lon="12.0772104"><ele>299.0</ele><time>2026-04-25T12:03:20.452Z</time></trkpt><trkpt lat="46.0993805" lon="12.0771597"><ele>299.5</ele><time>2026-04-25T12:03:22.438Z</time></trkpt><trkpt lat="46.0994421" lon="12.0771052"><ele>300.0</ele><time>2026-04-25T12:03:24.45Z</time></trkpt><trkpt lat="46.0995039" lon="12.077043"><ele>300.0</ele><time>2026-04-25T12:03:26.45Z</time></trkpt><trkpt lat="46.0995601" lon="12.0769755"><ele>300.0</ele><time>2026-04-25T12:03:28.451Z</time></trkpt><trkpt lat="46.0996151" lon="12.0768955"><ele>300.0</ele><time>2026-04-25T12:03:30.452Z</time></trkpt><trkpt lat="46.0996687" lon="12.0768205"><ele>300.0</ele><time>2026-04-25T12:03:32.451Z</time></trkpt><trkpt lat="46.0997226" lon="12.0767381"><ele>300.0</ele><time>2026-04-25T12:03:34.45Z</time></trkpt><trkpt lat="46.0997786" lon="12.0766677"><ele>300.0</ele><time>2026-04-25T12:03:36.45Z</time></trkpt><trkpt lat="46.0998358" lon="12.0765871"><ele>299.8333333333333</ele><time>2026-04-25T12:03:38.445Z</time></trkpt><trkpt lat="46.0998889" lon="12.0765073"><ele>299.6666666666667</ele><time>2026-04-25T12:03:40.45Z</time></trkpt><trkpt lat="46.0999435" lon="12.0764294"><ele>299.5</ele><time>2026-04-25T12:03:42.435Z</time></trkpt><trkpt lat="46.0999865" lon="12.0763327"><ele>299.33333333333337</ele><time>2026-04-25T12:03:44.441Z</time></trkpt><trkpt lat="46.1000129" lon="12.0762307"><ele>299.1666666666667</ele><time>2026-04-25T12:03:46.45Z</time></trkpt><trkpt lat="46.1000506" lon="12.0761236"><ele>299.0</ele><time>2026-04-25T12:03:48.453Z</time></trkpt><trkpt lat="46.1000894" lon="12.0760289"><ele>299.1666666666667</ele><time>2026-04-25T12:03:50.451Z</time></trkpt><trkpt lat="46.1001253" lon="12.0759343"><ele>299.33333333333337</ele><time>2026-04-25T12:03:52.444Z</time></trkpt><trkpt lat="46.1001627" lon="12.0758436"><ele>299.5</ele><time>2026-04-25T12:03:54.453Z</time></trkpt><trkpt lat="46.1002013" lon="12.0757608"><ele>299.6666666666667</ele><time>2026-04-25T12:03:56.452Z</time></trkpt><trkpt lat="46.1002431" lon="12.0756733"><ele>299.8333333333333</ele><time>2026-04-25T12:03:58.442Z</time></trkpt><trkpt lat="46.1002841" lon="12.0755984"><ele>300.0</ele><time>2026-04-25T12:04:00.443Z</time></trkpt><trkpt lat="46.1003332" lon="12.0754823"><ele>299.99999999999994</ele><time>2026-04-25T12:04:03.457Z</time></trkpt><trkpt lat="46.1003738" lon="12.0753985"><ele>300.0</ele><time>2026-04-25T12:04:05.451Z</time></trkpt><trkpt lat="46.1004134" lon="12.0753279"><ele>300.0</ele><time>2026-04-25T12:04:07.442Z</time></trkpt><trkpt lat="46.1004503" lon="12.0752473"><ele>300.0</ele><time>2026-04-25T12:04:09.451Z</time></trkpt><trkpt lat="46.1004896" lon="12.075167"><ele>300.0</ele><time>2026-04-25T12:04:11.451Z</time></trkpt><trkpt lat="46.100529" lon="12.0750756"><ele>299.99999999999994</ele><time>2026-04-25T12:04:13.453Z</time></trkpt><trkpt lat="46.1005584" lon="12.0749888"><ele>300.0</ele><time>2026-04-25T12:04:15.45Z</time></trkpt><trkpt lat="46.1005931" lon="12.0749052"><ele>299.99999999999994</ele><time>2026-04-25T12:04:17.451Z</time></trkpt><trkpt lat="46.1006373" lon="12.0748332"><ele>300.0</ele><time>2026-04-25T12:04:19.45Z</time></trkpt><trkpt lat="46.1006848" lon="12.074757"><ele>300.0</ele><time>2026-04-25T12:04:21.451Z</time></trkpt><trkpt lat="46.1007266" lon="12.0746827"><ele>300.0</ele><time>2026-04-25T12:04:23.452Z</time></trkpt><trkpt lat="46.1007866" lon="12.0745859"><ele>300.0</ele><time>2026-04-25T12:04:26.448Z</time></trkpt><trkpt lat="46.1008315" lon="12.0745049"><ele>299.99999999999994</ele><time>2026-04-25T12:04:28.45Z</time></trkpt><trkpt lat="46.100862" lon="12.0743964"><ele>300.0</ele><time>2026-04-25T12:04:31.449Z</time></trkpt><trkpt lat="46.1008468" lon="12.0742869"><ele>300.0</ele><time>2026-04-25T12:04:34.439Z</time></trkpt><trkpt lat="46.1008269" lon="12.0741806"><ele>300.0</ele><time>2026-04-25T12:04:38.439Z</time></trkpt><trkpt lat="46.100761" lon="12.074094"><ele>300.0</ele><time>2026-04-25T12:04:41.447Z</time></trkpt><trkpt lat="46.1006999" lon="12.0740531"><ele>300.0</ele><time>2026-04-25T12:04:43.454Z</time></trkpt><trkpt lat="46.1006101" lon="12.073998"><ele>300.0</ele><time>2026-04-25T12:04:46.438Z</time></trkpt><trkpt lat="46.1005421" lon="12.073953"><ele>300.0</ele><time>2026-04-25T12:04:48.441Z</time></trkpt><trkpt lat="46.1004757" lon="12.0739093"><ele>300.0</ele><time>2026-04-25T12:04:50.449Z</time></trkpt><trkpt lat="46.1004314" lon="12.0738179"><ele>300.0</ele><time>2026-04-25T12:04:53.452Z</time></trkpt><trkpt lat="46.1004367" lon="12.0736933"><ele>300.0</ele><time>2026-04-25T12:04:56.449Z</time></trkpt><trkpt lat="46.1003884" lon="12.073597"><ele>300.0</ele><time>2026-04-25T12:04:59.45Z</time></trkpt><trkpt lat="46.100346" lon="12.0735135"><ele>300.0</ele><time>2026-04-25T12:05:02.449Z</time></trkpt><trkpt lat="46.1003259" lon="12.073422"><ele>300.0</ele><time>2026-04-25T12:05:08.448Z</time></trkpt><trkpt lat="46.1003086" lon="12.0733142"><ele>300.2857142857143</ele><time>2026-04-25T12:05:12.448Z</time></trkpt><trkpt lat="46.1003097" lon="12.073187"><ele>300.57142857142856</ele><time>2026-04-25T12:05:15.442Z</time></trkpt><trkpt lat="46.1003055" lon="12.0730941"><ele>300.8571428571429</ele><time>2026-04-25T12:05:17.451Z</time></trkpt><trkpt lat="46.1003077" lon="12.0730015"><ele>301.1428571428571</ele><time>2026-04-25T12:05:19.447Z</time></trkpt><trkpt lat="46.1003137" lon="12.0729047"><ele>301.42857142857144</ele><time>2026-04-25T12:05:21.451Z</time></trkpt><trkpt lat="46.1003188" lon="12.072796"><ele>301.7142857142857</ele><time>2026-04-25T12:05:23.457Z</time></trkpt><trkpt lat="46.1003247" lon="12.0726806"><ele>302.0</ele><time>2026-04-25T12:05:25.451Z</time></trkpt><trkpt lat="46.1003353" lon="12.0725603"><ele>302.1666666666667</ele><time>2026-04-25T12:05:27.451Z</time></trkpt><trkpt lat="46.1003497" lon="12.0724395"><ele>302.33333333333337</ele><time>2026-04-25T12:05:29.452Z</time></trkpt><trkpt lat="46.1003811" lon="12.0723183"><ele>302.5</ele><time>2026-04-25T12:05:31.451Z</time></trkpt><trkpt lat="46.1004158" lon="12.0721986"><ele>302.6666666666667</ele><time>2026-04-25T12:05:33.445Z</time></trkpt><trkpt lat="46.1004537" lon="12.0721006"><ele>302.8333333333333</ele><time>2026-04-25T12:05:35.449Z</time></trkpt><trkpt lat="46.1004949" lon="12.0720133"><ele>303.0</ele><time>2026-04-25T12:05:37.442Z</time></trkpt><trkpt lat="46.100547" lon="12.0719385"><ele>303.0</ele><time>2026-04-25T12:05:39.442Z</time></trkpt><trkpt lat="46.1005993" lon="12.0718621"><ele>303.0</ele><time>2026-04-25T12:05:41.441Z</time></trkpt><trkpt lat="46.1006525" lon="12.0717792"><ele>303.0</ele><time>2026-04-25T12:05:43.448Z</time></trkpt><trkpt lat="46.1007058" lon="12.0716968"><ele>303.0</ele><time>2026-04-25T12:05:45.451Z</time></trkpt><trkpt lat="46.1007513" lon="12.0716291"><ele>303.0</ele><time>2026-04-25T12:05:47.452Z</time></trkpt><trkpt lat="46.1008097" lon="12.0715364"><ele>303.0</ele><time>2026-04-25T12:05:50.451Z</time></trkpt><trkpt lat="46.1008543" lon="12.0714692"><ele>303.0</ele><time>2026-04-25T12:05:52.449Z</time></trkpt><trkpt lat="46.1009005" lon="12.0714055"><ele>303.14285714285717</ele><time>2026-04-25T12:05:54.451Z</time></trkpt><trkpt lat="46.1009654" lon="12.0713091"><ele>303.2857142857143</ele><time>2026-04-25T12:05:57.443Z</time></trkpt><trkpt lat="46.101008" lon="12.0712415"><ele>303.42857142857144</ele><time>2026-04-25T12:05:59.453Z</time></trkpt><trkpt lat="46.1010527" lon="12.0711735"><ele>303.57142857142856</ele><time>2026-04-25T12:06:01.442Z</time></trkpt><trkpt lat="46.1010982" lon="12.071106"><ele>303.7142857142857</ele><time>2026-04-25T12:06:03.457Z</time></trkpt><trkpt lat="46.1011419" lon="12.0710371"><ele>303.85714285714283</ele><time>2026-04-25T12:06:05.451Z</time></trkpt><trkpt lat="46.1011889" lon="12.0709689"><ele>304.0</ele><time>2026-04-25T12:06:07.45Z</time></trkpt><trkpt lat="46.1012361" lon="12.0709003"><ele>304.0</ele><time>2026-04-25T12:06:09.446Z</time></trkpt><trkpt lat="46.1012844" lon="12.0708325"><ele>304.0</ele><time>2026-04-25T12:06:11.443Z</time></trkpt><trkpt lat="46.1013329" lon="12.0707611"><ele>304.0</ele><time>2026-04-25T12:06:13.45Z</time></trkpt><trkpt lat="46.1013821" lon="12.0706887"><ele>304.0</ele><time>2026-04-25T12:06:15.45Z</time></trkpt><trkpt lat="46.1014319" lon="12.070612"><ele>304.0</ele><time>2026-04-25T12:06:17.448Z</time></trkpt><trkpt lat="46.1014797" lon="12.0705307"><ele>304.0</ele><time>2026-04-25T12:06:19.45Z</time></trkpt><trkpt lat="46.1015261" lon="12.07045"><ele>304.0</ele><time>2026-04-25T12:06:21.451Z</time></trkpt><trkpt lat="46.1015772" lon="12.070372"><ele>304.0</ele><time>2026-04-25T12:06:23.456Z</time></trkpt><trkpt lat="46.1016281" lon="12.0702956"><ele>304.0</ele><time>2026-04-25T12:06:25.451Z</time></trkpt><trkpt lat="46.1016774" lon="12.07022"><ele>304.0</ele><time>2026-04-25T12:06:27.452Z</time></trkpt><trkpt lat="46.1017241" lon="12.0701485"><ele>304.0</ele><time>2026-04-25T12:06:29.448Z</time></trkpt><trkpt lat="46.1017728" lon="12.0700778"><ele>304.0</ele><time>2026-04-25T12:06:31.449Z</time></trkpt><trkpt lat="46.101822" lon="12.070001"><ele>304.0</ele><time>2026-04-25T12:06:33.456Z</time></trkpt><trkpt lat="46.1018727" lon="12.069926"><ele>304.0</ele><time>2026-04-25T12:06:35.45Z</time></trkpt><trkpt lat="46.1019258" lon="12.0698564"><ele>304.3333333333333</ele><time>2026-04-25T12:06:37.441Z</time></trkpt><trkpt lat="46.1019815" lon="12.0697856"><ele>304.66666666666663</ele><time>2026-04-25T12:06:39.452Z</time></trkpt><trkpt lat="46.1020378" lon="12.0697062"><ele>305.0</ele><time>2026-04-25T12:06:41.447Z</time></trkpt><trkpt lat="46.1020916" lon="12.0696297"><ele>305.3333333333333</ele><time>2026-04-25T12:06:43.458Z</time></trkpt><trkpt lat="46.1021465" lon="12.0695516"><ele>305.6666666666667</ele><time>2026-04-25T12:06:45.439Z</time></trkpt><trkpt lat="46.1022017" lon="12.0694766"><ele>306.0</ele><time>2026-04-25T12:06:47.45Z</time></trkpt><trkpt lat="46.1022566" lon="12.0694051"><ele>306.0</ele><time>2026-04-25T12:06:49.444Z</time></trkpt><trkpt lat="46.1023196" lon="12.0693577"><ele>306.0</ele><time>2026-04-25T12:06:51.44Z</time></trkpt><trkpt lat="46.1023829" lon="12.0693616"><ele>306.0</ele><time>2026-04-25T12:06:53.454Z</time></trkpt><trkpt lat="46.1024395" lon="12.0694277"><ele>306.0</ele><time>2026-04-25T12:06:55.449Z</time></trkpt><trkpt lat="46.1024881" lon="12.0695168"><ele>306.0</ele><time>2026-04-25T12:06:58.45Z</time></trkpt><trkpt lat="46.1025268" lon="12.0696273"><ele>306.0</ele><time>2026-04-25T12:07:01.456Z</time></trkpt><trkpt lat="46.1025656" lon="12.0697177"><ele>306.0</ele><time>2026-04-25T12:07:03.454Z</time></trkpt><trkpt lat="46.1026132" lon="12.0698081"><ele>306.0</ele><time>2026-04-25T12:07:05.45Z</time></trkpt><trkpt lat="46.1026654" lon="12.0698958"><ele>306.0</ele><time>2026-04-25T12:07:07.445Z</time></trkpt><trkpt lat="46.1027165" lon="12.0699947"><ele>306.0</ele><time>2026-04-25T12:07:09.452Z</time></trkpt><trkpt lat="46.1027707" lon="12.0700969"><ele>306.0</ele><time>2026-04-25T12:07:11.454Z</time></trkpt><trkpt lat="46.1028254" lon="12.0701896"><ele>306.0</ele><time>2026-04-25T12:07:13.453Z</time></trkpt><trkpt lat="46.1028786" lon="12.0702799"><ele>306.0</ele><time>2026-04-25T12:07:15.446Z</time></trkpt><trkpt lat="46.1029315" lon="12.0703629"><ele>306.0</ele><time>2026-04-25T12:07:17.441Z</time></trkpt><trkpt lat="46.102982" lon="12.0704422"><ele>306.0</ele><time>2026-04-25T12:07:19.438Z</time></trkpt><trkpt lat="46.1030317" lon="12.0705158"><ele>306.0</ele><time>2026-04-25T12:07:21.612Z</time></trkpt><trkpt lat="46.1030814" lon="12.0705889"><ele>306.0</ele><time>2026-04-25T12:07:23.451Z</time></trkpt><trkpt lat="46.1031304" lon="12.0706543"><ele>306.0</ele><time>2026-04-25T12:07:25.445Z</time></trkpt><trkpt lat="46.1031852" lon="12.0707254"><ele>306.0</ele><time>2026-04-25T12:07:28.452Z</time></trkpt><trkpt lat="46.1032413" lon="12.0707938"><ele>306.0</ele><time>2026-04-25T12:07:31.438Z</time></trkpt><trkpt lat="46.1032975" lon="12.0708563"><ele>306.1666666666667</ele><time>2026-04-25T12:07:34.442Z</time></trkpt><trkpt lat="46.1033576" lon="12.0709332"><ele>306.3333333333333</ele><time>2026-04-25T12:07:40.442Z</time></trkpt><trkpt lat="46.1034139" lon="12.0710458"><ele>306.5</ele><time>2026-04-25T12:07:44.45Z</time></trkpt><trkpt lat="46.1034421" lon="12.0711289"><ele>306.66666666666663</ele><time>2026-04-25T12:07:46.451Z</time></trkpt><trkpt lat="46.1034771" lon="12.0712226"><ele>306.8333333333333</ele><time>2026-04-25T12:07:48.44Z</time></trkpt><trkpt lat="46.1035111" lon="12.0713217"><ele>307.0</ele><time>2026-04-25T12:07:50.447Z</time></trkpt><trkpt lat="46.1035459" lon="12.0714125"><ele>306.99999999999994</ele><time>2026-04-25T12:07:52.45Z</time></trkpt><trkpt lat="46.1035793" lon="12.0715067"><ele>307.0</ele><time>2026-04-25T12:07:54.447Z</time></trkpt><trkpt lat="46.1036102" lon="12.0715991"><ele>307.0</ele><time>2026-04-25T12:07:56.451Z</time></trkpt><trkpt lat="46.1036397" lon="12.0716897"><ele>307.0</ele><time>2026-04-25T12:07:58.449Z</time></trkpt><trkpt lat="46.1036672" lon="12.0717748"><ele>307.0</ele><time>2026-04-25T12:08:00.447Z</time></trkpt><trkpt lat="46.1036965" lon="12.0718655"><ele>306.99999999999994</ele><time>2026-04-25T12:08:02.438Z</time></trkpt><trkpt lat="46.1037283" lon="12.071963"><ele>307.0</ele><time>2026-04-25T12:08:04.447Z</time></trkpt><trkpt lat="46.1037655" lon="12.0720702"><ele>306.8333333333333</ele><time>2026-04-25T12:08:06.448Z</time></trkpt><trkpt lat="46.1038015" lon="12.0721813"><ele>306.66666666666663</ele><time>2026-04-25T12:08:08.449Z</time></trkpt><trkpt lat="46.1038389" lon="12.0722962"><ele>306.5</ele><time>2026-04-25T12:08:10.442Z</time></trkpt><trkpt lat="46.1038766" lon="12.0724117"><ele>306.3333333333333</ele><time>2026-04-25T12:08:12.448Z</time></trkpt><trkpt lat="46.1039133" lon="12.0725175"><ele>306.1666666666667</ele><time>2026-04-25T12:08:14.448Z</time></trkpt><trkpt lat="46.1039469" lon="12.0726069"><ele>306.0</ele><time>2026-04-25T12:08:16.448Z</time></trkpt><trkpt lat="46.1039778" lon="12.0727289"><ele>306.0</ele><time>2026-04-25T12:08:19.45Z</time></trkpt><trkpt lat="46.1040133" lon="12.0728468"><ele>306.0</ele><time>2026-04-25T12:08:22.44Z</time></trkpt><trkpt lat="46.1040534" lon="12.0729687"><ele>306.0</ele><time>2026-04-25T12:08:25.453Z</time></trkpt><trkpt lat="46.1040768" lon="12.0730739"><ele>306.0</ele><time>2026-04-25T12:08:27.44Z</time></trkpt><trkpt lat="46.1041115" lon="12.0731959"><ele>306.0</ele><time>2026-04-25T12:08:29.45Z</time></trkpt><trkpt lat="46.1041511" lon="12.0733195"><ele>306.0</ele><time>2026-04-25T12:08:31.446Z</time></trkpt><trkpt lat="46.1041848" lon="12.0734381"><ele>306.0</ele><time>2026-04-25T12:08:33.452Z</time></trkpt><trkpt lat="46.1042222" lon="12.0735544"><ele>306.0</ele><time>2026-04-25T12:08:35.44Z</time></trkpt><trkpt lat="46.1042602" lon="12.0736728"><ele>306.0</ele><time>2026-04-25T12:08:37.438Z</time></trkpt><trkpt lat="46.104295" lon="12.073794"><ele>306.0</ele><time>2026-04-25T12:08:39.447Z</time></trkpt><trkpt lat="46.104323" lon="12.0738921"><ele>306.0</ele><time>2026-04-25T12:08:41.45Z</time></trkpt><trkpt lat="46.1043564" lon="12.0740178"><ele>306.0</ele><time>2026-04-25T12:08:44.44Z</time></trkpt><trkpt lat="46.1043899" lon="12.0741009"><ele>305.6</ele><time>2026-04-25T12:08:46.438Z</time></trkpt><trkpt lat="46.1044265" lon="12.0742066"><ele>305.20000000000005</ele><time>2026-04-25T12:08:48.448Z</time></trkpt><trkpt lat="46.1044598" lon="12.0743289"><ele>304.79999999999995</ele><time>2026-04-25T12:08:50.447Z</time></trkpt><trkpt lat="46.1045492" lon="12.0744234"><ele>304.4</ele><time>2026-04-25T12:08:52.439Z</time></trkpt><trkpt lat="46.1046116" lon="12.0745328"><ele>304.0</ele><time>2026-04-25T12:08:54.454Z</time></trkpt><trkpt lat="46.1046414" lon="12.0746797"><ele>304.0</ele><time>2026-04-25T12:08:56.451Z</time></trkpt><trkpt lat="46.1046225" lon="12.0748994"><ele>304.0</ele><time>2026-04-25T12:08:59.449Z</time></trkpt><trkpt lat="46.1046239" lon="12.0750384"><ele>304.0</ele><time>2026-04-25T12:09:01.441Z</time></trkpt><trkpt lat="46.1046526" lon="12.0751214"><ele>304.0</ele><time>2026-04-25T12:09:03.46Z</time></trkpt><trkpt lat="46.1046622" lon="12.0752117"><ele>304.0</ele><time>2026-04-25T12:09:05.45Z</time></trkpt><trkpt lat="46.1046626" lon="12.0753092"><ele>304.0</ele><time>2026-04-25T12:09:07.448Z</time></trkpt><trkpt lat="46.1046687" lon="12.0754128"><ele>303.8333333333333</ele><time>2026-04-25T12:09:09.451Z</time></trkpt><trkpt lat="46.1047043" lon="12.0755087"><ele>303.66666666666663</ele><time>2026-04-25T12:09:11.449Z</time></trkpt><trkpt lat="46.1047432" lon="12.0756107"><ele>303.5</ele><time>2026-04-25T12:09:13.447Z</time></trkpt><trkpt lat="46.1047747" lon="12.0756985"><ele>303.3333333333333</ele><time>2026-04-25T12:09:15.45Z</time></trkpt><trkpt lat="46.1048163" lon="12.0758279"><ele>303.1666666666667</ele><time>2026-04-25T12:09:17.435Z</time></trkpt><trkpt lat="46.1048546" lon="12.0759432"><ele>303.0</ele><time>2026-04-25T12:09:19.442Z</time></trkpt><trkpt lat="46.1048925" lon="12.0760532"><ele>302.8571428571429</ele><time>2026-04-25T12:09:21.449Z</time></trkpt><trkpt lat="46.1049214" lon="12.0761453"><ele>302.7142857142857</ele><time>2026-04-25T12:09:23.451Z</time></trkpt><trkpt lat="46.1049428" lon="12.0762613"><ele>302.57142857142856</ele><time>2026-04-25T12:09:25.439Z</time></trkpt><trkpt lat="46.1049773" lon="12.0763477"><ele>302.42857142857144</ele><time>2026-04-25T12:09:27.438Z</time></trkpt><trkpt lat="46.1050107" lon="12.0764291"><ele>302.2857142857143</ele><time>2026-04-25T12:09:29.439Z</time></trkpt><trkpt lat="46.1050402" lon="12.0765298"><ele>302.14285714285717</ele><time>2026-04-25T12:09:31.437Z</time></trkpt><trkpt lat="46.105061" lon="12.0766225"><ele>302.0</ele><time>2026-04-25T12:09:33.455Z</time></trkpt><trkpt lat="46.1050414" lon="12.0767419"><ele>302.0</ele><time>2026-04-25T12:09:37.44Z</time></trkpt><trkpt lat="46.1050637" lon="12.0768536"><ele>302.0</ele><time>2026-04-25T12:09:40.437Z</time></trkpt><trkpt lat="46.1051067" lon="12.0769621"><ele>302.0</ele><time>2026-04-25T12:09:42.437Z</time></trkpt><trkpt lat="46.1051431" lon="12.0770563"><ele>302.0</ele><time>2026-04-25T12:09:44.447Z</time></trkpt><trkpt lat="46.1051824" lon="12.0771487"><ele>302.0</ele><time>2026-04-25T12:09:46.449Z</time></trkpt><trkpt lat="46.1052301" lon="12.0772365"><ele>302.0</ele><time>2026-04-25T12:09:48.447Z</time></trkpt><trkpt lat="46.1052837" lon="12.0773315"><ele>302.0</ele><time>2026-04-25T12:09:50.439Z</time></trkpt><trkpt lat="46.1053354" lon="12.0774293"><ele>302.0</ele><time>2026-04-25T12:09:52.438Z</time></trkpt><trkpt lat="46.1053833" lon="12.0775117"><ele>302.0</ele><time>2026-04-25T12:09:54.449Z</time></trkpt><trkpt lat="46.105436" lon="12.0775671"><ele>302.0</ele><time>2026-04-25T12:09:57.45Z</time></trkpt><trkpt lat="46.1055049" lon="12.0776379"><ele>302.0</ele><time>2026-04-25T12:10:04.449Z</time></trkpt><trkpt lat="46.1055632" lon="12.0777003"><ele>302.0</ele><time>2026-04-25T12:10:07.448Z</time></trkpt><trkpt lat="46.1056179" lon="12.0777589"><ele>301.83333333333337</ele><time>2026-04-25T12:10:12.439Z</time></trkpt><trkpt lat="46.1056751" lon="12.077815"><ele>301.6666666666667</ele><time>2026-04-25T12:10:15.44Z</time></trkpt><trkpt lat="46.1057312" lon="12.0778921"><ele>301.5</ele><time>2026-04-25T12:10:17.447Z</time></trkpt><trkpt lat="46.1057994" lon="12.0779659"><ele>301.3333333333333</ele><time>2026-04-25T12:10:19.45Z</time></trkpt><trkpt lat="46.1058693" lon="12.0780452"><ele>301.16666666666663</ele><time>2026-04-25T12:10:21.448Z</time></trkpt><trkpt lat="46.105939" lon="12.0781399"><ele>301.0</ele><time>2026-04-25T12:10:23.46Z</time></trkpt><trkpt lat="46.10601" lon="12.0782199"><ele>300.66666666666663</ele><time>2026-04-25T12:10:25.449Z</time></trkpt><trkpt lat="46.1060831" lon="12.0782985"><ele>300.3333333333333</ele><time>2026-04-25T12:10:27.442Z</time></trkpt><trkpt lat="46.1061406" lon="12.0783971"><ele>300.0</ele><time>2026-04-25T12:10:29.44Z</time></trkpt><trkpt lat="46.1061704" lon="12.0785128"><ele>299.6666666666667</ele><time>2026-04-25T12:10:31.437Z</time></trkpt><trkpt lat="46.1062018" lon="12.0786278"><ele>299.33333333333337</ele><time>2026-04-25T12:10:33.437Z</time></trkpt><trkpt lat="46.106227" lon="12.0787194"><ele>299.0</ele><time>2026-04-25T12:10:35.441Z</time></trkpt><trkpt lat="46.1062526" lon="12.0788328"><ele>299.0</ele><time>2026-04-25T12:10:38.437Z</time></trkpt><trkpt lat="46.1063303" lon="12.0789272"><ele>299.0</ele><time>2026-04-25T12:10:41.437Z</time></trkpt><trkpt lat="46.1063882" lon="12.0790023"><ele>299.0</ele><time>2026-04-25T12:10:43.439Z</time></trkpt><trkpt lat="46.106444" lon="12.0790969"><ele>299.0</ele><time>2026-04-25T12:10:45.437Z</time></trkpt><trkpt lat="46.1064957" lon="12.0791918"><ele>299.0</ele><time>2026-04-25T12:10:47.44Z</time></trkpt><trkpt lat="46.106553" lon="12.079267"><ele>299.0</ele><time>2026-04-25T12:10:49.438Z</time></trkpt><trkpt lat="46.1066211" lon="12.0793241"><ele>299.6666666666667</ele><time>2026-04-25T12:10:51.437Z</time></trkpt><trkpt lat="46.1066781" lon="12.0793823"><ele>300.33333333333337</ele><time>2026-04-25T12:10:53.438Z</time></trkpt><trkpt lat="46.1067354" lon="12.0794473"><ele>301.0</ele><time>2026-04-25T12:10:55.438Z</time></trkpt><trkpt lat="46.1068044" lon="12.0795056"><ele>301.6666666666667</ele><time>2026-04-25T12:10:57.436Z</time></trkpt><trkpt lat="46.1068705" lon="12.0795463"><ele>302.3333333333333</ele><time>2026-04-25T12:10:59.438Z</time></trkpt><trkpt lat="46.1069436" lon="12.079587"><ele>303.0</ele><time>2026-04-25T12:11:01.436Z</time></trkpt><trkpt lat="46.1070139" lon="12.0796369"><ele>303.0</ele><time>2026-04-25T12:11:03.446Z</time></trkpt><trkpt lat="46.1070735" lon="12.0797441"><ele>303.0</ele><time>2026-04-25T12:11:05.435Z</time></trkpt><trkpt lat="46.1071173" lon="12.0798374"><ele>303.0</ele><time>2026-04-25T12:11:07.438Z</time></trkpt><trkpt lat="46.1071664" lon="12.0799214"><ele>303.0</ele><time>2026-04-25T12:11:09.436Z</time></trkpt><trkpt lat="46.1072116" lon="12.080016"><ele>303.0</ele><time>2026-04-25T12:11:11.438Z</time></trkpt><trkpt lat="46.1072627" lon="12.0801201"><ele>303.0</ele><time>2026-04-25T12:11:13.442Z</time></trkpt><trkpt lat="46.1072855" lon="12.0802279"><ele>303.5</ele><time>2026-04-25T12:11:15.437Z</time></trkpt><trkpt lat="46.1072963" lon="12.0803503"><ele>304.0</ele><time>2026-04-25T12:11:17.437Z</time></trkpt><trkpt lat="46.1072993" lon="12.080458"><ele>304.5</ele><time>2026-04-25T12:11:19.446Z</time></trkpt><trkpt lat="46.1073516" lon="12.0805632"><ele>305.0</ele><time>2026-04-25T12:11:21.536Z</time></trkpt><trkpt lat="46.1073982" lon="12.0806538"><ele>305.5</ele><time>2026-04-25T12:11:23.438Z</time></trkpt><trkpt lat="46.1074374" lon="12.0807377"><ele>306.0</ele><time>2026-04-25T12:11:27.436Z</time></trkpt><trkpt lat="46.107502" lon="12.0807054"><ele>306.0</ele><time>2026-04-25T12:11:32.436Z</time></trkpt><trkpt lat="46.1075668" lon="12.0806391"><ele>306.0</ele><time>2026-04-25T12:11:35.439Z</time></trkpt><trkpt lat="46.1076245" lon="12.0805776"><ele>306.0</ele><time>2026-04-25T12:11:38.437Z</time></trkpt><trkpt lat="46.107547" lon="12.0806279"><ele>306.0</ele><time>2026-04-25T12:11:53.44Z</time></trkpt><trkpt lat="46.1074951" lon="12.0806887"><ele>306.0</ele><time>2026-04-25T12:11:56.436Z</time></trkpt><trkpt lat="46.1074286" lon="12.0806731"><ele>306.0</ele><time>2026-04-25T12:12:00.435Z</time></trkpt><trkpt lat="46.1073806" lon="12.0806011"><ele>306.0</ele><time>2026-04-25T12:12:06.437Z</time></trkpt><trkpt lat="46.1073447" lon="12.0804925"><ele>306.1428571428571</ele><time>2026-04-25T12:12:10.438Z</time></trkpt><trkpt lat="46.1073377" lon="12.0803983"><ele>306.2857142857143</ele><time>2026-04-25T12:12:13.447Z</time></trkpt><trkpt lat="46.107338" lon="12.0803033"><ele>306.42857142857144</ele><time>2026-04-25T12:12:15.435Z</time></trkpt><trkpt lat="46.1073232" lon="12.0802009"><ele>306.57142857142856</ele><time>2026-04-25T12:12:17.441Z</time></trkpt><trkpt lat="46.1072936" lon="12.0801112"><ele>306.7142857142857</ele><time>2026-04-25T12:12:19.436Z</time></trkpt><trkpt lat="46.1072492" lon="12.0800158"><ele>306.85714285714283</ele><time>2026-04-25T12:12:21.437Z</time></trkpt><trkpt lat="46.107196" lon="12.0799236"><ele>307.0</ele><time>2026-04-25T12:12:23.441Z</time></trkpt><trkpt lat="46.1071408" lon="12.0798179"><ele>306.3333333333333</ele><time>2026-04-25T12:12:25.443Z</time></trkpt><trkpt lat="46.107089" lon="12.0797266"><ele>305.66666666666663</ele><time>2026-04-25T12:12:27.438Z</time></trkpt><trkpt lat="46.1070316" lon="12.0796445"><ele>305.0</ele><time>2026-04-25T12:12:29.436Z</time></trkpt><trkpt lat="46.1069617" lon="12.0795815"><ele>304.3333333333333</ele><time>2026-04-25T12:12:31.436Z</time></trkpt><trkpt lat="46.1068767" lon="12.0795201"><ele>303.6666666666667</ele><time>2026-04-25T12:12:33.438Z</time></trkpt><trkpt lat="46.1067958" lon="12.0794572"><ele>303.0</ele><time>2026-04-25T12:12:35.435Z</time></trkpt><trkpt lat="46.1067192" lon="12.0793945"><ele>303.0</ele><time>2026-04-25T12:12:37.438Z</time></trkpt><trkpt lat="46.1066522" lon="12.0793142"><ele>303.0</ele><time>2026-04-25T12:12:39.433Z</time></trkpt><trkpt lat="46.1065927" lon="12.0792449"><ele>303.0</ele><time>2026-04-25T12:12:41.436Z</time></trkpt><trkpt lat="46.1065196" lon="12.0791719"><ele>303.0</ele><time>2026-04-25T12:12:43.44Z</time></trkpt><trkpt lat="46.10646" lon="12.079078"><ele>303.0</ele><time>2026-04-25T12:12:45.436Z</time></trkpt><trkpt lat="46.1064082" lon="12.0789969"><ele>303.0</ele><time>2026-04-25T12:12:47.434Z</time></trkpt><trkpt lat="46.1063454" lon="12.0789181"><ele>302.42857142857144</ele><time>2026-04-25T12:12:49.436Z</time></trkpt><trkpt lat="46.1062825" lon="12.0788367"><ele>301.85714285714283</ele><time>2026-04-25T12:12:51.434Z</time></trkpt><trkpt lat="46.1062438" lon="12.0787463"><ele>301.2857142857143</ele><time>2026-04-25T12:12:53.435Z</time></trkpt><trkpt lat="46.1062624" lon="12.0786542"><ele>300.7142857142857</ele><time>2026-04-25T12:12:58.439Z</time></trkpt><trkpt lat="46.1063341" lon="12.0786116"><ele>300.14285714285717</ele><time>2026-04-25T12:13:02.436Z</time></trkpt><trkpt lat="46.1064058" lon="12.0786071"><ele>299.57142857142856</ele><time>2026-04-25T12:13:47.434Z</time></trkpt><trkpt lat="46.1064684" lon="12.0785748"><ele>299.0</ele><time>2026-04-25T12:13:50.44Z</time></trkpt><trkpt lat="46.1065059" lon="12.0784939"><ele>299.0</ele><time>2026-04-25T12:13:58.436Z</time></trkpt><trkpt lat="46.1065507" lon="12.078566"><ele>299.0</ele><time>2026-04-25T12:14:50.435Z</time></trkpt><trkpt lat="46.1066121" lon="12.0785874"><ele>299.0</ele><time>2026-04-25T12:14:56.436Z</time></trkpt><trkpt lat="46.1066728" lon="12.0785523"><ele>299.0</ele><time>2026-04-25T12:15:30.436Z</time></trkpt><trkpt lat="46.1067365" lon="12.0785073"><ele>299.0</ele><time>2026-04-25T12:15:39.435Z</time></trkpt><trkpt lat="46.1068081" lon="12.0784663"><ele>299.0</ele><time>2026-04-25T12:15:44.434Z</time></trkpt><trkpt lat="46.1068703" lon="12.0785104"><ele>299.0</ele><time>2026-04-25T12:15:50.435Z</time></trkpt><trkpt lat="46.1069457" lon="12.078513"><ele>299.6666666666667</ele><time>2026-04-25T12:15:59.439Z</time></trkpt><trkpt lat="46.1070102" lon="12.0784705"><ele>300.33333333333337</ele><time>2026-04-25T12:16:04.438Z</time></trkpt><trkpt lat="46.1070819" lon="12.0784531"><ele>301.0</ele><time>2026-04-25T12:16:10.435Z</time></trkpt><trkpt lat="46.1071249" lon="12.0785217"><ele>301.6666666666667</ele><time>2026-04-25T12:16:14.434Z</time></trkpt><trkpt lat="46.1071834" lon="12.0786194"><ele>302.3333333333333</ele><time>2026-04-25T12:16:24.437Z</time></trkpt><trkpt lat="46.1072392" lon="12.0787178"><ele>303.0</ele><time>2026-04-25T12:16:27.439Z</time></trkpt><trkpt lat="46.1072989" lon="12.0788124"><ele>303.0</ele><time>2026-04-25T12:16:30.437Z</time></trkpt><trkpt lat="46.1073642" lon="12.0788857"><ele>303.0</ele><time>2026-04-25T12:16:33.443Z</time></trkpt><trkpt lat="46.1074302" lon="12.0789486"><ele>303.0</ele><time>2026-04-25T12:16:37.44Z</time></trkpt><trkpt lat="46.1074929" lon="12.0790126"><ele>303.0</ele><time>2026-04-25T12:16:40.438Z</time></trkpt><trkpt lat="46.1075303" lon="12.0791067"><ele>303.0</ele><time>2026-04-25T12:16:43.443Z</time></trkpt><trkpt lat="46.1075167" lon="12.0792229"><ele>303.0</ele><time>2026-04-25T12:16:47.435Z</time></trkpt><trkpt lat="46.1075409" lon="12.0793193"><ele>303.14285714285717</ele><time>2026-04-25T12:16:50.436Z</time></trkpt><trkpt lat="46.1075261" lon="12.0792209"><ele>303.2857142857143</ele><time>2026-04-25T12:17:12.436Z</time></trkpt><trkpt lat="46.1075284" lon="12.0791251"><ele>303.42857142857144</ele><time>2026-04-25T12:17:15.436Z</time></trkpt><trkpt lat="46.1075625" lon="12.0790179"><ele>303.57142857142856</ele><time>2026-04-25T12:17:20.435Z</time></trkpt><trkpt lat="46.1075902" lon="12.0789248"><ele>303.7142857142857</ele><time>2026-04-25T12:17:23.448Z</time></trkpt><trkpt lat="46.1076157" lon="12.0788396"><ele>303.85714285714283</ele><time>2026-04-25T12:17:27.435Z</time></trkpt><trkpt lat="46.1076667" lon="12.0787831"><ele>304.0</ele><time>2026-04-25T12:17:34.435Z</time></trkpt><trkpt lat="46.1077373" lon="12.0787747"><ele>304.0</ele><time>2026-04-25T12:17:41.436Z</time></trkpt><trkpt lat="46.1077921" lon="12.0788211"><ele>304.0</ele><time>2026-04-25T12:17:46.43Z</time></trkpt><trkpt lat="46.1078667" lon="12.0788116"><ele>304.0</ele><time>2026-04-25T12:17:51.433Z</time></trkpt><trkpt lat="46.1079298" lon="12.0788488"><ele>304.0</ele><time>2026-04-25T12:17:54.445Z</time></trkpt><trkpt lat="46.1079906" lon="12.0788789"><ele>304.0</ele><time>2026-04-25T12:17:57.438Z</time></trkpt><trkpt lat="46.1080678" lon="12.0788962"><ele>304.0</ele><time>2026-04-25T12:18:01.435Z</time></trkpt><trkpt lat="46.1081288" lon="12.0788351"><ele>304.0</ele><time>2026-04-25T12:18:07.432Z</time></trkpt><trkpt lat="46.108171" lon="12.0787561"><ele>304.0</ele><time>2026-04-25T12:18:11.445Z</time></trkpt><trkpt lat="46.1082032" lon="12.0786647"><ele>304.0</ele><time>2026-04-25T12:18:15.445Z</time></trkpt><trkpt lat="46.1081942" lon="12.078574"><ele>304.0</ele><time>2026-04-25T12:18:18.442Z</time></trkpt><trkpt lat="46.1081752" lon="12.0784821"><ele>304.0</ele><time>2026-04-25T12:18:23.442Z</time></trkpt><trkpt lat="46.1082387" lon="12.0784262"><ele>304.0</ele><time>2026-04-25T12:18:28.444Z</time></trkpt><trkpt lat="46.1082933" lon="12.078363"><ele>304.0</ele><time>2026-04-25T12:18:32.439Z</time></trkpt><trkpt lat="46.1082208" lon="12.0784213"><ele>304.0</ele><time>2026-04-25T12:19:15.437Z</time></trkpt><trkpt lat="46.1081556" lon="12.0784708"><ele>304.0</ele><time>2026-04-25T12:19:19.447Z</time></trkpt><trkpt lat="46.1080765" lon="12.0784688"><ele>304.0</ele><time>2026-04-25T12:19:22.437Z</time></trkpt><trkpt lat="46.1079999" lon="12.078417"><ele>304.0</ele><time>2026-04-25T12:19:25.445Z</time></trkpt><trkpt lat="46.1079145" lon="12.0783808"><ele>304.0</ele><time>2026-04-25T12:19:28.445Z</time></trkpt><trkpt lat="46.1078313" lon="12.0783733"><ele>304.0</ele><time>2026-04-25T12:19:31.438Z</time></trkpt><trkpt lat="46.1077614" lon="12.0783761"><ele>304.0</ele><time>2026-04-25T12:19:34.436Z</time></trkpt><trkpt lat="46.1076827" lon="12.0783519"><ele>304.0</ele><time>2026-04-25T12:19:39.452Z</time></trkpt><trkpt lat="46.1076155" lon="12.0783091"><ele>304.0</ele><time>2026-04-25T12:19:42.446Z</time></trkpt><trkpt lat="46.1075608" lon="12.0782421"><ele>304.0</ele><time>2026-04-25T12:19:45.437Z</time></trkpt><trkpt lat="46.1075172" lon="12.07813"><ele>304.0</ele><time>2026-04-25T12:19:48.441Z</time></trkpt><trkpt lat="46.1074767" lon="12.0780556"><ele>304.0</ele><time>2026-04-25T12:19:50.443Z</time></trkpt><trkpt lat="46.1074378" lon="12.0779809"><ele>304.0</ele><time>2026-04-25T12:19:52.439Z</time></trkpt><trkpt lat="46.1074066" lon="12.0778913"><ele>304.0</ele><time>2026-04-25T12:19:55.444Z</time></trkpt><trkpt lat="46.1073763" lon="12.0777812"><ele>304.1428571428571</ele><time>2026-04-25T12:19:59.444Z</time></trkpt><trkpt lat="46.107435" lon="12.077721"><ele>304.28571428571433</ele><time>2026-04-25T12:20:04.43Z</time></trkpt><trkpt lat="46.1075003" lon="12.0777261"><ele>304.42857142857144</ele><time>2026-04-25T12:20:07.435Z</time></trkpt><trkpt lat="46.1075817" lon="12.0777255"><ele>304.57142857142856</ele><time>2026-04-25T12:20:11.438Z</time></trkpt><trkpt lat="46.1076473" lon="12.0777104"><ele>304.71428571428567</ele><time>2026-04-25T12:20:13.444Z</time></trkpt><trkpt lat="46.1077347" lon="12.0776735"><ele>304.8571428571429</ele><time>2026-04-25T12:20:16.443Z</time></trkpt><trkpt lat="46.1078001" lon="12.0776661"><ele>305.0</ele><time>2026-04-25T12:20:18.441Z</time></trkpt><trkpt lat="46.1078675" lon="12.0776703"><ele>305.0</ele><time>2026-04-25T12:20:20.436Z</time></trkpt><trkpt lat="46.1079354" lon="12.0776804"><ele>305.0</ele><time>2026-04-25T12:20:22.441Z</time></trkpt><trkpt lat="46.1080035" lon="12.0777033"><ele>305.0</ele><time>2026-04-25T12:20:24.444Z</time></trkpt><trkpt lat="46.1080661" lon="12.0777414"><ele>305.0</ele><time>2026-04-25T12:20:26.443Z</time></trkpt><trkpt lat="46.1081363" lon="12.077784"><ele>305.0</ele><time>2026-04-25T12:20:28.439Z</time></trkpt><trkpt lat="46.1082073" lon="12.0778036"><ele>305.0</ele><time>2026-04-25T12:20:30.442Z</time></trkpt><trkpt lat="46.1082789" lon="12.0778042"><ele>305.0</ele><time>2026-04-25T12:20:32.437Z</time></trkpt><trkpt lat="46.1083471" lon="12.0777954"><ele>304.6666666666667</ele><time>2026-04-25T12:20:34.437Z</time></trkpt><trkpt lat="46.108424" lon="12.0777843"><ele>304.33333333333337</ele><time>2026-04-25T12:20:36.443Z</time></trkpt><trkpt lat="46.1084995" lon="12.0777801"><ele>304.0</ele><time>2026-04-25T12:20:38.444Z</time></trkpt><trkpt lat="46.1085735" lon="12.0777843"><ele>303.6666666666667</ele><time>2026-04-25T12:20:40.442Z</time></trkpt><trkpt lat="46.1086524" lon="12.0777997"><ele>303.3333333333333</ele><time>2026-04-25T12:20:42.441Z</time></trkpt><trkpt lat="46.1087296" lon="12.0778191"><ele>303.0</ele><time>2026-04-25T12:20:44.444Z</time></trkpt><trkpt lat="46.1088029" lon="12.0778371"><ele>303.0</ele><time>2026-04-25T12:20:46.443Z</time></trkpt><trkpt lat="46.1088732" lon="12.0778586"><ele>303.0</ele><time>2026-04-25T12:20:48.438Z</time></trkpt><trkpt lat="46.1089485" lon="12.0778775"><ele>303.0</ele><time>2026-04-25T12:20:50.431Z</time></trkpt><trkpt lat="46.109028" lon="12.0778726"><ele>303.0</ele><time>2026-04-25T12:20:52.447Z</time></trkpt><trkpt lat="46.1091081" lon="12.0778603"><ele>303.0</ele><time>2026-04-25T12:20:54.446Z</time></trkpt><trkpt lat="46.1091795" lon="12.0778651"><ele>303.0</ele><time>2026-04-25T12:20:56.445Z</time></trkpt><trkpt lat="46.1092491" lon="12.0778753"><ele>303.57142857142856</ele><time>2026-04-25T12:20:58.441Z</time></trkpt><trkpt lat="46.1093162" lon="12.0778706"><ele>304.1428571428571</ele><time>2026-04-25T12:21:00.44Z</time></trkpt><trkpt lat="46.109394" lon="12.0778665"><ele>304.71428571428567</ele><time>2026-04-25T12:21:02.432Z</time></trkpt><trkpt lat="46.1094557" lon="12.0778908"><ele>305.2857142857143</ele><time>2026-04-25T12:21:04.443Z</time></trkpt><trkpt lat="46.1095489" lon="12.0779215"><ele>305.85714285714283</ele><time>2026-04-25T12:21:07.445Z</time></trkpt><trkpt lat="46.1096224" lon="12.0779348"><ele>306.4285714285714</ele><time>2026-04-25T12:21:09.445Z</time></trkpt><trkpt lat="46.1096894" lon="12.0779397"><ele>307.0</ele><time>2026-04-25T12:21:11.446Z</time></trkpt><trkpt lat="46.1097636" lon="12.0779422"><ele>307.0</ele><time>2026-04-25T12:21:13.454Z</time></trkpt><trkpt lat="46.1098306" lon="12.0779554"><ele>307.0</ele><time>2026-04-25T12:21:15.432Z</time></trkpt><trkpt lat="46.1098953" lon="12.0779978"><ele>307.0</ele><time>2026-04-25T12:21:17.446Z</time></trkpt><trkpt lat="46.1099495" lon="12.0780752"><ele>307.0</ele><time>2026-04-25T12:21:19.448Z</time></trkpt><trkpt lat="46.1100145" lon="12.0781287"><ele>307.0</ele><time>2026-04-25T12:21:21.443Z</time></trkpt><trkpt lat="46.1100935" lon="12.0781237"><ele>307.0</ele><time>2026-04-25T12:21:23.443Z</time></trkpt><trkpt lat="46.1101736" lon="12.0780792"><ele>306.8333333333333</ele><time>2026-04-25T12:21:25.438Z</time></trkpt><trkpt lat="46.1102529" lon="12.0780732"><ele>306.66666666666663</ele><time>2026-04-25T12:21:27.444Z</time></trkpt><trkpt lat="46.1103295" lon="12.0780899"><ele>306.5</ele><time>2026-04-25T12:21:29.442Z</time></trkpt><trkpt lat="46.110406" lon="12.0780963"><ele>306.3333333333333</ele><time>2026-04-25T12:21:31.446Z</time></trkpt><trkpt lat="46.1104833" lon="12.0781059"><ele>306.1666666666667</ele><time>2026-04-25T12:21:33.451Z</time></trkpt><trkpt lat="46.1105593" lon="12.0781362"><ele>306.0</ele><time>2026-04-25T12:21:35.444Z</time></trkpt><trkpt lat="46.1106288" lon="12.0781899"><ele>306.0</ele><time>2026-04-25T12:21:37.446Z</time></trkpt><trkpt lat="46.1106981" lon="12.0782341"><ele>306.0</ele><time>2026-04-25T12:21:39.445Z</time></trkpt><trkpt lat="46.1107762" lon="12.0782655"><ele>306.0</ele><time>2026-04-25T12:21:41.444Z</time></trkpt><trkpt lat="46.1108583" lon="12.0782891"><ele>306.0</ele><time>2026-04-25T12:21:43.443Z</time></trkpt><trkpt lat="46.1109492" lon="12.0783292"><ele>306.0</ele><time>2026-04-25T12:21:45.445Z</time></trkpt><trkpt lat="46.1110276" lon="12.0783775"><ele>306.0</ele><time>2026-04-25T12:21:47.448Z</time></trkpt><trkpt lat="46.111105" lon="12.0784091"><ele>306.1666666666667</ele><time>2026-04-25T12:21:49.447Z</time></trkpt><trkpt lat="46.1111855" lon="12.0784247"><ele>306.3333333333333</ele><time>2026-04-25T12:21:51.441Z</time></trkpt><trkpt lat="46.1112798" lon="12.0784356"><ele>306.5</ele><time>2026-04-25T12:21:53.448Z</time></trkpt><trkpt lat="46.1113727" lon="12.0784619"><ele>306.66666666666663</ele><time>2026-04-25T12:21:55.45Z</time></trkpt><trkpt lat="46.1114532" lon="12.0784845"><ele>306.8333333333333</ele><time>2026-04-25T12:21:57.443Z</time></trkpt><trkpt lat="46.1115217" lon="12.0785506"><ele>307.0</ele><time>2026-04-25T12:21:59.447Z</time></trkpt><trkpt lat="46.1115825" lon="12.0786205"><ele>307.16666666666663</ele><time>2026-04-25T12:22:01.439Z</time></trkpt><trkpt lat="46.1116479" lon="12.0786964"><ele>307.3333333333333</ele><time>2026-04-25T12:22:03.443Z</time></trkpt><trkpt lat="46.1117072" lon="12.0787782"><ele>307.5</ele><time>2026-04-25T12:22:05.438Z</time></trkpt><trkpt lat="46.1117584" lon="12.0788646"><ele>307.6666666666667</ele><time>2026-04-25T12:22:07.439Z</time></trkpt><trkpt lat="46.111822" lon="12.0789215"><ele>307.83333333333337</ele><time>2026-04-25T12:22:09.437Z</time></trkpt><trkpt lat="46.1119039" lon="12.0789496"><ele>308.0</ele><time>2026-04-25T12:22:11.439Z</time></trkpt><trkpt lat="46.111988" lon="12.0789725"><ele>308.0</ele><time>2026-04-25T12:22:13.44Z</time></trkpt><trkpt lat="46.1120703" lon="12.079003"><ele>308.0</ele><time>2026-04-25T12:22:15.434Z</time></trkpt><trkpt lat="46.1121522" lon="12.0790131"><ele>308.0</ele><time>2026-04-25T12:22:17.436Z</time></trkpt><trkpt lat="46.1122331" lon="12.0790212"><ele>308.0</ele><time>2026-04-25T12:22:19.443Z</time></trkpt><trkpt lat="46.1123159" lon="12.0790595"><ele>308.0</ele><time>2026-04-25T12:22:21.441Z</time></trkpt><trkpt lat="46.1123905" lon="12.0790744"><ele>308.0</ele><time>2026-04-25T12:22:23.45Z</time></trkpt><trkpt lat="46.1124556" lon="12.0790392"><ele>308.5</ele><time>2026-04-25T12:22:25.448Z</time></trkpt><trkpt lat="46.1125241" lon="12.0789699"><ele>309.0</ele><time>2026-04-25T12:22:27.442Z</time></trkpt><trkpt lat="46.1125728" lon="12.078891"><ele>309.5</ele><time>2026-04-25T12:22:29.436Z</time></trkpt><trkpt lat="46.1126171" lon="12.078804"><ele>310.0</ele><time>2026-04-25T12:22:31.432Z</time></trkpt><trkpt lat="46.1126935" lon="12.0787746"><ele>310.5</ele><time>2026-04-25T12:22:33.44Z</time></trkpt><trkpt lat="46.112787" lon="12.0788136"><ele>311.0</ele><time>2026-04-25T12:22:35.44Z</time></trkpt><trkpt lat="46.112867" lon="12.0788387"><ele>311.0</ele><time>2026-04-25T12:22:37.44Z</time></trkpt><trkpt lat="46.1129466" lon="12.0788621"><ele>311.0</ele><time>2026-04-25T12:22:39.437Z</time></trkpt><trkpt lat="46.1130236" lon="12.0788558"><ele>311.0</ele><time>2026-04-25T12:22:41.437Z</time></trkpt><trkpt lat="46.1130745" lon="12.0787863"><ele>311.0</ele><time>2026-04-25T12:22:43.445Z</time></trkpt><trkpt lat="46.1130835" lon="12.0786891"><ele>311.0</ele><time>2026-04-25T12:22:45.448Z</time></trkpt><trkpt lat="46.1130924" lon="12.0785911"><ele>311.0</ele><time>2026-04-25T12:22:47.443Z</time></trkpt><trkpt lat="46.1131088" lon="12.0784772"><ele>311.0</ele><time>2026-04-25T12:22:49.448Z</time></trkpt><trkpt lat="46.1131294" lon="12.0783683"><ele>310.6666666666667</ele><time>2026-04-25T12:22:51.44Z</time></trkpt><trkpt lat="46.1131454" lon="12.0782503"><ele>310.33333333333337</ele><time>2026-04-25T12:22:54.442Z</time></trkpt><trkpt lat="46.1131659" lon="12.0781221"><ele>310.0</ele><time>2026-04-25T12:22:57.443Z</time></trkpt><trkpt lat="46.113168" lon="12.0780137"><ele>309.6666666666667</ele><time>2026-04-25T12:22:59.45Z</time></trkpt><trkpt lat="46.1131622" lon="12.0779143"><ele>309.3333333333333</ele><time>2026-04-25T12:23:01.441Z</time></trkpt><trkpt lat="46.1131531" lon="12.0778038"><ele>309.0</ele><time>2026-04-25T12:23:03.454Z</time></trkpt><trkpt lat="46.1131442" lon="12.0776886"><ele>309.0</ele><time>2026-04-25T12:23:05.446Z</time></trkpt><trkpt lat="46.1131364" lon="12.0775741"><ele>309.0</ele><time>2026-04-25T12:23:07.444Z</time></trkpt><trkpt lat="46.1131248" lon="12.0774566"><ele>309.0</ele><time>2026-04-25T12:23:09.446Z</time></trkpt><trkpt lat="46.1131125" lon="12.0773425"><ele>309.0</ele><time>2026-04-25T12:23:11.447Z</time></trkpt><trkpt lat="46.1130995" lon="12.0772331"><ele>309.0</ele><time>2026-04-25T12:23:13.452Z</time></trkpt><trkpt lat="46.1130822" lon="12.0771158"><ele>309.0</ele><time>2026-04-25T12:23:15.447Z</time></trkpt><trkpt lat="46.113055" lon="12.0770186"><ele>309.1666666666667</ele><time>2026-04-25T12:23:17.446Z</time></trkpt><trkpt lat="46.1131388" lon="12.0770254"><ele>309.3333333333333</ele><time>2026-04-25T12:23:25.449Z</time></trkpt><trkpt lat="46.113206" lon="12.0770863"><ele>309.5</ele><time>2026-04-25T12:23:27.444Z</time></trkpt><trkpt lat="46.1132767" lon="12.077125"><ele>309.66666666666663</ele><time>2026-04-25T12:23:29.451Z</time></trkpt><trkpt lat="46.1133499" lon="12.077175"><ele>309.8333333333333</ele><time>2026-04-25T12:23:31.439Z</time></trkpt><trkpt lat="46.1134272" lon="12.0772274"><ele>310.0</ele><time>2026-04-25T12:23:33.445Z</time></trkpt><trkpt lat="46.1135156" lon="12.0772717"><ele>309.6</ele><time>2026-04-25T12:23:35.431Z</time></trkpt><trkpt lat="46.1136058" lon="12.077295"><ele>309.2</ele><time>2026-04-25T12:23:37.452Z</time></trkpt><trkpt lat="46.1136923" lon="12.0773069"><ele>308.8</ele><time>2026-04-25T12:23:39.452Z</time></trkpt><trkpt lat="46.1137873" lon="12.077315"><ele>308.4</ele><time>2026-04-25T12:23:41.45Z</time></trkpt><trkpt lat="46.1138779" lon="12.077332"><ele>308.0</ele><time>2026-04-25T12:23:43.443Z</time></trkpt><trkpt lat="46.1139626" lon="12.0773601"><ele>308.0</ele><time>2026-04-25T12:23:45.455Z</time></trkpt><trkpt lat="46.1140438" lon="12.0773843"><ele>308.0</ele><time>2026-04-25T12:23:47.442Z</time></trkpt><trkpt lat="46.1141177" lon="12.0773966"><ele>308.0</ele><time>2026-04-25T12:23:49.449Z</time></trkpt><trkpt lat="46.114184" lon="12.0774051"><ele>308.0</ele><time>2026-04-25T12:23:51.452Z</time></trkpt><trkpt lat="46.1142567" lon="12.0774013"><ele>308.0</ele><time>2026-04-25T12:23:53.46Z</time></trkpt><trkpt lat="46.1143404" lon="12.0773811"><ele>308.0</ele><time>2026-04-25T12:23:55.451Z</time></trkpt><trkpt lat="46.1144119" lon="12.0773616"><ele>308.1666666666667</ele><time>2026-04-25T12:23:57.447Z</time></trkpt><trkpt lat="46.1144936" lon="12.0773532"><ele>308.33333333333337</ele><time>2026-04-25T12:24:00.448Z</time></trkpt><trkpt lat="46.1145584" lon="12.0773722"><ele>308.5</ele><time>2026-04-25T12:24:03.452Z</time></trkpt><trkpt lat="46.1146271" lon="12.0773293"><ele>308.6666666666667</ele><time>2026-04-25T12:24:07.442Z</time></trkpt><trkpt lat="46.1146806" lon="12.0772348"><ele>308.8333333333333</ele><time>2026-04-25T12:24:10.444Z</time></trkpt><trkpt lat="46.1147205" lon="12.0771625"><ele>309.0</ele><time>2026-04-25T12:24:12.438Z</time></trkpt><trkpt lat="46.1147626" lon="12.0770621"><ele>309.00000000000006</ele><time>2026-04-25T12:24:15.442Z</time></trkpt><trkpt lat="46.1148106" lon="12.0769723"><ele>309.0</ele><time>2026-04-25T12:24:18.438Z</time></trkpt><trkpt lat="46.1148561" lon="12.0768892"><ele>309.0</ele><time>2026-04-25T12:25:27.444Z</time></trkpt><trkpt lat="46.1149148" lon="12.0768421"><ele>309.0</ele><time>2026-04-25T12:25:39.44Z</time></trkpt><trkpt lat="46.1149746" lon="12.0767661"><ele>309.0</ele><time>2026-04-25T12:25:43.444Z</time></trkpt><trkpt lat="46.1150279" lon="12.076706"><ele>309.00000000000006</ele><time>2026-04-25T12:25:47.442Z</time></trkpt><trkpt lat="46.1151049" lon="12.076715"><ele>309.0</ele><time>2026-04-25T12:26:01.434Z</time></trkpt><trkpt lat="46.115158" lon="12.0766622"><ele>309.5</ele><time>2026-04-25T12:26:05.445Z</time></trkpt><trkpt lat="46.115145" lon="12.0765679"><ele>310.0</ele><time>2026-04-25T12:26:11.433Z</time></trkpt><trkpt lat="46.1151334" lon="12.0764412"><ele>310.5</ele><time>2026-04-25T12:26:15.436Z</time></trkpt><trkpt lat="46.1151423" lon="12.0763224"><ele>311.0</ele><time>2026-04-25T12:26:18.437Z</time></trkpt><trkpt lat="46.1151708" lon="12.0762234"><ele>311.5</ele><time>2026-04-25T12:26:21.434Z</time></trkpt><trkpt lat="46.1152249" lon="12.0761332"><ele>312.0</ele><time>2026-04-25T12:26:24.434Z</time></trkpt><trkpt lat="46.1152784" lon="12.0760483"><ele>312.0</ele><time>2026-04-25T12:26:27.432Z</time></trkpt><trkpt lat="46.1153262" lon="12.0759697"><ele>312.0</ele><time>2026-04-25T12:26:30.442Z</time></trkpt><trkpt lat="46.1153719" lon="12.0758768"><ele>312.0</ele><time>2026-04-25T12:26:33.443Z</time></trkpt><trkpt lat="46.1154139" lon="12.0757899"><ele>312.0</ele><time>2026-04-25T12:26:36.435Z</time></trkpt><trkpt lat="46.1154538" lon="12.0757065"><ele>312.0</ele><time>2026-04-25T12:26:39.435Z</time></trkpt><trkpt lat="46.115497" lon="12.0756203"><ele>312.0</ele><time>2026-04-25T12:26:42.435Z</time></trkpt><trkpt lat="46.1155382" lon="12.0755442"><ele>312.0</ele><time>2026-04-25T12:26:45.435Z</time></trkpt><trkpt lat="46.1155727" lon="12.0754553"><ele>312.3333333333333</ele><time>2026-04-25T12:26:48.435Z</time></trkpt><trkpt lat="46.1155913" lon="12.0753522"><ele>312.6666666666667</ele><time>2026-04-25T12:26:52.434Z</time></trkpt><trkpt lat="46.1155967" lon="12.0752601"><ele>313.0</ele><time>2026-04-25T12:26:55.444Z</time></trkpt><trkpt lat="46.1155427" lon="12.0751795"><ele>313.33333333333337</ele><time>2026-04-25T12:26:57.453Z</time></trkpt><trkpt lat="46.1154637" lon="12.0751372"><ele>313.6666666666667</ele><time>2026-04-25T12:26:59.451Z</time></trkpt><trkpt lat="46.1153626" lon="12.0751185"><ele>314.0</ele><time>2026-04-25T12:27:01.433Z</time></trkpt><trkpt lat="46.1152706" lon="12.0750746"><ele>314.0</ele><time>2026-04-25T12:27:03.455Z</time></trkpt><trkpt lat="46.1151796" lon="12.0750342"><ele>314.0</ele><time>2026-04-25T12:27:05.443Z</time></trkpt><trkpt lat="46.1150799" lon="12.074991"><ele>314.0</ele><time>2026-04-25T12:27:07.453Z</time></trkpt><trkpt lat="46.1149806" lon="12.0749421"><ele>314.0</ele><time>2026-04-25T12:27:09.451Z</time></trkpt><trkpt lat="46.114886" lon="12.0748809"><ele>314.0</ele><time>2026-04-25T12:27:11.45Z</time></trkpt><trkpt lat="46.1147884" lon="12.074822"><ele>314.2</ele><time>2026-04-25T12:27:13.458Z</time></trkpt><trkpt lat="46.1146845" lon="12.0747584"><ele>314.4</ele><time>2026-04-25T12:27:15.448Z</time></trkpt><trkpt lat="46.1145824" lon="12.0747003"><ele>314.6</ele><time>2026-04-25T12:27:17.444Z</time></trkpt><trkpt lat="46.1144968" lon="12.0746398"><ele>314.8</ele><time>2026-04-25T12:27:19.434Z</time></trkpt><trkpt lat="46.1144144" lon="12.0745837"><ele>315.0</ele><time>2026-04-25T12:27:21.435Z</time></trkpt><trkpt lat="46.1143424" lon="12.0745166"><ele>315.0</ele><time>2026-04-25T12:27:23.451Z</time></trkpt><trkpt lat="46.1143128" lon="12.0743881"><ele>315.0</ele><time>2026-04-25T12:27:25.451Z</time></trkpt><trkpt lat="46.1143246" lon="12.0742477"><ele>315.0</ele><time>2026-04-25T12:27:27.562Z</time></trkpt><trkpt lat="46.1143258" lon="12.0741044"><ele>315.0</ele><time>2026-04-25T12:27:29.449Z</time></trkpt><trkpt lat="46.1143188" lon="12.0739632"><ele>315.0</ele><time>2026-04-25T12:27:31.453Z</time></trkpt><trkpt lat="46.1143018" lon="12.0738185"><ele>315.2</ele><time>2026-04-25T12:27:33.454Z</time></trkpt><trkpt lat="46.11429" lon="12.0736676"><ele>315.4</ele><time>2026-04-25T12:27:35.452Z</time></trkpt><trkpt lat="46.1142606" lon="12.0735253"><ele>315.6</ele><time>2026-04-25T12:27:37.435Z</time></trkpt><trkpt lat="46.1142523" lon="12.0733714"><ele>315.8</ele><time>2026-04-25T12:27:39.445Z</time></trkpt><trkpt lat="46.1142429" lon="12.0732041"><ele>316.0</ele><time>2026-04-25T12:27:41.452Z</time></trkpt><trkpt lat="46.114251" lon="12.0730546"><ele>316.0</ele><time>2026-04-25T12:27:43.439Z</time></trkpt><trkpt lat="46.1142772" lon="12.0729182"><ele>316.0</ele><time>2026-04-25T12:27:45.453Z</time></trkpt><trkpt lat="46.1143174" lon="12.0727972"><ele>316.0</ele><time>2026-04-25T12:27:47.449Z</time></trkpt><trkpt lat="46.1143667" lon="12.0726925"><ele>316.0</ele><time>2026-04-25T12:27:49.444Z</time></trkpt><trkpt lat="46.114416" lon="12.0725888"><ele>316.0</ele><time>2026-04-25T12:27:51.451Z</time></trkpt><trkpt lat="46.1144735" lon="12.0724937"><ele>316.3333333333333</ele><time>2026-04-25T12:27:53.455Z</time></trkpt><trkpt lat="46.1145279" lon="12.0724041"><ele>316.66666666666663</ele><time>2026-04-25T12:27:55.447Z</time></trkpt><trkpt lat="46.1145794" lon="12.0723128"><ele>317.0</ele><time>2026-04-25T12:27:57.435Z</time></trkpt><trkpt lat="46.114631" lon="12.0722331"><ele>317.3333333333333</ele><time>2026-04-25T12:27:59.448Z</time></trkpt><trkpt lat="46.1146783" lon="12.0721521"><ele>317.6666666666667</ele><time>2026-04-25T12:28:01.447Z</time></trkpt><trkpt lat="46.1147247" lon="12.072075"><ele>318.0</ele><time>2026-04-25T12:28:03.454Z</time></trkpt><trkpt lat="46.114765" lon="12.0719929"><ele>318.0</ele><time>2026-04-25T12:28:05.45Z</time></trkpt><trkpt lat="46.1148258" lon="12.0718967"><ele>318.0</ele><time>2026-04-25T12:28:08.448Z</time></trkpt><trkpt lat="46.1149022" lon="12.07185"><ele>318.0</ele><time>2026-04-25T12:28:11.437Z</time></trkpt><trkpt lat="46.1149845" lon="12.0718589"><ele>318.0</ele><time>2026-04-25T12:28:14.455Z</time></trkpt><trkpt lat="46.1150599" lon="12.0718956"><ele>318.0</ele><time>2026-04-25T12:28:17.437Z</time></trkpt><trkpt lat="46.1151425" lon="12.0719435"><ele>318.0</ele><time>2026-04-25T12:28:20.439Z</time></trkpt><trkpt lat="46.1152201" lon="12.0719885"><ele>318.8333333333333</ele><time>2026-04-25T12:28:23.456Z</time></trkpt><trkpt lat="46.1153014" lon="12.0720336"><ele>319.6666666666667</ele><time>2026-04-25T12:28:26.449Z</time></trkpt><trkpt lat="46.1153695" lon="12.0720723"><ele>320.5</ele><time>2026-04-25T12:28:29.449Z</time></trkpt><trkpt lat="46.1154396" lon="12.0721157"><ele>321.33333333333337</ele><time>2026-04-25T12:28:33.459Z</time></trkpt><trkpt lat="46.1154945" lon="12.0721855"><ele>322.1666666666667</ele><time>2026-04-25T12:28:37.434Z</time></trkpt><trkpt lat="46.1155404" lon="12.0722557"><ele>323.0</ele><time>2026-04-25T12:28:41.439Z</time></trkpt><trkpt lat="46.1155916" lon="12.0723459"><ele>323.0</ele><time>2026-04-25T12:28:45.45Z</time></trkpt><trkpt lat="46.1156418" lon="12.0724285"><ele>323.0</ele><time>2026-04-25T12:28:48.451Z</time></trkpt><trkpt lat="46.1156957" lon="12.072523"><ele>323.0</ele><time>2026-04-25T12:28:51.451Z</time></trkpt><trkpt lat="46.115763" lon="12.0725946"><ele>323.0</ele><time>2026-04-25T12:28:54.447Z</time></trkpt><trkpt lat="46.1158377" lon="12.0726443"><ele>323.0</ele><time>2026-04-25T12:28:57.45Z</time></trkpt><trkpt lat="46.115909" lon="12.0726779"><ele>323.0</ele><time>2026-04-25T12:29:00.439Z</time></trkpt><trkpt lat="46.1159842" lon="12.0726951"><ele>323.8571428571429</ele><time>2026-04-25T12:29:03.452Z</time></trkpt><trkpt lat="46.1160605" lon="12.0727083"><ele>324.7142857142857</ele><time>2026-04-25T12:29:06.437Z</time></trkpt><trkpt lat="46.1161287" lon="12.0727014"><ele>325.57142857142856</ele><time>2026-04-25T12:29:09.436Z</time></trkpt><trkpt lat="46.1161912" lon="12.072687"><ele>326.42857142857144</ele><time>2026-04-25T12:29:12.455Z</time></trkpt><trkpt lat="46.1162585" lon="12.0726546"><ele>327.2857142857143</ele><time>2026-04-25T12:29:16.439Z</time></trkpt><trkpt lat="46.1163301" lon="12.0726646"><ele>328.14285714285717</ele><time>2026-04-25T12:29:21.446Z</time></trkpt><trkpt lat="46.1162631" lon="12.0726372"><ele>329.0</ele><time>2026-04-25T12:29:25.437Z</time></trkpt><trkpt lat="46.1161979" lon="12.0726674"><ele>329.0</ele><time>2026-04-25T12:29:27.435Z</time></trkpt><trkpt lat="46.1161297" lon="12.072691"><ele>329.0</ele><time>2026-04-25T12:29:29.449Z</time></trkpt><trkpt lat="46.1160324" lon="12.0727045"><ele>329.0</ele><time>2026-04-25T12:29:31.442Z</time></trkpt><trkpt lat="46.1159237" lon="12.0726738"><ele>329.0</ele><time>2026-04-25T12:29:33.452Z</time></trkpt><trkpt lat="46.1158098" lon="12.0726037"><ele>329.0</ele><time>2026-04-25T12:29:35.434Z</time></trkpt><trkpt lat="46.1157549" lon="12.0725541"><ele>328.0</ele><time>2026-04-25T12:29:36.434Z</time></trkpt><trkpt lat="46.1156678" lon="12.072435"><ele>327.0</ele><time>2026-04-25T12:29:38.448Z</time></trkpt><trkpt lat="46.1155866" lon="12.072311"><ele>326.0</ele><time>2026-04-25T12:29:40.437Z</time></trkpt><trkpt lat="46.1155418" lon="12.0722464"><ele>325.0</ele><time>2026-04-25T12:29:41.447Z</time></trkpt><trkpt lat="46.1154946" lon="12.07218"><ele>324.0</ele><time>2026-04-25T12:29:42.445Z</time></trkpt><trkpt lat="46.1154434" lon="12.0721192"><ele>323.0</ele><time>2026-04-25T12:29:43.442Z</time></trkpt><trkpt lat="46.1153556" lon="12.0720758"><ele>323.0</ele><time>2026-04-25T12:29:44.445Z</time></trkpt><trkpt lat="46.1152761" lon="12.0720257"><ele>323.0</ele><time>2026-04-25T12:29:45.436Z</time></trkpt><trkpt lat="46.1151947" lon="12.0719826"><ele>323.0</ele><time>2026-04-25T12:29:46.435Z</time></trkpt><trkpt lat="46.1151122" lon="12.0719328"><ele>323.0</ele><time>2026-04-25T12:29:47.454Z</time></trkpt><trkpt lat="46.1150246" lon="12.0718926"><ele>323.0</ele><time>2026-04-25T12:29:48.44Z</time></trkpt><trkpt lat="46.1149461" lon="12.0718779"><ele>323.0</ele><time>2026-04-25T12:29:49.441Z</time></trkpt><trkpt lat="46.114866" lon="12.0718941"><ele>322.1666666666667</ele><time>2026-04-25T12:29:50.45Z</time></trkpt><trkpt lat="46.1147955" lon="12.0719133"><ele>321.33333333333337</ele><time>2026-04-25T12:29:51.449Z</time></trkpt><trkpt lat="46.1147512" lon="12.0719981"><ele>320.5</ele><time>2026-04-25T12:29:52.436Z</time></trkpt><trkpt lat="46.1147027" lon="12.0720834"><ele>319.6666666666667</ele><time>2026-04-25T12:29:53.443Z</time></trkpt><trkpt lat="46.1146519" lon="12.0721668"><ele>318.8333333333333</ele><time>2026-04-25T12:29:54.436Z</time></trkpt><trkpt lat="46.1145983" lon="12.0722534"><ele>318.0</ele><time>2026-04-25T12:29:55.438Z</time></trkpt><trkpt lat="46.1145537" lon="12.0723431"><ele>318.0</ele><time>2026-04-25T12:29:56.441Z</time></trkpt><trkpt lat="46.1145041" lon="12.0724272"><ele>318.0</ele><time>2026-04-25T12:29:57.44Z</time></trkpt><trkpt lat="46.1144562" lon="12.072518"><ele>318.0</ele><time>2026-04-25T12:29:58.449Z</time></trkpt><trkpt lat="46.1144107" lon="12.0726101"><ele>318.0</ele><time>2026-04-25T12:29:59.453Z</time></trkpt><trkpt lat="46.1143633" lon="12.0726976"><ele>318.0</ele><time>2026-04-25T12:30:00.445Z</time></trkpt><trkpt lat="46.1143186" lon="12.0727941"><ele>318.0</ele><time>2026-04-25T12:30:01.447Z</time></trkpt><trkpt lat="46.1142773" lon="12.0728913"><ele>317.85714285714283</ele><time>2026-04-25T12:30:02.446Z</time></trkpt><trkpt lat="46.1142549" lon="12.0729996"><ele>317.7142857142857</ele><time>2026-04-25T12:30:03.454Z</time></trkpt><trkpt lat="46.1142394" lon="12.073106"><ele>317.57142857142856</ele><time>2026-04-25T12:30:04.438Z</time></trkpt><trkpt lat="46.1142285" lon="12.0732159"><ele>317.42857142857144</ele><time>2026-04-25T12:30:05.445Z</time></trkpt><trkpt lat="46.1142297" lon="12.0733231"><ele>317.2857142857143</ele><time>2026-04-25T12:30:06.438Z</time></trkpt><trkpt lat="46.1142402" lon="12.0734282"><ele>317.14285714285717</ele><time>2026-04-25T12:30:07.447Z</time></trkpt><trkpt lat="46.1142514" lon="12.0735241"><ele>317.0</ele><time>2026-04-25T12:30:08.436Z</time></trkpt><trkpt lat="46.1142667" lon="12.0736207"><ele>317.0</ele><time>2026-04-25T12:30:09.446Z</time></trkpt><trkpt lat="46.1142972" lon="12.0737993"><ele>317.0</ele><time>2026-04-25T12:30:11.436Z</time></trkpt><trkpt lat="46.1143143" lon="12.0739732"><ele>317.0</ele><time>2026-04-25T12:30:13.442Z</time></trkpt><trkpt lat="46.1143285" lon="12.0741365"><ele>317.0</ele><time>2026-04-25T12:30:15.445Z</time></trkpt><trkpt lat="46.1143231" lon="12.0742618"><ele>316.6666666666667</ele><time>2026-04-25T12:30:17.446Z</time></trkpt><trkpt lat="46.1143083" lon="12.0743577"><ele>316.33333333333337</ele><time>2026-04-25T12:30:19.435Z</time></trkpt><trkpt lat="46.1142358" lon="12.0744441"><ele>316.0</ele><time>2026-04-25T12:30:23.456Z</time></trkpt><trkpt lat="46.1141753" lon="12.0744118"><ele>315.6666666666667</ele><time>2026-04-25T12:30:25.439Z</time></trkpt><trkpt lat="46.1141029" lon="12.0743625"><ele>315.3333333333333</ele><time>2026-04-25T12:30:27.446Z</time></trkpt><trkpt lat="46.1140168" lon="12.0743093"><ele>315.0</ele><time>2026-04-25T12:30:29.444Z</time></trkpt><trkpt lat="46.1139271" lon="12.0742491"><ele>315.0</ele><time>2026-04-25T12:30:31.434Z</time></trkpt><trkpt lat="46.1138344" lon="12.074177"><ele>315.0</ele><time>2026-04-25T12:30:33.454Z</time></trkpt><trkpt lat="46.1137404" lon="12.0741092"><ele>315.0</ele><time>2026-04-25T12:30:35.446Z</time></trkpt><trkpt lat="46.1136452" lon="12.0740369"><ele>315.0</ele><time>2026-04-25T12:30:37.435Z</time></trkpt><trkpt lat="46.1135532" lon="12.0739659"><ele>315.0</ele><time>2026-04-25T12:30:39.445Z</time></trkpt><trkpt lat="46.1134585" lon="12.0739043"><ele>315.0</ele><time>2026-04-25T12:30:41.45Z</time></trkpt><trkpt lat="46.1133592" lon="12.0738353"><ele>315.0</ele><time>2026-04-25T12:30:43.458Z</time></trkpt><trkpt lat="46.1132598" lon="12.0737689"><ele>315.0</ele><time>2026-04-25T12:30:45.451Z</time></trkpt><trkpt lat="46.113163" lon="12.0736972"><ele>315.0</ele><time>2026-04-25T12:30:47.435Z</time></trkpt><trkpt lat="46.1130636" lon="12.0736294"><ele>315.0</ele><time>2026-04-25T12:30:49.445Z</time></trkpt><trkpt lat="46.1129716" lon="12.073566"><ele>314.6</ele><time>2026-04-25T12:30:51.446Z</time></trkpt><trkpt lat="46.1128817" lon="12.073501"><ele>314.2</ele><time>2026-04-25T12:30:53.451Z</time></trkpt><trkpt lat="46.1127837" lon="12.0734359"><ele>313.8</ele><time>2026-04-25T12:30:55.445Z</time></trkpt><trkpt lat="46.112683" lon="12.0733691"><ele>313.4</ele><time>2026-04-25T12:30:57.45Z</time></trkpt><trkpt lat="46.1125872" lon="12.073292"><ele>313.0</ele><time>2026-04-25T12:30:59.444Z</time></trkpt><trkpt lat="46.1124883" lon="12.0732226"><ele>314.0</ele><time>2026-04-25T12:31:01.436Z</time></trkpt><trkpt lat="46.1123904" lon="12.0731508"><ele>315.0</ele><time>2026-04-25T12:31:03.451Z</time></trkpt><trkpt lat="46.1122917" lon="12.0730781"><ele>316.0</ele><time>2026-04-25T12:31:05.444Z</time></trkpt><trkpt lat="46.1121912" lon="12.0730031"><ele>317.0</ele><time>2026-04-25T12:31:07.445Z</time></trkpt><trkpt lat="46.1120957" lon="12.0729384"><ele>318.0</ele><time>2026-04-25T12:31:09.445Z</time></trkpt><trkpt lat="46.1120071" lon="12.0728741"><ele>318.0</ele><time>2026-04-25T12:31:11.446Z</time></trkpt><trkpt lat="46.1119185" lon="12.0728184"><ele>318.0</ele><time>2026-04-25T12:31:13.455Z</time></trkpt><trkpt lat="46.1118252" lon="12.0727542"><ele>318.0</ele><time>2026-04-25T12:31:15.443Z</time></trkpt><trkpt lat="46.1117264" lon="12.0726807"><ele>318.0</ele><time>2026-04-25T12:31:17.435Z</time></trkpt><trkpt lat="46.1116268" lon="12.0726046"><ele>318.0</ele><time>2026-04-25T12:31:19.443Z</time></trkpt><trkpt lat="46.1115169" lon="12.0725279"><ele>318.25</ele><time>2026-04-25T12:31:21.436Z</time></trkpt><trkpt lat="46.1114081" lon="12.0724523"><ele>318.5</ele><time>2026-04-25T12:31:23.45Z</time></trkpt><trkpt lat="46.1113005" lon="12.0723691"><ele>318.75</ele><time>2026-04-25T12:31:25.437Z</time></trkpt><trkpt lat="46.1111896" lon="12.0722884"><ele>319.0</ele><time>2026-04-25T12:31:27.443Z</time></trkpt><trkpt lat="46.1110813" lon="12.0722116"><ele>319.0</ele><time>2026-04-25T12:31:29.445Z</time></trkpt><trkpt lat="46.1109683" lon="12.0721356"><ele>319.0</ele><time>2026-04-25T12:31:31.445Z</time></trkpt><trkpt lat="46.1108578" lon="12.0720576"><ele>319.0</ele><time>2026-04-25T12:31:33.454Z</time></trkpt><trkpt lat="46.110751" lon="12.0719793"><ele>319.0</ele><time>2026-04-25T12:31:35.445Z</time></trkpt><trkpt lat="46.1106451" lon="12.0719003"><ele>317.75</ele><time>2026-04-25T12:31:37.445Z</time></trkpt><trkpt lat="46.1105408" lon="12.071834"><ele>316.5</ele><time>2026-04-25T12:31:39.435Z</time></trkpt><trkpt lat="46.1104403" lon="12.0717602"><ele>315.25</ele><time>2026-04-25T12:31:41.446Z</time></trkpt><trkpt lat="46.1103415" lon="12.0716856"><ele>314.0</ele><time>2026-04-25T12:31:43.441Z</time></trkpt><trkpt lat="46.1102384" lon="12.0716156"><ele>313.75</ele><time>2026-04-25T12:31:45.448Z</time></trkpt><trkpt lat="46.1101368" lon="12.0715468"><ele>313.5</ele><time>2026-04-25T12:31:47.444Z</time></trkpt><trkpt lat="46.1100376" lon="12.0714735"><ele>313.25</ele><time>2026-04-25T12:31:49.448Z</time></trkpt><trkpt lat="46.1099353" lon="12.0714026"><ele>313.0</ele><time>2026-04-25T12:31:51.437Z</time></trkpt><trkpt lat="46.1098297" lon="12.0713284"><ele>313.0</ele><time>2026-04-25T12:31:53.459Z</time></trkpt><trkpt lat="46.1097209" lon="12.071256"><ele>313.0</ele><time>2026-04-25T12:31:55.443Z</time></trkpt><trkpt lat="46.1096208" lon="12.0711842"><ele>313.0</ele><time>2026-04-25T12:31:57.444Z</time></trkpt><trkpt lat="46.1095217" lon="12.0711179"><ele>313.0</ele><time>2026-04-25T12:31:59.448Z</time></trkpt><trkpt lat="46.1094267" lon="12.0710514"><ele>313.0</ele><time>2026-04-25T12:32:01.436Z</time></trkpt><trkpt lat="46.1093322" lon="12.0709802"><ele>313.0</ele><time>2026-04-25T12:32:03.442Z</time></trkpt><trkpt lat="46.1092393" lon="12.0709079"><ele>313.0</ele><time>2026-04-25T12:32:05.436Z</time></trkpt><trkpt lat="46.1091426" lon="12.0708431"><ele>313.0</ele><time>2026-04-25T12:32:07.437Z</time></trkpt><trkpt lat="46.1090537" lon="12.0707752"><ele>313.0</ele><time>2026-04-25T12:32:09.443Z</time></trkpt><trkpt lat="46.1089744" lon="12.0707192"><ele>313.0</ele><time>2026-04-25T12:32:11.443Z</time></trkpt><trkpt lat="46.1089032" lon="12.0706688"><ele>313.0</ele><time>2026-04-25T12:32:13.441Z</time></trkpt><trkpt lat="46.1088394" lon="12.0706165"><ele>313.0</ele><time>2026-04-25T12:32:15.44Z</time></trkpt><trkpt lat="46.1088156" lon="12.0705232"><ele>313.0</ele><time>2026-04-25T12:32:17.433Z</time></trkpt><trkpt lat="46.1088456" lon="12.0704396"><ele>313.0</ele><time>2026-04-25T12:32:19.436Z</time></trkpt><trkpt lat="46.1089134" lon="12.0703775"><ele>313.0</ele><time>2026-04-25T12:32:21.435Z</time></trkpt><trkpt lat="46.1089813" lon="12.0703112"><ele>313.0</ele><time>2026-04-25T12:32:23.439Z</time></trkpt><trkpt lat="46.1090505" lon="12.0702419"><ele>313.5</ele><time>2026-04-25T12:32:25.436Z</time></trkpt><trkpt lat="46.1091244" lon="12.070181"><ele>314.0</ele><time>2026-04-25T12:32:27.444Z</time></trkpt><trkpt lat="46.1091974" lon="12.0701084"><ele>314.5</ele><time>2026-04-25T12:32:29.442Z</time></trkpt><trkpt lat="46.1092709" lon="12.0700303"><ele>315.0</ele><time>2026-04-25T12:32:31.436Z</time></trkpt><trkpt lat="46.1093401" lon="12.0699576"><ele>315.5</ele><time>2026-04-25T12:32:33.454Z</time></trkpt><trkpt lat="46.1094124" lon="12.0698865"><ele>316.0</ele><time>2026-04-25T12:32:35.448Z</time></trkpt><trkpt lat="46.1094824" lon="12.0698227"><ele>316.66666666666663</ele><time>2026-04-25T12:32:37.437Z</time></trkpt><trkpt lat="46.1095484" lon="12.0697584"><ele>317.3333333333333</ele><time>2026-04-25T12:32:39.447Z</time></trkpt><trkpt lat="46.1096147" lon="12.0696897"><ele>318.0</ele><time>2026-04-25T12:32:41.444Z</time></trkpt><trkpt lat="46.1096793" lon="12.0696264"><ele>318.6666666666667</ele><time>2026-04-25T12:32:43.446Z</time></trkpt><trkpt lat="46.1097409" lon="12.0695685"><ele>319.33333333333337</ele><time>2026-04-25T12:32:45.449Z</time></trkpt><trkpt lat="46.1098028" lon="12.0695091"><ele>320.0</ele><time>2026-04-25T12:32:47.436Z</time></trkpt><trkpt lat="46.1098624" lon="12.0694467"><ele>320.1428571428571</ele><time>2026-04-25T12:32:49.435Z</time></trkpt><trkpt lat="46.109923" lon="12.0693858"><ele>320.2857142857143</ele><time>2026-04-25T12:32:51.447Z</time></trkpt><trkpt lat="46.1099845" lon="12.0693253"><ele>320.42857142857144</ele><time>2026-04-25T12:32:53.455Z</time></trkpt><trkpt lat="46.1100458" lon="12.0692692"><ele>320.57142857142856</ele><time>2026-04-25T12:32:55.45Z</time></trkpt><trkpt lat="46.1101044" lon="12.0692121"><ele>320.7142857142857</ele><time>2026-04-25T12:32:57.447Z</time></trkpt><trkpt lat="46.1101655" lon="12.0691596"><ele>320.85714285714283</ele><time>2026-04-25T12:32:59.444Z</time></trkpt><trkpt lat="46.1102238" lon="12.0690998"><ele>321.0</ele><time>2026-04-25T12:33:01.445Z</time></trkpt><trkpt lat="46.1102818" lon="12.0690381"><ele>321.1428571428571</ele><time>2026-04-25T12:33:03.447Z</time></trkpt><trkpt lat="46.1103412" lon="12.0689782"><ele>321.2857142857143</ele><time>2026-04-25T12:33:05.445Z</time></trkpt><trkpt lat="46.1104008" lon="12.0689161"><ele>321.42857142857144</ele><time>2026-04-25T12:33:07.445Z</time></trkpt><trkpt lat="46.1104614" lon="12.0688561"><ele>321.57142857142856</ele><time>2026-04-25T12:33:09.445Z</time></trkpt><trkpt lat="46.1105219" lon="12.068797"><ele>321.7142857142857</ele><time>2026-04-25T12:33:11.436Z</time></trkpt><trkpt lat="46.1105806" lon="12.0687351"><ele>321.85714285714283</ele><time>2026-04-25T12:33:13.443Z</time></trkpt><trkpt lat="46.1106409" lon="12.0686762"><ele>322.0</ele><time>2026-04-25T12:33:15.447Z</time></trkpt><trkpt lat="46.1107036" lon="12.0686184"><ele>322.57142857142856</ele><time>2026-04-25T12:33:17.444Z</time></trkpt><trkpt lat="46.1107649" lon="12.0685592"><ele>323.1428571428571</ele><time>2026-04-25T12:33:19.446Z</time></trkpt><trkpt lat="46.1108228" lon="12.0684998"><ele>323.7142857142857</ele><time>2026-04-25T12:33:21.444Z</time></trkpt><trkpt lat="46.110879" lon="12.0684421"><ele>324.2857142857143</ele><time>2026-04-25T12:33:23.439Z</time></trkpt><trkpt lat="46.1109396" lon="12.0683834"><ele>324.85714285714283</ele><time>2026-04-25T12:33:25.443Z</time></trkpt><trkpt lat="46.111001" lon="12.0683302"><ele>325.42857142857144</ele><time>2026-04-25T12:33:27.446Z</time></trkpt><trkpt lat="46.1110622" lon="12.0682746"><ele>326.0</ele><time>2026-04-25T12:33:29.439Z</time></trkpt><trkpt lat="46.1111225" lon="12.0682136"><ele>326.14285714285717</ele><time>2026-04-25T12:33:31.446Z</time></trkpt><trkpt lat="46.1111826" lon="12.0681578"><ele>326.2857142857143</ele><time>2026-04-25T12:33:33.453Z</time></trkpt><trkpt lat="46.1112443" lon="12.0680954"><ele>326.42857142857144</ele><time>2026-04-25T12:33:35.45Z</time></trkpt><trkpt lat="46.111306" lon="12.0680308"><ele>326.57142857142856</ele><time>2026-04-25T12:33:37.435Z</time></trkpt><trkpt lat="46.111368" lon="12.067967"><ele>326.7142857142857</ele><time>2026-04-25T12:33:39.446Z</time></trkpt><trkpt lat="46.1114301" lon="12.0679071"><ele>326.85714285714283</ele><time>2026-04-25T12:33:41.444Z</time></trkpt><trkpt lat="46.1114925" lon="12.0678477"><ele>327.0</ele><time>2026-04-25T12:33:43.443Z</time></trkpt><trkpt lat="46.1115523" lon="12.0677872"><ele>327.5</ele><time>2026-04-25T12:33:45.441Z</time></trkpt><trkpt lat="46.1116129" lon="12.0677242"><ele>328.0</ele><time>2026-04-25T12:33:47.444Z</time></trkpt><trkpt lat="46.1116754" lon="12.0676621"><ele>328.5</ele><time>2026-04-25T12:33:49.445Z</time></trkpt><trkpt lat="46.111741" lon="12.067601"><ele>329.0</ele><time>2026-04-25T12:33:51.446Z</time></trkpt><trkpt lat="46.1118055" lon="12.0675402"><ele>329.5</ele><time>2026-04-25T12:33:53.444Z</time></trkpt><trkpt lat="46.1118694" lon="12.0674799"><ele>330.0</ele><time>2026-04-25T12:33:55.435Z</time></trkpt><trkpt lat="46.1119337" lon="12.0674165"><ele>330.3333333333333</ele><time>2026-04-25T12:33:57.443Z</time></trkpt><trkpt lat="46.1119963" lon="12.0673514"><ele>330.6666666666667</ele><time>2026-04-25T12:33:59.444Z</time></trkpt><trkpt lat="46.1120592" lon="12.0672884"><ele>331.0</ele><time>2026-04-25T12:34:01.442Z</time></trkpt><trkpt lat="46.1121226" lon="12.0672263"><ele>331.33333333333337</ele><time>2026-04-25T12:34:03.45Z</time></trkpt><trkpt lat="46.1121827" lon="12.0671662"><ele>331.6666666666667</ele><time>2026-04-25T12:34:05.434Z</time></trkpt><trkpt lat="46.1122426" lon="12.0671042"><ele>332.0</ele><time>2026-04-25T12:34:07.443Z</time></trkpt><trkpt lat="46.1123038" lon="12.0670435"><ele>332.0</ele><time>2026-04-25T12:34:09.436Z</time></trkpt><trkpt lat="46.1123644" lon="12.0669873"><ele>332.0</ele><time>2026-04-25T12:34:11.444Z</time></trkpt><trkpt lat="46.1124242" lon="12.0669289"><ele>332.0</ele><time>2026-04-25T12:34:13.438Z</time></trkpt><trkpt lat="46.1124839" lon="12.0668683"><ele>332.0</ele><time>2026-04-25T12:34:15.437Z</time></trkpt><trkpt lat="46.1125458" lon="12.0668097"><ele>332.0</ele><time>2026-04-25T12:34:17.436Z</time></trkpt><trkpt lat="46.1126045" lon="12.0667539"><ele>332.0</ele><time>2026-04-25T12:34:19.436Z</time></trkpt><trkpt lat="46.1126656" lon="12.0666937"><ele>332.0</ele><time>2026-04-25T12:34:21.447Z</time></trkpt><trkpt lat="46.1127297" lon="12.0666323"><ele>332.6666666666667</ele><time>2026-04-25T12:34:23.45Z</time></trkpt><trkpt lat="46.1127929" lon="12.0665665"><ele>333.33333333333337</ele><time>2026-04-25T12:34:25.44Z</time></trkpt><trkpt lat="46.1128556" lon="12.0665006"><ele>334.0</ele><time>2026-04-25T12:34:27.445Z</time></trkpt><trkpt lat="46.1129194" lon="12.0664424"><ele>334.6666666666667</ele><time>2026-04-25T12:34:29.452Z</time></trkpt><trkpt lat="46.1129814" lon="12.0663832"><ele>335.3333333333333</ele><time>2026-04-25T12:34:31.45Z</time></trkpt><trkpt lat="46.1130397" lon="12.0663193"><ele>336.0</ele><time>2026-04-25T12:34:33.45Z</time></trkpt><trkpt lat="46.113097" lon="12.0662552"><ele>336.0</ele><time>2026-04-25T12:34:35.436Z</time></trkpt><trkpt lat="46.1131551" lon="12.0661975"><ele>336.0</ele><time>2026-04-25T12:34:37.435Z</time></trkpt><trkpt lat="46.1132149" lon="12.0661421"><ele>336.0</ele><time>2026-04-25T12:34:39.443Z</time></trkpt><trkpt lat="46.1132738" lon="12.0660837"><ele>336.0</ele><time>2026-04-25T12:34:41.45Z</time></trkpt><trkpt lat="46.1133318" lon="12.0660239"><ele>336.0</ele><time>2026-04-25T12:34:43.443Z</time></trkpt><trkpt lat="46.1133939" lon="12.0659621"><ele>336.0</ele><time>2026-04-25T12:34:45.445Z</time></trkpt><trkpt lat="46.1134573" lon="12.0658986"><ele>336.0</ele><time>2026-04-25T12:34:47.436Z</time></trkpt><trkpt lat="46.1135198" lon="12.0658352"><ele>337.0</ele><time>2026-04-25T12:34:49.449Z</time></trkpt><trkpt lat="46.1135834" lon="12.0657742"><ele>338.0</ele><time>2026-04-25T12:34:51.562Z</time></trkpt><trkpt lat="46.113644" lon="12.0657133"><ele>339.0</ele><time>2026-04-25T12:34:53.455Z</time></trkpt><trkpt lat="46.1136994" lon="12.0656493"><ele>340.0</ele><time>2026-04-25T12:34:55.444Z</time></trkpt><trkpt lat="46.1137684" lon="12.0655558"><ele>341.0</ele><time>2026-04-25T12:34:58.432Z</time></trkpt><trkpt lat="46.113822" lon="12.065485"><ele>342.0</ele><time>2026-04-25T12:35:00.434Z</time></trkpt><trkpt lat="46.1138802" lon="12.0654107"><ele>341.99999999999994</ele><time>2026-04-25T12:35:02.444Z</time></trkpt><trkpt lat="46.1139325" lon="12.0653336"><ele>342.0</ele><time>2026-04-25T12:35:04.446Z</time></trkpt><trkpt lat="46.1139787" lon="12.0652552"><ele>342.0</ele><time>2026-04-25T12:35:06.444Z</time></trkpt><trkpt lat="46.114027" lon="12.065183"><ele>342.0</ele><time>2026-04-25T12:35:08.443Z</time></trkpt><trkpt lat="46.114075" lon="12.0651122"><ele>342.0</ele><time>2026-04-25T12:35:10.452Z</time></trkpt><trkpt lat="46.1141204" lon="12.0650399"><ele>341.99999999999994</ele><time>2026-04-25T12:35:12.434Z</time></trkpt><trkpt lat="46.1141635" lon="12.0649708"><ele>342.0</ele><time>2026-04-25T12:35:14.439Z</time></trkpt><trkpt lat="46.1142296" lon="12.0649263"><ele>342.1428571428571</ele><time>2026-04-25T12:35:17.435Z</time></trkpt><trkpt lat="46.1142814" lon="12.0649979"><ele>342.2857142857143</ele><time>2026-04-25T12:35:19.447Z</time></trkpt><trkpt lat="46.1143325" lon="12.0650937"><ele>342.42857142857144</ele><time>2026-04-25T12:35:21.431Z</time></trkpt><trkpt lat="46.1143813" lon="12.0651851"><ele>342.57142857142856</ele><time>2026-04-25T12:35:23.444Z</time></trkpt><trkpt lat="46.1144172" lon="12.0652741"><ele>342.7142857142857</ele><time>2026-04-25T12:35:25.446Z</time></trkpt><trkpt lat="46.1144379" lon="12.065368"><ele>342.85714285714283</ele><time>2026-04-25T12:35:27.449Z</time></trkpt><trkpt lat="46.1144538" lon="12.0654606"><ele>343.0</ele><time>2026-04-25T12:35:29.443Z</time></trkpt><trkpt lat="46.1144839" lon="12.0655931"><ele>343.0</ele><time>2026-04-25T12:35:32.432Z</time></trkpt><trkpt lat="46.1145178" lon="12.0656729"><ele>343.0</ele><time>2026-04-25T12:35:34.446Z</time></trkpt><trkpt lat="46.1145717" lon="12.0657325"><ele>343.0</ele><time>2026-04-25T12:35:36.432Z</time></trkpt><trkpt lat="46.1146492" lon="12.0657642"><ele>343.0</ele><time>2026-04-25T12:35:38.434Z</time></trkpt><trkpt lat="46.1147327" lon="12.065781"><ele>343.0</ele><time>2026-04-25T12:35:40.437Z</time></trkpt><trkpt lat="46.1148109" lon="12.0658078"><ele>343.0</ele><time>2026-04-25T12:35:42.434Z</time></trkpt><trkpt lat="46.1148885" lon="12.0658365"><ele>343.3333333333333</ele><time>2026-04-25T12:35:44.444Z</time></trkpt><trkpt lat="46.1149673" lon="12.0658668"><ele>343.66666666666663</ele><time>2026-04-25T12:35:46.435Z</time></trkpt><trkpt lat="46.1150469" lon="12.0658993"><ele>344.0</ele><time>2026-04-25T12:35:48.442Z</time></trkpt><trkpt lat="46.1151265" lon="12.065929"><ele>344.3333333333333</ele><time>2026-04-25T12:35:50.443Z</time></trkpt><trkpt lat="46.1152033" lon="12.0659574"><ele>344.6666666666667</ele><time>2026-04-25T12:35:52.449Z</time></trkpt><trkpt lat="46.1152737" lon="12.0659873"><ele>345.0</ele><time>2026-04-25T12:35:54.431Z</time></trkpt><trkpt lat="46.1153581" lon="12.0660188"><ele>345.0</ele><time>2026-04-25T12:35:56.437Z</time></trkpt><trkpt lat="46.1154436" lon="12.0660556"><ele>345.0</ele><time>2026-04-25T12:35:58.428Z</time></trkpt><trkpt lat="46.1155344" lon="12.0660882"><ele>345.0</ele><time>2026-04-25T12:36:00.444Z</time></trkpt><trkpt lat="46.1156243" lon="12.0661245"><ele>345.0</ele><time>2026-04-25T12:36:02.432Z</time></trkpt><trkpt lat="46.1157094" lon="12.0661573"><ele>345.0</ele><time>2026-04-25T12:36:04.432Z</time></trkpt><trkpt lat="46.1157952" lon="12.0661911"><ele>345.5</ele><time>2026-04-25T12:36:06.434Z</time></trkpt><trkpt lat="46.1158797" lon="12.0662246"><ele>346.0</ele><time>2026-04-25T12:36:08.435Z</time></trkpt><trkpt lat="46.11596" lon="12.0662628"><ele>346.5</ele><time>2026-04-25T12:36:10.445Z</time></trkpt><trkpt lat="46.1160447" lon="12.066291"><ele>347.0</ele><time>2026-04-25T12:36:12.432Z</time></trkpt><trkpt lat="46.1161257" lon="12.0663231"><ele>347.5</ele><time>2026-04-25T12:36:14.444Z</time></trkpt><trkpt lat="46.1162048" lon="12.0663597"><ele>348.0</ele><time>2026-04-25T12:36:16.436Z</time></trkpt><trkpt lat="46.1162863" lon="12.0663985"><ele>348.0</ele><time>2026-04-25T12:36:18.432Z</time></trkpt><trkpt lat="46.1163658" lon="12.066433"><ele>348.0</ele><time>2026-04-25T12:36:20.444Z</time></trkpt><trkpt lat="46.1164455" lon="12.0664682"><ele>348.0</ele><time>2026-04-25T12:36:22.444Z</time></trkpt><trkpt lat="46.1165241" lon="12.0665007"><ele>348.0</ele><time>2026-04-25T12:36:24.44Z</time></trkpt><trkpt lat="46.1166017" lon="12.066526"><ele>348.0</ele><time>2026-04-25T12:36:26.437Z</time></trkpt><trkpt lat="46.1166795" lon="12.0665402"><ele>348.0</ele><time>2026-04-25T12:36:28.439Z</time></trkpt><trkpt lat="46.116761" lon="12.0665381"><ele>348.3333333333333</ele><time>2026-04-25T12:36:30.443Z</time></trkpt><trkpt lat="46.1168417" lon="12.066518"><ele>348.6666666666667</ele><time>2026-04-25T12:36:32.435Z</time></trkpt><trkpt lat="46.1169222" lon="12.0664902"><ele>349.0</ele><time>2026-04-25T12:36:34.433Z</time></trkpt><trkpt lat="46.1170015" lon="12.0664562"><ele>349.33333333333337</ele><time>2026-04-25T12:36:36.433Z</time></trkpt><trkpt lat="46.1170745" lon="12.0664159"><ele>349.6666666666667</ele><time>2026-04-25T12:36:38.445Z</time></trkpt><trkpt lat="46.1171495" lon="12.0663792"><ele>350.0</ele><time>2026-04-25T12:36:40.443Z</time></trkpt><trkpt lat="46.1172252" lon="12.066348"><ele>350.0</ele><time>2026-04-25T12:36:42.444Z</time></trkpt><trkpt lat="46.1173005" lon="12.066324"><ele>350.0</ele><time>2026-04-25T12:36:44.439Z</time></trkpt><trkpt lat="46.1173779" lon="12.0663096"><ele>350.0</ele><time>2026-04-25T12:36:46.435Z</time></trkpt><trkpt lat="46.1174576" lon="12.0663011"><ele>350.0</ele><time>2026-04-25T12:36:48.432Z</time></trkpt><trkpt lat="46.1175345" lon="12.0662968"><ele>350.0</ele><time>2026-04-25T12:36:50.433Z</time></trkpt><trkpt lat="46.1176109" lon="12.0662908"><ele>350.0</ele><time>2026-04-25T12:36:52.434Z</time></trkpt><trkpt lat="46.1176879" lon="12.0662861"><ele>350.5</ele><time>2026-04-25T12:36:54.431Z</time></trkpt><trkpt lat="46.1177685" lon="12.0662853"><ele>351.0</ele><time>2026-04-25T12:36:56.431Z</time></trkpt><trkpt lat="46.1178445" lon="12.0662822"><ele>351.5</ele><time>2026-04-25T12:36:58.445Z</time></trkpt><trkpt lat="46.1179189" lon="12.0662827"><ele>352.0</ele><time>2026-04-25T12:37:00.44Z</time></trkpt><trkpt lat="46.1179915" lon="12.0662839"><ele>352.5</ele><time>2026-04-25T12:37:02.444Z</time></trkpt><trkpt lat="46.1180613" lon="12.0662723"><ele>353.0</ele><time>2026-04-25T12:37:04.437Z</time></trkpt><trkpt lat="46.1181421" lon="12.0662702"><ele>353.0</ele><time>2026-04-25T12:37:06.456Z</time></trkpt><trkpt lat="46.1182199" lon="12.0662764"><ele>353.0</ele><time>2026-04-25T12:37:08.433Z</time></trkpt><trkpt lat="46.118297" lon="12.0662766"><ele>353.0</ele><time>2026-04-25T12:37:10.447Z</time></trkpt><trkpt lat="46.1183763" lon="12.0662739"><ele>353.0</ele><time>2026-04-25T12:37:12.444Z</time></trkpt><trkpt lat="46.1184538" lon="12.0662668"><ele>353.0</ele><time>2026-04-25T12:37:14.441Z</time></trkpt><trkpt lat="46.1185291" lon="12.0662546"><ele>353.0</ele><time>2026-04-25T12:37:16.437Z</time></trkpt><trkpt lat="46.1186028" lon="12.0662405"><ele>353.83333333333337</ele><time>2026-04-25T12:37:18.435Z</time></trkpt><trkpt lat="46.1186749" lon="12.0662201"><ele>354.6666666666667</ele><time>2026-04-25T12:37:20.433Z</time></trkpt><trkpt lat="46.1187437" lon="12.0661912"><ele>355.5</ele><time>2026-04-25T12:37:22.443Z</time></trkpt><trkpt lat="46.1188148" lon="12.0661577"><ele>356.3333333333333</ele><time>2026-04-25T12:37:24.455Z</time></trkpt><trkpt lat="46.1188863" lon="12.06613"><ele>357.16666666666663</ele><time>2026-04-25T12:37:26.436Z</time></trkpt><trkpt lat="46.1189665" lon="12.0661316"><ele>358.0</ele><time>2026-04-25T12:37:28.438Z</time></trkpt><trkpt lat="46.1190385" lon="12.0661768"><ele>358.8333333333333</ele><time>2026-04-25T12:37:30.434Z</time></trkpt><trkpt lat="46.1191024" lon="12.0662394"><ele>359.66666666666663</ele><time>2026-04-25T12:37:32.434Z</time></trkpt><trkpt lat="46.1191614" lon="12.0663138"><ele>360.5</ele><time>2026-04-25T12:37:34.434Z</time></trkpt><trkpt lat="46.1192175" lon="12.0663853"><ele>361.3333333333333</ele><time>2026-04-25T12:37:36.439Z</time></trkpt><trkpt lat="46.1192761" lon="12.0664503"><ele>362.1666666666667</ele><time>2026-04-25T12:37:38.438Z</time></trkpt><trkpt lat="46.1193404" lon="12.0665128"><ele>363.0</ele><time>2026-04-25T12:37:40.444Z</time></trkpt><trkpt lat="46.1194382" lon="12.066606"><ele>362.5</ele><time>2026-04-25T12:37:43.441Z</time></trkpt><trkpt lat="46.1194987" lon="12.0666698"><ele>362.0</ele><time>2026-04-25T12:37:45.443Z</time></trkpt><trkpt lat="46.1195579" lon="12.0667316"><ele>361.5</ele><time>2026-04-25T12:37:47.448Z</time></trkpt><trkpt lat="46.1196173" lon="12.0667957"><ele>361.0</ele><time>2026-04-25T12:37:49.434Z</time></trkpt><trkpt lat="46.1196757" lon="12.0668626"><ele>360.5</ele><time>2026-04-25T12:37:51.445Z</time></trkpt><trkpt lat="46.1197334" lon="12.0669407"><ele>360.0</ele><time>2026-04-25T12:37:53.47Z</time></trkpt><trkpt lat="46.1197936" lon="12.067029"><ele>360.0</ele><time>2026-04-25T12:37:55.435Z</time></trkpt><trkpt lat="46.1198593" lon="12.0670985"><ele>360.0</ele><time>2026-04-25T12:37:57.434Z</time></trkpt><trkpt lat="46.1199267" lon="12.067163"><ele>360.0</ele><time>2026-04-25T12:37:59.436Z</time></trkpt><trkpt lat="46.1199953" lon="12.0672181"><ele>360.0</ele><time>2026-04-25T12:38:01.438Z</time></trkpt><trkpt lat="46.120063" lon="12.067273"><ele>360.0</ele><time>2026-04-25T12:38:03.443Z</time></trkpt><trkpt lat="46.120125" lon="12.0673304"><ele>360.0</ele><time>2026-04-25T12:38:05.45Z</time></trkpt><trkpt lat="46.1201815" lon="12.067372"><ele>360.57142857142856</ele><time>2026-04-25T12:38:07.447Z</time></trkpt><trkpt lat="46.1202392" lon="12.0673126"><ele>361.14285714285717</ele><time>2026-04-25T12:38:10.444Z</time></trkpt><trkpt lat="46.1202366" lon="12.0672191"><ele>361.7142857142857</ele><time>2026-04-25T12:38:12.437Z</time></trkpt><trkpt lat="46.1202478" lon="12.0671265"><ele>362.2857142857143</ele><time>2026-04-25T12:38:14.443Z</time></trkpt><trkpt lat="46.1202666" lon="12.0670392"><ele>362.8571428571429</ele><time>2026-04-25T12:38:16.432Z</time></trkpt><trkpt lat="46.1202896" lon="12.0669114"><ele>363.42857142857144</ele><time>2026-04-25T12:38:19.445Z</time></trkpt><trkpt lat="46.1202907" lon="12.0667793"><ele>364.0</ele><time>2026-04-25T12:38:22.44Z</time></trkpt><trkpt lat="46.1202683" lon="12.0666911"><ele>364.0</ele><time>2026-04-25T12:38:24.446Z</time></trkpt><trkpt lat="46.1202297" lon="12.0666119"><ele>364.0</ele><time>2026-04-25T12:38:26.433Z</time></trkpt><trkpt lat="46.1201865" lon="12.0665379"><ele>364.0</ele><time>2026-04-25T12:38:28.436Z</time></trkpt><trkpt lat="46.1201409" lon="12.0664633"><ele>364.0</ele><time>2026-04-25T12:38:30.442Z</time></trkpt><trkpt lat="46.1200972" lon="12.0663875"><ele>364.0</ele><time>2026-04-25T12:38:32.453Z</time></trkpt><trkpt lat="46.1200597" lon="12.0663076"><ele>364.0</ele><time>2026-04-25T12:38:34.441Z</time></trkpt><trkpt lat="46.1200305" lon="12.0662244"><ele>364.0</ele><time>2026-04-25T12:38:36.443Z</time></trkpt><trkpt lat="46.1200235" lon="12.0661332"><ele>364.5</ele><time>2026-04-25T12:38:38.445Z</time></trkpt><trkpt lat="46.1200928" lon="12.066062"><ele>365.0</ele><time>2026-04-25T12:38:41.432Z</time></trkpt><trkpt lat="46.1201778" lon="12.0660617"><ele>365.5</ele><time>2026-04-25T12:38:44.445Z</time></trkpt><trkpt lat="46.1202612" lon="12.0660504"><ele>366.0</ele><time>2026-04-25T12:38:47.443Z</time></trkpt><trkpt lat="46.1203446" lon="12.0660353"><ele>366.5</ele><time>2026-04-25T12:38:50.45Z</time></trkpt><trkpt lat="46.120422" lon="12.0660129"><ele>367.0</ele><time>2026-04-25T12:38:53.448Z</time></trkpt><trkpt lat="46.1204981" lon="12.0659886"><ele>367.0</ele><time>2026-04-25T12:38:56.436Z</time></trkpt><trkpt lat="46.120569" lon="12.0659564"><ele>367.0</ele><time>2026-04-25T12:38:59.445Z</time></trkpt><trkpt lat="46.120635" lon="12.0659186"><ele>367.0</ele><time>2026-04-25T12:39:02.442Z</time></trkpt><trkpt lat="46.1206985" lon="12.0658776"><ele>367.0</ele><time>2026-04-25T12:39:05.443Z</time></trkpt><trkpt lat="46.1207613" lon="12.0658282"><ele>367.0</ele><time>2026-04-25T12:39:08.439Z</time></trkpt><trkpt lat="46.1208204" lon="12.0657717"><ele>367.0</ele><time>2026-04-25T12:39:11.446Z</time></trkpt><trkpt lat="46.1208808" lon="12.0657132"><ele>367.0</ele><time>2026-04-25T12:39:14.448Z</time></trkpt><trkpt lat="46.120937" lon="12.0656579"><ele>368.85714285714283</ele><time>2026-04-25T12:39:17.44Z</time></trkpt><trkpt lat="46.120993" lon="12.0655996"><ele>370.7142857142857</ele><time>2026-04-25T12:39:20.434Z</time></trkpt><trkpt lat="46.1210448" lon="12.0655392"><ele>372.57142857142856</ele><time>2026-04-25T12:39:23.449Z</time></trkpt><trkpt lat="46.1210966" lon="12.0654764"><ele>374.42857142857144</ele><time>2026-04-25T12:39:26.444Z</time></trkpt><trkpt lat="46.1211436" lon="12.0654096"><ele>376.28571428571433</ele><time>2026-04-25T12:39:29.44Z</time></trkpt><trkpt lat="46.121192" lon="12.0653449"><ele>378.14285714285717</ele><time>2026-04-25T12:39:32.444Z</time></trkpt><trkpt lat="46.1212339" lon="12.0652771"><ele>380.0</ele><time>2026-04-25T12:39:35.442Z</time></trkpt><trkpt lat="46.1212799" lon="12.0651897"><ele>380.0</ele><time>2026-04-25T12:39:39.444Z</time></trkpt><trkpt lat="46.1213164" lon="12.0651068"><ele>380.0</ele><time>2026-04-25T12:39:43.443Z</time></trkpt><trkpt lat="46.1213437" lon="12.0650231"><ele>380.0</ele><time>2026-04-25T12:39:47.443Z</time></trkpt><trkpt lat="46.1213662" lon="12.0649335"><ele>380.0</ele><time>2026-04-25T12:39:51.442Z</time></trkpt><trkpt lat="46.1213843" lon="12.0648233"><ele>380.0</ele><time>2026-04-25T12:39:56.437Z</time></trkpt><trkpt lat="46.1214015" lon="12.0647152"><ele>380.0</ele><time>2026-04-25T12:40:01.438Z</time></trkpt><trkpt lat="46.1214178" lon="12.0646053"><ele>380.0</ele><time>2026-04-25T12:40:06.444Z</time></trkpt><trkpt lat="46.1214461" lon="12.064506"><ele>381.0</ele><time>2026-04-25T12:40:10.443Z</time></trkpt><trkpt lat="46.1214907" lon="12.0644118"><ele>382.0</ele><time>2026-04-25T12:40:14.443Z</time></trkpt><trkpt lat="46.121543" lon="12.0643208"><ele>383.0</ele><time>2026-04-25T12:40:18.443Z</time></trkpt><trkpt lat="46.1215813" lon="12.0642448"><ele>384.0</ele><time>2026-04-25T12:40:21.558Z</time></trkpt><trkpt lat="46.1216174" lon="12.0641659"><ele>385.0</ele><time>2026-04-25T12:40:24.443Z</time></trkpt><trkpt lat="46.1216605" lon="12.0640674"><ele>386.0</ele><time>2026-04-25T12:40:28.444Z</time></trkpt><trkpt lat="46.1216897" lon="12.0639675"><ele>387.0</ele><time>2026-04-25T12:40:32.434Z</time></trkpt><trkpt lat="46.1217202" lon="12.0638741"><ele>388.8571428571429</ele><time>2026-04-25T12:40:37.432Z</time></trkpt><trkpt lat="46.1216921" lon="12.0637899"><ele>390.7142857142857</ele><time>2026-04-25T12:40:42.44Z</time></trkpt><trkpt lat="46.1216806" lon="12.063693"><ele>392.57142857142856</ele><time>2026-04-25T12:40:46.441Z</time></trkpt><trkpt lat="46.1216966" lon="12.0635855"><ele>394.42857142857144</ele><time>2026-04-25T12:40:50.444Z</time></trkpt><trkpt lat="46.1217155" lon="12.063484"><ele>396.2857142857143</ele><time>2026-04-25T12:40:54.445Z</time></trkpt><trkpt lat="46.1217313" lon="12.0633745"><ele>398.14285714285717</ele><time>2026-04-25T12:40:58.434Z</time></trkpt><trkpt lat="46.1217536" lon="12.0632597"><ele>400.0</ele><time>2026-04-25T12:41:02.451Z</time></trkpt><trkpt lat="46.1217722" lon="12.0631678"><ele>400.5714285714286</ele><time>2026-04-25T12:41:05.444Z</time></trkpt><trkpt lat="46.1217934" lon="12.0630781"><ele>401.14285714285717</ele><time>2026-04-25T12:41:08.443Z</time></trkpt><trkpt lat="46.1218158" lon="12.0629822"><ele>401.7142857142857</ele><time>2026-04-25T12:41:11.446Z</time></trkpt><trkpt lat="46.1218483" lon="12.0628787"><ele>402.28571428571433</ele><time>2026-04-25T12:41:14.442Z</time></trkpt><trkpt lat="46.1218755" lon="12.0627805"><ele>402.85714285714283</ele><time>2026-04-25T12:41:17.441Z</time></trkpt><trkpt lat="46.1219032" lon="12.0626789"><ele>403.42857142857144</ele><time>2026-04-25T12:41:20.446Z</time></trkpt><trkpt lat="46.1219301" lon="12.06257"><ele>404.0</ele><time>2026-04-25T12:41:23.452Z</time></trkpt><trkpt lat="46.1219597" lon="12.0624636"><ele>404.42857142857144</ele><time>2026-04-25T12:41:26.449Z</time></trkpt><trkpt lat="46.1219878" lon="12.0623612"><ele>404.85714285714283</ele><time>2026-04-25T12:41:29.441Z</time></trkpt><trkpt lat="46.1220195" lon="12.0622662"><ele>405.28571428571433</ele><time>2026-04-25T12:41:32.441Z</time></trkpt><trkpt lat="46.1220592" lon="12.0621751"><ele>405.7142857142857</ele><time>2026-04-25T12:41:35.442Z</time></trkpt><trkpt lat="46.1220915" lon="12.0620822"><ele>406.14285714285717</ele><time>2026-04-25T12:41:38.435Z</time></trkpt><trkpt lat="46.1221173" lon="12.0619931"><ele>406.5714285714286</ele><time>2026-04-25T12:41:41.441Z</time></trkpt><trkpt lat="46.1221452" lon="12.061907"><ele>407.0</ele><time>2026-04-25T12:41:44.442Z</time></trkpt><trkpt lat="46.1221717" lon="12.0618198"><ele>407.00000000000006</ele><time>2026-04-25T12:41:47.442Z</time></trkpt><trkpt lat="46.1221984" lon="12.061728"><ele>407.0</ele><time>2026-04-25T12:41:50.433Z</time></trkpt><trkpt lat="46.1222312" lon="12.0616431"><ele>407.0</ele><time>2026-04-25T12:41:53.45Z</time></trkpt><trkpt lat="46.1222553" lon="12.0615567"><ele>407.0</ele><time>2026-04-25T12:41:56.442Z</time></trkpt><trkpt lat="46.1222742" lon="12.0614672"><ele>407.0</ele><time>2026-04-25T12:41:59.434Z</time></trkpt><trkpt lat="46.1222903" lon="12.0613789"><ele>407.00000000000006</ele><time>2026-04-25T12:42:02.446Z</time></trkpt><trkpt lat="46.1223073" lon="12.0612849"><ele>407.0</ele><time>2026-04-25T12:42:05.443Z</time></trkpt><trkpt lat="46.1223289" lon="12.061185"><ele>407.42857142857144</ele><time>2026-04-25T12:42:08.438Z</time></trkpt><trkpt lat="46.1223493" lon="12.0610859"><ele>407.8571428571429</ele><time>2026-04-25T12:42:11.442Z</time></trkpt><trkpt lat="46.1223796" lon="12.06099"><ele>408.28571428571433</ele><time>2026-04-25T12:42:14.447Z</time></trkpt><trkpt lat="46.1224177" lon="12.0608987"><ele>408.7142857142857</ele><time>2026-04-25T12:42:17.437Z</time></trkpt><trkpt lat="46.1224626" lon="12.060822"><ele>409.1428571428571</ele><time>2026-04-25T12:42:20.443Z</time></trkpt><trkpt lat="46.1225098" lon="12.0607504"><ele>409.5714285714286</ele><time>2026-04-25T12:42:23.453Z</time></trkpt><trkpt lat="46.1225665" lon="12.0606778"><ele>410.0</ele><time>2026-04-25T12:42:27.442Z</time></trkpt><trkpt lat="46.1226192" lon="12.0606158"><ele>412.2857142857143</ele><time>2026-04-25T12:42:31.451Z</time></trkpt><trkpt lat="46.1226579" lon="12.06054"><ele>414.57142857142856</ele><time>2026-04-25T12:42:35.442Z</time></trkpt><trkpt lat="46.1226905" lon="12.0604602"><ele>416.85714285714283</ele><time>2026-04-25T12:42:39.442Z</time></trkpt><trkpt lat="46.1227185" lon="12.060365"><ele>419.1428571428571</ele><time>2026-04-25T12:42:44.441Z</time></trkpt><trkpt lat="46.1227496" lon="12.060264"><ele>421.42857142857144</ele><time>2026-04-25T12:42:49.443Z</time></trkpt><trkpt lat="46.1227809" lon="12.0601765"><ele>423.71428571428567</ele><time>2026-04-25T12:42:54.443Z</time></trkpt><trkpt lat="46.122851" lon="12.0602208"><ele>426.0</ele><time>2026-04-25T12:42:58.45Z</time></trkpt><trkpt lat="46.1229229" lon="12.0602011"><ele>425.99999999999994</ele><time>2026-04-25T12:43:02.442Z</time></trkpt><trkpt lat="46.1228484" lon="12.0601596"><ele>426.0</ele><time>2026-04-25T12:43:06.445Z</time></trkpt><trkpt lat="46.1227613" lon="12.0601291"><ele>426.0</ele><time>2026-04-25T12:43:09.448Z</time></trkpt><trkpt lat="46.1228234" lon="12.060162"><ele>426.0</ele><time>2026-04-25T12:43:19.447Z</time></trkpt><trkpt lat="46.1227896" lon="12.0600748"><ele>426.0</ele><time>2026-04-25T12:43:31.431Z</time></trkpt><trkpt lat="46.1227912" lon="12.0599703"><ele>425.99999999999994</ele><time>2026-04-25T12:43:36.437Z</time></trkpt><trkpt lat="46.1228013" lon="12.0598698"><ele>426.0</ele><time>2026-04-25T12:43:40.43Z</time></trkpt><trkpt lat="46.122832" lon="12.0597804"><ele>426.99999999999994</ele><time>2026-04-25T12:43:44.434Z</time></trkpt><trkpt lat="46.1228922" lon="12.0597289"><ele>428.0</ele><time>2026-04-25T12:43:48.436Z</time></trkpt><trkpt lat="46.1229549" lon="12.0596982"><ele>429.0</ele><time>2026-04-25T12:43:53.461Z</time></trkpt><trkpt lat="46.1229371" lon="12.05959"><ele>430.0</ele><time>2026-04-25T12:43:58.444Z</time></trkpt><trkpt lat="46.122913" lon="12.0594962"><ele>431.0</ele><time>2026-04-25T12:44:02.443Z</time></trkpt><trkpt lat="46.1228876" lon="12.0594032"><ele>431.99999999999994</ele><time>2026-04-25T12:44:06.434Z</time></trkpt><trkpt lat="46.1228597" lon="12.0593107"><ele>433.0</ele><time>2026-04-25T12:44:10.45Z</time></trkpt><trkpt lat="46.1228179" lon="12.0592275"><ele>433.0</ele><time>2026-04-25T12:44:14.441Z</time></trkpt><trkpt lat="46.1227613" lon="12.0591655"><ele>432.99999999999994</ele><time>2026-04-25T12:44:20.446Z</time></trkpt><trkpt lat="46.1226918" lon="12.059182"><ele>432.99999999999994</ele><time>2026-04-25T12:44:23.452Z</time></trkpt><trkpt lat="46.1226066" lon="12.0591957"><ele>433.0</ele><time>2026-04-25T12:44:25.446Z</time></trkpt><trkpt lat="46.1225218" lon="12.059108"><ele>433.0</ele><time>2026-04-25T12:44:27.444Z</time></trkpt><trkpt lat="46.1224354" lon="12.0589768"><ele>431.6666666666667</ele><time>2026-04-25T12:44:29.443Z</time></trkpt><trkpt lat="46.122386" lon="12.0589135"><ele>430.33333333333337</ele><time>2026-04-25T12:44:30.445Z</time></trkpt><trkpt lat="46.1223273" lon="12.058855"><ele>429.0</ele><time>2026-04-25T12:44:31.443Z</time></trkpt><trkpt lat="46.1222659" lon="12.0587969"><ele>427.66666666666663</ele><time>2026-04-25T12:44:32.44Z</time></trkpt><trkpt lat="46.1221967" lon="12.0587445"><ele>426.3333333333333</ele><time>2026-04-25T12:44:33.457Z</time></trkpt><trkpt lat="46.1221243" lon="12.058695"><ele>425.0</ele><time>2026-04-25T12:44:34.436Z</time></trkpt><trkpt lat="46.1220476" lon="12.0586502"><ele>424.99999999999994</ele><time>2026-04-25T12:44:35.447Z</time></trkpt><trkpt lat="46.1219764" lon="12.0585961"><ele>425.0</ele><time>2026-04-25T12:44:36.442Z</time></trkpt><trkpt lat="46.1219134" lon="12.0585239"><ele>425.0</ele><time>2026-04-25T12:44:37.437Z</time></trkpt><trkpt lat="46.1218676" lon="12.0584289"><ele>425.0</ele><time>2026-04-25T12:44:38.431Z</time></trkpt><trkpt lat="46.121831" lon="12.05833"><ele>424.99999999999994</ele><time>2026-04-25T12:44:39.434Z</time></trkpt><trkpt lat="46.1218002" lon="12.0582265"><ele>425.0</ele><time>2026-04-25T12:44:40.448Z</time></trkpt><trkpt lat="46.121765" lon="12.0581255"><ele>424.66666666666663</ele><time>2026-04-25T12:44:41.433Z</time></trkpt><trkpt lat="46.1217263" lon="12.0580272"><ele>424.3333333333333</ele><time>2026-04-25T12:44:42.443Z</time></trkpt><trkpt lat="46.1216889" lon="12.0579249"><ele>424.0</ele><time>2026-04-25T12:44:43.453Z</time></trkpt><trkpt lat="46.1216546" lon="12.057822"><ele>423.66666666666663</ele><time>2026-04-25T12:44:44.437Z</time></trkpt><trkpt lat="46.121628" lon="12.0577268"><ele>423.3333333333333</ele><time>2026-04-25T12:44:45.45Z</time></trkpt><trkpt lat="46.1216036" lon="12.0576414"><ele>423.0</ele><time>2026-04-25T12:44:46.441Z</time></trkpt><trkpt lat="46.121546" lon="12.0575044"><ele>423.0</ele><time>2026-04-25T12:44:48.444Z</time></trkpt><trkpt lat="46.1214437" lon="12.057471"><ele>423.0</ele><time>2026-04-25T12:44:50.442Z</time></trkpt><trkpt lat="46.1213256" lon="12.0575072"><ele>423.0</ele><time>2026-04-25T12:44:52.441Z</time></trkpt><trkpt lat="46.1212598" lon="12.0575307"><ele>423.0</ele><time>2026-04-25T12:44:53.452Z</time></trkpt><trkpt lat="46.1204692" lon="12.0567489"><ele>422.7142857142857</ele><time>2026-04-25T12:45:15.432Z</time></trkpt><trkpt lat="46.1204367" lon="12.0566543"><ele>422.42857142857144</ele><time>2026-04-25T12:45:17.444Z</time></trkpt><trkpt lat="46.1204021" lon="12.0565614"><ele>422.14285714285717</ele><time>2026-04-25T12:45:19.444Z</time></trkpt><trkpt lat="46.1203704" lon="12.0564706"><ele>421.8571428571429</ele><time>2026-04-25T12:45:21.441Z</time></trkpt><trkpt lat="46.1203452" lon="12.0563675"><ele>421.57142857142856</ele><time>2026-04-25T12:45:23.443Z</time></trkpt><trkpt lat="46.1203223" lon="12.0562662"><ele>421.28571428571433</ele><time>2026-04-25T12:45:25.443Z</time></trkpt><trkpt lat="46.1203124" lon="12.056174"><ele>421.0</ele><time>2026-04-25T12:45:27.431Z</time></trkpt><trkpt lat="46.1203133" lon="12.0560825"><ele>421.00000000000006</ele><time>2026-04-25T12:45:29.441Z</time></trkpt><trkpt lat="46.1203294" lon="12.0559748"><ele>421.0</ele><time>2026-04-25T12:45:32.44Z</time></trkpt><trkpt lat="46.1203476" lon="12.0558722"><ele>421.0</ele><time>2026-04-25T12:45:35.442Z</time></trkpt><trkpt lat="46.1203731" lon="12.0557807"><ele>421.0</ele><time>2026-04-25T12:45:38.442Z</time></trkpt><trkpt lat="46.1204184" lon="12.0556762"><ele>421.00000000000006</ele><time>2026-04-25T12:45:41.44Z</time></trkpt><trkpt lat="46.1204698" lon="12.0555739"><ele>421.0</ele><time>2026-04-25T12:45:44.44Z</time></trkpt><trkpt lat="46.1205151" lon="12.0554784"><ele>421.33333333333337</ele><time>2026-04-25T12:45:47.44Z</time></trkpt><trkpt lat="46.1205696" lon="12.0553966"><ele>421.6666666666667</ele><time>2026-04-25T12:45:50.441Z</time></trkpt><trkpt lat="46.1206292" lon="12.0553293"><ele>422.0</ele><time>2026-04-25T12:45:54.441Z</time></trkpt><trkpt lat="46.1206459" lon="12.0552306"><ele>422.33333333333337</ele><time>2026-04-25T12:48:18.444Z</time></trkpt><trkpt lat="46.1205981" lon="12.0550911"><ele>422.6666666666667</ele><time>2026-04-25T12:48:23.446Z</time></trkpt><trkpt lat="46.1205559" lon="12.0550143"><ele>423.0</ele><time>2026-04-25T12:48:25.431Z</time></trkpt><trkpt lat="46.120516" lon="12.0549164"><ele>424.0</ele><time>2026-04-25T12:48:27.432Z</time></trkpt><trkpt lat="46.1204881" lon="12.0548082"><ele>425.0</ele><time>2026-04-25T12:48:29.429Z</time></trkpt><trkpt lat="46.1204712" lon="12.0547133"><ele>426.0</ele><time>2026-04-25T12:48:31.427Z</time></trkpt><trkpt lat="46.1204498" lon="12.0545858"><ele>427.0</ele><time>2026-04-25T12:48:34.447Z</time></trkpt><trkpt lat="46.1204201" lon="12.054475"><ele>428.0</ele><time>2026-04-25T12:48:37.438Z</time></trkpt><trkpt lat="46.1203848" lon="12.0543594"><ele>429.0</ele><time>2026-04-25T12:48:40.44Z</time></trkpt><trkpt lat="46.1203493" lon="12.0542394"><ele>429.0</ele><time>2026-04-25T12:48:43.449Z</time></trkpt><trkpt lat="46.1203022" lon="12.0541321"><ele>429.0</ele><time>2026-04-25T12:48:46.441Z</time></trkpt><trkpt lat="46.1202648" lon="12.0540198"><ele>429.0</ele><time>2026-04-25T12:48:49.447Z</time></trkpt><trkpt lat="46.1202368" lon="12.0539067"><ele>429.0</ele><time>2026-04-25T12:48:52.442Z</time></trkpt><trkpt lat="46.1202174" lon="12.0537895"><ele>429.0</ele><time>2026-04-25T12:48:55.442Z</time></trkpt><trkpt lat="46.1201983" lon="12.0536783"><ele>429.0</ele><time>2026-04-25T12:48:58.429Z</time></trkpt><trkpt lat="46.1201777" lon="12.0535636"><ele>430.14285714285717</ele><time>2026-04-25T12:49:01.44Z</time></trkpt><trkpt lat="46.1201749" lon="12.0534556"><ele>431.28571428571433</ele><time>2026-04-25T12:49:04.441Z</time></trkpt><trkpt lat="46.1202029" lon="12.0533571"><ele>432.42857142857144</ele><time>2026-04-25T12:49:07.44Z</time></trkpt><trkpt lat="46.120234" lon="12.0532642"><ele>433.57142857142856</ele><time>2026-04-25T12:49:10.441Z</time></trkpt><trkpt lat="46.1202518" lon="12.0531712"><ele>434.7142857142857</ele><time>2026-04-25T12:49:13.439Z</time></trkpt><trkpt lat="46.1202751" lon="12.053058"><ele>435.85714285714283</ele><time>2026-04-25T12:49:17.441Z</time></trkpt><trkpt lat="46.1202811" lon="12.0529506"><ele>437.0</ele><time>2026-04-25T12:49:21.43Z</time></trkpt><trkpt lat="46.1202897" lon="12.0528494"><ele>439.71428571428567</ele><time>2026-04-25T12:49:25.431Z</time></trkpt><trkpt lat="46.1202894" lon="12.0527554"><ele>442.42857142857144</ele><time>2026-04-25T12:49:29.426Z</time></trkpt><trkpt lat="46.1202914" lon="12.0526472"><ele>445.1428571428571</ele><time>2026-04-25T12:49:34.444Z</time></trkpt><trkpt lat="46.1203021" lon="12.0525534"><ele>447.85714285714283</ele><time>2026-04-25T12:49:39.442Z</time></trkpt><trkpt lat="46.1203486" lon="12.0524842"><ele>450.57142857142856</ele><time>2026-04-25T12:49:44.439Z</time></trkpt><trkpt lat="46.1204089" lon="12.0524311"><ele>453.2857142857143</ele><time>2026-04-25T12:49:50.44Z</time></trkpt><trkpt lat="46.1204798" lon="12.052409"><ele>456.0</ele><time>2026-04-25T12:49:56.441Z</time></trkpt><trkpt lat="46.1205467" lon="12.0523899"><ele>456.85714285714283</ele><time>2026-04-25T12:50:01.443Z</time></trkpt><trkpt lat="46.1206091" lon="12.0523658"><ele>457.71428571428567</ele><time>2026-04-25T12:50:06.441Z</time></trkpt><trkpt lat="46.1206686" lon="12.0523318"><ele>458.57142857142856</ele><time>2026-04-25T12:50:11.442Z</time></trkpt><trkpt lat="46.1207245" lon="12.0522797"><ele>459.42857142857144</ele><time>2026-04-25T12:50:16.435Z</time></trkpt><trkpt lat="46.1207781" lon="12.052216"><ele>460.2857142857143</ele><time>2026-04-25T12:50:21.426Z</time></trkpt><trkpt lat="46.1208256" lon="12.0521514"><ele>461.1428571428571</ele><time>2026-04-25T12:50:26.439Z</time></trkpt><trkpt lat="46.1208754" lon="12.0520709"><ele>462.0</ele><time>2026-04-25T12:50:32.432Z</time></trkpt><trkpt lat="46.1209193" lon="12.0519887"><ele>462.0</ele><time>2026-04-25T12:50:38.432Z</time></trkpt><trkpt lat="46.1209502" lon="12.0519014"><ele>462.0</ele><time>2026-04-25T12:50:43.443Z</time></trkpt><trkpt lat="46.1209778" lon="12.0518144"><ele>462.0</ele><time>2026-04-25T12:50:48.438Z</time></trkpt><trkpt lat="46.1209879" lon="12.0517222"><ele>462.0</ele><time>2026-04-25T12:50:53.438Z</time></trkpt><trkpt lat="46.1210043" lon="12.0516267"><ele>462.0</ele><time>2026-04-25T12:50:59.433Z</time></trkpt><trkpt lat="46.1210171" lon="12.0515364"><ele>462.0</ele><time>2026-04-25T12:51:05.428Z</time></trkpt><trkpt lat="46.1210421" lon="12.0514525"><ele>462.0</ele><time>2026-04-25T12:51:11.447Z</time></trkpt><trkpt lat="46.1210334" lon="12.0513503"><ele>463.7142857142857</ele><time>2026-04-25T12:51:17.428Z</time></trkpt><trkpt lat="46.1210485" lon="12.0512456"><ele>465.42857142857144</ele><time>2026-04-25T12:51:23.44Z</time></trkpt><trkpt lat="46.1210608" lon="12.0511558"><ele>467.1428571428571</ele><time>2026-04-25T12:51:27.433Z</time></trkpt><trkpt lat="46.1210827" lon="12.0510556"><ele>468.85714285714283</ele><time>2026-04-25T12:51:32.428Z</time></trkpt><trkpt lat="46.1211114" lon="12.0509719"><ele>470.57142857142856</ele><time>2026-04-25T12:51:37.44Z</time></trkpt><trkpt lat="46.1211451" lon="12.0508742"><ele>472.2857142857142</ele><time>2026-04-25T12:51:43.444Z</time></trkpt><trkpt lat="46.1211756" lon="12.0507892"><ele>473.99999999999994</ele><time>2026-04-25T12:51:48.441Z</time></trkpt><trkpt lat="46.1211972" lon="12.0507033"><ele>474.71428571428567</ele><time>2026-04-25T12:51:53.441Z</time></trkpt><trkpt lat="46.121216" lon="12.0506139"><ele>475.42857142857144</ele><time>2026-04-25T12:51:57.447Z</time></trkpt><trkpt lat="46.1212401" lon="12.0505168"><ele>476.1428571428571</ele><time>2026-04-25T12:52:03.435Z</time></trkpt><trkpt lat="46.1212756" lon="12.0504238"><ele>476.85714285714283</ele><time>2026-04-25T12:52:09.444Z</time></trkpt><trkpt lat="46.1212792" lon="12.0503286"><ele>477.57142857142856</ele><time>2026-04-25T12:52:14.442Z</time></trkpt><trkpt lat="46.1212923" lon="12.050229"><ele>478.2857142857143</ele><time>2026-04-25T12:52:19.442Z</time></trkpt><trkpt lat="46.1213095" lon="12.0501334"><ele>479.0</ele><time>2026-04-25T12:52:24.432Z</time></trkpt><trkpt lat="46.1213176" lon="12.0500406"><ele>479.85714285714283</ele><time>2026-04-25T12:52:29.441Z</time></trkpt><trkpt lat="46.1213334" lon="12.0499436"><ele>480.7142857142858</ele><time>2026-04-25T12:52:34.447Z</time></trkpt><trkpt lat="46.1213424" lon="12.0498405"><ele>481.5714285714286</ele><time>2026-04-25T12:52:39.444Z</time></trkpt><trkpt lat="46.1213538" lon="12.0497399"><ele>482.42857142857144</ele><time>2026-04-25T12:52:44.44Z</time></trkpt><trkpt lat="46.1213628" lon="12.0496495"><ele>483.28571428571433</ele><time>2026-04-25T12:52:48.431Z</time></trkpt><trkpt lat="46.1213703" lon="12.0495559"><ele>484.1428571428572</ele><time>2026-04-25T12:52:52.44Z</time></trkpt><trkpt lat="46.1213853" lon="12.0494591"><ele>485.00000000000006</ele><time>2026-04-25T12:52:56.436Z</time></trkpt><trkpt lat="46.121383" lon="12.0493596"><ele>485.00000000000006</ele><time>2026-04-25T12:53:00.441Z</time></trkpt><trkpt lat="46.1213955" lon="12.0492637"><ele>485.0</ele><time>2026-04-25T12:53:04.444Z</time></trkpt><trkpt lat="46.1214004" lon="12.0491632"><ele>485.00000000000006</ele><time>2026-04-25T12:53:08.441Z</time></trkpt><trkpt lat="46.1214065" lon="12.0490596"><ele>485.00000000000006</ele><time>2026-04-25T12:53:12.44Z</time></trkpt><trkpt lat="46.1214267" lon="12.0489677"><ele>485.0</ele><time>2026-04-25T12:53:16.439Z</time></trkpt><trkpt lat="46.1214588" lon="12.0488856"><ele>485.00000000000006</ele><time>2026-04-25T12:53:20.434Z</time></trkpt><trkpt lat="46.1215069" lon="12.048812"><ele>485.00000000000006</ele><time>2026-04-25T12:53:24.441Z</time></trkpt><trkpt lat="46.1215648" lon="12.0487554"><ele>488.00000000000006</ele><time>2026-04-25T12:53:28.436Z</time></trkpt><trkpt lat="46.121624" lon="12.0487136"><ele>491.0</ele><time>2026-04-25T12:53:32.439Z</time></trkpt><trkpt lat="46.1216761" lon="12.0486556"><ele>494.00000000000006</ele><time>2026-04-25T12:53:36.44Z</time></trkpt><trkpt lat="46.1217321" lon="12.0485807"><ele>497.00000000000006</ele><time>2026-04-25T12:53:41.432Z</time></trkpt><trkpt lat="46.1217738" lon="12.0485122"><ele>500.0</ele><time>2026-04-25T12:53:45.432Z</time></trkpt><trkpt lat="46.1218071" lon="12.0484094"><ele>503.00000000000006</ele><time>2026-04-25T12:53:50.442Z</time></trkpt><trkpt lat="46.1218347" lon="12.0483238"><ele>506.00000000000006</ele><time>2026-04-25T12:53:54.441Z</time></trkpt><trkpt lat="46.1218518" lon="12.0482354"><ele>507.57142857142867</ele><time>2026-04-25T12:53:58.44Z</time></trkpt><trkpt lat="46.1218731" lon="12.0481271"><ele>509.14285714285717</ele><time>2026-04-25T12:54:03.438Z</time></trkpt><trkpt lat="46.1218882" lon="12.0480164"><ele>510.7142857142858</ele><time>2026-04-25T12:54:08.44Z</time></trkpt><trkpt lat="46.1218932" lon="12.0479153"><ele>512.2857142857143</ele><time>2026-04-25T12:54:12.427Z</time></trkpt><trkpt lat="46.1219077" lon="12.0478182"><ele>513.8571428571429</ele><time>2026-04-25T12:54:16.429Z</time></trkpt><trkpt lat="46.1219349" lon="12.0477226"><ele>515.4285714285714</ele><time>2026-04-25T12:54:20.444Z</time></trkpt><trkpt lat="46.121969" lon="12.0476304"><ele>517.0</ele><time>2026-04-25T12:54:24.429Z</time></trkpt><trkpt lat="46.1220006" lon="12.0475322"><ele>519.5714285714286</ele><time>2026-04-25T12:54:28.43Z</time></trkpt><trkpt lat="46.1220298" lon="12.0474388"><ele>522.1428571428572</ele><time>2026-04-25T12:54:32.439Z</time></trkpt><trkpt lat="46.1220624" lon="12.0473518"><ele>524.7142857142858</ele><time>2026-04-25T12:54:36.443Z</time></trkpt><trkpt lat="46.1221024" lon="12.0472749"><ele>527.2857142857143</ele><time>2026-04-25T12:54:40.429Z</time></trkpt><trkpt lat="46.1221323" lon="12.0471943"><ele>529.8571428571429</ele><time>2026-04-25T12:54:44.45Z</time></trkpt><trkpt lat="46.1221678" lon="12.0471061"><ele>532.4285714285714</ele><time>2026-04-25T12:54:49.441Z</time></trkpt><trkpt lat="46.122188" lon="12.0470062"><ele>535.0</ele><time>2026-04-25T12:54:55.442Z</time></trkpt><trkpt lat="46.1222278" lon="12.0469139"><ele>535.0</ele><time>2026-04-25T12:55:01.441Z</time></trkpt><trkpt lat="46.1222504" lon="12.0468224"><ele>535.0</ele><time>2026-04-25T12:55:07.434Z</time></trkpt><trkpt lat="46.1222716" lon="12.0467216"><ele>535.0</ele><time>2026-04-25T12:55:13.448Z</time></trkpt><trkpt lat="46.1222695" lon="12.0466218"><ele>535.0</ele><time>2026-04-25T12:55:18.44Z</time></trkpt><trkpt lat="46.1222891" lon="12.0465186"><ele>535.0</ele><time>2026-04-25T12:55:25.44Z</time></trkpt><trkpt lat="46.1223318" lon="12.0464373"><ele>535.0</ele><time>2026-04-25T12:55:31.44Z</time></trkpt><trkpt lat="46.1223524" lon="12.0463413"><ele>535.0</ele><time>2026-04-25T12:55:37.44Z</time></trkpt><trkpt lat="46.122389" lon="12.0462522"><ele>535.7142857142857</ele><time>2026-04-25T12:55:43.442Z</time></trkpt><trkpt lat="46.1224411" lon="12.0461829"><ele>536.4285714285714</ele><time>2026-04-25T12:55:49.441Z</time></trkpt><trkpt lat="46.1224946" lon="12.0461203"><ele>537.1428571428571</ele><time>2026-04-25T12:55:55.434Z</time></trkpt><trkpt lat="46.1225515" lon="12.04605"><ele>537.8571428571429</ele><time>2026-04-25T12:56:01.432Z</time></trkpt><trkpt lat="46.1225998" lon="12.0459784"><ele>538.5714285714286</ele><time>2026-04-25T12:56:06.44Z</time></trkpt><trkpt lat="46.1226546" lon="12.0459242"><ele>539.2857142857142</ele><time>2026-04-25T12:56:11.436Z</time></trkpt><trkpt lat="46.1227014" lon="12.0458415"><ele>540.0</ele><time>2026-04-25T12:56:16.44Z</time></trkpt><trkpt lat="46.1227413" lon="12.0457668"><ele>541.8571428571429</ele><time>2026-04-25T12:56:28.436Z</time></trkpt><trkpt lat="46.1228061" lon="12.0457036"><ele>543.7142857142857</ele><time>2026-04-25T12:56:32.44Z</time></trkpt><trkpt lat="46.1228589" lon="12.0456407"><ele>545.5714285714286</ele><time>2026-04-25T12:56:36.431Z</time></trkpt><trkpt lat="46.1228865" lon="12.0455571"><ele>547.4285714285714</ele><time>2026-04-25T12:56:40.433Z</time></trkpt><trkpt lat="46.1229003" lon="12.0454503"><ele>549.2857142857142</ele><time>2026-04-25T12:56:45.432Z</time></trkpt><trkpt lat="46.1229148" lon="12.0453417"><ele>551.1428571428571</ele><time>2026-04-25T12:56:50.438Z</time></trkpt><trkpt lat="46.1229319" lon="12.0452512"><ele>553.0</ele><time>2026-04-25T12:56:54.444Z</time></trkpt><trkpt lat="46.1229449" lon="12.0451594"><ele>553.0</ele><time>2026-04-25T12:56:58.43Z</time></trkpt><trkpt lat="46.1229596" lon="12.0450559"><ele>553.0</ele><time>2026-04-25T12:57:03.44Z</time></trkpt><trkpt lat="46.1229735" lon="12.0449619"><ele>553.0</ele><time>2026-04-25T12:57:08.44Z</time></trkpt><trkpt lat="46.1229928" lon="12.0448701"><ele>553.0</ele><time>2026-04-25T12:57:13.439Z</time></trkpt><trkpt lat="46.1230061" lon="12.0447759"><ele>553.0</ele><time>2026-04-25T12:57:18.439Z</time></trkpt><trkpt lat="46.1230381" lon="12.0446903"><ele>553.0</ele><time>2026-04-25T12:57:23.444Z</time></trkpt><trkpt lat="46.1230836" lon="12.0446137"><ele>553.0</ele><time>2026-04-25T12:57:28.439Z</time></trkpt><trkpt lat="46.1231226" lon="12.0445232"><ele>555.0</ele><time>2026-04-25T12:57:34.427Z</time></trkpt><trkpt lat="46.1231594" lon="12.0444482"><ele>557.0</ele><time>2026-04-25T12:57:40.432Z</time></trkpt><trkpt lat="46.1232036" lon="12.0443619"><ele>559.0</ele><time>2026-04-25T12:57:47.432Z</time></trkpt><trkpt lat="46.1232461" lon="12.0442912"><ele>561.0</ele><time>2026-04-25T12:57:52.437Z</time></trkpt><trkpt lat="46.1232829" lon="12.0442155"><ele>563.0</ele><time>2026-04-25T12:57:58.441Z</time></trkpt><trkpt lat="46.1233222" lon="12.0441387"><ele>565.0</ele><time>2026-04-25T12:58:04.439Z</time></trkpt><trkpt lat="46.1233724" lon="12.0440633"><ele>567.0</ele><time>2026-04-25T12:58:10.434Z</time></trkpt><trkpt lat="46.1234037" lon="12.0439722"><ele>569.4285714285714</ele><time>2026-04-25T12:58:16.439Z</time></trkpt><trkpt lat="46.1234413" lon="12.0438896"><ele>571.8571428571429</ele><time>2026-04-25T12:58:22.44Z</time></trkpt><trkpt lat="46.1234777" lon="12.0437998"><ele>574.2857142857142</ele><time>2026-04-25T12:58:28.441Z</time></trkpt><trkpt lat="46.1235085" lon="12.0437095"><ele>576.7142857142858</ele><time>2026-04-25T12:58:34.437Z</time></trkpt><trkpt lat="46.1235458" lon="12.043633"><ele>579.1428571428571</ele><time>2026-04-25T12:58:39.427Z</time></trkpt><trkpt lat="46.1235943" lon="12.0435522"><ele>581.5714285714286</ele><time>2026-04-25T12:58:45.428Z</time></trkpt><trkpt lat="46.1236358" lon="12.0434767"><ele>584.0</ele><time>2026-04-25T12:58:50.428Z</time></trkpt><trkpt lat="46.1236756" lon="12.0434014"><ele>584.0</ele><time>2026-04-25T12:58:55.44Z</time></trkpt><trkpt lat="46.1237178" lon="12.0433322"><ele>584.0</ele><time>2026-04-25T12:59:00.439Z</time></trkpt><trkpt lat="46.1237492" lon="12.0432482"><ele>584.0</ele><time>2026-04-25T12:59:05.442Z</time></trkpt><trkpt lat="46.1237911" lon="12.0431624"><ele>584.0</ele><time>2026-04-25T12:59:11.447Z</time></trkpt><trkpt lat="46.1238319" lon="12.0430764"><ele>584.0</ele><time>2026-04-25T12:59:17.431Z</time></trkpt><trkpt lat="46.1238738" lon="12.0430014"><ele>584.0</ele><time>2026-04-25T12:59:22.443Z</time></trkpt><trkpt lat="46.1239154" lon="12.0429145"><ele>584.0</ele><time>2026-04-25T12:59:28.446Z</time></trkpt><trkpt lat="46.12395" lon="12.0428305"><ele>586.4285714285714</ele><time>2026-04-25T12:59:34.441Z</time></trkpt><trkpt lat="46.1239948" lon="12.0427487"><ele>588.8571428571429</ele><time>2026-04-25T12:59:40.44Z</time></trkpt><trkpt lat="46.1240265" lon="12.0426679"><ele>591.2857142857142</ele><time>2026-04-25T12:59:45.429Z</time></trkpt><trkpt lat="46.1240527" lon="12.0425828"><ele>593.7142857142858</ele><time>2026-04-25T12:59:51.431Z</time></trkpt><trkpt lat="46.1240774" lon="12.0424828"><ele>596.1428571428572</ele><time>2026-04-25T12:59:57.441Z</time></trkpt><trkpt lat="46.1241119" lon="12.0423994"><ele>598.5714285714286</ele><time>2026-04-25T13:00:02.439Z</time></trkpt><trkpt lat="46.1241662" lon="12.0423262"><ele>601.0</ele><time>2026-04-25T13:00:08.429Z</time></trkpt><trkpt lat="46.1242033" lon="12.0422496"><ele>603.2857142857142</ele><time>2026-04-25T13:00:14.425Z</time></trkpt><trkpt lat="46.1242469" lon="12.042176"><ele>605.5714285714287</ele><time>2026-04-25T13:00:20.433Z</time></trkpt><trkpt lat="46.1242993" lon="12.0421058"><ele>607.8571428571429</ele><time>2026-04-25T13:00:26.438Z</time></trkpt><trkpt lat="46.1243443" lon="12.0420349"><ele>610.1428571428571</ele><time>2026-04-25T13:00:32.431Z</time></trkpt><trkpt lat="46.1243956" lon="12.0419531"><ele>612.4285714285713</ele><time>2026-04-25T13:00:38.428Z</time></trkpt><trkpt lat="46.1244386" lon="12.0418731"><ele>614.7142857142858</ele><time>2026-04-25T13:00:43.433Z</time></trkpt><trkpt lat="46.1244839" lon="12.0417922"><ele>617.0</ele><time>2026-04-25T13:00:48.436Z</time></trkpt><trkpt lat="46.1245143" lon="12.0417046"><ele>620.1428571428572</ele><time>2026-04-25T13:00:53.446Z</time></trkpt><trkpt lat="46.1245489" lon="12.0416128"><ele>623.2857142857142</ele><time>2026-04-25T13:00:58.426Z</time></trkpt><trkpt lat="46.1245883" lon="12.04152"><ele>626.4285714285714</ele><time>2026-04-25T13:01:04.427Z</time></trkpt><trkpt lat="46.124626" lon="12.0414352"><ele>629.5714285714287</ele><time>2026-04-25T13:01:11.43Z</time></trkpt><trkpt lat="46.1246656" lon="12.0413573"><ele>632.7142857142858</ele><time>2026-04-25T13:01:18.43Z</time></trkpt><trkpt lat="46.1247135" lon="12.0412796"><ele>635.8571428571429</ele><time>2026-04-25T13:01:24.425Z</time></trkpt><trkpt lat="46.1247612" lon="12.041208"><ele>639.0</ele><time>2026-04-25T13:01:30.434Z</time></trkpt><trkpt lat="46.124807" lon="12.0411251"><ele>639.0000000000001</ele><time>2026-04-25T13:01:36.436Z</time></trkpt><trkpt lat="46.1248496" lon="12.0410454"><ele>639.0</ele><time>2026-04-25T13:01:42.429Z</time></trkpt><trkpt lat="46.124894" lon="12.040973"><ele>639.0</ele><time>2026-04-25T13:01:47.435Z</time></trkpt><trkpt lat="46.1249427" lon="12.0409049"><ele>639.0</ele><time>2026-04-25T13:01:52.43Z</time></trkpt><trkpt lat="46.124994" lon="12.040835"><ele>639.0</ele><time>2026-04-25T13:01:57.435Z</time></trkpt><trkpt lat="46.1250489" lon="12.0407624"><ele>639.0000000000001</ele><time>2026-04-25T13:02:03.435Z</time></trkpt><trkpt lat="46.1251043" lon="12.0407073"><ele>639.0</ele><time>2026-04-25T13:02:08.426Z</time></trkpt><trkpt lat="46.1251585" lon="12.0406464"><ele>638.4285714285714</ele><time>2026-04-25T13:02:13.432Z</time></trkpt><trkpt lat="46.1252258" lon="12.040627"><ele>637.8571428571429</ele><time>2026-04-25T13:02:18.425Z</time></trkpt><trkpt lat="46.1252992" lon="12.040651"><ele>637.2857142857142</ele><time>2026-04-25T13:02:23.442Z</time></trkpt><trkpt lat="46.1253568" lon="12.0407209"><ele>636.7142857142858</ele><time>2026-04-25T13:02:28.44Z</time></trkpt><trkpt lat="46.1253935" lon="12.0407973"><ele>636.1428571428571</ele><time>2026-04-25T13:02:32.438Z</time></trkpt><trkpt lat="46.1253936" lon="12.0408912"><ele>635.5714285714286</ele><time>2026-04-25T13:02:36.429Z</time></trkpt><trkpt lat="46.1253846" lon="12.0409942"><ele>635.0</ele><time>2026-04-25T13:02:40.437Z</time></trkpt><trkpt lat="46.1253731" lon="12.0410943"><ele>634.9999999999999</ele><time>2026-04-25T13:02:44.439Z</time></trkpt><trkpt lat="46.1253605" lon="12.0411952"><ele>635.0</ele><time>2026-04-25T13:02:48.439Z</time></trkpt><trkpt lat="46.1253504" lon="12.0412876"><ele>635.0</ele><time>2026-04-25T13:02:52.438Z</time></trkpt><trkpt lat="46.1253418" lon="12.0413971"><ele>635.0</ele><time>2026-04-25T13:02:57.428Z</time></trkpt><trkpt lat="46.1253353" lon="12.0415044"><ele>635.0</ele><time>2026-04-25T13:03:02.43Z</time></trkpt><trkpt lat="46.1253289" lon="12.0416164"><ele>634.9999999999999</ele><time>2026-04-25T13:03:06.438Z</time></trkpt><trkpt lat="46.1253299" lon="12.0417342"><ele>635.0</ele><time>2026-04-25T13:03:10.44Z</time></trkpt><trkpt lat="46.1253256" lon="12.0418395"><ele>633.8333333333333</ele><time>2026-04-25T13:03:13.448Z</time></trkpt><trkpt lat="46.1253079" lon="12.0419364"><ele>632.6666666666666</ele><time>2026-04-25T13:03:15.44Z</time></trkpt><trkpt lat="46.1253227" lon="12.0420368"><ele>631.5</ele><time>2026-04-25T13:03:18.439Z</time></trkpt><trkpt lat="46.1253922" lon="12.0419826"><ele>630.3333333333334</ele><time>2026-04-25T13:03:21.441Z</time></trkpt><trkpt lat="46.1254279" lon="12.0418786"><ele>629.1666666666667</ele><time>2026-04-25T13:03:24.437Z</time></trkpt><trkpt lat="46.1254617" lon="12.0417925"><ele>628.0</ele><time>2026-04-25T13:03:27.427Z</time></trkpt><trkpt lat="46.1254865" lon="12.0416785"><ele>629.1666666666667</ele><time>2026-04-25T13:03:31.433Z</time></trkpt><trkpt lat="46.125528" lon="12.0415773"><ele>630.3333333333334</ele><time>2026-04-25T13:03:35.432Z</time></trkpt><trkpt lat="46.125592" lon="12.0415081"><ele>631.5</ele><time>2026-04-25T13:03:39.44Z</time></trkpt><trkpt lat="46.1256505" lon="12.0414405"><ele>632.6666666666666</ele><time>2026-04-25T13:03:43.447Z</time></trkpt><trkpt lat="46.1257037" lon="12.0413747"><ele>633.8333333333333</ele><time>2026-04-25T13:03:47.441Z</time></trkpt><trkpt lat="46.1257559" lon="12.0413192"><ele>635.0</ele><time>2026-04-25T13:03:51.422Z</time></trkpt><trkpt lat="46.1258179" lon="12.0412482"><ele>637.9999999999999</ele><time>2026-04-25T13:03:56.424Z</time></trkpt><trkpt lat="46.1258496" lon="12.041163"><ele>641.0</ele><time>2026-04-25T13:04:00.438Z</time></trkpt><trkpt lat="46.1258754" lon="12.0410755"><ele>644.0</ele><time>2026-04-25T13:04:04.431Z</time></trkpt><trkpt lat="46.1258985" lon="12.0409848"><ele>647.0</ele><time>2026-04-25T13:04:08.436Z</time></trkpt><trkpt lat="46.1259302" lon="12.0409019"><ele>650.0</ele><time>2026-04-25T13:04:12.439Z</time></trkpt><trkpt lat="46.125958" lon="12.0408035"><ele>652.9999999999999</ele><time>2026-04-25T13:04:16.439Z</time></trkpt><trkpt lat="46.1259909" lon="12.0407044"><ele>656.0</ele><time>2026-04-25T13:04:20.429Z</time></trkpt><trkpt lat="46.1260414" lon="12.040638"><ele>657.2857142857142</ele><time>2026-04-25T13:04:24.439Z</time></trkpt><trkpt lat="46.1259994" lon="12.0405403"><ele>658.5714285714286</ele><time>2026-04-25T13:04:29.44Z</time></trkpt><trkpt lat="46.1259834" lon="12.040447"><ele>659.8571428571429</ele><time>2026-04-25T13:04:33.449Z</time></trkpt><trkpt lat="46.1260056" lon="12.0403522"><ele>661.1428571428571</ele><time>2026-04-25T13:04:37.44Z</time></trkpt><trkpt lat="46.1259592" lon="12.0404174"><ele>662.4285714285714</ele><time>2026-04-25T13:06:21.437Z</time></trkpt><trkpt lat="46.125952" lon="12.0405195"><ele>663.7142857142857</ele><time>2026-04-25T13:06:25.439Z</time></trkpt><trkpt lat="46.1259733" lon="12.0406114"><ele>665.0</ele><time>2026-04-25T13:06:27.437Z</time></trkpt><trkpt lat="46.1259949" lon="12.0406993"><ele>663.7142857142857</ele><time>2026-04-25T13:06:29.438Z</time></trkpt><trkpt lat="46.1259932" lon="12.0408016"><ele>662.4285714285714</ele><time>2026-04-25T13:06:32.443Z</time></trkpt><trkpt lat="46.1259911" lon="12.0408996"><ele>661.1428571428571</ele><time>2026-04-25T13:06:38.437Z</time></trkpt><trkpt lat="46.1259797" lon="12.0410068"><ele>659.8571428571429</ele><time>2026-04-25T13:06:44.428Z</time></trkpt><trkpt lat="46.1259503" lon="12.0411033"><ele>658.5714285714286</ele><time>2026-04-25T13:06:50.436Z</time></trkpt><trkpt lat="46.1259259" lon="12.0412052"><ele>657.2857142857142</ele><time>2026-04-25T13:06:56.421Z</time></trkpt><trkpt lat="46.1259275" lon="12.041302"><ele>656.0</ele><time>2026-04-25T13:07:03.432Z</time></trkpt><trkpt lat="46.1259108" lon="12.0414104"><ele>656.0</ele><time>2026-04-25T13:07:08.429Z</time></trkpt><trkpt lat="46.1258811" lon="12.041517"><ele>656.0</ele><time>2026-04-25T13:07:13.45Z</time></trkpt><trkpt lat="46.1258729" lon="12.0416097"><ele>656.0</ele><time>2026-04-25T13:07:17.437Z</time></trkpt><trkpt lat="46.1259006" lon="12.0417178"><ele>656.0</ele><time>2026-04-25T13:07:21.589Z</time></trkpt><trkpt lat="46.1259603" lon="12.0418043"><ele>656.0</ele><time>2026-04-25T13:07:24.436Z</time></trkpt><trkpt lat="46.1260501" lon="12.0418966"><ele>656.0</ele><time>2026-04-25T13:07:26.428Z</time></trkpt><trkpt lat="46.1261413" lon="12.0420077"><ele>657.0</ele><time>2026-04-25T13:07:28.437Z</time></trkpt><trkpt lat="46.1262089" lon="12.0421538"><ele>658.0</ele><time>2026-04-25T13:07:30.435Z</time></trkpt><trkpt lat="46.1262748" lon="12.0422781"><ele>659.0</ele><time>2026-04-25T13:07:32.429Z</time></trkpt><trkpt lat="46.1263457" lon="12.0423982"><ele>660.0</ele><time>2026-04-25T13:07:34.437Z</time></trkpt><trkpt lat="46.12643" lon="12.0425084"><ele>661.6666666666666</ele><time>2026-04-25T13:07:36.431Z</time></trkpt><trkpt lat="46.1264853" lon="12.0425569"><ele>663.3333333333334</ele><time>2026-04-25T13:07:37.439Z</time></trkpt><trkpt lat="46.1265383" lon="12.0426104"><ele>665.0</ele><time>2026-04-25T13:07:38.439Z</time></trkpt><trkpt lat="46.1265767" lon="12.0426894"><ele>666.6666666666667</ele><time>2026-04-25T13:07:39.426Z</time></trkpt><trkpt lat="46.1266061" lon="12.0427749"><ele>668.3333333333334</ele><time>2026-04-25T13:07:40.437Z</time></trkpt><trkpt lat="46.1266481" lon="12.0429402"><ele>670.0</ele><time>2026-04-25T13:07:42.436Z</time></trkpt><trkpt lat="46.1266626" lon="12.0431322"><ele>670.0</ele><time>2026-04-25T13:07:44.425Z</time></trkpt><trkpt lat="46.1266554" lon="12.0432273"><ele>670.0</ele><time>2026-04-25T13:07:45.43Z</time></trkpt><trkpt lat="46.126612" lon="12.0433932"><ele>670.0</ele><time>2026-04-25T13:07:47.428Z</time></trkpt><trkpt lat="46.1265517" lon="12.043497"><ele>670.0</ele><time>2026-04-25T13:07:49.444Z</time></trkpt><trkpt lat="46.1264761" lon="12.0435358"><ele>670.0</ele><time>2026-04-25T13:07:51.436Z</time></trkpt><trkpt lat="46.1264125" lon="12.0435949"><ele>670.0</ele><time>2026-04-25T13:07:54.436Z</time></trkpt><trkpt lat="46.1263519" lon="12.0436229"><ele>664.6666666666667</ele><time>2026-04-25T13:07:57.436Z</time></trkpt><trkpt lat="46.1262883" lon="12.0436791"><ele>659.3333333333334</ele><time>2026-04-25T13:08:01.436Z</time></trkpt><trkpt lat="46.1262622" lon="12.043791"><ele>654.0</ele><time>2026-04-25T13:08:06.428Z</time></trkpt><trkpt lat="46.1262702" lon="12.0438935"><ele>648.6666666666666</ele><time>2026-04-25T13:08:10.434Z</time></trkpt><trkpt lat="46.1262731" lon="12.0439986"><ele>643.3333333333333</ele><time>2026-04-25T13:08:14.435Z</time></trkpt><trkpt lat="46.126276" lon="12.0441012"><ele>638.0</ele><time>2026-04-25T13:08:18.439Z</time></trkpt><trkpt lat="46.1263344" lon="12.0441858"><ele>638.0</ele><time>2026-04-25T13:08:22.435Z</time></trkpt><trkpt lat="46.1264104" lon="12.0442439"><ele>638.0</ele><time>2026-04-25T13:08:25.435Z</time></trkpt><trkpt lat="46.12647" lon="12.0443199"><ele>638.0</ele><time>2026-04-25T13:08:27.437Z</time></trkpt><trkpt lat="46.1265179" lon="12.044428"><ele>638.0</ele><time>2026-04-25T13:08:29.436Z</time></trkpt><trkpt lat="46.1265465" lon="12.0445333"><ele>638.0</ele><time>2026-04-25T13:08:31.436Z</time></trkpt><trkpt lat="46.1265664" lon="12.0446447"><ele>638.0</ele><time>2026-04-25T13:08:34.429Z</time></trkpt><trkpt lat="46.1265736" lon="12.0447477"><ele>642.8571428571429</ele><time>2026-04-25T13:08:38.437Z</time></trkpt><trkpt lat="46.1265796" lon="12.0448571"><ele>647.7142857142857</ele><time>2026-04-25T13:08:43.432Z</time></trkpt><trkpt lat="46.1265824" lon="12.0449499"><ele>652.5714285714286</ele><time>2026-04-25T13:08:47.436Z</time></trkpt><trkpt lat="46.1265726" lon="12.0450421"><ele>657.4285714285714</ele><time>2026-04-25T13:08:52.439Z</time></trkpt><trkpt lat="46.1265751" lon="12.0451373"><ele>662.2857142857142</ele><time>2026-04-25T13:08:57.427Z</time></trkpt><trkpt lat="46.1265945" lon="12.0452292"><ele>667.1428571428571</ele><time>2026-04-25T13:09:01.429Z</time></trkpt><trkpt lat="46.1266407" lon="12.0453256"><ele>672.0</ele><time>2026-04-25T13:09:05.438Z</time></trkpt><trkpt lat="46.1266719" lon="12.0454165"><ele>672.0</ele><time>2026-04-25T13:09:09.42Z</time></trkpt><trkpt lat="46.126681" lon="12.0455142"><ele>672.0</ele><time>2026-04-25T13:09:32.432Z</time></trkpt><trkpt lat="46.1267335" lon="12.045568"><ele>672.0</ele><time>2026-04-25T13:09:45.422Z</time></trkpt><trkpt lat="46.1267623" lon="12.0456504"><ele>672.0</ele><time>2026-04-25T13:09:48.436Z</time></trkpt><trkpt lat="46.1268291" lon="12.0456306"><ele>672.0</ele><time>2026-04-25T13:09:52.438Z</time></trkpt><trkpt lat="46.1268331" lon="12.0455366"><ele>672.0</ele><time>2026-04-25T13:09:56.427Z</time></trkpt><trkpt lat="46.1268324" lon="12.0454371"><ele>672.0</ele><time>2026-04-25T13:10:03.443Z</time></trkpt><trkpt lat="46.1268425" lon="12.0453462"><ele>672.0</ele><time>2026-04-25T13:10:10.428Z</time></trkpt><trkpt lat="46.1268608" lon="12.0452501"><ele>672.0</ele><time>2026-04-25T13:10:17.425Z</time></trkpt><trkpt lat="46.126871" lon="12.0451401"><ele>672.0</ele><time>2026-04-25T13:10:48.423Z</time></trkpt><trkpt lat="46.1268725" lon="12.0450478"><ele>672.0</ele><time>2026-04-25T13:10:54.425Z</time></trkpt><trkpt lat="46.1269097" lon="12.0449551"><ele>672.0</ele><time>2026-04-25T13:11:00.423Z</time></trkpt><trkpt lat="46.1269437" lon="12.0448632"><ele>672.0</ele><time>2026-04-25T13:11:06.436Z</time></trkpt><trkpt lat="46.1269649" lon="12.0447594"><ele>672.0</ele><time>2026-04-25T13:11:12.435Z</time></trkpt><trkpt lat="46.1269837" lon="12.0446708"><ele>672.1428571428571</ele><time>2026-04-25T13:11:17.437Z</time></trkpt><trkpt lat="46.1270068" lon="12.0445857"><ele>672.2857142857142</ele><time>2026-04-25T13:11:22.436Z</time></trkpt><trkpt lat="46.1270336" lon="12.0444942"><ele>672.4285714285714</ele><time>2026-04-25T13:11:28.427Z</time></trkpt><trkpt lat="46.1270627" lon="12.0444135"><ele>672.5714285714286</ele><time>2026-04-25T13:11:34.43Z</time></trkpt><trkpt lat="46.1271123" lon="12.0443366"><ele>672.7142857142857</ele><time>2026-04-25T13:11:40.434Z</time></trkpt><trkpt lat="46.1271587" lon="12.0442607"><ele>672.8571428571429</ele><time>2026-04-25T13:11:46.437Z</time></trkpt><trkpt lat="46.127204" lon="12.0441928"><ele>673.0</ele><time>2026-04-25T13:11:52.435Z</time></trkpt><trkpt lat="46.12726" lon="12.0441274"><ele>671.5714285714286</ele><time>2026-04-25T13:12:00.427Z</time></trkpt><trkpt lat="46.1273262" lon="12.0441068"><ele>670.1428571428571</ele><time>2026-04-25T13:12:06.436Z</time></trkpt><trkpt lat="46.1273984" lon="12.0441241"><ele>668.7142857142857</ele><time>2026-04-25T13:12:13.446Z</time></trkpt><trkpt lat="46.1274654" lon="12.0441411"><ele>667.2857142857142</ele><time>2026-04-25T13:12:19.436Z</time></trkpt><trkpt lat="46.1275384" lon="12.0441299"><ele>665.8571428571429</ele><time>2026-04-25T13:12:25.423Z</time></trkpt><trkpt lat="46.1275994" lon="12.0440932"><ele>664.4285714285713</ele><time>2026-04-25T13:12:31.425Z</time></trkpt><trkpt lat="46.127662" lon="12.0440733"><ele>663.0</ele><time>2026-04-25T13:12:37.432Z</time></trkpt><trkpt lat="46.1277215" lon="12.0440181"><ele>667.8571428571428</ele><time>2026-04-25T13:12:42.43Z</time></trkpt><trkpt lat="46.1277605" lon="12.0439335"><ele>672.7142857142857</ele><time>2026-04-25T13:12:47.431Z</time></trkpt><trkpt lat="46.1277732" lon="12.0438347"><ele>677.5714285714286</ele><time>2026-04-25T13:12:53.432Z</time></trkpt><trkpt lat="46.127788" lon="12.0437434"><ele>682.4285714285713</ele><time>2026-04-25T13:12:58.433Z</time></trkpt><trkpt lat="46.1278039" lon="12.0436404"><ele>687.2857142857142</ele><time>2026-04-25T13:13:04.43Z</time></trkpt><trkpt lat="46.1278327" lon="12.0435405"><ele>692.1428571428571</ele><time>2026-04-25T13:13:10.434Z</time></trkpt><trkpt lat="46.1278509" lon="12.0434394"><ele>697.0</ele><time>2026-04-25T13:13:15.436Z</time></trkpt><trkpt lat="46.1278561" lon="12.043333"><ele>697.8571428571429</ele><time>2026-04-25T13:13:21.437Z</time></trkpt><trkpt lat="46.1278291" lon="12.0432493"><ele>698.7142857142857</ele><time>2026-04-25T13:13:25.436Z</time></trkpt><trkpt lat="46.1278008" lon="12.0431584"><ele>699.5714285714286</ele><time>2026-04-25T13:13:29.434Z</time></trkpt><trkpt lat="46.1277909" lon="12.0430559"><ele>700.4285714285714</ele><time>2026-04-25T13:13:34.434Z</time></trkpt><trkpt lat="46.1278092" lon="12.0429599"><ele>701.2857142857143</ele><time>2026-04-25T13:13:39.432Z</time></trkpt><trkpt lat="46.1278486" lon="12.0428677"><ele>702.1428571428571</ele><time>2026-04-25T13:13:44.436Z</time></trkpt><trkpt lat="46.1278896" lon="12.042791"><ele>703.0</ele><time>2026-04-25T13:13:49.441Z</time></trkpt><trkpt lat="46.1279278" lon="12.0427124"><ele>703.0</ele><time>2026-04-25T13:13:54.437Z</time></trkpt><trkpt lat="46.1279585" lon="12.0426223"><ele>703.0</ele><time>2026-04-25T13:13:59.435Z</time></trkpt><trkpt lat="46.1280121" lon="12.0425603"><ele>703.0</ele><time>2026-04-25T13:14:04.434Z</time></trkpt><trkpt lat="46.1280641" lon="12.0424826"><ele>703.0</ele><time>2026-04-25T13:14:10.432Z</time></trkpt><trkpt lat="46.1281141" lon="12.0424044"><ele>703.0</ele><time>2026-04-25T13:14:15.435Z</time></trkpt><trkpt lat="46.1281688" lon="12.0423229"><ele>703.0</ele><time>2026-04-25T13:14:20.436Z</time></trkpt><trkpt lat="46.1281919" lon="12.0422327"><ele>703.0</ele><time>2026-04-25T13:14:24.436Z</time></trkpt><trkpt lat="46.1281949" lon="12.0421403"><ele>704.8571428571429</ele><time>2026-04-25T13:14:28.437Z</time></trkpt><trkpt lat="46.128186" lon="12.0420486"><ele>706.7142857142858</ele><time>2026-04-25T13:14:32.436Z</time></trkpt><trkpt lat="46.1281536" lon="12.0419558"><ele>708.5714285714287</ele><time>2026-04-25T13:14:36.436Z</time></trkpt><trkpt lat="46.1281609" lon="12.0418634"><ele>710.4285714285714</ele><time>2026-04-25T13:14:41.435Z</time></trkpt><trkpt lat="46.1281931" lon="12.0417637"><ele>712.2857142857143</ele><time>2026-04-25T13:14:46.435Z</time></trkpt><trkpt lat="46.1282104" lon="12.0416618"><ele>714.1428571428572</ele><time>2026-04-25T13:14:51.431Z</time></trkpt><trkpt lat="46.1282284" lon="12.041569"><ele>716.0</ele><time>2026-04-25T13:14:55.435Z</time></trkpt><trkpt lat="46.1282257" lon="12.041459"><ele>718.8571428571429</ele><time>2026-04-25T13:14:59.441Z</time></trkpt><trkpt lat="46.1282034" lon="12.041372"><ele>721.7142857142858</ele><time>2026-04-25T13:15:02.44Z</time></trkpt><trkpt lat="46.1281625" lon="12.0412748"><ele>724.5714285714287</ele><time>2026-04-25T13:15:06.434Z</time></trkpt><trkpt lat="46.1281102" lon="12.0412039"><ele>727.4285714285714</ele><time>2026-04-25T13:15:10.435Z</time></trkpt><trkpt lat="46.1280561" lon="12.0411337"><ele>730.2857142857142</ele><time>2026-04-25T13:15:14.437Z</time></trkpt><trkpt lat="46.1279917" lon="12.0410696"><ele>733.1428571428572</ele><time>2026-04-25T13:15:19.435Z</time></trkpt><trkpt lat="46.1279382" lon="12.0410054"><ele>736.0</ele><time>2026-04-25T13:15:24.437Z</time></trkpt><trkpt lat="46.1278847" lon="12.0409376"><ele>736.0</ele><time>2026-04-25T13:15:29.428Z</time></trkpt><trkpt lat="46.1278436" lon="12.0408451"><ele>736.0</ele><time>2026-04-25T13:15:34.435Z</time></trkpt><trkpt lat="46.1278065" lon="12.0407649"><ele>736.0</ele><time>2026-04-25T13:15:38.434Z</time></trkpt><trkpt lat="46.1277885" lon="12.0406725"><ele>736.0</ele><time>2026-04-25T13:15:43.445Z</time></trkpt><trkpt lat="46.127781" lon="12.0405776"><ele>736.0</ele><time>2026-04-25T13:15:48.438Z</time></trkpt><trkpt lat="46.1277704" lon="12.0404758"><ele>736.0</ele><time>2026-04-25T13:15:53.441Z</time></trkpt><trkpt lat="46.1277695" lon="12.040383"><ele>736.0</ele><time>2026-04-25T13:15:57.424Z</time></trkpt><trkpt lat="46.1277954" lon="12.0402842"><ele>736.7142857142858</ele><time>2026-04-25T13:16:03.435Z</time></trkpt><trkpt lat="46.1278208" lon="12.0401886"><ele>737.4285714285713</ele><time>2026-04-25T13:16:08.437Z</time></trkpt><trkpt lat="46.1278411" lon="12.0400897"><ele>738.1428571428571</ele><time>2026-04-25T13:16:13.444Z</time></trkpt><trkpt lat="46.1278618" lon="12.039987"><ele>738.8571428571429</ele><time>2026-04-25T13:16:18.434Z</time></trkpt><trkpt lat="46.1278796" lon="12.0398802"><ele>739.5714285714287</ele><time>2026-04-25T13:16:23.445Z</time></trkpt><trkpt lat="46.1279212" lon="12.0397987"><ele>740.2857142857142</ele><time>2026-04-25T13:16:28.435Z</time></trkpt><trkpt lat="46.1279699" lon="12.0397306"><ele>741.0</ele><time>2026-04-25T13:16:33.439Z</time></trkpt><trkpt lat="46.1279989" lon="12.0396431"><ele>741.1428571428571</ele><time>2026-04-25T13:16:38.438Z</time></trkpt><trkpt lat="46.1280295" lon="12.0395481"><ele>741.2857142857143</ele><time>2026-04-25T13:16:44.437Z</time></trkpt><trkpt lat="46.128057" lon="12.0394268"><ele>741.4285714285714</ele><time>2026-04-25T13:16:51.431Z</time></trkpt><trkpt lat="46.1280573" lon="12.0393244"><ele>741.5714285714286</ele><time>2026-04-25T13:16:55.441Z</time></trkpt><trkpt lat="46.1280514" lon="12.0392271"><ele>741.7142857142858</ele><time>2026-04-25T13:16:59.442Z</time></trkpt><trkpt lat="46.1280444" lon="12.0391289"><ele>741.8571428571429</ele><time>2026-04-25T13:17:03.424Z</time></trkpt><trkpt lat="46.1280541" lon="12.0390327"><ele>742.0</ele><time>2026-04-25T13:17:07.437Z</time></trkpt><trkpt lat="46.1280652" lon="12.0389339"><ele>742.8571428571429</ele><time>2026-04-25T13:17:11.434Z</time></trkpt><trkpt lat="46.1280906" lon="12.0388465"><ele>743.7142857142858</ele><time>2026-04-25T13:17:15.435Z</time></trkpt><trkpt lat="46.1281336" lon="12.0387639"><ele>744.5714285714286</ele><time>2026-04-25T13:17:19.431Z</time></trkpt><trkpt lat="46.1281545" lon="12.0386697"><ele>745.4285714285714</ele><time>2026-04-25T13:17:23.444Z</time></trkpt><trkpt lat="46.1281817" lon="12.0385651"><ele>746.2857142857143</ele><time>2026-04-25T13:17:27.439Z</time></trkpt><trkpt lat="46.1282179" lon="12.0384636"><ele>747.1428571428571</ele><time>2026-04-25T13:17:31.432Z</time></trkpt><trkpt lat="46.1282385" lon="12.0383771"><ele>748.0</ele><time>2026-04-25T13:17:35.44Z</time></trkpt><trkpt lat="46.1283033" lon="12.0383243"><ele>750.1666666666667</ele><time>2026-04-25T13:17:41.436Z</time></trkpt><trkpt lat="46.1283266" lon="12.0382171"><ele>752.3333333333334</ele><time>2026-04-25T13:17:46.44Z</time></trkpt><trkpt lat="46.1283239" lon="12.0380979"><ele>754.5</ele><time>2026-04-25T13:17:51.438Z</time></trkpt><trkpt lat="46.1283125" lon="12.0379798"><ele>756.6666666666666</ele><time>2026-04-25T13:17:55.435Z</time></trkpt><trkpt lat="46.128288" lon="12.0378845"><ele>758.8333333333333</ele><time>2026-04-25T13:17:59.438Z</time></trkpt><trkpt lat="46.1282389" lon="12.0378167"><ele>761.0</ele><time>2026-04-25T13:18:03.441Z</time></trkpt><trkpt lat="46.1281769" lon="12.0377504"><ele>760.9999999999999</ele><time>2026-04-25T13:18:07.433Z</time></trkpt><trkpt lat="46.1281224" lon="12.03767"><ele>761.0</ele><time>2026-04-25T13:18:11.435Z</time></trkpt><trkpt lat="46.1281081" lon="12.0375648"><ele>761.0</ele><time>2026-04-25T13:18:15.428Z</time></trkpt><trkpt lat="46.128127" lon="12.0374644"><ele>761.0</ele><time>2026-04-25T13:18:19.436Z</time></trkpt><trkpt lat="46.1281539" lon="12.0373712"><ele>761.0</ele><time>2026-04-25T13:18:23.445Z</time></trkpt><trkpt lat="46.128171" lon="12.0372717"><ele>760.9999999999999</ele><time>2026-04-25T13:18:27.439Z</time></trkpt><trkpt lat="46.1281976" lon="12.0371769"><ele>761.0</ele><time>2026-04-25T13:18:31.439Z</time></trkpt><trkpt lat="46.1282045" lon="12.0370652"><ele>763.4285714285713</ele><time>2026-04-25T13:18:35.436Z</time></trkpt><trkpt lat="46.1282345" lon="12.0369727"><ele>765.8571428571429</ele><time>2026-04-25T13:18:39.436Z</time></trkpt><trkpt lat="46.1282509" lon="12.0368789"><ele>768.2857142857142</ele><time>2026-04-25T13:18:43.439Z</time></trkpt><trkpt lat="46.1282426" lon="12.036786"><ele>770.7142857142857</ele><time>2026-04-25T13:18:47.446Z</time></trkpt><trkpt lat="46.1282094" lon="12.0366918"><ele>773.1428571428571</ele><time>2026-04-25T13:18:51.437Z</time></trkpt><trkpt lat="46.1281673" lon="12.0365959"><ele>775.5714285714286</ele><time>2026-04-25T13:18:55.436Z</time></trkpt><trkpt lat="46.1281223" lon="12.0364994"><ele>778.0</ele><time>2026-04-25T13:18:59.436Z</time></trkpt><trkpt lat="46.128092" lon="12.0364015"><ele>780.2857142857143</ele><time>2026-04-25T13:19:03.434Z</time></trkpt><trkpt lat="46.1280658" lon="12.0363072"><ele>782.5714285714286</ele><time>2026-04-25T13:19:07.427Z</time></trkpt><trkpt lat="46.1280512" lon="12.0362083"><ele>784.8571428571429</ele><time>2026-04-25T13:19:11.436Z</time></trkpt><trkpt lat="46.1280243" lon="12.0361059"><ele>787.1428571428571</ele><time>2026-04-25T13:19:15.437Z</time></trkpt><trkpt lat="46.1279953" lon="12.0360009"><ele>789.4285714285713</ele><time>2026-04-25T13:19:19.434Z</time></trkpt><trkpt lat="46.1279817" lon="12.0359068"><ele>791.7142857142857</ele><time>2026-04-25T13:19:23.436Z</time></trkpt><trkpt lat="46.1279674" lon="12.0357944"><ele>794.0</ele><time>2026-04-25T13:19:27.438Z</time></trkpt><trkpt lat="46.1279487" lon="12.0356793"><ele>795.2857142857142</ele><time>2026-04-25T13:19:31.438Z</time></trkpt><trkpt lat="46.1279321" lon="12.0355854"><ele>796.5714285714286</ele><time>2026-04-25T13:19:35.433Z</time></trkpt><trkpt lat="46.1279106" lon="12.0354895"><ele>797.8571428571429</ele><time>2026-04-25T13:19:39.437Z</time></trkpt><trkpt lat="46.1278903" lon="12.0353943"><ele>799.1428571428571</ele><time>2026-04-25T13:19:43.447Z</time></trkpt><trkpt lat="46.1278868" lon="12.0352946"><ele>800.4285714285714</ele><time>2026-04-25T13:19:47.425Z</time></trkpt><trkpt lat="46.1278996" lon="12.0351948"><ele>801.7142857142857</ele><time>2026-04-25T13:19:51.426Z</time></trkpt><trkpt lat="46.1279307" lon="12.0351072"><ele>803.0</ele><time>2026-04-25T13:19:55.425Z</time></trkpt><trkpt lat="46.127979" lon="12.0350209"><ele>803.2857142857142</ele><time>2026-04-25T13:19:59.425Z</time></trkpt><trkpt lat="46.12803" lon="12.034937"><ele>803.5714285714286</ele><time>2026-04-25T13:20:03.427Z</time></trkpt><trkpt lat="46.1280644" lon="12.0348571"><ele>803.8571428571429</ele><time>2026-04-25T13:20:06.433Z</time></trkpt><trkpt lat="46.1280942" lon="12.034767"><ele>804.1428571428571</ele><time>2026-04-25T13:20:10.43Z</time></trkpt><trkpt lat="46.1281258" lon="12.0346762"><ele>804.4285714285714</ele><time>2026-04-25T13:20:13.443Z</time></trkpt><trkpt lat="46.1281412" lon="12.0345754"><ele>804.7142857142857</ele><time>2026-04-25T13:20:17.434Z</time></trkpt><trkpt lat="46.1281544" lon="12.0344732"><ele>805.0</ele><time>2026-04-25T13:20:21.443Z</time></trkpt><trkpt lat="46.1282163" lon="12.0344402"><ele>805.0</ele><time>2026-04-25T13:20:26.437Z</time></trkpt><trkpt lat="46.1282222" lon="12.0345401"><ele>805.0</ele><time>2026-04-25T13:20:30.427Z</time></trkpt><trkpt lat="46.1282314" lon="12.0346537"><ele>805.0</ele><time>2026-04-25T13:20:35.428Z</time></trkpt><trkpt lat="46.1282569" lon="12.0347454"><ele>805.0</ele><time>2026-04-25T13:20:39.425Z</time></trkpt><trkpt lat="46.1282849" lon="12.03484"><ele>805.0</ele><time>2026-04-25T13:20:43.433Z</time></trkpt><trkpt lat="46.1283106" lon="12.0349293"><ele>805.0</ele><time>2026-04-25T13:20:47.425Z</time></trkpt><trkpt lat="46.1283424" lon="12.0350171"><ele>805.0</ele><time>2026-04-25T13:20:51.424Z</time></trkpt><trkpt lat="46.1283732" lon="12.0351251"><ele>809.1428571428571</ele><time>2026-04-25T13:20:55.562Z</time></trkpt><trkpt lat="46.1284107" lon="12.0352031"><ele>813.2857142857142</ele><time>2026-04-25T13:20:59.427Z</time></trkpt><trkpt lat="46.1284452" lon="12.0352862"><ele>817.4285714285714</ele><time>2026-04-25T13:21:03.433Z</time></trkpt><trkpt lat="46.1284759" lon="12.0353754"><ele>821.5714285714286</ele><time>2026-04-25T13:21:07.435Z</time></trkpt><trkpt lat="46.1284847" lon="12.0354864"><ele>825.7142857142857</ele><time>2026-04-25T13:21:12.43Z</time></trkpt><trkpt lat="46.1284932" lon="12.035588"><ele>829.8571428571429</ele><time>2026-04-25T13:21:16.432Z</time></trkpt><trkpt lat="46.1285302" lon="12.0356723"><ele>834.0</ele><time>2026-04-25T13:21:20.425Z</time></trkpt><trkpt lat="46.12858" lon="12.0357454"><ele>833.2857142857143</ele><time>2026-04-25T13:21:24.439Z</time></trkpt><trkpt lat="46.1286279" lon="12.0358373"><ele>832.5714285714286</ele><time>2026-04-25T13:21:28.438Z</time></trkpt><trkpt lat="46.128677" lon="12.035931"><ele>831.8571428571429</ele><time>2026-04-25T13:21:32.433Z</time></trkpt><trkpt lat="46.1287254" lon="12.0359996"><ele>831.1428571428571</ele><time>2026-04-25T13:21:35.43Z</time></trkpt><trkpt lat="46.12878" lon="12.0360517"><ele>830.4285714285713</ele><time>2026-04-25T13:21:39.439Z</time></trkpt><trkpt lat="46.1288499" lon="12.0360419"><ele>829.7142857142857</ele><time>2026-04-25T13:21:45.423Z</time></trkpt><trkpt lat="46.1287982" lon="12.0360992"><ele>829.0</ele><time>2026-04-25T13:24:48.436Z</time></trkpt><trkpt lat="46.1288689" lon="12.0361125"><ele>829.0</ele><time>2026-04-25T13:27:45.429Z</time></trkpt><trkpt lat="46.1288581" lon="12.0360027"><ele>829.0</ele><time>2026-04-25T13:27:50.424Z</time></trkpt><trkpt lat="46.1288278" lon="12.0359145"><ele>829.0</ele><time>2026-04-25T13:27:55.43Z</time></trkpt><trkpt lat="46.1287866" lon="12.0358406"><ele>829.0</ele><time>2026-04-25T13:27:59.432Z</time></trkpt><trkpt lat="46.1287729" lon="12.0357341"><ele>829.0</ele><time>2026-04-25T13:28:05.443Z</time></trkpt><trkpt lat="46.1287773" lon="12.0356313"><ele>829.0</ele><time>2026-04-25T13:28:09.428Z</time></trkpt><trkpt lat="46.1288151" lon="12.0355375"><ele>829.0</ele><time>2026-04-25T13:28:14.424Z</time></trkpt><trkpt lat="46.1288365" lon="12.035437"><ele>829.5714285714286</ele><time>2026-04-25T13:28:18.43Z</time></trkpt><trkpt lat="46.1288515" lon="12.0353276"><ele>830.1428571428571</ele><time>2026-04-25T13:28:22.424Z</time></trkpt><trkpt lat="46.1288726" lon="12.0352127"><ele>830.7142857142858</ele><time>2026-04-25T13:28:26.457Z</time></trkpt><trkpt lat="46.1288927" lon="12.0351111"><ele>831.2857142857142</ele><time>2026-04-25T13:28:30.431Z</time></trkpt><trkpt lat="46.1289151" lon="12.0350105"><ele>831.8571428571429</ele><time>2026-04-25T13:28:34.431Z</time></trkpt><trkpt lat="46.1289242" lon="12.0349148"><ele>832.4285714285714</ele><time>2026-04-25T13:28:38.422Z</time></trkpt><trkpt lat="46.1289313" lon="12.0348109"><ele>833.0</ele><time>2026-04-25T13:28:42.423Z</time></trkpt><trkpt lat="46.1289534" lon="12.0346962"><ele>833.0</ele><time>2026-04-25T13:28:46.424Z</time></trkpt><trkpt lat="46.1289862" lon="12.0345969"><ele>833.0</ele><time>2026-04-25T13:28:50.428Z</time></trkpt><trkpt lat="46.1290188" lon="12.0344921"><ele>833.0</ele><time>2026-04-25T13:28:54.436Z</time></trkpt><trkpt lat="46.1290458" lon="12.0343962"><ele>833.0</ele><time>2026-04-25T13:28:58.426Z</time></trkpt><trkpt lat="46.1290729" lon="12.0342979"><ele>833.0</ele><time>2026-04-25T13:29:02.435Z</time></trkpt><trkpt lat="46.129115" lon="12.0342139"><ele>833.0</ele><time>2026-04-25T13:29:07.425Z</time></trkpt><trkpt lat="46.1291747" lon="12.0341496"><ele>833.0</ele><time>2026-04-25T13:29:12.422Z</time></trkpt><trkpt lat="46.1292294" lon="12.0340808"><ele>838.7142857142857</ele><time>2026-04-25T13:29:16.434Z</time></trkpt><trkpt lat="46.1292843" lon="12.0340174"><ele>844.4285714285714</ele><time>2026-04-25T13:29:20.424Z</time></trkpt><trkpt lat="46.129306" lon="12.0339271"><ele>850.1428571428571</ele><time>2026-04-25T13:29:25.425Z</time></trkpt><trkpt lat="46.1293155" lon="12.0338175"><ele>855.8571428571429</ele><time>2026-04-25T13:29:29.433Z</time></trkpt><trkpt lat="46.1292971" lon="12.0337182"><ele>861.5714285714286</ele><time>2026-04-25T13:29:33.426Z</time></trkpt><trkpt lat="46.1292696" lon="12.033629"><ele>867.2857142857142</ele><time>2026-04-25T13:29:36.435Z</time></trkpt><trkpt lat="46.1292268" lon="12.0335332"><ele>873.0</ele><time>2026-04-25T13:29:39.43Z</time></trkpt><trkpt lat="46.1291921" lon="12.0334413"><ele>873.0</ele><time>2026-04-25T13:29:41.435Z</time></trkpt><trkpt lat="46.1291543" lon="12.033314"><ele>873.0</ele><time>2026-04-25T13:29:43.434Z</time></trkpt><trkpt lat="46.1290676" lon="12.0332048"><ele>873.0</ele><time>2026-04-25T13:29:45.433Z</time></trkpt><trkpt lat="46.1289768" lon="12.0331011"><ele>873.0</ele><time>2026-04-25T13:29:47.426Z</time></trkpt><trkpt lat="46.1289359" lon="12.0329884"><ele>873.0</ele><time>2026-04-25T13:29:49.436Z</time></trkpt><trkpt lat="46.1289584" lon="12.0328781"><ele>872.2857142857142</ele><time>2026-04-25T13:29:51.435Z</time></trkpt><trkpt lat="46.129005" lon="12.0328139"><ele>871.5714285714286</ele><time>2026-04-25T13:29:53.435Z</time></trkpt><trkpt lat="46.1290491" lon="12.0327456"><ele>870.8571428571429</ele><time>2026-04-25T13:29:56.434Z</time></trkpt><trkpt lat="46.1290882" lon="12.0326535"><ele>870.1428571428571</ele><time>2026-04-25T13:29:59.432Z</time></trkpt><trkpt lat="46.1291244" lon="12.0325618"><ele>869.4285714285714</ele><time>2026-04-25T13:30:02.424Z</time></trkpt><trkpt lat="46.1291659" lon="12.0324682"><ele>868.7142857142857</ele><time>2026-04-25T13:30:05.433Z</time></trkpt><trkpt lat="46.129216" lon="12.0323843"><ele>868.0</ele><time>2026-04-25T13:30:09.434Z</time></trkpt><trkpt lat="46.1292907" lon="12.0323112"><ele>867.9999999999999</ele><time>2026-04-25T13:30:13.433Z</time></trkpt><trkpt lat="46.12937" lon="12.0322626"><ele>868.0</ele><time>2026-04-25T13:30:15.433Z</time></trkpt><trkpt lat="46.12945" lon="12.0321911"><ele>868.0</ele><time>2026-04-25T13:30:17.433Z</time></trkpt><trkpt lat="46.1295093" lon="12.0321051"><ele>868.0</ele><time>2026-04-25T13:30:19.433Z</time></trkpt><trkpt lat="46.1295272" lon="12.031993"><ele>867.9999999999999</ele><time>2026-04-25T13:30:22.435Z</time></trkpt><trkpt lat="46.1294756" lon="12.0319183"><ele>868.0</ele><time>2026-04-25T13:30:34.425Z</time></trkpt><trkpt lat="46.1293954" lon="12.0318741"><ele>868.0</ele><time>2026-04-25T13:30:39.433Z</time></trkpt><trkpt lat="46.1292779" lon="12.031837"><ele>868.0</ele><time>2026-04-25T13:30:41.427Z</time></trkpt><trkpt lat="46.1291664" lon="12.0317942"><ele>868.0</ele><time>2026-04-25T13:30:43.427Z</time></trkpt><trkpt lat="46.1291042" lon="12.0317522"><ele>868.0</ele><time>2026-04-25T13:30:44.43Z</time></trkpt><trkpt lat="46.1290228" lon="12.0316656"><ele>868.0</ele><time>2026-04-25T13:30:46.434Z</time></trkpt><trkpt lat="46.1289608" lon="12.0316181"><ele>871.1666666666666</ele><time>2026-04-25T13:30:48.424Z</time></trkpt><trkpt lat="46.128889" lon="12.0315393"><ele>874.3333333333333</ele><time>2026-04-25T13:30:51.416Z</time></trkpt><trkpt lat="46.1288096" lon="12.0314539"><ele>877.5</ele><time>2026-04-25T13:30:54.425Z</time></trkpt><trkpt lat="46.1287587" lon="12.0313994"><ele>880.6666666666667</ele><time>2026-04-25T13:30:56.424Z</time></trkpt><trkpt lat="46.1286896" lon="12.0313411"><ele>883.8333333333334</ele><time>2026-04-25T13:31:00.42Z</time></trkpt><trkpt lat="46.1286272" lon="12.0312968"><ele>887.0</ele><time>2026-04-25T13:31:05.421Z</time></trkpt><trkpt lat="46.1285656" lon="12.0312673"><ele>886.9999999999999</ele><time>2026-04-25T13:31:10.42Z</time></trkpt><trkpt lat="46.1285063" lon="12.0312291"><ele>887.0</ele><time>2026-04-25T13:31:14.42Z</time></trkpt><trkpt lat="46.1284426" lon="12.0312041"><ele>887.0</ele><time>2026-04-25T13:31:18.426Z</time></trkpt><trkpt lat="46.1283779" lon="12.0312005"><ele>887.0</ele><time>2026-04-25T13:31:22.427Z</time></trkpt><trkpt lat="46.1283046" lon="12.0312074"><ele>887.0</ele><time>2026-04-25T13:31:27.423Z</time></trkpt><trkpt lat="46.1282357" lon="12.0312153"><ele>886.9999999999999</ele><time>2026-04-25T13:31:32.42Z</time></trkpt><trkpt lat="46.1281716" lon="12.0312165"><ele>887.0</ele><time>2026-04-25T13:31:36.423Z</time></trkpt><trkpt lat="46.128102" lon="12.0312143"><ele>884.1666666666667</ele><time>2026-04-25T13:31:40.425Z</time></trkpt><trkpt lat="46.1280321" lon="12.0312208"><ele>881.3333333333334</ele><time>2026-04-25T13:31:44.421Z</time></trkpt><trkpt lat="46.1279541" lon="12.0312314"><ele>878.5</ele><time>2026-04-25T13:31:48.422Z</time></trkpt><trkpt lat="46.1278702" lon="12.0312091"><ele>875.6666666666667</ele><time>2026-04-25T13:31:52.432Z</time></trkpt><trkpt lat="46.1278059" lon="12.0311624"><ele>872.8333333333334</ele><time>2026-04-25T13:31:57.435Z</time></trkpt><trkpt lat="46.1277611" lon="12.0310748"><ele>870.0</ele><time>2026-04-25T13:32:00.435Z</time></trkpt><trkpt lat="46.1277101" lon="12.030951"><ele>870.0</ele><time>2026-04-25T13:32:03.432Z</time></trkpt><trkpt lat="46.127647" lon="12.0308784"><ele>870.0</ele><time>2026-04-25T13:32:05.423Z</time></trkpt><trkpt lat="46.1275831" lon="12.0308244"><ele>870.0</ele><time>2026-04-25T13:32:07.428Z</time></trkpt><trkpt lat="46.1275059" lon="12.0308"><ele>870.0</ele><time>2026-04-25T13:32:09.428Z</time></trkpt><trkpt lat="46.1274243" lon="12.0308085"><ele>870.0</ele><time>2026-04-25T13:32:11.425Z</time></trkpt><trkpt lat="46.1273488" lon="12.0308373"><ele>870.0</ele><time>2026-04-25T13:32:13.435Z</time></trkpt><trkpt lat="46.1272615" lon="12.0309292"><ele>870.6</ele><time>2026-04-25T13:32:15.426Z</time></trkpt><trkpt lat="46.1271946" lon="12.0309299"><ele>871.2</ele><time>2026-04-25T13:32:17.436Z</time></trkpt><trkpt lat="46.1271334" lon="12.0308405"><ele>871.8</ele><time>2026-04-25T13:32:20.434Z</time></trkpt><trkpt lat="46.12709" lon="12.0307499"><ele>872.4</ele><time>2026-04-25T13:32:22.435Z</time></trkpt><trkpt lat="46.1270048" lon="12.0307044"><ele>873.0</ele><time>2026-04-25T13:32:24.425Z</time></trkpt><trkpt lat="46.1268557" lon="12.0307266"><ele>873.0</ele><time>2026-04-25T13:32:26.424Z</time></trkpt><trkpt lat="46.1267749" lon="12.0307571"><ele>873.0</ele><time>2026-04-25T13:32:27.435Z</time></trkpt><trkpt lat="46.1266884" lon="12.0307878"><ele>873.0</ele><time>2026-04-25T13:32:28.433Z</time></trkpt><trkpt lat="46.1266166" lon="12.030846"><ele>873.0</ele><time>2026-04-25T13:32:29.436Z</time></trkpt><trkpt lat="46.1265467" lon="12.0308919"><ele>873.0</ele><time>2026-04-25T13:32:30.435Z</time></trkpt><trkpt lat="46.1264312" lon="12.0309111"><ele>873.0</ele><time>2026-04-25T13:32:32.427Z</time></trkpt><trkpt lat="46.1263164" lon="12.030872"><ele>868.8571428571428</ele><time>2026-04-25T13:32:34.424Z</time></trkpt><trkpt lat="46.1262484" lon="12.0308652"><ele>864.7142857142857</ele><time>2026-04-25T13:32:35.425Z</time></trkpt><trkpt lat="46.1261799" lon="12.0308623"><ele>860.5714285714286</ele><time>2026-04-25T13:32:36.435Z</time></trkpt><trkpt lat="46.1261042" lon="12.0308538"><ele>856.4285714285713</ele><time>2026-04-25T13:32:37.435Z</time></trkpt><trkpt lat="46.126026" lon="12.0308377"><ele>852.2857142857143</ele><time>2026-04-25T13:32:38.434Z</time></trkpt><trkpt lat="46.1259496" lon="12.0308507"><ele>848.1428571428571</ele><time>2026-04-25T13:32:39.428Z</time></trkpt><trkpt lat="46.1258753" lon="12.0308585"><ele>844.0</ele><time>2026-04-25T13:32:40.426Z</time></trkpt><trkpt lat="46.1258115" lon="12.0308597"><ele>843.4999999999999</ele><time>2026-04-25T13:32:41.435Z</time></trkpt><trkpt lat="46.1257126" lon="12.0307986"><ele>843.0</ele><time>2026-04-25T13:32:43.421Z</time></trkpt><trkpt lat="46.1256694" lon="12.0307305"><ele>842.5</ele><time>2026-04-25T13:33:05.434Z</time></trkpt><trkpt lat="46.1255775" lon="12.0306662"><ele>842.0</ele><time>2026-04-25T13:33:09.425Z</time></trkpt><trkpt lat="46.125493" lon="12.0306529"><ele>841.4999999999999</ele><time>2026-04-25T13:33:11.429Z</time></trkpt><trkpt lat="46.1254247" lon="12.0306656"><ele>841.0</ele><time>2026-04-25T13:33:12.438Z</time></trkpt><trkpt lat="46.1253162" lon="12.0306819"><ele>840.9999999999999</ele><time>2026-04-25T13:33:14.427Z</time></trkpt><trkpt lat="46.1252274" lon="12.0306578"><ele>841.0</ele><time>2026-04-25T13:33:16.427Z</time></trkpt><trkpt lat="46.1251521" lon="12.030629"><ele>841.0</ele><time>2026-04-25T13:33:18.421Z</time></trkpt><trkpt lat="46.1250792" lon="12.0305762"><ele>841.0</ele><time>2026-04-25T13:33:20.428Z</time></trkpt><trkpt lat="46.1250092" lon="12.0305037"><ele>840.9999999999999</ele><time>2026-04-25T13:33:22.435Z</time></trkpt><trkpt lat="46.1249148" lon="12.0304317"><ele>841.0</ele><time>2026-04-25T13:33:24.425Z</time></trkpt><trkpt lat="46.1248094" lon="12.0303654"><ele>836.4999999999999</ele><time>2026-04-25T13:33:26.434Z</time></trkpt><trkpt lat="46.1247259" lon="12.0303271"><ele>832.0</ele><time>2026-04-25T13:33:28.422Z</time></trkpt><trkpt lat="46.1246865" lon="12.0302478"><ele>827.5</ele><time>2026-04-25T13:33:31.424Z</time></trkpt><trkpt lat="46.1246171" lon="12.0302072"><ele>823.0</ele><time>2026-04-25T13:33:33.427Z</time></trkpt><trkpt lat="46.1245358" lon="12.0301659"><ele>818.4999999999999</ele><time>2026-04-25T13:33:35.425Z</time></trkpt><trkpt lat="46.1244461" lon="12.0301257"><ele>814.0</ele><time>2026-04-25T13:33:37.425Z</time></trkpt><trkpt lat="46.1243485" lon="12.0301076"><ele>813.9999999999999</ele><time>2026-04-25T13:33:39.424Z</time></trkpt><trkpt lat="46.1242544" lon="12.0300163"><ele>814.0</ele><time>2026-04-25T13:33:41.427Z</time></trkpt><trkpt lat="46.1242025" lon="12.0299483"><ele>814.0</ele><time>2026-04-25T13:33:42.43Z</time></trkpt><trkpt lat="46.1241352" lon="12.0298949"><ele>814.0</ele><time>2026-04-25T13:33:43.427Z</time></trkpt><trkpt lat="46.1240701" lon="12.0298696"><ele>813.9999999999999</ele><time>2026-04-25T13:33:44.434Z</time></trkpt><trkpt lat="46.1239556" lon="12.0298197"><ele>814.0</ele><time>2026-04-25T13:33:46.423Z</time></trkpt><trkpt lat="46.1238496" lon="12.0298004"><ele>812.6666666666666</ele><time>2026-04-25T13:33:48.422Z</time></trkpt><trkpt lat="46.1237544" lon="12.029781"><ele>811.3333333333333</ele><time>2026-04-25T13:33:50.435Z</time></trkpt><trkpt lat="46.1236896" lon="12.0297003"><ele>810.0</ele><time>2026-04-25T13:33:51.433Z</time></trkpt><trkpt lat="46.1236488" lon="12.0296262"><ele>808.6666666666667</ele><time>2026-04-25T13:33:52.43Z</time></trkpt><trkpt lat="46.123584" lon="12.0295812"><ele>807.3333333333334</ele><time>2026-04-25T13:33:53.423Z</time></trkpt><trkpt lat="46.1235225" lon="12.0295312"><ele>806.0</ele><time>2026-04-25T13:33:54.423Z</time></trkpt><trkpt lat="46.1234007" lon="12.0294619"><ele>806.0</ele><time>2026-04-25T13:33:56.427Z</time></trkpt><trkpt lat="46.1233399" lon="12.0293346"><ele>806.0</ele><time>2026-04-25T13:33:58.423Z</time></trkpt><trkpt lat="46.1232672" lon="12.0292739"><ele>806.0</ele><time>2026-04-25T13:34:00.423Z</time></trkpt><trkpt lat="46.1231626" lon="12.0292605"><ele>806.0</ele><time>2026-04-25T13:34:02.429Z</time></trkpt><trkpt lat="46.1230513" lon="12.0292249"><ele>806.0</ele><time>2026-04-25T13:34:04.425Z</time></trkpt><trkpt lat="46.1229415" lon="12.0291701"><ele>803.5999999999999</ele><time>2026-04-25T13:34:06.424Z</time></trkpt><trkpt lat="46.1228425" lon="12.0292434"><ele>801.2</ele><time>2026-04-25T13:34:08.424Z</time></trkpt><trkpt lat="46.1227492" lon="12.0292881"><ele>798.8</ele><time>2026-04-25T13:34:10.426Z</time></trkpt><trkpt lat="46.122701" lon="12.0293702"><ele>796.4000000000001</ele><time>2026-04-25T13:34:12.428Z</time></trkpt><trkpt lat="46.1226501" lon="12.0294622"><ele>794.0</ele><time>2026-04-25T13:34:14.423Z</time></trkpt><trkpt lat="46.1225649" lon="12.0294526"><ele>794.0</ele><time>2026-04-25T13:34:16.424Z</time></trkpt><trkpt lat="46.1224569" lon="12.0294723"><ele>794.0</ele><time>2026-04-25T13:34:18.427Z</time></trkpt><trkpt lat="46.1223491" lon="12.029436"><ele>794.0</ele><time>2026-04-25T13:34:20.423Z</time></trkpt><trkpt lat="46.1222206" lon="12.0294802"><ele>794.0</ele><time>2026-04-25T13:34:22.426Z</time></trkpt><trkpt lat="46.122142" lon="12.0296015"><ele>790.6</ele><time>2026-04-25T13:34:24.423Z</time></trkpt><trkpt lat="46.122155" lon="12.02978"><ele>787.2</ele><time>2026-04-25T13:34:26.425Z</time></trkpt><trkpt lat="46.1221726" lon="12.0299297"><ele>783.8000000000001</ele><time>2026-04-25T13:34:28.425Z</time></trkpt><trkpt lat="46.1221267" lon="12.0300447"><ele>780.4000000000001</ele><time>2026-04-25T13:34:30.432Z</time></trkpt><trkpt lat="46.12205" lon="12.0300146"><ele>777.0</ele><time>2026-04-25T13:34:32.423Z</time></trkpt><trkpt lat="46.1219535" lon="12.0299892"><ele>777.0</ele><time>2026-04-25T13:34:34.426Z</time></trkpt><trkpt lat="46.1218874" lon="12.029948"><ele>777.0</ele><time>2026-04-25T13:34:35.437Z</time></trkpt><trkpt lat="46.1218214" lon="12.0299427"><ele>777.0</ele><time>2026-04-25T13:34:36.424Z</time></trkpt><trkpt lat="46.1217405" lon="12.0298866"><ele>777.0</ele><time>2026-04-25T13:34:37.425Z</time></trkpt><trkpt lat="46.121674" lon="12.0298599"><ele>777.0</ele><time>2026-04-25T13:34:38.423Z</time></trkpt><trkpt lat="46.12156" lon="12.0298231"><ele>777.0</ele><time>2026-04-25T13:34:40.424Z</time></trkpt><trkpt lat="46.1215082" lon="12.02975"><ele>771.4000000000001</ele><time>2026-04-25T13:34:41.427Z</time></trkpt><trkpt lat="46.1214234" lon="12.0296433"><ele>765.8000000000001</ele><time>2026-04-25T13:34:43.423Z</time></trkpt><trkpt lat="46.1213956" lon="12.0295599"><ele>760.2</ele><time>2026-04-25T13:34:44.427Z</time></trkpt><trkpt lat="46.1212771" lon="12.029474"><ele>754.6</ele><time>2026-04-25T13:34:46.425Z</time></trkpt><trkpt lat="46.1212071" lon="12.0294137"><ele>749.0</ele><time>2026-04-25T13:34:47.42Z</time></trkpt><trkpt lat="46.1211539" lon="12.0293506"><ele>749.0</ele><time>2026-04-25T13:34:48.435Z</time></trkpt><trkpt lat="46.1210412" lon="12.0292585"><ele>749.0</ele><time>2026-04-25T13:34:50.435Z</time></trkpt><trkpt lat="46.1209454" lon="12.0292037"><ele>749.0</ele><time>2026-04-25T13:34:52.434Z</time></trkpt><trkpt lat="46.1208866" lon="12.0291385"><ele>749.0</ele><time>2026-04-25T13:34:55.435Z</time></trkpt><trkpt lat="46.1208492" lon="12.0290473"><ele>749.0</ele><time>2026-04-25T13:34:56.436Z</time></trkpt><trkpt lat="46.120768" lon="12.0289235"><ele>748.0</ele><time>2026-04-25T13:34:58.435Z</time></trkpt><trkpt lat="46.1207025" lon="12.0287872"><ele>747.0</ele><time>2026-04-25T13:35:00.436Z</time></trkpt><trkpt lat="46.1206123" lon="12.0286801"><ele>746.0</ele><time>2026-04-25T13:35:02.425Z</time></trkpt><trkpt lat="46.1205796" lon="12.0286005"><ele>745.0</ele><time>2026-04-25T13:35:03.435Z</time></trkpt><trkpt lat="46.1205452" lon="12.0285225"><ele>744.0</ele><time>2026-04-25T13:35:04.435Z</time></trkpt><trkpt lat="46.1204619" lon="12.02842"><ele>744.0000000000001</ele><time>2026-04-25T13:35:06.431Z</time></trkpt><trkpt lat="46.1203916" lon="12.0283806"><ele>744.0</ele><time>2026-04-25T13:35:08.436Z</time></trkpt><trkpt lat="46.1203203" lon="12.0283125"><ele>744.0</ele><time>2026-04-25T13:35:11.426Z</time></trkpt><trkpt lat="46.1202682" lon="12.0282479"><ele>744.0</ele><time>2026-04-25T13:35:13.427Z</time></trkpt><trkpt lat="46.120206" lon="12.0282102"><ele>744.0</ele><time>2026-04-25T13:35:15.435Z</time></trkpt><trkpt lat="46.1201468" lon="12.0281759"><ele>744.0000000000001</ele><time>2026-04-25T13:35:17.435Z</time></trkpt><trkpt lat="46.1200812" lon="12.0281654"><ele>744.0</ele><time>2026-04-25T13:35:21.424Z</time></trkpt><trkpt lat="46.1200542" lon="12.0280795"><ele>743.4000000000001</ele><time>2026-04-25T13:35:41.425Z</time></trkpt><trkpt lat="46.1199939" lon="12.0280319"><ele>742.8</ele><time>2026-04-25T13:35:43.427Z</time></trkpt><trkpt lat="46.119896" lon="12.0279683"><ele>742.2</ele><time>2026-04-25T13:35:45.431Z</time></trkpt><trkpt lat="46.1198023" lon="12.0278877"><ele>741.5999999999999</ele><time>2026-04-25T13:35:47.424Z</time></trkpt><trkpt lat="46.1197328" lon="12.0277966"><ele>741.0</ele><time>2026-04-25T13:35:49.426Z</time></trkpt><trkpt lat="46.1196585" lon="12.027706"><ele>741.0</ele><time>2026-04-25T13:35:51.436Z</time></trkpt><trkpt lat="46.1195913" lon="12.0276377"><ele>741.0</ele><time>2026-04-25T13:35:53.434Z</time></trkpt><trkpt lat="46.1195313" lon="12.027569"><ele>741.0</ele><time>2026-04-25T13:35:55.424Z</time></trkpt><trkpt lat="46.1194728" lon="12.027503"><ele>741.0</ele><time>2026-04-25T13:35:58.437Z</time></trkpt><trkpt lat="46.1194226" lon="12.0274089"><ele>741.0</ele><time>2026-04-25T13:36:01.424Z</time></trkpt><trkpt lat="46.1193615" lon="12.0273071"><ele>741.0</ele><time>2026-04-25T13:36:04.425Z</time></trkpt><trkpt lat="46.1193172" lon="12.0271755"><ele>740.0</ele><time>2026-04-25T13:36:06.43Z</time></trkpt><trkpt lat="46.1192613" lon="12.0271017"><ele>739.0</ele><time>2026-04-25T13:36:08.424Z</time></trkpt><trkpt lat="46.1192124" lon="12.0270399"><ele>738.0</ele><time>2026-04-25T13:36:10.424Z</time></trkpt><trkpt lat="46.11915" lon="12.0269642"><ele>737.0</ele><time>2026-04-25T13:36:13.422Z</time></trkpt><trkpt lat="46.1190876" lon="12.0268686"><ele>736.0</ele><time>2026-04-25T13:36:16.423Z</time></trkpt><trkpt lat="46.1190141" lon="12.0267974"><ele>735.0</ele><time>2026-04-25T13:36:18.423Z</time></trkpt><trkpt lat="46.1189244" lon="12.0267351"><ele>735.0</ele><time>2026-04-25T13:36:20.421Z</time></trkpt><trkpt lat="46.1188323" lon="12.0266448"><ele>735.0</ele><time>2026-04-25T13:36:22.43Z</time></trkpt><trkpt lat="46.1187646" lon="12.0265915"><ele>735.0</ele><time>2026-04-25T13:36:24.426Z</time></trkpt><trkpt lat="46.1186883" lon="12.026526"><ele>735.0</ele><time>2026-04-25T13:36:45.43Z</time></trkpt><trkpt lat="46.118621" lon="12.0265288"><ele>735.0</ele><time>2026-04-25T13:36:50.427Z</time></trkpt><trkpt lat="46.1185496" lon="12.0266054"><ele>735.0</ele><time>2026-04-25T13:37:21.423Z</time></trkpt><trkpt lat="46.118497" lon="12.0266889"><ele>735.0</ele><time>2026-04-25T13:37:23.425Z</time></trkpt><trkpt lat="46.1184427" lon="12.0267639"><ele>735.0</ele><time>2026-04-25T13:37:26.428Z</time></trkpt><trkpt lat="46.1183758" lon="12.0267081"><ele>735.0</ele><time>2026-04-25T13:38:07.426Z</time></trkpt><trkpt lat="46.1183135" lon="12.0266837"><ele>735.0</ele><time>2026-04-25T13:38:08.425Z</time></trkpt><trkpt lat="46.1182427" lon="12.0266855"><ele>735.0</ele><time>2026-04-25T13:38:09.421Z</time></trkpt><trkpt lat="46.1181623" lon="12.0267214"><ele>735.0</ele><time>2026-04-25T13:38:10.424Z</time></trkpt><trkpt lat="46.1180853" lon="12.026753"><ele>731.1666666666666</ele><time>2026-04-25T13:38:11.422Z</time></trkpt><trkpt lat="46.1180097" lon="12.026779"><ele>727.3333333333334</ele><time>2026-04-25T13:38:12.429Z</time></trkpt><trkpt lat="46.1179337" lon="12.0267975"><ele>723.5</ele><time>2026-04-25T13:38:13.428Z</time></trkpt><trkpt lat="46.11786" lon="12.0268187"><ele>719.6666666666667</ele><time>2026-04-25T13:38:14.426Z</time></trkpt><trkpt lat="46.1177858" lon="12.0268297"><ele>715.8333333333334</ele><time>2026-04-25T13:38:15.426Z</time></trkpt><trkpt lat="46.117716" lon="12.0268207"><ele>712.0</ele><time>2026-04-25T13:38:16.425Z</time></trkpt><trkpt lat="46.117642" lon="12.0268004"><ele>711.9999999999999</ele><time>2026-04-25T13:38:17.427Z</time></trkpt><trkpt lat="46.1175735" lon="12.0267616"><ele>712.0</ele><time>2026-04-25T13:38:18.423Z</time></trkpt><trkpt lat="46.1175108" lon="12.026712"><ele>712.0</ele><time>2026-04-25T13:38:19.427Z</time></trkpt><trkpt lat="46.1174454" lon="12.0266813"><ele>712.0</ele><time>2026-04-25T13:38:20.431Z</time></trkpt><trkpt lat="46.1173876" lon="12.0266449"><ele>712.0</ele><time>2026-04-25T13:38:21.424Z</time></trkpt><trkpt lat="46.1173191" lon="12.0266108"><ele>711.9999999999999</ele><time>2026-04-25T13:38:22.425Z</time></trkpt><trkpt lat="46.1172455" lon="12.0265872"><ele>712.0</ele><time>2026-04-25T13:38:23.431Z</time></trkpt><trkpt lat="46.1171664" lon="12.026568"><ele>711.9999999999999</ele><time>2026-04-25T13:38:24.427Z</time></trkpt><trkpt lat="46.1170926" lon="12.0265448"><ele>712.0</ele><time>2026-04-25T13:38:25.426Z</time></trkpt><trkpt lat="46.1170213" lon="12.0265375"><ele>712.0</ele><time>2026-04-25T13:38:26.435Z</time></trkpt><trkpt lat="46.1169566" lon="12.0265304"><ele>712.0</ele><time>2026-04-25T13:38:27.435Z</time></trkpt><trkpt lat="46.1168894" lon="12.0265682"><ele>712.0</ele><time>2026-04-25T13:38:28.425Z</time></trkpt><trkpt lat="46.1168321" lon="12.026638"><ele>711.9999999999999</ele><time>2026-04-25T13:38:29.423Z</time></trkpt><trkpt lat="46.1167701" lon="12.0267224"><ele>712.0</ele><time>2026-04-25T13:38:30.427Z</time></trkpt><trkpt lat="46.1166973" lon="12.0268181"><ele>708.8</ele><time>2026-04-25T13:38:31.435Z</time></trkpt><trkpt lat="46.1166267" lon="12.0269272"><ele>705.6</ele><time>2026-04-25T13:38:32.435Z</time></trkpt><trkpt lat="46.1165478" lon="12.0270401"><ele>702.4</ele><time>2026-04-25T13:38:33.433Z</time></trkpt><trkpt lat="46.116463" lon="12.0271612"><ele>699.1999999999999</ele><time>2026-04-25T13:38:34.426Z</time></trkpt><trkpt lat="46.1163887" lon="12.0272726"><ele>696.0</ele><time>2026-04-25T13:38:35.437Z</time></trkpt><trkpt lat="46.1163152" lon="12.0273802"><ele>692.4</ele><time>2026-04-25T13:38:36.426Z</time></trkpt><trkpt lat="46.1162417" lon="12.0274802"><ele>688.8</ele><time>2026-04-25T13:38:37.434Z</time></trkpt><trkpt lat="46.1161689" lon="12.0275717"><ele>685.1999999999999</ele><time>2026-04-25T13:38:38.434Z</time></trkpt><trkpt lat="46.1160964" lon="12.0276695"><ele>681.5999999999999</ele><time>2026-04-25T13:38:39.423Z</time></trkpt><trkpt lat="46.1160225" lon="12.0277581"><ele>678.0</ele><time>2026-04-25T13:38:40.427Z</time></trkpt><trkpt lat="46.1159445" lon="12.0278381"><ele>678.0</ele><time>2026-04-25T13:38:41.436Z</time></trkpt><trkpt lat="46.1158627" lon="12.0279065"><ele>678.0</ele><time>2026-04-25T13:38:42.427Z</time></trkpt><trkpt lat="46.1157727" lon="12.0279698"><ele>678.0</ele><time>2026-04-25T13:38:43.426Z</time></trkpt><trkpt lat="46.1156725" lon="12.028006"><ele>678.0</ele><time>2026-04-25T13:38:44.436Z</time></trkpt><trkpt lat="46.1155633" lon="12.0280189"><ele>678.0</ele><time>2026-04-25T13:38:45.434Z</time></trkpt><trkpt lat="46.1154493" lon="12.0280377"><ele>676.75</ele><time>2026-04-25T13:38:46.428Z</time></trkpt><trkpt lat="46.1153331" lon="12.0280721"><ele>675.5</ele><time>2026-04-25T13:38:47.436Z</time></trkpt><trkpt lat="46.1152126" lon="12.0281129"><ele>674.25</ele><time>2026-04-25T13:38:48.436Z</time></trkpt><trkpt lat="46.1150957" lon="12.0281746"><ele>673.0</ele><time>2026-04-25T13:38:49.435Z</time></trkpt><trkpt lat="46.1149851" lon="12.0282441"><ele>671.2</ele><time>2026-04-25T13:38:50.435Z</time></trkpt><trkpt lat="46.1148851" lon="12.028328"><ele>669.4</ele><time>2026-04-25T13:38:51.427Z</time></trkpt><trkpt lat="46.1147986" lon="12.0284261"><ele>667.6</ele><time>2026-04-25T13:38:52.424Z</time></trkpt><trkpt lat="46.1147077" lon="12.0284978"><ele>665.8000000000001</ele><time>2026-04-25T13:38:53.435Z</time></trkpt><trkpt lat="46.1146161" lon="12.0285501"><ele>664.0</ele><time>2026-04-25T13:38:54.422Z</time></trkpt><trkpt lat="46.1145206" lon="12.0285861"><ele>664.0</ele><time>2026-04-25T13:38:55.423Z</time></trkpt><trkpt lat="46.1144274" lon="12.0286079"><ele>664.0</ele><time>2026-04-25T13:38:56.431Z</time></trkpt><trkpt lat="46.1143377" lon="12.0286442"><ele>664.0</ele><time>2026-04-25T13:38:57.428Z</time></trkpt><trkpt lat="46.1142533" lon="12.0286933"><ele>664.0</ele><time>2026-04-25T13:38:58.419Z</time></trkpt><trkpt lat="46.1141695" lon="12.0287527"><ele>664.0</ele><time>2026-04-25T13:38:59.43Z</time></trkpt><trkpt lat="46.1140713" lon="12.0288174"><ele>664.0</ele><time>2026-04-25T13:39:00.424Z</time></trkpt><trkpt lat="46.11398" lon="12.02889"><ele>664.0</ele><time>2026-04-25T13:39:01.425Z</time></trkpt><trkpt lat="46.1138794" lon="12.0289682"><ele>664.0</ele><time>2026-04-25T13:39:02.423Z</time></trkpt><trkpt lat="46.1137813" lon="12.0290533"><ele>664.0</ele><time>2026-04-25T13:39:03.429Z</time></trkpt><trkpt lat="46.1136812" lon="12.0291354"><ele>664.0</ele><time>2026-04-25T13:39:04.432Z</time></trkpt><trkpt lat="46.1135852" lon="12.029217"><ele>663.0</ele><time>2026-04-25T13:39:05.425Z</time></trkpt><trkpt lat="46.1134938" lon="12.0293006"><ele>662.0</ele><time>2026-04-25T13:39:06.425Z</time></trkpt><trkpt lat="46.1134098" lon="12.0293873"><ele>661.0</ele><time>2026-04-25T13:39:07.425Z</time></trkpt><trkpt lat="46.1133312" lon="12.0294788"><ele>660.0</ele><time>2026-04-25T13:39:08.427Z</time></trkpt><trkpt lat="46.1132641" lon="12.0295611"><ele>659.0</ele><time>2026-04-25T13:39:09.426Z</time></trkpt><trkpt lat="46.1132142" lon="12.0296168"><ele>659.0</ele><time>2026-04-25T13:39:10.429Z</time></trkpt><trkpt lat="46.11314" lon="12.0296765"><ele>659.0</ele><time>2026-04-25T13:39:12.432Z</time></trkpt><trkpt lat="46.1130565" lon="12.0296696"><ele>659.0</ele><time>2026-04-25T13:39:15.432Z</time></trkpt><trkpt lat="46.1129945" lon="12.0296511"><ele>659.0</ele><time>2026-04-25T13:39:17.431Z</time></trkpt><trkpt lat="46.112937" lon="12.0296095"><ele>659.0</ele><time>2026-04-25T13:39:19.428Z</time></trkpt><trkpt lat="46.1128767" lon="12.0295551"><ele>659.0</ele><time>2026-04-25T13:39:21.426Z</time></trkpt><trkpt lat="46.1128173" lon="12.0294831"><ele>659.0</ele><time>2026-04-25T13:39:23.426Z</time></trkpt><trkpt lat="46.1127517" lon="12.029416"><ele>659.0</ele><time>2026-04-25T13:39:25.434Z</time></trkpt><trkpt lat="46.1126826" lon="12.0293595"><ele>659.0</ele><time>2026-04-25T13:39:27.428Z</time></trkpt><trkpt lat="46.112618" lon="12.0293042"><ele>659.0</ele><time>2026-04-25T13:39:29.429Z</time></trkpt><trkpt lat="46.1125607" lon="12.0292592"><ele>659.0</ele><time>2026-04-25T13:39:31.425Z</time></trkpt><trkpt lat="46.11398" lon="12.02889"><ele>658.5</ele><time>2026-04-25T13:39:01.425Z</time></trkpt><trkpt lat="46.1138794" lon="12.0289682"><ele>658.0</ele><time>2026-04-25T13:39:02.423Z</time></trkpt><trkpt lat="46.1137813" lon="12.0290533"><ele>657.5</ele><time>2026-04-25T13:39:03.429Z</time></trkpt><trkpt lat="46.1136812" lon="12.0291354"><ele>657.0</ele><time>2026-04-25T13:39:04.432Z</time></trkpt><trkpt lat="46.1135852" lon="12.029217"><ele>657.0</ele><time>2026-04-25T13:39:05.425Z</time></trkpt><trkpt lat="46.1134938" lon="12.0293006"><ele>657.0</ele><time>2026-04-25T13:39:06.425Z</time></trkpt><trkpt lat="46.1134098" lon="12.0293873"><ele>657.0</ele><time>2026-04-25T13:39:07.425Z</time></trkpt><trkpt lat="46.1133312" lon="12.0294788"><ele>657.0</ele><time>2026-04-25T13:39:08.427Z</time></trkpt><trkpt lat="46.1132641" lon="12.0295611"><ele>657.0</ele><time>2026-04-25T13:39:09.426Z</time></trkpt><trkpt lat="46.1132142" lon="12.0296168"><ele>657.2857142857142</ele><time>2026-04-25T13:39:10.429Z</time></trkpt><trkpt lat="46.11314" lon="12.0296765"><ele>657.5714285714287</ele><time>2026-04-25T13:39:12.432Z</time></trkpt><trkpt lat="46.1130565" lon="12.0296696"><ele>657.8571428571429</ele><time>2026-04-25T13:39:15.432Z</time></trkpt><trkpt lat="46.1129945" lon="12.0296511"><ele>658.1428571428571</ele><time>2026-04-25T13:39:17.431Z</time></trkpt><trkpt lat="46.112937" lon="12.0296095"><ele>658.4285714285713</ele><time>2026-04-25T13:39:19.428Z</time></trkpt><trkpt lat="46.1128767" lon="12.0295551"><ele>658.7142857142858</ele><time>2026-04-25T13:39:21.426Z</time></trkpt><trkpt lat="46.1128173" lon="12.0294831"><ele>659.0</ele><time>2026-04-25T13:39:23.426Z</time></trkpt><trkpt lat="46.1127517" lon="12.029416"><ele>659.0</ele><time>2026-04-25T13:39:25.434Z</time></trkpt><trkpt lat="46.1126826" lon="12.0293595"><ele>659.0</ele><time>2026-04-25T13:39:27.428Z</time></trkpt><trkpt lat="46.112618" lon="12.0293042"><ele>659.0</ele><time>2026-04-25T13:39:29.429Z</time></trkpt><trkpt lat="46.1125607" lon="12.0292592"><ele>659.0</ele><time>2026-04-25T13:39:31.425Z</time></trkpt><trkpt lat="46.112503" lon="12.0292209"><ele>659.0</ele><time>2026-04-25T13:39:33.433Z</time></trkpt><trkpt lat="46.1124403" lon="12.0291817"><ele>659.0</ele><time>2026-04-25T13:39:35.427Z</time></trkpt><trkpt lat="46.1123699" lon="12.0291364"><ele>659.0</ele><time>2026-04-25T13:39:37.434Z</time></trkpt><trkpt lat="46.1122816" lon="12.029095"><ele>658.5</ele><time>2026-04-25T13:39:39.427Z</time></trkpt><trkpt lat="46.1121853" lon="12.0290461"><ele>658.0</ele><time>2026-04-25T13:39:41.426Z</time></trkpt><trkpt lat="46.1120734" lon="12.0289933"><ele>657.5</ele><time>2026-04-25T13:39:43.427Z</time></trkpt><trkpt lat="46.1120122" lon="12.0289634"><ele>657.0</ele><time>2026-04-25T13:39:44.425Z</time></trkpt><trkpt lat="46.1119489" lon="12.0289222"><ele>656.5</ele><time>2026-04-25T13:39:45.431Z</time></trkpt><trkpt lat="46.1118799" lon="12.0288862"><ele>656.0</ele><time>2026-04-25T13:39:46.425Z</time></trkpt><trkpt lat="46.1118077" lon="12.0288494"><ele>656.0</ele><time>2026-04-25T13:39:47.426Z</time></trkpt><trkpt lat="46.1117307" lon="12.0288079"><ele>656.0</ele><time>2026-04-25T13:39:48.427Z</time></trkpt><trkpt lat="46.1116502" lon="12.0287676"><ele>656.0</ele><time>2026-04-25T13:39:49.425Z</time></trkpt><trkpt lat="46.1115724" lon="12.0287242"><ele>656.0</ele><time>2026-04-25T13:39:50.431Z</time></trkpt><trkpt lat="46.1114959" lon="12.0286792"><ele>656.0</ele><time>2026-04-25T13:39:51.426Z</time></trkpt><trkpt lat="46.1114156" lon="12.0286394"><ele>656.0</ele><time>2026-04-25T13:39:52.426Z</time></trkpt><trkpt lat="46.1113341" lon="12.0286042"><ele>655.5</ele><time>2026-04-25T13:39:53.432Z</time></trkpt><trkpt lat="46.1112543" lon="12.0285805"><ele>655.0</ele><time>2026-04-25T13:39:54.433Z</time></trkpt><trkpt lat="46.1111733" lon="12.0285765"><ele>654.5</ele><time>2026-04-25T13:39:55.426Z</time></trkpt><trkpt lat="46.1110981" lon="12.0285948"><ele>654.0</ele><time>2026-04-25T13:39:56.425Z</time></trkpt><trkpt lat="46.1110202" lon="12.0286365"><ele>653.5</ele><time>2026-04-25T13:39:57.433Z</time></trkpt><trkpt lat="46.1109467" lon="12.0286928"><ele>653.0</ele><time>2026-04-25T13:39:58.431Z</time></trkpt><trkpt lat="46.1108717" lon="12.0287402"><ele>653.0</ele><time>2026-04-25T13:39:59.426Z</time></trkpt><trkpt lat="46.1107991" lon="12.0287959"><ele>653.0</ele><time>2026-04-25T13:40:00.426Z</time></trkpt><trkpt lat="46.1107381" lon="12.0288791"><ele>653.0</ele><time>2026-04-25T13:40:01.426Z</time></trkpt><trkpt lat="46.1106979" lon="12.028989"><ele>653.0</ele><time>2026-04-25T13:40:02.426Z</time></trkpt><trkpt lat="46.1106754" lon="12.0291118"><ele>653.0</ele><time>2026-04-25T13:40:03.432Z</time></trkpt><trkpt lat="46.1106562" lon="12.0292417"><ele>653.0</ele><time>2026-04-25T13:40:04.427Z</time></trkpt><trkpt lat="46.1106347" lon="12.0293817"><ele>650.6666666666666</ele><time>2026-04-25T13:40:05.427Z</time></trkpt><trkpt lat="46.1106144" lon="12.0295184"><ele>648.3333333333333</ele><time>2026-04-25T13:40:06.428Z</time></trkpt><trkpt lat="46.1105941" lon="12.0296455"><ele>646.0</ele><time>2026-04-25T13:40:07.425Z</time></trkpt><trkpt lat="46.1105627" lon="12.0297571"><ele>643.6666666666666</ele><time>2026-04-25T13:40:08.429Z</time></trkpt><trkpt lat="46.1105044" lon="12.0298513"><ele>641.3333333333334</ele><time>2026-04-25T13:40:09.426Z</time></trkpt><trkpt lat="46.1104332" lon="12.0299245"><ele>639.0</ele><time>2026-04-25T13:40:10.425Z</time></trkpt><trkpt lat="46.1103481" lon="12.0299689"><ele>639.0</ele><time>2026-04-25T13:40:11.427Z</time></trkpt><trkpt lat="46.1102525" lon="12.0299684"><ele>639.0</ele><time>2026-04-25T13:40:12.425Z</time></trkpt><trkpt lat="46.1101543" lon="12.0299439"><ele>639.0</ele><time>2026-04-25T13:40:13.431Z</time></trkpt><trkpt lat="46.1100469" lon="12.0299112"><ele>639.0</ele><time>2026-04-25T13:40:14.423Z</time></trkpt><trkpt lat="46.1099381" lon="12.0298574"><ele>639.0</ele><time>2026-04-25T13:40:15.421Z</time></trkpt><trkpt lat="46.1098263" lon="12.0297887"><ele>635.75</ele><time>2026-04-25T13:40:16.424Z</time></trkpt><trkpt lat="46.109706" lon="12.029709"><ele>632.5</ele><time>2026-04-25T13:40:17.424Z</time></trkpt><trkpt lat="46.1095914" lon="12.0296278"><ele>629.25</ele><time>2026-04-25T13:40:18.427Z</time></trkpt><trkpt lat="46.1094778" lon="12.0295414"><ele>626.0</ele><time>2026-04-25T13:40:19.423Z</time></trkpt><trkpt lat="46.1093671" lon="12.0294569"><ele>626.0</ele><time>2026-04-25T13:40:20.425Z</time></trkpt><trkpt lat="46.1092515" lon="12.0293766"><ele>626.0</ele><time>2026-04-25T13:40:21.426Z</time></trkpt><trkpt lat="46.109134" lon="12.0293029"><ele>626.0</ele><time>2026-04-25T13:40:22.427Z</time></trkpt><trkpt lat="46.1090167" lon="12.0292374"><ele>626.0</ele><time>2026-04-25T13:40:23.423Z</time></trkpt><trkpt lat="46.1088959" lon="12.029181"><ele>625.5</ele><time>2026-04-25T13:40:24.426Z</time></trkpt><trkpt lat="46.1087685" lon="12.0291345"><ele>625.0</ele><time>2026-04-25T13:40:25.426Z</time></trkpt><trkpt lat="46.108638" lon="12.0290891"><ele>624.5</ele><time>2026-04-25T13:40:26.426Z</time></trkpt><trkpt lat="46.1085043" lon="12.0290411"><ele>624.0</ele><time>2026-04-25T13:40:27.515Z</time></trkpt><trkpt lat="46.1083621" lon="12.0290037"><ele>618.3333333333334</ele><time>2026-04-25T13:40:28.429Z</time></trkpt><trkpt lat="46.1082157" lon="12.0289713"><ele>612.6666666666667</ele><time>2026-04-25T13:40:29.439Z</time></trkpt><trkpt lat="46.1080695" lon="12.0289398"><ele>607.0</ele><time>2026-04-25T13:40:30.427Z</time></trkpt><trkpt lat="46.1079138" lon="12.028912"><ele>607.0</ele><time>2026-04-25T13:40:31.425Z</time></trkpt><trkpt lat="46.1077608" lon="12.0288892"><ele>607.0</ele><time>2026-04-25T13:40:32.427Z</time></trkpt><trkpt lat="46.1076041" lon="12.028867"><ele>607.0</ele><time>2026-04-25T13:40:33.426Z</time></trkpt><trkpt lat="46.1074435" lon="12.0288497"><ele>601.6666666666667</ele><time>2026-04-25T13:40:34.421Z</time></trkpt><trkpt lat="46.1072856" lon="12.0288324"><ele>596.3333333333334</ele><time>2026-04-25T13:40:35.421Z</time></trkpt><trkpt lat="46.1071265" lon="12.0288175"><ele>591.0</ele><time>2026-04-25T13:40:36.435Z</time></trkpt><trkpt lat="46.1069649" lon="12.0287978"><ele>591.0</ele><time>2026-04-25T13:40:37.428Z</time></trkpt><trkpt lat="46.1068062" lon="12.0287764"><ele>591.0</ele><time>2026-04-25T13:40:38.427Z</time></trkpt><trkpt lat="46.1066431" lon="12.0287588"><ele>591.0</ele><time>2026-04-25T13:40:39.433Z</time></trkpt><trkpt lat="46.1064817" lon="12.0287336"><ele>587.5</ele><time>2026-04-25T13:40:40.428Z</time></trkpt><trkpt lat="46.106322" lon="12.0287131"><ele>584.0</ele><time>2026-04-25T13:40:41.431Z</time></trkpt><trkpt lat="46.1061709" lon="12.0286954"><ele>580.5</ele><time>2026-04-25T13:40:42.435Z</time></trkpt><trkpt lat="46.1060361" lon="12.0286717"><ele>577.0</ele><time>2026-04-25T13:40:43.434Z</time></trkpt><trkpt lat="46.1059041" lon="12.0286524"><ele>577.0</ele><time>2026-04-25T13:40:44.436Z</time></trkpt><trkpt lat="46.1057786" lon="12.0286358"><ele>577.0</ele><time>2026-04-25T13:40:45.425Z</time></trkpt><trkpt lat="46.1056519" lon="12.0286241"><ele>577.0</ele><time>2026-04-25T13:40:46.427Z</time></trkpt><trkpt lat="46.1055302" lon="12.0286052"><ele>577.0</ele><time>2026-04-25T13:40:47.424Z</time></trkpt><trkpt lat="46.1054033" lon="12.0285877"><ele>572.25</ele><time>2026-04-25T13:40:48.425Z</time></trkpt><trkpt lat="46.1052845" lon="12.0285703"><ele>567.5</ele><time>2026-04-25T13:40:49.435Z</time></trkpt><trkpt lat="46.105172" lon="12.0285511"><ele>562.75</ele><time>2026-04-25T13:40:50.426Z</time></trkpt><trkpt lat="46.1050607" lon="12.0285354"><ele>558.0</ele><time>2026-04-25T13:40:51.427Z</time></trkpt><trkpt lat="46.1049539" lon="12.0285215"><ele>556.1666666666666</ele><time>2026-04-25T13:40:52.428Z</time></trkpt><trkpt lat="46.104856" lon="12.0285061"><ele>554.3333333333334</ele><time>2026-04-25T13:40:53.429Z</time></trkpt><trkpt lat="46.1047643" lon="12.0284839"><ele>552.5</ele><time>2026-04-25T13:40:54.428Z</time></trkpt><trkpt lat="46.1046796" lon="12.0284561"><ele>550.6666666666667</ele><time>2026-04-25T13:40:55.424Z</time></trkpt><trkpt lat="46.1046081" lon="12.0284194"><ele>548.8333333333334</ele><time>2026-04-25T13:40:56.428Z</time></trkpt><trkpt lat="46.1045444" lon="12.0283733"><ele>547.0</ele><time>2026-04-25T13:40:57.425Z</time></trkpt><trkpt lat="46.1044867" lon="12.0283084"><ele>547.0</ele><time>2026-04-25T13:40:58.419Z</time></trkpt><trkpt lat="46.1044382" lon="12.0282295"><ele>547.0</ele><time>2026-04-25T13:40:59.422Z</time></trkpt><trkpt lat="46.1044007" lon="12.0281381"><ele>547.0</ele><time>2026-04-25T13:41:00.421Z</time></trkpt><trkpt lat="46.1043657" lon="12.0280404"><ele>547.0</ele><time>2026-04-25T13:41:01.421Z</time></trkpt><trkpt lat="46.104336" lon="12.0279361"><ele>547.0</ele><time>2026-04-25T13:41:02.425Z</time></trkpt><trkpt lat="46.1043148" lon="12.0278282"><ele>547.0</ele><time>2026-04-25T13:41:03.42Z</time></trkpt><trkpt lat="46.1042929" lon="12.0277209"><ele>547.0</ele><time>2026-04-25T13:41:04.423Z</time></trkpt><trkpt lat="46.1042705" lon="12.0276091"><ele>547.0</ele><time>2026-04-25T13:41:05.422Z</time></trkpt><trkpt lat="46.1042532" lon="12.0274978"><ele>547.0</ele><time>2026-04-25T13:41:06.424Z</time></trkpt><trkpt lat="46.1042395" lon="12.0273862"><ele>547.0</ele><time>2026-04-25T13:41:07.423Z</time></trkpt><trkpt lat="46.1042284" lon="12.0272698"><ele>547.0</ele><time>2026-04-25T13:41:08.432Z</time></trkpt><trkpt lat="46.1042167" lon="12.0271587"><ele>547.0</ele><time>2026-04-25T13:41:09.43Z</time></trkpt><trkpt lat="46.1042106" lon="12.0270483"><ele>546.6666666666667</ele><time>2026-04-25T13:41:10.424Z</time></trkpt><trkpt lat="46.1042041" lon="12.0269322"><ele>546.3333333333334</ele><time>2026-04-25T13:41:11.426Z</time></trkpt><trkpt lat="46.1042017" lon="12.0268215"><ele>546.0</ele><time>2026-04-25T13:41:12.428Z</time></trkpt><trkpt lat="46.1041991" lon="12.026704"><ele>545.6666666666666</ele><time>2026-04-25T13:41:13.425Z</time></trkpt><trkpt lat="46.104194" lon="12.0265892"><ele>545.3333333333333</ele><time>2026-04-25T13:41:14.425Z</time></trkpt><trkpt lat="46.1041883" lon="12.0264705"><ele>545.0</ele><time>2026-04-25T13:41:15.422Z</time></trkpt><trkpt lat="46.1041771" lon="12.0263512"><ele>544.7142857142858</ele><time>2026-04-25T13:41:16.425Z</time></trkpt><trkpt lat="46.1041691" lon="12.026232"><ele>544.4285714285714</ele><time>2026-04-25T13:41:17.423Z</time></trkpt><trkpt lat="46.1041585" lon="12.0261228"><ele>544.1428571428571</ele><time>2026-04-25T13:41:18.425Z</time></trkpt><trkpt lat="46.1041433" lon="12.0260177"><ele>543.8571428571429</ele><time>2026-04-25T13:41:19.422Z</time></trkpt><trkpt lat="46.1041307" lon="12.0259181"><ele>543.5714285714286</ele><time>2026-04-25T13:41:20.418Z</time></trkpt><trkpt lat="46.1041153" lon="12.0258174"><ele>543.2857142857143</ele><time>2026-04-25T13:41:21.43Z</time></trkpt><trkpt lat="46.1041008" lon="12.0257223"><ele>543.0</ele><time>2026-04-25T13:41:22.423Z</time></trkpt><trkpt lat="46.1040789" lon="12.0256274"><ele>541.2857142857143</ele><time>2026-04-25T13:41:23.425Z</time></trkpt><trkpt lat="46.1040555" lon="12.0255404"><ele>539.5714285714286</ele><time>2026-04-25T13:41:24.428Z</time></trkpt><trkpt lat="46.1040338" lon="12.0254511"><ele>537.8571428571429</ele><time>2026-04-25T13:41:25.425Z</time></trkpt><trkpt lat="46.104007" lon="12.025365"><ele>536.1428571428571</ele><time>2026-04-25T13:41:26.423Z</time></trkpt><trkpt lat="46.1039833" lon="12.0252745"><ele>534.4285714285714</ele><time>2026-04-25T13:41:27.424Z</time></trkpt><trkpt lat="46.1039563" lon="12.025182"><ele>532.7142857142858</ele><time>2026-04-25T13:41:28.422Z</time></trkpt><trkpt lat="46.1039272" lon="12.0250919"><ele>531.0</ele><time>2026-04-25T13:41:29.421Z</time></trkpt><trkpt lat="46.1038999" lon="12.0250053"><ele>531.6666666666666</ele><time>2026-04-25T13:41:30.42Z</time></trkpt><trkpt lat="46.1038698" lon="12.0249172"><ele>532.3333333333334</ele><time>2026-04-25T13:41:31.425Z</time></trkpt><trkpt lat="46.103821" lon="12.0247715"><ele>533.0</ele><time>2026-04-25T13:41:33.422Z</time></trkpt><trkpt lat="46.1037573" lon="12.0247093"><ele>533.6666666666667</ele><time>2026-04-25T13:41:36.424Z</time></trkpt><trkpt lat="46.1037509" lon="12.0245998"><ele>534.3333333333334</ele><time>2026-04-25T13:41:43.421Z</time></trkpt><trkpt lat="46.1037311" lon="12.0244981"><ele>535.0</ele><time>2026-04-25T13:41:46.427Z</time></trkpt><trkpt lat="46.1036866" lon="12.024415"><ele>535.0</ele><time>2026-04-25T13:41:48.423Z</time></trkpt><trkpt lat="46.1036314" lon="12.0243321"><ele>535.0</ele><time>2026-04-25T13:41:50.435Z</time></trkpt><trkpt lat="46.1035745" lon="12.024248"><ele>535.0</ele><time>2026-04-25T13:41:52.424Z</time></trkpt><trkpt lat="46.1035259" lon="12.0241626"><ele>535.0</ele><time>2026-04-25T13:41:54.422Z</time></trkpt><trkpt lat="46.1034786" lon="12.0240734"><ele>535.0</ele><time>2026-04-25T13:41:56.426Z</time></trkpt><trkpt lat="46.1034325" lon="12.023986"><ele>535.0</ele><time>2026-04-25T13:41:58.42Z</time></trkpt><trkpt lat="46.1033852" lon="12.0238925"><ele>536.0</ele><time>2026-04-25T13:42:00.422Z</time></trkpt><trkpt lat="46.1033381" lon="12.0237992"><ele>537.0</ele><time>2026-04-25T13:42:02.425Z</time></trkpt><trkpt lat="46.1032973" lon="12.0237146"><ele>538.0</ele><time>2026-04-25T13:42:04.421Z</time></trkpt><trkpt lat="46.1032556" lon="12.023624"><ele>539.0</ele><time>2026-04-25T13:42:06.426Z</time></trkpt><trkpt lat="46.1032229" lon="12.0235101"><ele>540.0</ele><time>2026-04-25T13:42:09.425Z</time></trkpt><trkpt lat="46.1031838" lon="12.0233921"><ele>541.0</ele><time>2026-04-25T13:42:12.42Z</time></trkpt><trkpt lat="46.1031613" lon="12.0232919"><ele>537.6</ele><time>2026-04-25T13:42:14.425Z</time></trkpt><trkpt lat="46.1031312" lon="12.0231855"><ele>534.2</ele><time>2026-04-25T13:42:16.427Z</time></trkpt><trkpt lat="46.103094" lon="12.0230632"><ele>530.8</ele><time>2026-04-25T13:42:18.422Z</time></trkpt><trkpt lat="46.103047" lon="12.0229399"><ele>527.4</ele><time>2026-04-25T13:42:20.433Z</time></trkpt><trkpt lat="46.1029896" lon="12.0227991"><ele>524.0</ele><time>2026-04-25T13:42:22.424Z</time></trkpt><trkpt lat="46.1029335" lon="12.0226526"><ele>524.0</ele><time>2026-04-25T13:42:24.427Z</time></trkpt><trkpt lat="46.1028821" lon="12.0225123"><ele>524.0</ele><time>2026-04-25T13:42:26.429Z</time></trkpt><trkpt lat="46.1028243" lon="12.0223813"><ele>524.0</ele><time>2026-04-25T13:42:28.432Z</time></trkpt><trkpt lat="46.1027777" lon="12.0222513"><ele>524.0</ele><time>2026-04-25T13:42:30.43Z</time></trkpt><trkpt lat="46.1027373" lon="12.0220986"><ele>524.0</ele><time>2026-04-25T13:42:32.433Z</time></trkpt><trkpt lat="46.1027059" lon="12.0219248"><ele>523.7142857142858</ele><time>2026-04-25T13:42:34.424Z</time></trkpt><trkpt lat="46.1026881" lon="12.0218363"><ele>523.4285714285714</ele><time>2026-04-25T13:42:35.447Z</time></trkpt><trkpt lat="46.1026695" lon="12.0217365"><ele>523.1428571428571</ele><time>2026-04-25T13:42:36.431Z</time></trkpt><trkpt lat="46.102658" lon="12.0216321"><ele>522.8571428571429</ele><time>2026-04-25T13:42:37.423Z</time></trkpt><trkpt lat="46.1026544" lon="12.0215236"><ele>522.5714285714286</ele><time>2026-04-25T13:42:38.424Z</time></trkpt><trkpt lat="46.1026553" lon="12.0214158"><ele>522.2857142857143</ele><time>2026-04-25T13:42:39.425Z</time></trkpt><trkpt lat="46.1026654" lon="12.0213041"><ele>522.0</ele><time>2026-04-25T13:42:40.436Z</time></trkpt><trkpt lat="46.1026817" lon="12.0211907"><ele>521.0</ele><time>2026-04-25T13:42:41.424Z</time></trkpt><trkpt lat="46.1027044" lon="12.0210747"><ele>520.0</ele><time>2026-04-25T13:42:42.424Z</time></trkpt><trkpt lat="46.1027331" lon="12.0209663"><ele>519.0</ele><time>2026-04-25T13:42:43.42Z</time></trkpt><trkpt lat="46.1027603" lon="12.0208604"><ele>518.0</ele><time>2026-04-25T13:42:44.438Z</time></trkpt><trkpt lat="46.1027875" lon="12.0207456"><ele>517.0</ele><time>2026-04-25T13:42:45.42Z</time></trkpt><trkpt lat="46.1028052" lon="12.020623"><ele>516.0</ele><time>2026-04-25T13:42:46.433Z</time></trkpt><trkpt lat="46.1028194" lon="12.0205103"><ele>515.5</ele><time>2026-04-25T13:42:47.425Z</time></trkpt><trkpt lat="46.1028285" lon="12.0204052"><ele>515.0</ele><time>2026-04-25T13:42:48.423Z</time></trkpt><trkpt lat="46.1028317" lon="12.020296"><ele>514.5</ele><time>2026-04-25T13:42:49.435Z</time></trkpt><trkpt lat="46.1028218" lon="12.0201919"><ele>514.0</ele><time>2026-04-25T13:42:50.433Z</time></trkpt><trkpt lat="46.1028139" lon="12.0200881"><ele>513.5</ele><time>2026-04-25T13:42:51.42Z</time></trkpt><trkpt lat="46.1028077" lon="12.0199735"><ele>513.0</ele><time>2026-04-25T13:42:52.438Z</time></trkpt><trkpt lat="46.1028025" lon="12.0198489"><ele>512.8</ele><time>2026-04-25T13:42:53.423Z</time></trkpt><trkpt lat="46.1027947" lon="12.0197193"><ele>512.5999999999999</ele><time>2026-04-25T13:42:54.423Z</time></trkpt><trkpt lat="46.1027815" lon="12.0195766"><ele>512.4000000000001</ele><time>2026-04-25T13:42:55.421Z</time></trkpt><trkpt lat="46.1027668" lon="12.0194308"><ele>512.2</ele><time>2026-04-25T13:42:56.427Z</time></trkpt><trkpt lat="46.1027592" lon="12.0192829"><ele>512.0</ele><time>2026-04-25T13:42:57.517Z</time></trkpt><trkpt lat="46.1027628" lon="12.0191387"><ele>511.8333333333333</ele><time>2026-04-25T13:42:58.425Z</time></trkpt><trkpt lat="46.1027736" lon="12.019004"><ele>511.66666666666663</ele><time>2026-04-25T13:42:59.435Z</time></trkpt><trkpt lat="46.1027717" lon="12.0188861"><ele>511.5</ele><time>2026-04-25T13:43:00.431Z</time></trkpt><trkpt lat="46.1027502" lon="12.0187706"><ele>511.33333333333337</ele><time>2026-04-25T13:43:01.422Z</time></trkpt><trkpt lat="46.1027236" lon="12.0186495"><ele>511.1666666666667</ele><time>2026-04-25T13:43:02.427Z</time></trkpt><trkpt lat="46.1026845" lon="12.0185357"><ele>511.0</ele><time>2026-04-25T13:43:03.422Z</time></trkpt><trkpt lat="46.1026489" lon="12.0184497"><ele>511.00000000000006</ele><time>2026-04-25T13:43:04.42Z</time></trkpt><trkpt lat="46.1026067" lon="12.0183755"><ele>511.0</ele><time>2026-04-25T13:43:05.424Z</time></trkpt><trkpt lat="46.102571" lon="12.0182838"><ele>511.0</ele><time>2026-04-25T13:43:07.423Z</time></trkpt><trkpt lat="46.1025406" lon="12.0181889"><ele>511.0</ele><time>2026-04-25T13:43:41.425Z</time></trkpt><trkpt lat="46.10255" lon="12.018061"><ele>511.00000000000006</ele><time>2026-04-25T13:43:43.421Z</time></trkpt><trkpt lat="46.1025539" lon="12.0178753"><ele>511.0</ele><time>2026-04-25T13:43:45.422Z</time></trkpt><trkpt lat="46.1025683" lon="12.0177688"><ele>509.6</ele><time>2026-04-25T13:43:46.421Z</time></trkpt><trkpt lat="46.1026005" lon="12.017653"><ele>508.20000000000005</ele><time>2026-04-25T13:43:47.42Z</time></trkpt><trkpt lat="46.1026467" lon="12.0175324"><ele>506.79999999999995</ele><time>2026-04-25T13:43:48.44Z</time></trkpt><trkpt lat="46.1026865" lon="12.0173983"><ele>505.4</ele><time>2026-04-25T13:43:49.433Z</time></trkpt><trkpt lat="46.1027317" lon="12.0172561"><ele>504.0</ele><time>2026-04-25T13:43:50.435Z</time></trkpt><trkpt lat="46.1027772" lon="12.0171102"><ele>500.0</ele><time>2026-04-25T13:43:51.434Z</time></trkpt><trkpt lat="46.1028242" lon="12.0169639"><ele>496.0</ele><time>2026-04-25T13:43:52.433Z</time></trkpt><trkpt lat="46.1028592" lon="12.0168263"><ele>492.0</ele><time>2026-04-25T13:43:53.422Z</time></trkpt><trkpt lat="46.102896" lon="12.0167081"><ele>488.0</ele><time>2026-04-25T13:43:54.429Z</time></trkpt><trkpt lat="46.1029331" lon="12.01661"><ele>484.0</ele><time>2026-04-25T13:43:55.423Z</time></trkpt><trkpt lat="46.102983" lon="12.0165173"><ele>482.1666666666667</ele><time>2026-04-25T13:43:56.424Z</time></trkpt><trkpt lat="46.1030247" lon="12.0164141"><ele>480.33333333333337</ele><time>2026-04-25T13:43:57.421Z</time></trkpt><trkpt lat="46.1030471" lon="12.0162903"><ele>478.5</ele><time>2026-04-25T13:43:58.426Z</time></trkpt><trkpt lat="46.1030513" lon="12.0161537"><ele>476.66666666666663</ele><time>2026-04-25T13:43:59.423Z</time></trkpt><trkpt lat="46.1030573" lon="12.0160207"><ele>474.8333333333333</ele><time>2026-04-25T13:44:00.425Z</time></trkpt><trkpt lat="46.1030737" lon="12.0158959"><ele>473.0</ele><time>2026-04-25T13:44:01.424Z</time></trkpt><trkpt lat="46.1031062" lon="12.0157806"><ele>471.8333333333333</ele><time>2026-04-25T13:44:02.424Z</time></trkpt><trkpt lat="46.1031391" lon="12.0156818"><ele>470.66666666666663</ele><time>2026-04-25T13:44:03.43Z</time></trkpt><trkpt lat="46.1031532" lon="12.0155734"><ele>469.5</ele><time>2026-04-25T13:44:04.424Z</time></trkpt><trkpt lat="46.1031446" lon="12.0154626"><ele>468.33333333333337</ele><time>2026-04-25T13:44:05.434Z</time></trkpt><trkpt lat="46.1031178" lon="12.0153532"><ele>467.1666666666667</ele><time>2026-04-25T13:44:06.433Z</time></trkpt><trkpt lat="46.1030719" lon="12.0152488"><ele>466.0</ele><time>2026-04-25T13:44:07.434Z</time></trkpt><trkpt lat="46.1030128" lon="12.0151523"><ele>466.0</ele><time>2026-04-25T13:44:08.421Z</time></trkpt><trkpt lat="46.1029422" lon="12.0150618"><ele>466.0</ele><time>2026-04-25T13:44:09.424Z</time></trkpt><trkpt lat="46.1028714" lon="12.0149857"><ele>466.0</ele><time>2026-04-25T13:44:10.421Z</time></trkpt><trkpt lat="46.1027897" lon="12.0149306"><ele>466.0</ele><time>2026-04-25T13:44:11.422Z</time></trkpt><trkpt lat="46.1027037" lon="12.0148987"><ele>466.0</ele><time>2026-04-25T13:44:12.427Z</time></trkpt><trkpt lat="46.1026023" lon="12.0148842"><ele>465.0</ele><time>2026-04-25T13:44:13.436Z</time></trkpt><trkpt lat="46.1024993" lon="12.0148969"><ele>464.0</ele><time>2026-04-25T13:44:14.428Z</time></trkpt><trkpt lat="46.1023991" lon="12.0149292"><ele>463.0</ele><time>2026-04-25T13:44:15.435Z</time></trkpt><trkpt lat="46.1022945" lon="12.0149651"><ele>462.0</ele><time>2026-04-25T13:44:16.434Z</time></trkpt><trkpt lat="46.1021839" lon="12.0150096"><ele>461.0</ele><time>2026-04-25T13:44:17.434Z</time></trkpt><trkpt lat="46.1020688" lon="12.0150594"><ele>461.0</ele><time>2026-04-25T13:44:18.434Z</time></trkpt><trkpt lat="46.1019478" lon="12.0151131"><ele>461.0</ele><time>2026-04-25T13:44:19.433Z</time></trkpt><trkpt lat="46.1018229" lon="12.015172"><ele>461.0</ele><time>2026-04-25T13:44:20.428Z</time></trkpt><trkpt lat="46.1016978" lon="12.015242"><ele>461.0</ele><time>2026-04-25T13:44:21.434Z</time></trkpt><trkpt lat="46.1015759" lon="12.0153198"><ele>457.75</ele><time>2026-04-25T13:44:22.434Z</time></trkpt><trkpt lat="46.1014571" lon="12.0153922"><ele>454.5</ele><time>2026-04-25T13:44:23.434Z</time></trkpt><trkpt lat="46.1013389" lon="12.0154498"><ele>451.25</ele><time>2026-04-25T13:44:24.438Z</time></trkpt><trkpt lat="46.1012172" lon="12.0154953"><ele>448.0</ele><time>2026-04-25T13:44:25.426Z</time></trkpt><trkpt lat="46.1010974" lon="12.0155316"><ele>448.0</ele><time>2026-04-25T13:44:26.43Z</time></trkpt><trkpt lat="46.1009757" lon="12.0155692"><ele>448.0</ele><time>2026-04-25T13:44:27.559Z</time></trkpt><trkpt lat="46.1007351" lon="12.0156722"><ele>448.0</ele><time>2026-04-25T13:44:29.433Z</time></trkpt><trkpt lat="46.1006175" lon="12.0157315"><ele>445.79999999999995</ele><time>2026-04-25T13:44:30.434Z</time></trkpt><trkpt lat="46.1005118" lon="12.0157699"><ele>443.59999999999997</ele><time>2026-04-25T13:44:31.434Z</time></trkpt><trkpt lat="46.1004244" lon="12.0158282"><ele>441.40000000000003</ele><time>2026-04-25T13:44:32.437Z</time></trkpt><trkpt lat="46.1003528" lon="12.0159146"><ele>439.20000000000005</ele><time>2026-04-25T13:44:33.434Z</time></trkpt><trkpt lat="46.1003036" lon="12.0160236"><ele>437.0</ele><time>2026-04-25T13:44:34.428Z</time></trkpt><trkpt lat="46.1002676" lon="12.0161483"><ele>436.0</ele><time>2026-04-25T13:44:35.421Z</time></trkpt><trkpt lat="46.1002224" lon="12.0162659"><ele>435.00000000000006</ele><time>2026-04-25T13:44:36.424Z</time></trkpt><trkpt lat="46.1001574" lon="12.016359"><ele>434.00000000000006</ele><time>2026-04-25T13:44:37.423Z</time></trkpt><trkpt lat="46.1000766" lon="12.0164199"><ele>433.0</ele><time>2026-04-25T13:44:38.433Z</time></trkpt><trkpt lat="46.099986" lon="12.0164499"><ele>432.0</ele><time>2026-04-25T13:44:39.424Z</time></trkpt><trkpt lat="46.0998928" lon="12.0164819"><ele>431.0</ele><time>2026-04-25T13:44:40.437Z</time></trkpt><trkpt lat="46.0997925" lon="12.0164971"><ele>430.00000000000006</ele><time>2026-04-25T13:44:41.432Z</time></trkpt><trkpt lat="46.0996936" lon="12.0165182"><ele>429.00000000000006</ele><time>2026-04-25T13:44:42.436Z</time></trkpt><trkpt lat="46.0996098" lon="12.0165376"><ele>428.0</ele><time>2026-04-25T13:44:43.433Z</time></trkpt><trkpt lat="46.0995244" lon="12.0165306"><ele>427.0</ele><time>2026-04-25T13:44:44.438Z</time></trkpt><trkpt lat="46.0994481" lon="12.0164829"><ele>427.00000000000006</ele><time>2026-04-25T13:44:45.433Z</time></trkpt><trkpt lat="46.0993835" lon="12.0164051"><ele>427.0</ele><time>2026-04-25T13:44:46.43Z</time></trkpt><trkpt lat="46.0993207" lon="12.0163222"><ele>427.0</ele><time>2026-04-25T13:44:47.436Z</time></trkpt><trkpt lat="46.0992508" lon="12.0162597"><ele>427.0</ele><time>2026-04-25T13:44:48.434Z</time></trkpt><trkpt lat="46.0991756" lon="12.0162287"><ele>427.00000000000006</ele><time>2026-04-25T13:44:49.425Z</time></trkpt><trkpt lat="46.0991054" lon="12.0162436"><ele>427.0</ele><time>2026-04-25T13:44:50.435Z</time></trkpt><trkpt lat="46.0990442" lon="12.0162958"><ele>426.33333333333337</ele><time>2026-04-25T13:44:51.434Z</time></trkpt><trkpt lat="46.0989851" lon="12.0163676"><ele>425.6666666666667</ele><time>2026-04-25T13:44:52.425Z</time></trkpt><trkpt lat="46.0989206" lon="12.01644"><ele>425.0</ele><time>2026-04-25T13:44:53.435Z</time></trkpt><trkpt lat="46.0988547" lon="12.0165157"><ele>424.33333333333337</ele><time>2026-04-25T13:44:54.427Z</time></trkpt><trkpt lat="46.0987848" lon="12.0165853"><ele>423.6666666666667</ele><time>2026-04-25T13:44:55.423Z</time></trkpt><trkpt lat="46.0986993" lon="12.0166176"><ele>423.0</ele><time>2026-04-25T13:44:56.424Z</time></trkpt><trkpt lat="46.0986088" lon="12.0166414"><ele>423.3333333333333</ele><time>2026-04-25T13:44:57.422Z</time></trkpt><trkpt lat="46.0985312" lon="12.0166613"><ele>423.66666666666663</ele><time>2026-04-25T13:44:58.423Z</time></trkpt><trkpt lat="46.0984558" lon="12.0167146"><ele>424.0</ele><time>2026-04-25T13:44:59.422Z</time></trkpt><trkpt lat="46.0983938" lon="12.0167944"><ele>424.3333333333333</ele><time>2026-04-25T13:45:00.42Z</time></trkpt><trkpt lat="46.098339" lon="12.0168824"><ele>424.66666666666663</ele><time>2026-04-25T13:45:01.424Z</time></trkpt><trkpt lat="46.098284" lon="12.0169774"><ele>425.0</ele><time>2026-04-25T13:45:02.429Z</time></trkpt><trkpt lat="46.0982266" lon="12.0170635"><ele>422.66666666666663</ele><time>2026-04-25T13:45:03.438Z</time></trkpt><trkpt lat="46.0981629" lon="12.0171409"><ele>420.3333333333333</ele><time>2026-04-25T13:45:04.434Z</time></trkpt><trkpt lat="46.0980933" lon="12.0172134"><ele>418.0</ele><time>2026-04-25T13:45:05.444Z</time></trkpt><trkpt lat="46.0980222" lon="12.01729"><ele>415.66666666666663</ele><time>2026-04-25T13:45:06.434Z</time></trkpt><trkpt lat="46.0979423" lon="12.0173549"><ele>413.3333333333333</ele><time>2026-04-25T13:45:07.433Z</time></trkpt><trkpt lat="46.0978576" lon="12.0174119"><ele>411.0</ele><time>2026-04-25T13:45:08.435Z</time></trkpt><trkpt lat="46.0977658" lon="12.0174603"><ele>411.20000000000005</ele><time>2026-04-25T13:45:09.432Z</time></trkpt><trkpt lat="46.0976735" lon="12.0174973"><ele>411.40000000000003</ele><time>2026-04-25T13:45:10.425Z</time></trkpt><trkpt lat="46.0975812" lon="12.0175479"><ele>411.6</ele><time>2026-04-25T13:45:11.427Z</time></trkpt><trkpt lat="46.097496" lon="12.017606"><ele>411.8</ele><time>2026-04-25T13:45:12.422Z</time></trkpt><trkpt lat="46.0974187" lon="12.017684"><ele>412.0</ele><time>2026-04-25T13:45:13.422Z</time></trkpt><trkpt lat="46.0973519" lon="12.0177719"><ele>412.0</ele><time>2026-04-25T13:45:14.422Z</time></trkpt><trkpt lat="46.0973056" lon="12.0178473"><ele>412.0</ele><time>2026-04-25T13:45:15.426Z</time></trkpt><trkpt lat="46.097242" lon="12.0179511"><ele>412.0</ele><time>2026-04-25T13:45:17.425Z</time></trkpt><trkpt lat="46.0972179" lon="12.0180796"><ele>412.0</ele><time>2026-04-25T13:45:19.422Z</time></trkpt><trkpt lat="46.0972113" lon="12.0182439"><ele>412.0</ele><time>2026-04-25T13:45:21.428Z</time></trkpt><trkpt lat="46.0972125" lon="12.0184122"><ele>412.5</ele><time>2026-04-25T13:45:23.427Z</time></trkpt><trkpt lat="46.0972185" lon="12.0185811"><ele>413.0</ele><time>2026-04-25T13:45:25.432Z</time></trkpt><trkpt lat="46.097226" lon="12.0187503"><ele>413.5</ele><time>2026-04-25T13:45:27.425Z</time></trkpt><trkpt lat="46.0972259" lon="12.0189172"><ele>414.0</ele><time>2026-04-25T13:45:29.427Z</time></trkpt><trkpt lat="46.0972301" lon="12.019087"><ele>414.1666666666667</ele><time>2026-04-25T13:45:31.425Z</time></trkpt><trkpt lat="46.0972345" lon="12.0192487"><ele>414.33333333333337</ele><time>2026-04-25T13:45:33.425Z</time></trkpt><trkpt lat="46.0972358" lon="12.0193957"><ele>414.5</ele><time>2026-04-25T13:45:35.425Z</time></trkpt><trkpt lat="46.0972499" lon="12.0195166"><ele>414.6666666666667</ele><time>2026-04-25T13:45:37.426Z</time></trkpt><trkpt lat="46.0972637" lon="12.0196052"><ele>414.83333333333337</ele><time>2026-04-25T13:45:40.431Z</time></trkpt><trkpt lat="46.0972691" lon="12.0196974"><ele>415.0</ele><time>2026-04-25T13:46:05.426Z</time></trkpt><trkpt lat="46.0972592" lon="12.0197882"><ele>415.00000000000006</ele><time>2026-04-25T13:46:07.423Z</time></trkpt><trkpt lat="46.0972411" lon="12.019926"><ele>415.0</ele><time>2026-04-25T13:46:09.425Z</time></trkpt><trkpt lat="46.0972205" lon="12.0200939"><ele>415.0</ele><time>2026-04-25T13:46:11.426Z</time></trkpt><trkpt lat="46.0972078" lon="12.0201888"><ele>415.0</ele><time>2026-04-25T13:46:12.425Z</time></trkpt><trkpt lat="46.0971924" lon="12.0202898"><ele>415.00000000000006</ele><time>2026-04-25T13:46:13.423Z</time></trkpt><trkpt lat="46.0971796" lon="12.0203907"><ele>415.0</ele><time>2026-04-25T13:46:14.424Z</time></trkpt><trkpt lat="46.0971664" lon="12.020494"><ele>415.0</ele><time>2026-04-25T13:46:15.433Z</time></trkpt><trkpt lat="46.0971575" lon="12.020596"><ele>415.0</ele><time>2026-04-25T13:46:16.424Z</time></trkpt><trkpt lat="46.0971546" lon="12.0207037"><ele>415.0</ele><time>2026-04-25T13:46:17.425Z</time></trkpt><trkpt lat="46.0971602" lon="12.020814"><ele>415.0</ele><time>2026-04-25T13:46:18.425Z</time></trkpt><trkpt lat="46.0971766" lon="12.0209207"><ele>415.0</ele><time>2026-04-25T13:46:19.424Z</time></trkpt><trkpt lat="46.0971969" lon="12.0210287"><ele>415.0</ele><time>2026-04-25T13:46:20.427Z</time></trkpt><trkpt lat="46.0972216" lon="12.0211261"><ele>415.0</ele><time>2026-04-25T13:46:21.424Z</time></trkpt><trkpt lat="46.0972444" lon="12.0212359"><ele>415.42857142857144</ele><time>2026-04-25T13:46:22.432Z</time></trkpt><trkpt lat="46.0972655" lon="12.0213418"><ele>415.8571428571429</ele><time>2026-04-25T13:46:23.422Z</time></trkpt><trkpt lat="46.0972868" lon="12.0214407"><ele>416.2857142857143</ele><time>2026-04-25T13:46:24.418Z</time></trkpt><trkpt lat="46.0973053" lon="12.0215361"><ele>416.7142857142857</ele><time>2026-04-25T13:46:25.419Z</time></trkpt><trkpt lat="46.0973221" lon="12.0216297"><ele>417.1428571428571</ele><time>2026-04-25T13:46:26.419Z</time></trkpt><trkpt lat="46.0973401" lon="12.0217249"><ele>417.57142857142856</ele><time>2026-04-25T13:46:27.424Z</time></trkpt><trkpt lat="46.0973593" lon="12.0218154"><ele>418.0</ele><time>2026-04-25T13:46:28.421Z</time></trkpt><trkpt lat="46.0973971" lon="12.0219869"><ele>418.33333333333337</ele><time>2026-04-25T13:46:30.419Z</time></trkpt><trkpt lat="46.0974271" lon="12.0221604"><ele>418.6666666666667</ele><time>2026-04-25T13:46:32.421Z</time></trkpt><trkpt lat="46.0974386" lon="12.022251"><ele>419.0</ele><time>2026-04-25T13:46:33.419Z</time></trkpt><trkpt lat="46.097457" lon="12.0224288"><ele>419.33333333333337</ele><time>2026-04-25T13:46:35.421Z</time></trkpt><trkpt lat="46.0974639" lon="12.0225192"><ele>419.6666666666667</ele><time>2026-04-25T13:46:36.427Z</time></trkpt><trkpt lat="46.0974739" lon="12.0226113"><ele>420.0</ele><time>2026-04-25T13:46:37.421Z</time></trkpt><trkpt lat="46.0974925" lon="12.0227808"><ele>420.25</ele><time>2026-04-25T13:46:39.42Z</time></trkpt><trkpt lat="46.0975042" lon="12.0229492"><ele>420.5</ele><time>2026-04-25T13:46:41.423Z</time></trkpt><trkpt lat="46.0975188" lon="12.0231061"><ele>420.75</ele><time>2026-04-25T13:46:43.427Z</time></trkpt><trkpt lat="46.0975095" lon="12.0232663"><ele>421.0</ele><time>2026-04-25T13:46:45.42Z</time></trkpt><trkpt lat="46.0974328" lon="12.0233821"><ele>421.00000000000006</ele><time>2026-04-25T13:46:47.423Z</time></trkpt><trkpt lat="46.0973341" lon="12.0233688"><ele>421.0</ele><time>2026-04-25T13:46:49.422Z</time></trkpt><trkpt lat="46.0972554" lon="12.0233253"><ele>421.0</ele><time>2026-04-25T13:46:51.421Z</time></trkpt><trkpt lat="46.0971884" lon="12.0233547"><ele>421.0</ele><time>2026-04-25T13:46:54.423Z</time></trkpt><trkpt lat="46.0972338" lon="12.0234432"><ele>421.00000000000006</ele><time>2026-04-25T13:46:57.423Z</time></trkpt><trkpt lat="46.0973157" lon="12.0235111"><ele>421.0</ele><time>2026-04-25T13:47:00.418Z</time></trkpt><trkpt lat="46.0973734" lon="12.0235563"><ele>421.1666666666667</ele><time>2026-04-25T13:47:02.422Z</time></trkpt><trkpt lat="46.0974286" lon="12.0236089"><ele>421.33333333333337</ele><time>2026-04-25T13:47:04.426Z</time></trkpt><trkpt lat="46.0974824" lon="12.0236595"><ele>421.5</ele><time>2026-04-25T13:47:06.422Z</time></trkpt><trkpt lat="46.0975403" lon="12.0236982"><ele>421.66666666666663</ele><time>2026-04-25T13:47:08.421Z</time></trkpt><trkpt lat="46.0976189" lon="12.023757"><ele>421.8333333333333</ele><time>2026-04-25T13:47:11.42Z</time></trkpt><trkpt lat="46.0976766" lon="12.0238568"><ele>422.0</ele><time>2026-04-25T13:47:14.422Z</time></trkpt><trkpt lat="46.0977106" lon="12.023984"><ele>421.99999999999994</ele><time>2026-04-25T13:47:17.423Z</time></trkpt><trkpt lat="46.0977202" lon="12.0240955"><ele>422.0</ele><time>2026-04-25T13:47:19.426Z</time></trkpt><trkpt lat="46.0977256" lon="12.0242095"><ele>422.0</ele><time>2026-04-25T13:47:21.428Z</time></trkpt><trkpt lat="46.0977351" lon="12.0243183"><ele>422.0</ele><time>2026-04-25T13:47:23.424Z</time></trkpt><trkpt lat="46.097757" lon="12.0244215"><ele>421.99999999999994</ele><time>2026-04-25T13:47:25.42Z</time></trkpt><trkpt lat="46.0977958" lon="12.0245184"><ele>422.0</ele><time>2026-04-25T13:47:27.427Z</time></trkpt><trkpt lat="46.0978424" lon="12.0246081"><ele>421.99999999999994</ele><time>2026-04-25T13:47:29.427Z</time></trkpt><trkpt lat="46.0978904" lon="12.0247039"><ele>422.0</ele><time>2026-04-25T13:47:31.425Z</time></trkpt><trkpt lat="46.0979339" lon="12.0248082"><ele>422.0</ele><time>2026-04-25T13:47:33.426Z</time></trkpt><trkpt lat="46.0979751" lon="12.0249183"><ele>422.0</ele><time>2026-04-25T13:47:35.426Z</time></trkpt><trkpt lat="46.0980153" lon="12.0250297"><ele>421.99999999999994</ele><time>2026-04-25T13:47:37.424Z</time></trkpt><trkpt lat="46.0980528" lon="12.025141"><ele>422.0</ele><time>2026-04-25T13:47:39.426Z</time></trkpt><trkpt lat="46.0980877" lon="12.0252556"><ele>421.66666666666663</ele><time>2026-04-25T13:47:41.423Z</time></trkpt><trkpt lat="46.0981227" lon="12.0253704"><ele>421.3333333333333</ele><time>2026-04-25T13:47:43.425Z</time></trkpt><trkpt lat="46.0981574" lon="12.0254857"><ele>421.0</ele><time>2026-04-25T13:47:45.426Z</time></trkpt><trkpt lat="46.0981878" lon="12.0256017"><ele>420.66666666666663</ele><time>2026-04-25T13:47:47.43Z</time></trkpt><trkpt lat="46.0982145" lon="12.0257252"><ele>420.3333333333333</ele><time>2026-04-25T13:47:49.426Z</time></trkpt><trkpt lat="46.0982487" lon="12.0258481"><ele>420.0</ele><time>2026-04-25T13:47:51.433Z</time></trkpt><trkpt lat="46.0982757" lon="12.0259737"><ele>422.0</ele><time>2026-04-25T13:47:53.436Z</time></trkpt><trkpt lat="46.098302" lon="12.0260913"><ele>424.0</ele><time>2026-04-25T13:47:55.422Z</time></trkpt><trkpt lat="46.0983169" lon="12.026211"><ele>426.0</ele><time>2026-04-25T13:47:57.422Z</time></trkpt><trkpt lat="46.0983264" lon="12.0263326"><ele>428.0</ele><time>2026-04-25T13:47:59.436Z</time></trkpt><trkpt lat="46.0983397" lon="12.0264553"><ele>430.0</ele><time>2026-04-25T13:48:01.422Z</time></trkpt><trkpt lat="46.0983539" lon="12.0265785"><ele>432.0</ele><time>2026-04-25T13:48:03.423Z</time></trkpt><trkpt lat="46.098367" lon="12.0267033"><ele>432.0</ele><time>2026-04-25T13:48:05.429Z</time></trkpt><trkpt lat="46.0983835" lon="12.0268397"><ele>432.00000000000006</ele><time>2026-04-25T13:48:07.424Z</time></trkpt><trkpt lat="46.0984083" lon="12.0269908"><ele>432.00000000000006</ele><time>2026-04-25T13:48:09.435Z</time></trkpt><trkpt lat="46.0984399" lon="12.0271442"><ele>432.0</ele><time>2026-04-25T13:48:11.423Z</time></trkpt><trkpt lat="46.0984748" lon="12.027298"><ele>432.0</ele><time>2026-04-25T13:48:13.424Z</time></trkpt><trkpt lat="46.0985029" lon="12.0274566"><ele>431.20000000000005</ele><time>2026-04-25T13:48:15.42Z</time></trkpt><trkpt lat="46.0985128" lon="12.02763"><ele>430.40000000000003</ele><time>2026-04-25T13:48:17.425Z</time></trkpt><trkpt lat="46.0985157" lon="12.0277911"><ele>429.59999999999997</ele><time>2026-04-25T13:48:19.423Z</time></trkpt><trkpt lat="46.0985265" lon="12.0279712"><ele>428.79999999999995</ele><time>2026-04-25T13:48:21.429Z</time></trkpt><trkpt lat="46.0985311" lon="12.0280663"><ele>428.0</ele><time>2026-04-25T13:48:22.432Z</time></trkpt><trkpt lat="46.0985362" lon="12.0281648"><ele>427.99999999999994</ele><time>2026-04-25T13:48:23.426Z</time></trkpt><trkpt lat="46.0985403" lon="12.0282802"><ele>428.0</ele><time>2026-04-25T13:48:24.433Z</time></trkpt><trkpt lat="46.0985486" lon="12.0283902"><ele>428.0</ele><time>2026-04-25T13:48:25.435Z</time></trkpt><trkpt lat="46.0985692" lon="12.0285009"><ele>428.0</ele><time>2026-04-25T13:48:26.435Z</time></trkpt><trkpt lat="46.0985972" lon="12.0286115"><ele>427.99999999999994</ele><time>2026-04-25T13:48:27.434Z</time></trkpt><trkpt lat="46.0986187" lon="12.0287134"><ele>428.0</ele><time>2026-04-25T13:48:28.425Z</time></trkpt><trkpt lat="46.0986296" lon="12.0288083"><ele>428.0</ele><time>2026-04-25T13:48:29.422Z</time></trkpt><trkpt lat="46.0986211" lon="12.0289026"><ele>427.99999999999994</ele><time>2026-04-25T13:48:30.43Z</time></trkpt><trkpt lat="46.0985463" lon="12.0290351"><ele>427.99999999999994</ele><time>2026-04-25T13:48:32.422Z</time></trkpt><trkpt lat="46.098436" lon="12.0291028"><ele>428.0</ele><time>2026-04-25T13:48:34.421Z</time></trkpt><trkpt lat="46.0983229" lon="12.0291382"><ele>428.0</ele><time>2026-04-25T13:48:36.429Z</time></trkpt><trkpt lat="46.0982086" lon="12.0291566"><ele>427.99999999999994</ele><time>2026-04-25T13:48:38.423Z</time></trkpt><trkpt lat="46.0981031" lon="12.0291719"><ele>428.0</ele><time>2026-04-25T13:48:40.422Z</time></trkpt><trkpt lat="46.0980066" lon="12.0291848"><ele>428.0</ele><time>2026-04-25T13:48:42.425Z</time></trkpt><trkpt lat="46.0979289" lon="12.0292522"><ele>428.0</ele><time>2026-04-25T13:48:44.424Z</time></trkpt><trkpt lat="46.0978763" lon="12.029334"><ele>427.99999999999994</ele><time>2026-04-25T13:48:46.426Z</time></trkpt><trkpt lat="46.0978251" lon="12.02941"><ele>428.0</ele><time>2026-04-25T13:48:48.431Z</time></trkpt><trkpt lat="46.0977736" lon="12.0294881"><ele>427.99999999999994</ele><time>2026-04-25T13:48:50.431Z</time></trkpt><trkpt lat="46.0977191" lon="12.0295685"><ele>428.0</ele><time>2026-04-25T13:48:52.432Z</time></trkpt><trkpt lat="46.09766" lon="12.0296559"><ele>428.0</ele><time>2026-04-25T13:48:54.425Z</time></trkpt><trkpt lat="46.0976048" lon="12.029743"><ele>428.0</ele><time>2026-04-25T13:48:56.434Z</time></trkpt><trkpt lat="46.0975505" lon="12.0298339"><ele>427.99999999999994</ele><time>2026-04-25T13:48:58.432Z</time></trkpt><trkpt lat="46.0975088" lon="12.0299297"><ele>428.0</ele><time>2026-04-25T13:49:00.433Z</time></trkpt><trkpt lat="46.0974814" lon="12.0300285"><ele>428.14285714285717</ele><time>2026-04-25T13:49:02.425Z</time></trkpt><trkpt lat="46.0974653" lon="12.0301288"><ele>428.2857142857143</ele><time>2026-04-25T13:49:04.431Z</time></trkpt><trkpt lat="46.0974679" lon="12.0302474"><ele>428.42857142857144</ele><time>2026-04-25T13:49:06.42Z</time></trkpt><trkpt lat="46.0974866" lon="12.0303601"><ele>428.57142857142856</ele><time>2026-04-25T13:49:08.435Z</time></trkpt><trkpt lat="46.0975042" lon="12.0304625"><ele>428.7142857142857</ele><time>2026-04-25T13:49:10.423Z</time></trkpt><trkpt lat="46.0975149" lon="12.0305556"><ele>428.8571428571429</ele><time>2026-04-25T13:49:12.425Z</time></trkpt><trkpt lat="46.0975223" lon="12.0306506"><ele>429.0</ele><time>2026-04-25T13:49:14.422Z</time></trkpt><trkpt lat="46.0975301" lon="12.0307531"><ele>429.8333333333333</ele><time>2026-04-25T13:49:16.421Z</time></trkpt><trkpt lat="46.0975312" lon="12.0308547"><ele>430.66666666666663</ele><time>2026-04-25T13:49:18.424Z</time></trkpt><trkpt lat="46.0975169" lon="12.0309641"><ele>431.5</ele><time>2026-04-25T13:49:20.422Z</time></trkpt><trkpt lat="46.0974979" lon="12.0310871"><ele>432.3333333333333</ele><time>2026-04-25T13:49:22.422Z</time></trkpt><trkpt lat="46.0974813" lon="12.0312123"><ele>433.16666666666663</ele><time>2026-04-25T13:49:24.422Z</time></trkpt><trkpt lat="46.0974783" lon="12.0313361"><ele>434.0</ele><time>2026-04-25T13:49:26.421Z</time></trkpt><trkpt lat="46.0974964" lon="12.0314607"><ele>433.99999999999994</ele><time>2026-04-25T13:49:28.42Z</time></trkpt><trkpt lat="46.0975181" lon="12.031581"><ele>434.0</ele><time>2026-04-25T13:49:30.423Z</time></trkpt><trkpt lat="46.0975387" lon="12.0316964"><ele>434.0</ele><time>2026-04-25T13:49:32.419Z</time></trkpt><trkpt lat="46.0975632" lon="12.0318108"><ele>434.0</ele><time>2026-04-25T13:49:34.423Z</time></trkpt><trkpt lat="46.0975865" lon="12.0319262"><ele>433.99999999999994</ele><time>2026-04-25T13:49:36.421Z</time></trkpt><trkpt lat="46.0976008" lon="12.0320419"><ele>434.0</ele><time>2026-04-25T13:49:38.424Z</time></trkpt><trkpt lat="46.0976151" lon="12.0321517"><ele>434.16666666666663</ele><time>2026-04-25T13:49:40.423Z</time></trkpt><trkpt lat="46.0976277" lon="12.0322469"><ele>434.3333333333333</ele><time>2026-04-25T13:49:42.437Z</time></trkpt><trkpt lat="46.0976378" lon="12.032348"><ele>434.5</ele><time>2026-04-25T13:49:44.432Z</time></trkpt><trkpt lat="46.0976515" lon="12.0324538"><ele>434.66666666666663</ele><time>2026-04-25T13:49:46.433Z</time></trkpt><trkpt lat="46.0976681" lon="12.0325613"><ele>434.8333333333333</ele><time>2026-04-25T13:49:48.429Z</time></trkpt><trkpt lat="46.0976889" lon="12.0326751"><ele>435.0</ele><time>2026-04-25T13:49:50.432Z</time></trkpt><trkpt lat="46.0977106" lon="12.0327984"><ele>434.2</ele><time>2026-04-25T13:49:52.423Z</time></trkpt><trkpt lat="46.0977356" lon="12.0329331"><ele>433.4</ele><time>2026-04-25T13:49:54.423Z</time></trkpt><trkpt lat="46.0977792" lon="12.0330854"><ele>432.6</ele><time>2026-04-25T13:49:56.428Z</time></trkpt><trkpt lat="46.0978304" lon="12.0332535"><ele>431.8</ele><time>2026-04-25T13:49:58.424Z</time></trkpt><trkpt lat="46.0978569" lon="12.0333386"><ele>431.0</ele><time>2026-04-25T13:49:59.434Z</time></trkpt><trkpt lat="46.0978771" lon="12.0334295"><ele>430.20000000000005</ele><time>2026-04-25T13:50:00.434Z</time></trkpt><trkpt lat="46.0978937" lon="12.0335199"><ele>429.40000000000003</ele><time>2026-04-25T13:50:01.423Z</time></trkpt><trkpt lat="46.0979275" lon="12.0336855"><ele>428.6</ele><time>2026-04-25T13:50:03.425Z</time></trkpt><trkpt lat="46.0979494" lon="12.0337712"><ele>427.8</ele><time>2026-04-25T13:50:04.431Z</time></trkpt><trkpt lat="46.0979812" lon="12.0339326"><ele>427.0</ele><time>2026-04-25T13:50:06.433Z</time></trkpt><trkpt lat="46.0980084" lon="12.0340812"><ele>426.0</ele><time>2026-04-25T13:50:08.419Z</time></trkpt><trkpt lat="46.0980425" lon="12.0342283"><ele>425.00000000000006</ele><time>2026-04-25T13:50:10.424Z</time></trkpt><trkpt lat="46.0980791" lon="12.0343666"><ele>424.0</ele><time>2026-04-25T13:50:12.433Z</time></trkpt><trkpt lat="46.0981069" lon="12.0344818"><ele>423.0</ele><time>2026-04-25T13:50:14.424Z</time></trkpt><trkpt lat="46.0981434" lon="12.0345788"><ele>422.0</ele><time>2026-04-25T13:50:16.431Z</time></trkpt><trkpt lat="46.0981859" lon="12.0346973"><ele>421.99999999999994</ele><time>2026-04-25T13:50:18.43Z</time></trkpt><trkpt lat="46.0982257" lon="12.0348132"><ele>422.0</ele><time>2026-04-25T13:50:20.434Z</time></trkpt><trkpt lat="46.0982787" lon="12.0349191"><ele>422.0</ele><time>2026-04-25T13:50:22.432Z</time></trkpt><trkpt lat="46.0983141" lon="12.0350138"><ele>422.0</ele><time>2026-04-25T13:50:24.431Z</time></trkpt><trkpt lat="46.0983511" lon="12.035123"><ele>421.99999999999994</ele><time>2026-04-25T13:50:26.431Z</time></trkpt><trkpt lat="46.0983839" lon="12.0352251"><ele>422.0</ele><time>2026-04-25T13:50:28.435Z</time></trkpt><trkpt lat="46.0984249" lon="12.0353262"><ele>426.6</ele><time>2026-04-25T13:50:30.434Z</time></trkpt><trkpt lat="46.0984696" lon="12.0354308"><ele>431.20000000000005</ele><time>2026-04-25T13:50:32.425Z</time></trkpt><trkpt lat="46.0985289" lon="12.0355227"><ele>435.8</ele><time>2026-04-25T13:50:34.419Z</time></trkpt><trkpt lat="46.0986222" lon="12.0355758"><ele>440.4</ele><time>2026-04-25T13:50:36.441Z</time></trkpt><trkpt lat="46.0987091" lon="12.0356208"><ele>445.0</ele><time>2026-04-25T13:50:38.435Z</time></trkpt><trkpt lat="46.09881" lon="12.0356641"><ele>445.0</ele><time>2026-04-25T13:50:40.435Z</time></trkpt><trkpt lat="46.0989137" lon="12.0357153"><ele>445.0</ele><time>2026-04-25T13:50:42.426Z</time></trkpt><trkpt lat="46.0990121" lon="12.035783"><ele>445.0</ele><time>2026-04-25T13:50:44.434Z</time></trkpt><trkpt lat="46.0990987" lon="12.0358766"><ele>445.0</ele><time>2026-04-25T13:50:46.433Z</time></trkpt><trkpt lat="46.0991884" lon="12.0359657"><ele>445.0</ele><time>2026-04-25T13:50:48.434Z</time></trkpt><trkpt lat="46.0992761" lon="12.0360684"><ele>444.2</ele><time>2026-04-25T13:50:50.426Z</time></trkpt><trkpt lat="46.0993621" lon="12.0361585"><ele>443.4</ele><time>2026-04-25T13:50:52.42Z</time></trkpt><trkpt lat="46.0994336" lon="12.0362749"><ele>442.6</ele><time>2026-04-25T13:50:54.43Z</time></trkpt><trkpt lat="46.0994954" lon="12.0363993"><ele>441.8</ele><time>2026-04-25T13:50:56.436Z</time></trkpt><trkpt lat="46.099547" lon="12.0365244"><ele>441.0</ele><time>2026-04-25T13:50:58.423Z</time></trkpt><trkpt lat="46.0995873" lon="12.036665"><ele>441.0</ele><time>2026-04-25T13:51:00.43Z</time></trkpt><trkpt lat="46.0996361" lon="12.0367892"><ele>441.0</ele><time>2026-04-25T13:51:02.427Z</time></trkpt><trkpt lat="46.099698" lon="12.0369041"><ele>441.0</ele><time>2026-04-25T13:51:04.423Z</time></trkpt><trkpt lat="46.099772" lon="12.0369936"><ele>441.0</ele><time>2026-04-25T13:51:06.423Z</time></trkpt><trkpt lat="46.0998517" lon="12.0370873"><ele>441.0</ele><time>2026-04-25T13:51:08.431Z</time></trkpt><trkpt lat="46.0999391" lon="12.0371831"><ele>442.0</ele><time>2026-04-25T13:51:10.434Z</time></trkpt><trkpt lat="46.1000366" lon="12.0372888"><ele>443.0</ele><time>2026-04-25T13:51:12.435Z</time></trkpt><trkpt lat="46.1000878" lon="12.0373446"><ele>444.0</ele><time>2026-04-25T13:51:13.434Z</time></trkpt><trkpt lat="46.1001359" lon="12.0374034"><ele>445.0</ele><time>2026-04-25T13:51:14.421Z</time></trkpt><trkpt lat="46.1002251" lon="12.0375298"><ele>446.0</ele><time>2026-04-25T13:51:16.435Z</time></trkpt><trkpt lat="46.1002711" lon="12.037596"><ele>447.0</ele><time>2026-04-25T13:51:17.423Z</time></trkpt><trkpt lat="46.100318" lon="12.037668"><ele>447.0</ele><time>2026-04-25T13:51:18.425Z</time></trkpt><trkpt lat="46.1003673" lon="12.0377386"><ele>447.00000000000006</ele><time>2026-04-25T13:51:19.427Z</time></trkpt><trkpt lat="46.1004205" lon="12.0378187"><ele>447.00000000000006</ele><time>2026-04-25T13:51:20.433Z</time></trkpt><trkpt lat="46.100473" lon="12.0378985"><ele>447.0</ele><time>2026-04-25T13:51:21.425Z</time></trkpt><trkpt lat="46.1005288" lon="12.0379839"><ele>447.0</ele><time>2026-04-25T13:51:22.423Z</time></trkpt><trkpt lat="46.1006364" lon="12.0381542"><ele>447.0</ele><time>2026-04-25T13:51:24.435Z</time></trkpt><trkpt lat="46.1006854" lon="12.0382335"><ele>447.0</ele><time>2026-04-25T13:51:25.436Z</time></trkpt><trkpt lat="46.1007373" lon="12.0383092"><ele>447.0</ele><time>2026-04-25T13:51:26.435Z</time></trkpt><trkpt lat="46.1008076" lon="12.0383598"><ele>447.0</ele><time>2026-04-25T13:51:27.434Z</time></trkpt><trkpt lat="46.1008786" lon="12.0383922"><ele>447.0</ele><time>2026-04-25T13:51:28.426Z</time></trkpt><trkpt lat="46.100941" lon="12.0384297"><ele>447.0</ele><time>2026-04-25T13:51:29.431Z</time></trkpt><trkpt lat="46.1010222" lon="12.0384894"><ele>446.6666666666667</ele><time>2026-04-25T13:51:30.425Z</time></trkpt><trkpt lat="46.1010815" lon="12.0385646"><ele>446.33333333333337</ele><time>2026-04-25T13:51:31.436Z</time></trkpt><trkpt lat="46.1011324" lon="12.038654"><ele>446.0</ele><time>2026-04-25T13:51:32.427Z</time></trkpt><trkpt lat="46.1011825" lon="12.0387382"><ele>445.6666666666667</ele><time>2026-04-25T13:51:33.428Z</time></trkpt><trkpt lat="46.1012141" lon="12.0388421"><ele>445.33333333333337</ele><time>2026-04-25T13:51:34.433Z</time></trkpt><trkpt lat="46.1012438" lon="12.0389418"><ele>445.0</ele><time>2026-04-25T13:51:35.423Z</time></trkpt><trkpt lat="46.1012692" lon="12.0390524"><ele>442.50000000000006</ele><time>2026-04-25T13:51:36.431Z</time></trkpt><trkpt lat="46.1013042" lon="12.0391595"><ele>440.0</ele><time>2026-04-25T13:51:37.423Z</time></trkpt><trkpt lat="46.1013512" lon="12.0392615"><ele>437.5</ele><time>2026-04-25T13:51:38.428Z</time></trkpt><trkpt lat="46.1013985" lon="12.0393649"><ele>435.0</ele><time>2026-04-25T13:51:39.425Z</time></trkpt><trkpt lat="46.1014481" lon="12.0394627"><ele>432.50000000000006</ele><time>2026-04-25T13:51:40.428Z</time></trkpt><trkpt lat="46.1014981" lon="12.0395586"><ele>430.0</ele><time>2026-04-25T13:51:41.432Z</time></trkpt><trkpt lat="46.1015256" lon="12.0396638"><ele>430.00000000000006</ele><time>2026-04-25T13:51:42.424Z</time></trkpt><trkpt lat="46.1015488" lon="12.0397593"><ele>430.0</ele><time>2026-04-25T13:51:43.433Z</time></trkpt><trkpt lat="46.101552" lon="12.0398579"><ele>430.0</ele><time>2026-04-25T13:51:44.43Z</time></trkpt><trkpt lat="46.1015436" lon="12.0399517"><ele>430.0</ele><time>2026-04-25T13:51:45.425Z</time></trkpt><trkpt lat="46.101533" lon="12.0400425"><ele>430.00000000000006</ele><time>2026-04-25T13:51:46.434Z</time></trkpt><trkpt lat="46.1014937" lon="12.0402103"><ele>430.0</ele><time>2026-04-25T13:51:48.434Z</time></trkpt><trkpt lat="46.1014456" lon="12.040372"><ele>427.8</ele><time>2026-04-25T13:51:50.435Z</time></trkpt><trkpt lat="46.1014253" lon="12.0404609"><ele>425.6</ele><time>2026-04-25T13:51:51.435Z</time></trkpt><trkpt lat="46.1013906" lon="12.0406277"><ele>423.4</ele><time>2026-04-25T13:51:53.436Z</time></trkpt><trkpt lat="46.101365" lon="12.0407881"><ele>421.2</ele><time>2026-04-25T13:51:55.429Z</time></trkpt><trkpt lat="46.10134" lon="12.0409373"><ele>419.0</ele><time>2026-04-25T13:51:57.434Z</time></trkpt><trkpt lat="46.1012822" lon="12.04109"><ele>418.2</ele><time>2026-04-25T13:51:59.435Z</time></trkpt><trkpt lat="46.1011893" lon="12.041158"><ele>417.4</ele><time>2026-04-25T13:52:01.425Z</time></trkpt><trkpt lat="46.1010968" lon="12.0411711"><ele>416.6</ele><time>2026-04-25T13:52:03.428Z</time></trkpt><trkpt lat="46.1010064" lon="12.0412142"><ele>415.8</ele><time>2026-04-25T13:52:05.436Z</time></trkpt><trkpt lat="46.1009478" lon="12.0413099"><ele>415.0</ele><time>2026-04-25T13:52:07.426Z</time></trkpt><trkpt lat="46.1009305" lon="12.041457"><ele>415.0</ele><time>2026-04-25T13:52:09.435Z</time></trkpt><trkpt lat="46.100926" lon="12.041617"><ele>415.0</ele><time>2026-04-25T13:52:11.426Z</time></trkpt><trkpt lat="46.1009187" lon="12.0417735"><ele>415.0</ele><time>2026-04-25T13:52:13.434Z</time></trkpt><trkpt lat="46.1009063" lon="12.0419293"><ele>415.0</ele><time>2026-04-25T13:52:15.435Z</time></trkpt><trkpt lat="46.1008958" lon="12.0420885"><ele>415.0</ele><time>2026-04-25T13:52:17.445Z</time></trkpt><trkpt lat="46.1009081" lon="12.0422578"><ele>415.00000000000006</ele><time>2026-04-25T13:52:19.424Z</time></trkpt><trkpt lat="46.1009314" lon="12.0423443"><ele>415.0</ele><time>2026-04-25T13:52:20.433Z</time></trkpt><trkpt lat="46.1009752" lon="12.0424914"><ele>415.0</ele><time>2026-04-25T13:52:22.431Z</time></trkpt><trkpt lat="46.1009719" lon="12.042621"><ele>415.0</ele><time>2026-04-25T13:52:24.43Z</time></trkpt><trkpt lat="46.1009173" lon="12.0426976"><ele>415.00000000000006</ele><time>2026-04-25T13:52:26.421Z</time></trkpt><trkpt lat="46.1008782" lon="12.0427755"><ele>415.0</ele><time>2026-04-25T13:52:28.434Z</time></trkpt><trkpt lat="46.1008958" lon="12.0428921"><ele>413.6666666666667</ele><time>2026-04-25T13:52:30.427Z</time></trkpt><trkpt lat="46.1009392" lon="12.0430146"><ele>412.33333333333337</ele><time>2026-04-25T13:52:32.435Z</time></trkpt><trkpt lat="46.100987" lon="12.0431218"><ele>411.0</ele><time>2026-04-25T13:52:34.424Z</time></trkpt><trkpt lat="46.1010196" lon="12.0432105"><ele>409.66666666666663</ele><time>2026-04-25T13:52:36.424Z</time></trkpt><trkpt lat="46.1010531" lon="12.0432964"><ele>408.3333333333333</ele><time>2026-04-25T13:52:39.435Z</time></trkpt><trkpt lat="46.1010073" lon="12.0431975"><ele>407.0</ele><time>2026-04-25T13:52:44.425Z</time></trkpt><trkpt lat="46.1009734" lon="12.0431141"><ele>407.0</ele><time>2026-04-25T13:52:46.433Z</time></trkpt><trkpt lat="46.1009309" lon="12.0430219"><ele>407.0</ele><time>2026-04-25T13:52:48.434Z</time></trkpt><trkpt lat="46.1008549" lon="12.0430741"><ele>407.0</ele><time>2026-04-25T13:52:50.424Z</time></trkpt><trkpt lat="46.1007869" lon="12.0431678"><ele>407.0</ele><time>2026-04-25T13:52:52.434Z</time></trkpt><trkpt lat="46.1007156" lon="12.0432793"><ele>407.0</ele><time>2026-04-25T13:52:54.424Z</time></trkpt><trkpt lat="46.1006357" lon="12.043406"><ele>404.28571428571433</ele><time>2026-04-25T13:52:56.434Z</time></trkpt><trkpt lat="46.1005915" lon="12.0434802"><ele>401.57142857142856</ele><time>2026-04-25T13:52:57.421Z</time></trkpt><trkpt lat="46.1005456" lon="12.0435463"><ele>398.8571428571429</ele><time>2026-04-25T13:52:58.431Z</time></trkpt><trkpt lat="46.1004932" lon="12.0435975"><ele>396.14285714285717</ele><time>2026-04-25T13:52:59.431Z</time></trkpt><trkpt lat="46.1004342" lon="12.0436308"><ele>393.42857142857144</ele><time>2026-04-25T13:53:00.428Z</time></trkpt><trkpt lat="46.10037" lon="12.0436497"><ele>390.7142857142857</ele><time>2026-04-25T13:53:01.422Z</time></trkpt><trkpt lat="46.1003026" lon="12.0436411"><ele>388.0</ele><time>2026-04-25T13:53:02.431Z</time></trkpt><trkpt lat="46.100193" lon="12.0435551"><ele>388.0</ele><time>2026-04-25T13:53:04.434Z</time></trkpt><trkpt lat="46.1001451" lon="12.0434934"><ele>388.0</ele><time>2026-04-25T13:53:05.428Z</time></trkpt><trkpt lat="46.1000971" lon="12.0434291"><ele>388.0</ele><time>2026-04-25T13:53:06.433Z</time></trkpt><trkpt lat="46.1000485" lon="12.0433619"><ele>388.0</ele><time>2026-04-25T13:53:07.427Z</time></trkpt><trkpt lat="46.1000021" lon="12.0432958"><ele>388.0</ele><time>2026-04-25T13:53:08.43Z</time></trkpt><trkpt lat="46.0999532" lon="12.0432281"><ele>388.0</ele><time>2026-04-25T13:53:09.417Z</time></trkpt><trkpt lat="46.0998958" lon="12.0431693"><ele>388.0</ele><time>2026-04-25T13:53:10.432Z</time></trkpt><trkpt lat="46.0998414" lon="12.0431163"><ele>387.0</ele><time>2026-04-25T13:53:11.433Z</time></trkpt><trkpt lat="46.0997844" lon="12.0430669"><ele>386.0</ele><time>2026-04-25T13:53:12.431Z</time></trkpt><trkpt lat="46.0997277" lon="12.0430205"><ele>385.0</ele><time>2026-04-25T13:53:13.434Z</time></trkpt><trkpt lat="46.0996671" lon="12.0429801"><ele>384.0</ele><time>2026-04-25T13:53:14.431Z</time></trkpt><trkpt lat="46.0996062" lon="12.0429377"><ele>383.0</ele><time>2026-04-25T13:53:15.421Z</time></trkpt><trkpt lat="46.0995437" lon="12.042902"><ele>382.0</ele><time>2026-04-25T13:53:16.421Z</time></trkpt><trkpt lat="46.0994826" lon="12.0428762"><ele>381.0</ele><time>2026-04-25T13:53:17.433Z</time></trkpt><trkpt lat="46.099419" lon="12.0429015"><ele>381.0</ele><time>2026-04-25T13:53:18.431Z</time></trkpt><trkpt lat="46.0993537" lon="12.0429338"><ele>381.0</ele><time>2026-04-25T13:53:19.432Z</time></trkpt><trkpt lat="46.099288" lon="12.042981"><ele>381.0</ele><time>2026-04-25T13:53:20.432Z</time></trkpt><trkpt lat="46.0992153" lon="12.0430226"><ele>381.0</ele><time>2026-04-25T13:53:21.432Z</time></trkpt><trkpt lat="46.0991367" lon="12.0430573"><ele>381.0</ele><time>2026-04-25T13:53:22.43Z</time></trkpt><trkpt lat="46.0990524" lon="12.0430799"><ele>381.0</ele><time>2026-04-25T13:53:23.426Z</time></trkpt><trkpt lat="46.0989665" lon="12.0431069"><ele>380.5</ele><time>2026-04-25T13:53:24.421Z</time></trkpt><trkpt lat="46.0988837" lon="12.0431526"><ele>380.0</ele><time>2026-04-25T13:53:25.433Z</time></trkpt><trkpt lat="46.0988017" lon="12.0432104"><ele>379.5</ele><time>2026-04-25T13:53:26.431Z</time></trkpt><trkpt lat="46.0987266" lon="12.0432664"><ele>379.0</ele><time>2026-04-25T13:53:27.423Z</time></trkpt><trkpt lat="46.0986464" lon="12.0433221"><ele>378.5</ele><time>2026-04-25T13:53:28.433Z</time></trkpt><trkpt lat="46.0985661" lon="12.0433608"><ele>378.0</ele><time>2026-04-25T13:53:29.433Z</time></trkpt><trkpt lat="46.098478" lon="12.0433922"><ele>377.0</ele><time>2026-04-25T13:53:30.422Z</time></trkpt><trkpt lat="46.0983816" lon="12.0434076"><ele>376.0</ele><time>2026-04-25T13:53:31.432Z</time></trkpt><trkpt lat="46.0982829" lon="12.0434314"><ele>375.0</ele><time>2026-04-25T13:53:32.432Z</time></trkpt><trkpt lat="46.0981791" lon="12.0434751"><ele>374.0</ele><time>2026-04-25T13:53:33.425Z</time></trkpt><trkpt lat="46.0980788" lon="12.0435433"><ele>373.0</ele><time>2026-04-25T13:53:34.432Z</time></trkpt><trkpt lat="46.0979806" lon="12.0436276"><ele>371.2</ele><time>2026-04-25T13:53:35.432Z</time></trkpt><trkpt lat="46.0978779" lon="12.0436987"><ele>369.4</ele><time>2026-04-25T13:53:36.421Z</time></trkpt><trkpt lat="46.0977729" lon="12.0437745"><ele>367.59999999999997</ele><time>2026-04-25T13:53:37.431Z</time></trkpt><trkpt lat="46.097669" lon="12.0438444"><ele>365.79999999999995</ele><time>2026-04-25T13:53:38.431Z</time></trkpt><trkpt lat="46.0975763" lon="12.0439018"><ele>364.0</ele><time>2026-04-25T13:53:39.422Z</time></trkpt><trkpt lat="46.0974907" lon="12.0439586"><ele>362.66666666666663</ele><time>2026-04-25T13:53:40.425Z</time></trkpt><trkpt lat="46.0974175" lon="12.0440061"><ele>361.3333333333333</ele><time>2026-04-25T13:53:41.431Z</time></trkpt><trkpt lat="46.0973552" lon="12.0440707"><ele>360.0</ele><time>2026-04-25T13:53:42.431Z</time></trkpt><trkpt lat="46.0973137" lon="12.0441483"><ele>358.6666666666667</ele><time>2026-04-25T13:53:43.429Z</time></trkpt><trkpt lat="46.0972932" lon="12.0442399"><ele>357.33333333333337</ele><time>2026-04-25T13:53:44.424Z</time></trkpt><trkpt lat="46.0973255" lon="12.0443951"><ele>356.0</ele><time>2026-04-25T13:53:46.432Z</time></trkpt><trkpt lat="46.0974031" lon="12.0445248"><ele>356.1666666666667</ele><time>2026-04-25T13:53:48.432Z</time></trkpt><trkpt lat="46.0974493" lon="12.0445969"><ele>356.33333333333337</ele><time>2026-04-25T13:53:49.433Z</time></trkpt><trkpt lat="46.097496" lon="12.0446629"><ele>356.5</ele><time>2026-04-25T13:53:50.432Z</time></trkpt><trkpt lat="46.0975432" lon="12.0447342"><ele>356.6666666666667</ele><time>2026-04-25T13:53:51.431Z</time></trkpt><trkpt lat="46.097593" lon="12.0448098"><ele>356.8333333333333</ele><time>2026-04-25T13:53:52.424Z</time></trkpt><trkpt lat="46.0976683" lon="12.044948"><ele>357.0</ele><time>2026-04-25T13:53:54.432Z</time></trkpt><trkpt lat="46.0976493" lon="12.0451164"><ele>357.0</ele><time>2026-04-25T13:53:56.434Z</time></trkpt><trkpt lat="46.0975904" lon="12.0452393"><ele>357.0</ele><time>2026-04-25T13:53:58.444Z</time></trkpt><trkpt lat="46.0975365" lon="12.0452916"><ele>357.0</ele><time>2026-04-25T13:54:05.432Z</time></trkpt><trkpt lat="46.0975706" lon="12.0453766"><ele>357.0</ele><time>2026-04-25T13:54:21.431Z</time></trkpt><trkpt lat="46.097621" lon="12.0454773"><ele>357.0</ele><time>2026-04-25T13:54:26.435Z</time></trkpt><trkpt lat="46.0976614" lon="12.0455621"><ele>357.0</ele><time>2026-04-25T13:54:28.434Z</time></trkpt><trkpt lat="46.0976979" lon="12.0456664"><ele>357.0</ele><time>2026-04-25T13:54:30.431Z</time></trkpt><trkpt lat="46.0977348" lon="12.0457695"><ele>357.0</ele><time>2026-04-25T13:54:32.433Z</time></trkpt><trkpt lat="46.0977171" lon="12.045642"><ele>357.0</ele><time>2026-04-25T13:54:46.431Z</time></trkpt><trkpt lat="46.0976683" lon="12.0455307"><ele>357.0</ele><time>2026-04-25T13:54:49.432Z</time></trkpt><trkpt lat="46.0976254" lon="12.0454409"><ele>357.0</ele><time>2026-04-25T13:54:52.431Z</time></trkpt><trkpt lat="46.0976985" lon="12.0454135"><ele>357.0</ele><time>2026-04-25T13:54:58.432Z</time></trkpt><trkpt lat="46.0978154" lon="12.0454269"><ele>357.0</ele><time>2026-04-25T13:55:00.431Z</time></trkpt><trkpt lat="46.0978846" lon="12.0454373"><ele>357.0</ele><time>2026-04-25T13:55:01.421Z</time></trkpt><trkpt lat="46.0979879" lon="12.0454794"><ele>357.0</ele><time>2026-04-25T13:55:03.424Z</time></trkpt><trkpt lat="46.0980298" lon="12.0455557"><ele>357.0</ele><time>2026-04-25T13:55:05.432Z</time></trkpt><trkpt lat="46.098075" lon="12.0456607"><ele>357.0</ele><time>2026-04-25T13:55:07.425Z</time></trkpt><trkpt lat="46.0981286" lon="12.0457838"><ele>357.0</ele><time>2026-04-25T13:55:09.435Z</time></trkpt><trkpt lat="46.098169" lon="12.0459252"><ele>356.8</ele><time>2026-04-25T13:55:11.431Z</time></trkpt><trkpt lat="46.0982013" lon="12.04605"><ele>356.6</ele><time>2026-04-25T13:55:13.434Z</time></trkpt><trkpt lat="46.0982495" lon="12.0461779"><ele>356.40000000000003</ele><time>2026-04-25T13:55:15.425Z</time></trkpt><trkpt lat="46.0983546" lon="12.0462522"><ele>356.20000000000005</ele><time>2026-04-25T13:55:17.438Z</time></trkpt><trkpt lat="46.0984327" lon="12.0463427"><ele>356.0</ele><time>2026-04-25T13:55:19.423Z</time></trkpt><trkpt lat="46.0984793" lon="12.0464538"><ele>355.6</ele><time>2026-04-25T13:55:21.432Z</time></trkpt><trkpt lat="46.0984685" lon="12.0465818"><ele>355.20000000000005</ele><time>2026-04-25T13:55:23.432Z</time></trkpt><trkpt lat="46.0984684" lon="12.0467164"><ele>354.79999999999995</ele><time>2026-04-25T13:55:25.433Z</time></trkpt><trkpt lat="46.0984554" lon="12.0468564"><ele>354.4</ele><time>2026-04-25T13:55:27.418Z</time></trkpt><trkpt lat="46.0984465" lon="12.0470108"><ele>354.0</ele><time>2026-04-25T13:55:29.428Z</time></trkpt><trkpt lat="46.0984352" lon="12.047188"><ele>354.0</ele><time>2026-04-25T13:55:31.433Z</time></trkpt><trkpt lat="46.0984288" lon="12.0472816"><ele>354.0</ele><time>2026-04-25T13:55:32.432Z</time></trkpt><trkpt lat="46.0984019" lon="12.047405"><ele>354.0</ele><time>2026-04-25T13:55:33.433Z</time></trkpt><trkpt lat="46.0983704" lon="12.0475104"><ele>354.0</ele><time>2026-04-25T13:55:34.421Z</time></trkpt><trkpt lat="46.098346" lon="12.0476099"><ele>354.0</ele><time>2026-04-25T13:55:35.422Z</time></trkpt><trkpt lat="46.0983298" lon="12.0477132"><ele>354.0</ele><time>2026-04-25T13:55:36.422Z</time></trkpt><trkpt lat="46.0983521" lon="12.0478334"><ele>353.0</ele><time>2026-04-25T13:55:38.419Z</time></trkpt><trkpt lat="46.0983716" lon="12.0479506"><ele>352.0</ele><time>2026-04-25T13:55:53.432Z</time></trkpt><trkpt lat="46.0984361" lon="12.0479078"><ele>351.0</ele><time>2026-04-25T13:55:55.428Z</time></trkpt><trkpt lat="46.0984998" lon="12.0478325"><ele>350.0</ele><time>2026-04-25T13:55:57.432Z</time></trkpt><trkpt lat="46.0985476" lon="12.0477584"><ele>349.0</ele><time>2026-04-25T13:55:59.442Z</time></trkpt><trkpt lat="46.0985746" lon="12.0476716"><ele>348.0</ele><time>2026-04-25T13:56:03.43Z</time></trkpt><trkpt lat="46.0985853" lon="12.0475801"><ele>347.0</ele><time>2026-04-25T13:56:12.432Z</time></trkpt><trkpt lat="46.098647" lon="12.0475341"><ele>347.0</ele><time>2026-04-25T13:56:29.419Z</time></trkpt><trkpt lat="46.0987156" lon="12.0475579"><ele>347.0</ele><time>2026-04-25T13:56:46.42Z</time></trkpt><trkpt lat="46.098786" lon="12.0475612"><ele>347.0</ele><time>2026-04-25T13:56:51.419Z</time></trkpt><trkpt lat="46.0988517" lon="12.0475817"><ele>347.0</ele><time>2026-04-25T13:56:55.421Z</time></trkpt><trkpt lat="46.0989255" lon="12.0476214"><ele>347.0</ele><time>2026-04-25T13:57:00.42Z</time></trkpt><trkpt lat="46.0989719" lon="12.0477186"><ele>347.0</ele><time>2026-04-25T13:57:03.421Z</time></trkpt><trkpt lat="46.0989975" lon="12.0478094"><ele>347.0</ele><time>2026-04-25T13:57:05.421Z</time></trkpt><trkpt lat="46.0990059" lon="12.0479634"><ele>347.0</ele><time>2026-04-25T13:57:07.418Z</time></trkpt><trkpt lat="46.0990041" lon="12.0481306"><ele>347.0</ele><time>2026-04-25T13:57:09.42Z</time></trkpt><trkpt lat="46.0990257" lon="12.0483035"><ele>347.0</ele><time>2026-04-25T13:57:11.423Z</time></trkpt><trkpt lat="46.0990419" lon="12.0483996"><ele>347.0</ele><time>2026-04-25T13:57:12.423Z</time></trkpt><trkpt lat="46.0990938" lon="12.0485615"><ele>347.0</ele><time>2026-04-25T13:57:14.421Z</time></trkpt><trkpt lat="46.0991398" lon="12.0487204"><ele>346.8571428571429</ele><time>2026-04-25T13:57:16.423Z</time></trkpt><trkpt lat="46.0991688" lon="12.048807"><ele>346.71428571428567</ele><time>2026-04-25T13:57:17.421Z</time></trkpt><trkpt lat="46.0991828" lon="12.0489145"><ele>346.57142857142856</ele><time>2026-04-25T13:57:18.431Z</time></trkpt><trkpt lat="46.0992041" lon="12.0490103"><ele>346.42857142857144</ele><time>2026-04-25T13:57:19.432Z</time></trkpt><trkpt lat="46.0992271" lon="12.0491053"><ele>346.28571428571433</ele><time>2026-04-25T13:57:20.431Z</time></trkpt><trkpt lat="46.0992489" lon="12.0491935"><ele>346.1428571428571</ele><time>2026-04-25T13:57:21.422Z</time></trkpt><trkpt lat="46.0992737" lon="12.0492951"><ele>346.0</ele><time>2026-04-25T13:57:22.423Z</time></trkpt><trkpt lat="46.0992936" lon="12.049396"><ele>345.4</ele><time>2026-04-25T13:57:23.419Z</time></trkpt><trkpt lat="46.0993128" lon="12.0494864"><ele>344.8</ele><time>2026-04-25T13:57:24.419Z</time></trkpt><trkpt lat="46.0993379" lon="12.0496646"><ele>344.2</ele><time>2026-04-25T13:57:26.42Z</time></trkpt><trkpt lat="46.0993508" lon="12.0498273"><ele>343.59999999999997</ele><time>2026-04-25T13:57:28.419Z</time></trkpt><trkpt lat="46.0993414" lon="12.0499803"><ele>343.0</ele><time>2026-04-25T13:57:30.423Z</time></trkpt><trkpt lat="46.0993395" lon="12.0501252"><ele>342.3333333333333</ele><time>2026-04-25T13:57:32.423Z</time></trkpt><trkpt lat="46.0993509" lon="12.0502489"><ele>341.66666666666663</ele><time>2026-04-25T13:57:34.418Z</time></trkpt><trkpt lat="46.0993682" lon="12.0503602"><ele>341.0</ele><time>2026-04-25T13:57:36.424Z</time></trkpt><trkpt lat="46.0993648" lon="12.05049"><ele>340.3333333333333</ele><time>2026-04-25T13:57:38.42Z</time></trkpt><trkpt lat="46.0993796" lon="12.0506118"><ele>339.6666666666667</ele><time>2026-04-25T13:57:40.418Z</time></trkpt><trkpt lat="46.0993888" lon="12.0507526"><ele>339.0</ele><time>2026-04-25T13:57:42.421Z</time></trkpt><trkpt lat="46.0993959" lon="12.0508551"><ele>338.0</ele><time>2026-04-25T13:57:44.418Z</time></trkpt><trkpt lat="46.0993907" lon="12.0510058"><ele>337.0</ele><time>2026-04-25T13:57:47.419Z</time></trkpt><trkpt lat="46.0993837" lon="12.0511021"><ele>336.0</ele><time>2026-04-25T13:57:48.422Z</time></trkpt><trkpt lat="46.0993888" lon="12.0512831"><ele>335.0</ele><time>2026-04-25T13:57:50.42Z</time></trkpt><trkpt lat="46.0994108" lon="12.0514503"><ele>334.0</ele><time>2026-04-25T13:57:52.417Z</time></trkpt><trkpt lat="46.0994176" lon="12.0515458"><ele>333.2857142857143</ele><time>2026-04-25T13:57:53.423Z</time></trkpt><trkpt lat="46.0994296" lon="12.0516382"><ele>332.57142857142856</ele><time>2026-04-25T13:57:54.421Z</time></trkpt><trkpt lat="46.099442" lon="12.0517362"><ele>331.8571428571429</ele><time>2026-04-25T13:57:55.419Z</time></trkpt><trkpt lat="46.0994601" lon="12.0518314"><ele>331.1428571428571</ele><time>2026-04-25T13:57:56.419Z</time></trkpt><trkpt lat="46.0994775" lon="12.0519278"><ele>330.42857142857144</ele><time>2026-04-25T13:57:57.422Z</time></trkpt><trkpt lat="46.0995041" lon="12.0520305"><ele>329.7142857142857</ele><time>2026-04-25T13:57:58.428Z</time></trkpt><trkpt lat="46.0995243" lon="12.0521355"><ele>329.0</ele><time>2026-04-25T13:57:59.423Z</time></trkpt><trkpt lat="46.0995411" lon="12.0522336"><ele>329.0</ele><time>2026-04-25T13:58:00.422Z</time></trkpt><trkpt lat="46.0995708" lon="12.0523704"><ele>329.0</ele><time>2026-04-25T13:58:02.421Z</time></trkpt><trkpt lat="46.0995958" lon="12.0525276"><ele>329.0</ele><time>2026-04-25T13:58:04.423Z</time></trkpt><trkpt lat="46.0996453" lon="12.0526356"><ele>329.0</ele><time>2026-04-25T13:58:06.419Z</time></trkpt><trkpt lat="46.0996852" lon="12.0527138"><ele>329.0</ele><time>2026-04-25T13:58:08.42Z</time></trkpt><trkpt lat="46.0997566" lon="12.0528218"><ele>328.2</ele><time>2026-04-25T13:58:11.421Z</time></trkpt><trkpt lat="46.0998152" lon="12.0529232"><ele>327.4</ele><time>2026-04-25T13:58:13.423Z</time></trkpt><trkpt lat="46.0998914" lon="12.0530399"><ele>326.6</ele><time>2026-04-25T13:58:15.419Z</time></trkpt><trkpt lat="46.0999352" lon="12.0531485"><ele>325.8</ele><time>2026-04-25T13:58:17.42Z</time></trkpt><trkpt lat="46.0999744" lon="12.0532781"><ele>325.0</ele><time>2026-04-25T13:58:19.431Z</time></trkpt><trkpt lat="46.1000171" lon="12.0533965"><ele>323.2</ele><time>2026-04-25T13:58:21.433Z</time></trkpt><trkpt lat="46.1000457" lon="12.0535541"><ele>321.4</ele><time>2026-04-25T13:58:23.423Z</time></trkpt><trkpt lat="46.1000792" lon="12.0536898"><ele>319.6</ele><time>2026-04-25T13:58:25.432Z</time></trkpt><trkpt lat="46.100107" lon="12.0538195"><ele>317.8</ele><time>2026-04-25T13:58:27.431Z</time></trkpt><trkpt lat="46.1001556" lon="12.0539479"><ele>316.0</ele><time>2026-04-25T13:58:29.422Z</time></trkpt><trkpt lat="46.100161" lon="12.0540623"><ele>315.6</ele><time>2026-04-25T13:58:31.423Z</time></trkpt><trkpt lat="46.1002056" lon="12.0541989"><ele>315.20000000000005</ele><time>2026-04-25T13:58:33.429Z</time></trkpt><trkpt lat="46.1002519" lon="12.0543165"><ele>314.79999999999995</ele><time>2026-04-25T13:58:35.426Z</time></trkpt><trkpt lat="46.100287" lon="12.0544337"><ele>314.4</ele><time>2026-04-25T13:58:37.422Z</time></trkpt><trkpt lat="46.100328" lon="12.0545665"><ele>314.0</ele><time>2026-04-25T13:58:39.432Z</time></trkpt><trkpt lat="46.100374" lon="12.0546828"><ele>314.0</ele><time>2026-04-25T13:58:41.428Z</time></trkpt><trkpt lat="46.1004161" lon="12.0547912"><ele>314.0</ele><time>2026-04-25T13:58:43.42Z</time></trkpt><trkpt lat="46.1004511" lon="12.0549044"><ele>314.0</ele><time>2026-04-25T13:58:45.424Z</time></trkpt><trkpt lat="46.1004939" lon="12.05502"><ele>314.0</ele><time>2026-04-25T13:58:47.424Z</time></trkpt><trkpt lat="46.1005369" lon="12.0551244"><ele>314.0</ele><time>2026-04-25T13:58:49.432Z</time></trkpt><trkpt lat="46.1005789" lon="12.0552172"><ele>314.0</ele><time>2026-04-25T13:58:51.429Z</time></trkpt><trkpt lat="46.1006178" lon="12.0553366"><ele>313.5</ele><time>2026-04-25T13:58:54.421Z</time></trkpt><trkpt lat="46.1006113" lon="12.05543"><ele>313.0</ele><time>2026-04-25T13:58:56.422Z</time></trkpt><trkpt lat="46.1005472" lon="12.0555308"><ele>312.5</ele><time>2026-04-25T13:58:58.419Z</time></trkpt><trkpt lat="46.1004908" lon="12.0556324"><ele>312.0</ele><time>2026-04-25T13:59:00.419Z</time></trkpt><trkpt lat="46.1004339" lon="12.055745"><ele>311.5</ele><time>2026-04-25T13:59:02.422Z</time></trkpt><trkpt lat="46.100372" lon="12.0558365"><ele>311.0</ele><time>2026-04-25T13:59:04.423Z</time></trkpt><trkpt lat="46.1003138" lon="12.0559224"><ele>310.6</ele><time>2026-04-25T13:59:06.433Z</time></trkpt><trkpt lat="46.1002508" lon="12.0560343"><ele>310.20000000000005</ele><time>2026-04-25T13:59:08.434Z</time></trkpt><trkpt lat="46.1001755" lon="12.0561288"><ele>309.79999999999995</ele><time>2026-04-25T13:59:10.431Z</time></trkpt><trkpt lat="46.1001089" lon="12.0562692"><ele>309.4</ele><time>2026-04-25T13:59:12.432Z</time></trkpt><trkpt lat="46.1000503" lon="12.0564002"><ele>309.0</ele><time>2026-04-25T13:59:14.432Z</time></trkpt><trkpt lat="46.1000105" lon="12.0565201"><ele>308.8333333333333</ele><time>2026-04-25T13:59:16.43Z</time></trkpt><trkpt lat="46.0999859" lon="12.056638"><ele>308.6666666666667</ele><time>2026-04-25T13:59:18.414Z</time></trkpt><trkpt lat="46.0999631" lon="12.0567339"><ele>308.5</ele><time>2026-04-25T13:59:20.433Z</time></trkpt><trkpt lat="46.0999857" lon="12.0568271"><ele>308.33333333333337</ele><time>2026-04-25T13:59:22.424Z</time></trkpt><trkpt lat="46.1000327" lon="12.0568903"><ele>308.1666666666667</ele><time>2026-04-25T13:59:24.431Z</time></trkpt><trkpt lat="46.1001137" lon="12.0569313"><ele>308.0</ele><time>2026-04-25T13:59:26.419Z</time></trkpt><trkpt lat="46.1002116" lon="12.0569464"><ele>308.0</ele><time>2026-04-25T13:59:28.432Z</time></trkpt><trkpt lat="46.1003153" lon="12.05696"><ele>308.0</ele><time>2026-04-25T13:59:30.433Z</time></trkpt><trkpt lat="46.100425" lon="12.0569773"><ele>308.0</ele><time>2026-04-25T13:59:32.423Z</time></trkpt><trkpt lat="46.1005352" lon="12.0570097"><ele>308.0</ele><time>2026-04-25T13:59:34.429Z</time></trkpt><trkpt lat="46.1006482" lon="12.0570513"><ele>308.0</ele><time>2026-04-25T13:59:36.432Z</time></trkpt><trkpt lat="46.1007554" lon="12.057105"><ele>308.0</ele><time>2026-04-25T13:59:38.431Z</time></trkpt><trkpt lat="46.100856" lon="12.0571789"><ele>308.0</ele><time>2026-04-25T13:59:40.433Z</time></trkpt><trkpt lat="46.1009528" lon="12.0572717"><ele>308.0</ele><time>2026-04-25T13:59:42.421Z</time></trkpt><trkpt lat="46.1010476" lon="12.0573729"><ele>308.0</ele><time>2026-04-25T13:59:44.432Z</time></trkpt><trkpt lat="46.1011295" lon="12.0574946"><ele>308.0</ele><time>2026-04-25T13:59:46.432Z</time></trkpt><trkpt lat="46.10117" lon="12.0575651"><ele>308.0</ele><time>2026-04-25T13:59:47.434Z</time></trkpt><trkpt lat="46.1012448" lon="12.057714"><ele>308.0</ele><time>2026-04-25T13:59:49.438Z</time></trkpt><trkpt lat="46.101281" lon="12.0577906"><ele>308.0</ele><time>2026-04-25T13:59:50.43Z</time></trkpt><trkpt lat="46.1013116" lon="12.0578736"><ele>308.0</ele><time>2026-04-25T13:59:51.427Z</time></trkpt><trkpt lat="46.1013398" lon="12.0579637"><ele>308.0</ele><time>2026-04-25T13:59:52.432Z</time></trkpt><trkpt lat="46.1013679" lon="12.0580473"><ele>308.0</ele><time>2026-04-25T13:59:53.431Z</time></trkpt><trkpt lat="46.1013908" lon="12.0581337"><ele>308.0</ele><time>2026-04-25T13:59:54.432Z</time></trkpt><trkpt lat="46.1014143" lon="12.0582182"><ele>308.0</ele><time>2026-04-25T13:59:55.432Z</time></trkpt><trkpt lat="46.101436" lon="12.0583074"><ele>308.0</ele><time>2026-04-25T13:59:56.431Z</time></trkpt><trkpt lat="46.1014849" lon="12.0584781"><ele>308.0</ele><time>2026-04-25T13:59:58.429Z</time></trkpt><trkpt lat="46.101509" lon="12.0585664"><ele>308.0</ele><time>2026-04-25T13:59:59.426Z</time></trkpt><trkpt lat="46.1015309" lon="12.0586527"><ele>307.7142857142857</ele><time>2026-04-25T14:00:00.421Z</time></trkpt><trkpt lat="46.1015535" lon="12.058738"><ele>307.42857142857144</ele><time>2026-04-25T14:00:01.432Z</time></trkpt><trkpt lat="46.1015752" lon="12.0588276"><ele>307.1428571428571</ele><time>2026-04-25T14:00:02.432Z</time></trkpt><trkpt lat="46.1015994" lon="12.0589124"><ele>306.8571428571429</ele><time>2026-04-25T14:00:03.433Z</time></trkpt><trkpt lat="46.1016257" lon="12.0590003"><ele>306.57142857142856</ele><time>2026-04-25T14:00:04.415Z</time></trkpt><trkpt lat="46.1016514" lon="12.0590845"><ele>306.2857142857143</ele><time>2026-04-25T14:00:05.42Z</time></trkpt><trkpt lat="46.1016837" lon="12.0591638"><ele>306.0</ele><time>2026-04-25T14:00:06.425Z</time></trkpt><trkpt lat="46.1017222" lon="12.0592405"><ele>306.57142857142856</ele><time>2026-04-25T14:00:07.432Z</time></trkpt><trkpt lat="46.1017653" lon="12.0593079"><ele>307.14285714285717</ele><time>2026-04-25T14:00:08.431Z</time></trkpt><trkpt lat="46.101806" lon="12.0593833"><ele>307.7142857142857</ele><time>2026-04-25T14:00:09.431Z</time></trkpt><trkpt lat="46.1018494" lon="12.0594508"><ele>308.2857142857143</ele><time>2026-04-25T14:00:10.432Z</time></trkpt><trkpt lat="46.1018944" lon="12.0595217"><ele>308.85714285714283</ele><time>2026-04-25T14:00:11.43Z</time></trkpt><trkpt lat="46.1019392" lon="12.0595884"><ele>309.42857142857144</ele><time>2026-04-25T14:00:12.433Z</time></trkpt><trkpt lat="46.1019832" lon="12.0596555"><ele>310.0</ele><time>2026-04-25T14:00:13.423Z</time></trkpt><trkpt lat="46.1020287" lon="12.0597246"><ele>310.0</ele><time>2026-04-25T14:00:14.426Z</time></trkpt><trkpt lat="46.1021198" lon="12.0598571"><ele>310.0</ele><time>2026-04-25T14:00:16.431Z</time></trkpt><trkpt lat="46.1021703" lon="12.059921"><ele>310.0</ele><time>2026-04-25T14:00:17.431Z</time></trkpt><trkpt lat="46.1022184" lon="12.0599811"><ele>310.0</ele><time>2026-04-25T14:00:18.433Z</time></trkpt><trkpt lat="46.1022694" lon="12.0600398"><ele>310.0</ele><time>2026-04-25T14:00:19.423Z</time></trkpt><trkpt lat="46.1023662" lon="12.0601532"><ele>309.8</ele><time>2026-04-25T14:00:21.431Z</time></trkpt><trkpt lat="46.1024145" lon="12.0602116"><ele>309.6</ele><time>2026-04-25T14:00:22.42Z</time></trkpt><trkpt lat="46.1025063" lon="12.0603206"><ele>309.4</ele><time>2026-04-25T14:00:24.422Z</time></trkpt><trkpt lat="46.1025798" lon="12.0604467"><ele>309.2</ele><time>2026-04-25T14:00:26.42Z</time></trkpt><trkpt lat="46.1026481" lon="12.0605945"><ele>309.0</ele><time>2026-04-25T14:00:28.432Z</time></trkpt><trkpt lat="46.1026827" lon="12.0606712"><ele>309.2</ele><time>2026-04-25T14:00:29.429Z</time></trkpt><trkpt lat="46.1027535" lon="12.0608184"><ele>309.4</ele><time>2026-04-25T14:00:31.42Z</time></trkpt><trkpt lat="46.1028185" lon="12.0609683"><ele>309.6</ele><time>2026-04-25T14:00:33.419Z</time></trkpt><trkpt lat="46.1028835" lon="12.06112"><ele>309.8</ele><time>2026-04-25T14:00:35.417Z</time></trkpt><trkpt lat="46.1029184" lon="12.0611973"><ele>310.0</ele><time>2026-04-25T14:00:36.419Z</time></trkpt><trkpt lat="46.1029807" lon="12.0613479"><ele>310.0</ele><time>2026-04-25T14:00:38.433Z</time></trkpt><trkpt lat="46.1030126" lon="12.0614278"><ele>310.0</ele><time>2026-04-25T14:00:39.429Z</time></trkpt><trkpt lat="46.1030465" lon="12.0615071"><ele>310.0</ele><time>2026-04-25T14:00:40.426Z</time></trkpt><trkpt lat="46.1031154" lon="12.0616592"><ele>310.0</ele><time>2026-04-25T14:00:42.42Z</time></trkpt><trkpt lat="46.1031848" lon="12.0618051"><ele>310.0</ele><time>2026-04-25T14:00:44.424Z</time></trkpt><trkpt lat="46.1032592" lon="12.0619494"><ele>310.25</ele><time>2026-04-25T14:00:46.415Z</time></trkpt><trkpt lat="46.1033354" lon="12.0620872"><ele>310.5</ele><time>2026-04-25T14:00:48.421Z</time></trkpt><trkpt lat="46.1034111" lon="12.0622187"><ele>310.75</ele><time>2026-04-25T14:00:50.427Z</time></trkpt><trkpt lat="46.1034883" lon="12.0623594"><ele>311.0</ele><time>2026-04-25T14:00:52.436Z</time></trkpt><trkpt lat="46.1035763" lon="12.0624858"><ele>311.2</ele><time>2026-04-25T14:00:54.423Z</time></trkpt><trkpt lat="46.1036596" lon="12.0626081"><ele>311.40000000000003</ele><time>2026-04-25T14:00:56.423Z</time></trkpt><trkpt lat="46.1037478" lon="12.0627337"><ele>311.6</ele><time>2026-04-25T14:00:58.431Z</time></trkpt><trkpt lat="46.1038005" lon="12.0627862"><ele>311.8</ele><time>2026-04-25T14:00:59.431Z</time></trkpt><trkpt lat="46.1038498" lon="12.0628437"><ele>312.0</ele><time>2026-04-25T14:01:00.43Z</time></trkpt><trkpt lat="46.1039543" lon="12.0629477"><ele>312.0</ele><time>2026-04-25T14:01:02.434Z</time></trkpt><trkpt lat="46.1040504" lon="12.0630576"><ele>312.0</ele><time>2026-04-25T14:01:04.432Z</time></trkpt><trkpt lat="46.1041431" lon="12.0631697"><ele>312.0</ele><time>2026-04-25T14:01:06.431Z</time></trkpt><trkpt lat="46.1042108" lon="12.0633146"><ele>312.0</ele><time>2026-04-25T14:01:08.431Z</time></trkpt><trkpt lat="46.1042508" lon="12.0634677"><ele>312.4</ele><time>2026-04-25T14:01:10.422Z</time></trkpt><trkpt lat="46.1042664" lon="12.0636237"><ele>312.79999999999995</ele><time>2026-04-25T14:01:12.431Z</time></trkpt><trkpt lat="46.1042757" lon="12.0637891"><ele>313.2</ele><time>2026-04-25T14:01:14.419Z</time></trkpt><trkpt lat="46.1042808" lon="12.0639501"><ele>313.59999999999997</ele><time>2026-04-25T14:01:16.422Z</time></trkpt><trkpt lat="46.1042815" lon="12.0641061"><ele>314.0</ele><time>2026-04-25T14:01:18.431Z</time></trkpt><trkpt lat="46.1042597" lon="12.0642669"><ele>314.1666666666667</ele><time>2026-04-25T14:01:20.417Z</time></trkpt><trkpt lat="46.1041962" lon="12.0644082"><ele>314.33333333333337</ele><time>2026-04-25T14:01:22.42Z</time></trkpt><trkpt lat="46.104117" lon="12.0645514"><ele>314.5</ele><time>2026-04-25T14:01:24.42Z</time></trkpt><trkpt lat="46.1040761" lon="12.0646273"><ele>314.6666666666667</ele><time>2026-04-25T14:01:25.423Z</time></trkpt><trkpt lat="46.1040195" lon="12.064675"><ele>314.8333333333333</ele><time>2026-04-25T14:01:26.43Z</time></trkpt><trkpt lat="46.1039647" lon="12.0647255"><ele>315.0</ele><time>2026-04-25T14:01:27.424Z</time></trkpt><trkpt lat="46.103907" lon="12.0647781"><ele>314.4</ele><time>2026-04-25T14:01:28.424Z</time></trkpt><trkpt lat="46.1038487" lon="12.064829"><ele>313.8</ele><time>2026-04-25T14:01:29.435Z</time></trkpt><trkpt lat="46.1037323" lon="12.0649245"><ele>313.2</ele><time>2026-04-25T14:01:31.551Z</time></trkpt><trkpt lat="46.1036201" lon="12.0650137"><ele>312.6</ele><time>2026-04-25T14:01:33.434Z</time></trkpt><trkpt lat="46.1035311" lon="12.0651283"><ele>312.0</ele><time>2026-04-25T14:01:35.422Z</time></trkpt><trkpt lat="46.1034852" lon="12.0651977"><ele>312.0</ele><time>2026-04-25T14:01:36.433Z</time></trkpt><trkpt lat="46.1034009" lon="12.0653252"><ele>312.0</ele><time>2026-04-25T14:01:38.433Z</time></trkpt><trkpt lat="46.1033255" lon="12.065449"><ele>312.0</ele><time>2026-04-25T14:01:40.433Z</time></trkpt><trkpt lat="46.1032384" lon="12.0655672"><ele>312.0</ele><time>2026-04-25T14:01:42.429Z</time></trkpt><trkpt lat="46.10315" lon="12.0656764"><ele>311.6</ele><time>2026-04-25T14:01:44.423Z</time></trkpt><trkpt lat="46.1030533" lon="12.0657796"><ele>311.2</ele><time>2026-04-25T14:01:46.422Z</time></trkpt><trkpt lat="46.1029437" lon="12.0658574"><ele>310.8</ele><time>2026-04-25T14:01:48.434Z</time></trkpt><trkpt lat="46.1028821" lon="12.0658891"><ele>310.4</ele><time>2026-04-25T14:01:49.433Z</time></trkpt><trkpt lat="46.1027759" lon="12.0659619"><ele>310.0</ele><time>2026-04-25T14:01:51.423Z</time></trkpt><trkpt lat="46.1026636" lon="12.0660106"><ele>310.0</ele><time>2026-04-25T14:01:53.429Z</time></trkpt><trkpt lat="46.1025578" lon="12.0660467"><ele>310.0</ele><time>2026-04-25T14:01:55.43Z</time></trkpt><trkpt lat="46.1024409" lon="12.0660731"><ele>310.0</ele><time>2026-04-25T14:01:57.433Z</time></trkpt><trkpt lat="46.1023768" lon="12.0660936"><ele>310.0</ele><time>2026-04-25T14:01:58.432Z</time></trkpt><trkpt lat="46.1023135" lon="12.0660984"><ele>310.0</ele><time>2026-04-25T14:01:59.434Z</time></trkpt><trkpt lat="46.1021806" lon="12.0661122"><ele>310.0</ele><time>2026-04-25T14:02:01.435Z</time></trkpt><trkpt lat="46.1021118" lon="12.0661226"><ele>310.0</ele><time>2026-04-25T14:02:02.431Z</time></trkpt><trkpt lat="46.1020445" lon="12.0661308"><ele>310.0</ele><time>2026-04-25T14:02:03.432Z</time></trkpt><trkpt lat="46.1019756" lon="12.0661376"><ele>310.0</ele><time>2026-04-25T14:02:04.423Z</time></trkpt><trkpt lat="46.1019071" lon="12.0661543"><ele>310.0</ele><time>2026-04-25T14:02:05.424Z</time></trkpt><trkpt lat="46.1018355" lon="12.0661621"><ele>310.0</ele><time>2026-04-25T14:02:06.435Z</time></trkpt><trkpt lat="46.1017662" lon="12.0661659"><ele>310.0</ele><time>2026-04-25T14:02:07.431Z</time></trkpt><trkpt lat="46.1016962" lon="12.0661693"><ele>310.0</ele><time>2026-04-25T14:02:08.423Z</time></trkpt><trkpt lat="46.1016214" lon="12.0661693"><ele>310.0</ele><time>2026-04-25T14:02:09.439Z</time></trkpt><trkpt lat="46.1015527" lon="12.0661746"><ele>310.0</ele><time>2026-04-25T14:02:10.433Z</time></trkpt><trkpt lat="46.1014859" lon="12.0661774"><ele>310.0</ele><time>2026-04-25T14:02:11.431Z</time></trkpt><trkpt lat="46.1013542" lon="12.0661671"><ele>310.0</ele><time>2026-04-25T14:02:13.434Z</time></trkpt><trkpt lat="46.1012855" lon="12.0661698"><ele>310.0</ele><time>2026-04-25T14:02:14.43Z</time></trkpt><trkpt lat="46.1012221" lon="12.0661785"><ele>309.7142857142857</ele><time>2026-04-25T14:02:15.423Z</time></trkpt><trkpt lat="46.1011592" lon="12.0661826"><ele>309.42857142857144</ele><time>2026-04-25T14:02:16.432Z</time></trkpt><trkpt lat="46.1010916" lon="12.066185"><ele>309.1428571428571</ele><time>2026-04-25T14:02:17.431Z</time></trkpt><trkpt lat="46.1010253" lon="12.0661938"><ele>308.8571428571429</ele><time>2026-04-25T14:02:18.43Z</time></trkpt><trkpt lat="46.1009568" lon="12.0662059"><ele>308.57142857142856</ele><time>2026-04-25T14:02:19.434Z</time></trkpt><trkpt lat="46.1008873" lon="12.0662148"><ele>308.2857142857143</ele><time>2026-04-25T14:02:20.423Z</time></trkpt><trkpt lat="46.100819" lon="12.0662234"><ele>308.0</ele><time>2026-04-25T14:02:21.422Z</time></trkpt><trkpt lat="46.1007466" lon="12.0662338"><ele>307.85714285714283</ele><time>2026-04-25T14:02:22.431Z</time></trkpt><trkpt lat="46.1006748" lon="12.0662379"><ele>307.7142857142857</ele><time>2026-04-25T14:02:23.431Z</time></trkpt><trkpt lat="46.100604" lon="12.0662384"><ele>307.57142857142856</ele><time>2026-04-25T14:02:24.432Z</time></trkpt><trkpt lat="46.1005316" lon="12.0662492"><ele>307.42857142857144</ele><time>2026-04-25T14:02:25.42Z</time></trkpt><trkpt lat="46.1004634" lon="12.0662573"><ele>307.2857142857143</ele><time>2026-04-25T14:02:26.432Z</time></trkpt><trkpt lat="46.1003977" lon="12.0662641"><ele>307.1428571428571</ele><time>2026-04-25T14:02:27.43Z</time></trkpt><trkpt lat="46.1003339" lon="12.06627"><ele>307.0</ele><time>2026-04-25T14:02:28.427Z</time></trkpt><trkpt lat="46.1002132" lon="12.0662799"><ele>307.0</ele><time>2026-04-25T14:02:30.433Z</time></trkpt><trkpt lat="46.100099" lon="12.0662922"><ele>307.0</ele><time>2026-04-25T14:02:32.434Z</time></trkpt><trkpt lat="46.0999819" lon="12.0663155"><ele>307.0</ele><time>2026-04-25T14:02:34.422Z</time></trkpt><trkpt lat="46.0998641" lon="12.0663646"><ele>307.0</ele><time>2026-04-25T14:02:36.422Z</time></trkpt><trkpt lat="46.0998035" lon="12.0663892"><ele>307.0</ele><time>2026-04-25T14:02:37.421Z</time></trkpt><trkpt lat="46.0996902" lon="12.0664622"><ele>306.57142857142856</ele><time>2026-04-25T14:02:39.424Z</time></trkpt><trkpt lat="46.0995742" lon="12.0665253"><ele>306.1428571428571</ele><time>2026-04-25T14:02:41.429Z</time></trkpt><trkpt lat="46.0995109" lon="12.0665285"><ele>305.71428571428567</ele><time>2026-04-25T14:02:42.43Z</time></trkpt><trkpt lat="46.0994475" lon="12.0665447"><ele>305.2857142857143</ele><time>2026-04-25T14:02:43.43Z</time></trkpt><trkpt lat="46.0993893" lon="12.0665839"><ele>304.8571428571429</ele><time>2026-04-25T14:02:44.419Z</time></trkpt><trkpt lat="46.0993375" lon="12.0666441"><ele>304.4285714285714</ele><time>2026-04-25T14:02:45.421Z</time></trkpt><trkpt lat="46.0992894" lon="12.0667076"><ele>304.0</ele><time>2026-04-25T14:02:46.421Z</time></trkpt><trkpt lat="46.0991945" lon="12.0668181"><ele>303.59999999999997</ele><time>2026-04-25T14:02:48.431Z</time></trkpt><trkpt lat="46.0990832" lon="12.0668913"><ele>303.2</ele><time>2026-04-25T14:02:50.433Z</time></trkpt><trkpt lat="46.0989826" lon="12.0669799"><ele>302.79999999999995</ele><time>2026-04-25T14:02:52.432Z</time></trkpt><trkpt lat="46.0988875" lon="12.0671002"><ele>302.4</ele><time>2026-04-25T14:02:54.429Z</time></trkpt><trkpt lat="46.0988377" lon="12.0671703"><ele>302.0</ele><time>2026-04-25T14:02:55.433Z</time></trkpt><trkpt lat="46.0987901" lon="12.0672441"><ele>302.00000000000006</ele><time>2026-04-25T14:02:56.422Z</time></trkpt><trkpt lat="46.0987421" lon="12.0673203"><ele>302.0</ele><time>2026-04-25T14:02:57.432Z</time></trkpt><trkpt lat="46.0986905" lon="12.0673944"><ele>302.0</ele><time>2026-04-25T14:02:58.422Z</time></trkpt><trkpt lat="46.0986385" lon="12.0674606"><ele>302.0</ele><time>2026-04-25T14:02:59.426Z</time></trkpt><trkpt lat="46.0985894" lon="12.067529"><ele>302.0</ele><time>2026-04-25T14:03:00.422Z</time></trkpt><trkpt lat="46.0985391" lon="12.0675967"><ele>302.00000000000006</ele><time>2026-04-25T14:03:01.423Z</time></trkpt><trkpt lat="46.0984894" lon="12.0676639"><ele>302.0</ele><time>2026-04-25T14:03:02.432Z</time></trkpt><trkpt lat="46.0984381" lon="12.067728"><ele>302.00000000000006</ele><time>2026-04-25T14:03:03.43Z</time></trkpt><trkpt lat="46.0983894" lon="12.0677961"><ele>302.0</ele><time>2026-04-25T14:03:04.426Z</time></trkpt><trkpt lat="46.0983383" lon="12.0678634"><ele>302.0</ele><time>2026-04-25T14:03:05.432Z</time></trkpt><trkpt lat="46.0982894" lon="12.0679367"><ele>302.0</ele><time>2026-04-25T14:03:06.422Z</time></trkpt><trkpt lat="46.098237" lon="12.0680012"><ele>302.0</ele><time>2026-04-25T14:03:07.42Z</time></trkpt><trkpt lat="46.0981869" lon="12.0680704"><ele>302.00000000000006</ele><time>2026-04-25T14:03:08.42Z</time></trkpt><trkpt lat="46.0981376" lon="12.0681342"><ele>302.0</ele><time>2026-04-25T14:03:09.422Z</time></trkpt><trkpt lat="46.0980912" lon="12.0681966"><ele>302.00000000000006</ele><time>2026-04-25T14:03:10.423Z</time></trkpt><trkpt lat="46.0980444" lon="12.0682627"><ele>302.0</ele><time>2026-04-25T14:03:11.432Z</time></trkpt><trkpt lat="46.0979963" lon="12.0683264"><ele>302.0</ele><time>2026-04-25T14:03:12.43Z</time></trkpt><trkpt lat="46.0979492" lon="12.068391"><ele>302.0</ele><time>2026-04-25T14:03:13.431Z</time></trkpt><trkpt lat="46.0979018" lon="12.0684612"><ele>302.0</ele><time>2026-04-25T14:03:14.433Z</time></trkpt><trkpt lat="46.0978533" lon="12.0685267"><ele>302.00000000000006</ele><time>2026-04-25T14:03:15.431Z</time></trkpt><trkpt lat="46.0978057" lon="12.0685904"><ele>302.0</ele><time>2026-04-25T14:03:16.424Z</time></trkpt><trkpt lat="46.097758" lon="12.0686592"><ele>302.0</ele><time>2026-04-25T14:03:17.434Z</time></trkpt><trkpt lat="46.0977095" lon="12.0687237"><ele>302.0</ele><time>2026-04-25T14:03:18.431Z</time></trkpt><trkpt lat="46.097662" lon="12.0687894"><ele>302.0</ele><time>2026-04-25T14:03:19.431Z</time></trkpt><trkpt lat="46.0976153" lon="12.0688529"><ele>302.0</ele><time>2026-04-25T14:03:20.433Z</time></trkpt><trkpt lat="46.0975713" lon="12.0689179"><ele>302.0</ele><time>2026-04-25T14:03:21.553Z</time></trkpt><trkpt lat="46.0974859" lon="12.0690373"><ele>302.0</ele><time>2026-04-25T14:03:23.426Z</time></trkpt><trkpt lat="46.0974054" lon="12.0691607"><ele>301.75</ele><time>2026-04-25T14:03:25.424Z</time></trkpt><trkpt lat="46.0973246" lon="12.0692758"><ele>301.5</ele><time>2026-04-25T14:03:27.436Z</time></trkpt><trkpt lat="46.0972475" lon="12.0693922"><ele>301.25</ele><time>2026-04-25T14:03:29.431Z</time></trkpt><trkpt lat="46.0971668" lon="12.0695082"><ele>301.0</ele><time>2026-04-25T14:03:31.423Z</time></trkpt><trkpt lat="46.0970888" lon="12.0696272"><ele>301.0</ele><time>2026-04-25T14:03:33.426Z</time></trkpt><trkpt lat="46.0970089" lon="12.0697454"><ele>301.0</ele><time>2026-04-25T14:03:35.431Z</time></trkpt><trkpt lat="46.0969299" lon="12.0698656"><ele>301.0</ele><time>2026-04-25T14:03:37.423Z</time></trkpt><trkpt lat="46.0968479" lon="12.0699834"><ele>301.0</ele><time>2026-04-25T14:03:39.423Z</time></trkpt><trkpt lat="46.0967642" lon="12.0701047"><ele>300.6</ele><time>2026-04-25T14:03:41.43Z</time></trkpt><trkpt lat="46.0967172" lon="12.0702517"><ele>300.20000000000005</ele><time>2026-04-25T14:03:43.432Z</time></trkpt><trkpt lat="46.0966419" lon="12.0703708"><ele>299.79999999999995</ele><time>2026-04-25T14:03:45.433Z</time></trkpt><trkpt lat="46.0965635" lon="12.0704737"><ele>299.4</ele><time>2026-04-25T14:03:47.421Z</time></trkpt><trkpt lat="46.0965273" lon="12.0706147"><ele>299.0</ele><time>2026-04-25T14:03:49.431Z</time></trkpt><trkpt lat="46.0965189" lon="12.0707738"><ele>298.8</ele><time>2026-04-25T14:03:51.433Z</time></trkpt><trkpt lat="46.0965147" lon="12.0709308"><ele>298.59999999999997</ele><time>2026-04-25T14:03:53.432Z</time></trkpt><trkpt lat="46.0965641" lon="12.0710715"><ele>298.4</ele><time>2026-04-25T14:03:55.431Z</time></trkpt><trkpt lat="46.0966274" lon="12.0712008"><ele>298.2</ele><time>2026-04-25T14:03:57.431Z</time></trkpt><trkpt lat="46.0966986" lon="12.0713418"><ele>298.0</ele><time>2026-04-25T14:03:59.432Z</time></trkpt><trkpt lat="46.0967401" lon="12.0714169"><ele>298.0</ele><time>2026-04-25T14:04:00.432Z</time></trkpt><trkpt lat="46.0967795" lon="12.0714994"><ele>298.0</ele><time>2026-04-25T14:04:01.432Z</time></trkpt><trkpt lat="46.0968212" lon="12.0715764"><ele>298.0</ele><time>2026-04-25T14:04:02.433Z</time></trkpt><trkpt lat="46.0968582" lon="12.0716598"><ele>298.0</ele><time>2026-04-25T14:04:03.43Z</time></trkpt><trkpt lat="46.0968859" lon="12.0717434"><ele>298.0</ele><time>2026-04-25T14:04:04.427Z</time></trkpt><trkpt lat="46.0969406" lon="12.0718813"><ele>298.0</ele><time>2026-04-25T14:04:06.432Z</time></trkpt><trkpt lat="46.0969888" lon="12.072007"><ele>297.4</ele><time>2026-04-25T14:04:08.431Z</time></trkpt><trkpt lat="46.0970327" lon="12.0721493"><ele>296.8</ele><time>2026-04-25T14:04:10.422Z</time></trkpt><trkpt lat="46.0970786" lon="12.0723039"><ele>296.2</ele><time>2026-04-25T14:04:12.429Z</time></trkpt><trkpt lat="46.0971223" lon="12.0724735"><ele>295.6</ele><time>2026-04-25T14:04:14.431Z</time></trkpt><trkpt lat="46.0971429" lon="12.0725593"><ele>295.0</ele><time>2026-04-25T14:04:15.43Z</time></trkpt><trkpt lat="46.0971613" lon="12.0726468"><ele>294.75</ele><time>2026-04-25T14:04:16.432Z</time></trkpt><trkpt lat="46.0971916" lon="12.0728227"><ele>294.5</ele><time>2026-04-25T14:04:18.432Z</time></trkpt><trkpt lat="46.09721" lon="12.0729947"><ele>294.25</ele><time>2026-04-25T14:04:20.427Z</time></trkpt><trkpt lat="46.097206" lon="12.0731494"><ele>294.0</ele><time>2026-04-25T14:04:22.436Z</time></trkpt><trkpt lat="46.097213" lon="12.0733182"><ele>293.75</ele><time>2026-04-25T14:04:24.434Z</time></trkpt><trkpt lat="46.0972138" lon="12.0734808"><ele>293.5</ele><time>2026-04-25T14:04:26.434Z</time></trkpt><trkpt lat="46.0972125" lon="12.0736488"><ele>293.25</ele><time>2026-04-25T14:04:28.424Z</time></trkpt><trkpt lat="46.0972097" lon="12.0738174"><ele>293.0</ele><time>2026-04-25T14:04:30.425Z</time></trkpt><trkpt lat="46.0971943" lon="12.073976"><ele>292.8</ele><time>2026-04-25T14:04:32.433Z</time></trkpt><trkpt lat="46.097181" lon="12.0741382"><ele>292.6</ele><time>2026-04-25T14:04:34.424Z</time></trkpt><trkpt lat="46.097165" lon="12.074295"><ele>292.4</ele><time>2026-04-25T14:04:36.431Z</time></trkpt><trkpt lat="46.0971436" lon="12.0744555"><ele>292.2</ele><time>2026-04-25T14:04:38.426Z</time></trkpt><trkpt lat="46.0971213" lon="12.0746139"><ele>292.0</ele><time>2026-04-25T14:04:40.432Z</time></trkpt><trkpt lat="46.0971026" lon="12.0747692"><ele>292.0</ele><time>2026-04-25T14:04:42.428Z</time></trkpt><trkpt lat="46.0970817" lon="12.0749291"><ele>292.0</ele><time>2026-04-25T14:04:44.43Z</time></trkpt><trkpt lat="46.0970616" lon="12.0750898"><ele>292.0</ele><time>2026-04-25T14:04:46.423Z</time></trkpt><trkpt lat="46.0970396" lon="12.0752459"><ele>292.0</ele><time>2026-04-25T14:04:48.43Z</time></trkpt><trkpt lat="46.0970226" lon="12.0753989"><ele>292.0</ele><time>2026-04-25T14:04:50.431Z</time></trkpt><trkpt lat="46.0969861" lon="12.0756263"><ele>292.4</ele><time>2026-04-25T14:04:53.432Z</time></trkpt><trkpt lat="46.0969808" lon="12.0757761"><ele>292.79999999999995</ele><time>2026-04-25T14:04:55.433Z</time></trkpt><trkpt lat="46.096991" lon="12.0759227"><ele>293.2</ele><time>2026-04-25T14:04:57.424Z</time></trkpt><trkpt lat="46.0969969" lon="12.0760628"><ele>293.59999999999997</ele><time>2026-04-25T14:04:59.431Z</time></trkpt><trkpt lat="46.096992" lon="12.0761928"><ele>294.0</ele><time>2026-04-25T14:05:01.431Z</time></trkpt><trkpt lat="46.0969621" lon="12.076297"><ele>294.0</ele><time>2026-04-25T14:05:03.422Z</time></trkpt><trkpt lat="46.0968963" lon="12.0763343"><ele>294.0</ele><time>2026-04-25T14:05:05.425Z</time></trkpt><trkpt lat="46.0968405" lon="12.0763997"><ele>294.0</ele><time>2026-04-25T14:05:07.424Z</time></trkpt><trkpt lat="46.0968" lon="12.0764869"><ele>294.0</ele><time>2026-04-25T14:05:09.427Z</time></trkpt><trkpt lat="46.0967839" lon="12.0765928"><ele>294.0</ele><time>2026-04-25T14:05:11.424Z</time></trkpt><trkpt lat="46.0967656" lon="12.0767159"><ele>294.0</ele><time>2026-04-25T14:05:13.432Z</time></trkpt><trkpt lat="46.0967522" lon="12.0768561"><ele>294.4</ele><time>2026-04-25T14:05:15.431Z</time></trkpt><trkpt lat="46.0967297" lon="12.0769961"><ele>294.79999999999995</ele><time>2026-04-25T14:05:17.425Z</time></trkpt><trkpt lat="46.0967087" lon="12.0771417"><ele>295.20000000000005</ele><time>2026-04-25T14:05:19.432Z</time></trkpt><trkpt lat="46.0966857" lon="12.0772918"><ele>295.6</ele><time>2026-04-25T14:05:21.432Z</time></trkpt><trkpt lat="46.0966671" lon="12.0774478"><ele>296.0</ele><time>2026-04-25T14:05:23.431Z</time></trkpt><trkpt lat="46.09665" lon="12.0776082"><ele>296.0</ele><time>2026-04-25T14:05:25.426Z</time></trkpt><trkpt lat="46.0966278" lon="12.0777774"><ele>296.0</ele><time>2026-04-25T14:05:27.421Z</time></trkpt><trkpt lat="46.0966079" lon="12.0779404"><ele>296.0</ele><time>2026-04-25T14:05:29.433Z</time></trkpt><trkpt lat="46.096589" lon="12.0781034"><ele>296.0</ele><time>2026-04-25T14:05:31.433Z</time></trkpt><trkpt lat="46.0965662" lon="12.0782713"><ele>294.40000000000003</ele><time>2026-04-25T14:05:33.421Z</time></trkpt><trkpt lat="46.0965412" lon="12.0784431"><ele>292.8</ele><time>2026-04-25T14:05:35.432Z</time></trkpt><trkpt lat="46.0965304" lon="12.0785331"><ele>291.20000000000005</ele><time>2026-04-25T14:05:36.432Z</time></trkpt><trkpt lat="46.0965064" lon="12.0787122"><ele>289.6</ele><time>2026-04-25T14:05:38.432Z</time></trkpt><trkpt lat="46.0964861" lon="12.0788866"><ele>288.0</ele><time>2026-04-25T14:05:40.429Z</time></trkpt><trkpt lat="46.0964632" lon="12.0790618"><ele>288.25</ele><time>2026-04-25T14:05:42.429Z</time></trkpt><trkpt lat="46.0964419" lon="12.0792304"><ele>288.5</ele><time>2026-04-25T14:05:44.431Z</time></trkpt><trkpt lat="46.0964199" lon="12.0794052"><ele>288.75</ele><time>2026-04-25T14:05:46.42Z</time></trkpt><trkpt lat="46.0963999" lon="12.0795734"><ele>289.0</ele><time>2026-04-25T14:05:48.43Z</time></trkpt><trkpt lat="46.0963747" lon="12.0797463"><ele>289.0</ele><time>2026-04-25T14:05:50.431Z</time></trkpt><trkpt lat="46.0963536" lon="12.0799181"><ele>289.0</ele><time>2026-04-25T14:05:52.431Z</time></trkpt><trkpt lat="46.0963344" lon="12.0800927"><ele>289.0</ele><time>2026-04-25T14:05:54.432Z</time></trkpt><trkpt lat="46.0963131" lon="12.0802572"><ele>289.0</ele><time>2026-04-25T14:05:56.43Z</time></trkpt><trkpt lat="46.0962971" lon="12.080423"><ele>289.8</ele><time>2026-04-25T14:05:58.431Z</time></trkpt><trkpt lat="46.0962735" lon="12.080589"><ele>290.59999999999997</ele><time>2026-04-25T14:06:00.431Z</time></trkpt><trkpt lat="46.0962529" lon="12.0807555"><ele>291.4</ele><time>2026-04-25T14:06:02.431Z</time></trkpt><trkpt lat="46.0962339" lon="12.0809086"><ele>292.2</ele><time>2026-04-25T14:06:04.428Z</time></trkpt><trkpt lat="46.0962146" lon="12.0810481"><ele>293.0</ele><time>2026-04-25T14:06:06.429Z</time></trkpt><trkpt lat="46.0961979" lon="12.0811773"><ele>293.2</ele><time>2026-04-25T14:06:08.417Z</time></trkpt><trkpt lat="46.0961839" lon="12.0812974"><ele>293.4</ele><time>2026-04-25T14:06:10.429Z</time></trkpt><trkpt lat="46.0961756" lon="12.0814096"><ele>293.59999999999997</ele><time>2026-04-25T14:06:12.432Z</time></trkpt><trkpt lat="46.0962175" lon="12.0815067"><ele>293.8</ele><time>2026-04-25T14:06:14.433Z</time></trkpt><trkpt lat="46.0962941" lon="12.0815749"><ele>294.0</ele><time>2026-04-25T14:06:16.432Z</time></trkpt><trkpt lat="46.0964006" lon="12.0816471"><ele>294.0</ele><time>2026-04-25T14:06:18.43Z</time></trkpt><trkpt lat="46.0965044" lon="12.0817161"><ele>294.0</ele><time>2026-04-25T14:06:20.43Z</time></trkpt><trkpt lat="46.0966009" lon="12.0817743"><ele>294.0</ele><time>2026-04-25T14:06:22.433Z</time></trkpt><trkpt lat="46.0966942" lon="12.081827"><ele>294.0</ele><time>2026-04-25T14:06:24.436Z</time></trkpt><trkpt lat="46.0967789" lon="12.0818725"><ele>294.0</ele><time>2026-04-25T14:06:26.431Z</time></trkpt><trkpt lat="46.0967015" lon="12.0818875"><ele>294.0</ele><time>2026-04-25T14:07:56.431Z</time></trkpt><trkpt lat="46.096626" lon="12.0818507"><ele>294.0</ele><time>2026-04-25T14:07:58.433Z</time></trkpt><trkpt lat="46.0965348" lon="12.0818006"><ele>294.0</ele><time>2026-04-25T14:08:00.431Z</time></trkpt><trkpt lat="46.0964491" lon="12.081762"><ele>294.0</ele><time>2026-04-25T14:08:02.433Z</time></trkpt><trkpt lat="46.0963706" lon="12.0817289"><ele>294.0</ele><time>2026-04-25T14:08:04.428Z</time></trkpt><trkpt lat="46.0962903" lon="12.0816633"><ele>294.0</ele><time>2026-04-25T14:08:06.43Z</time></trkpt><trkpt lat="46.0961974" lon="12.0815857"><ele>294.2</ele><time>2026-04-25T14:08:08.431Z</time></trkpt><trkpt lat="46.0961043" lon="12.0815333"><ele>294.4</ele><time>2026-04-25T14:08:10.422Z</time></trkpt><trkpt lat="46.0960202" lon="12.081487"><ele>294.6</ele><time>2026-04-25T14:08:12.432Z</time></trkpt><trkpt lat="46.0959162" lon="12.0814379"><ele>294.8</ele><time>2026-04-25T14:08:14.432Z</time></trkpt><trkpt lat="46.0958071" lon="12.0814351"><ele>295.0</ele><time>2026-04-25T14:08:16.431Z</time></trkpt><trkpt lat="46.0957203" lon="12.0815177"><ele>294.5</ele><time>2026-04-25T14:08:18.431Z</time></trkpt><trkpt lat="46.0956504" lon="12.0816328"><ele>294.0</ele><time>2026-04-25T14:08:20.431Z</time></trkpt><trkpt lat="46.0955484" lon="12.0818226"><ele>293.5</ele><time>2026-04-25T14:08:23.431Z</time></trkpt><trkpt lat="46.0954906" lon="12.0819598"><ele>293.0</ele><time>2026-04-25T14:08:25.425Z</time></trkpt><trkpt lat="46.0954292" lon="12.0820887"><ele>293.0</ele><time>2026-04-25T14:08:27.431Z</time></trkpt><trkpt lat="46.0953638" lon="12.0822133"><ele>293.0</ele><time>2026-04-25T14:08:29.431Z</time></trkpt><trkpt lat="46.0952986" lon="12.0823467"><ele>293.0</ele><time>2026-04-25T14:08:31.431Z</time></trkpt><trkpt lat="46.0952392" lon="12.0824812"><ele>293.0</ele><time>2026-04-25T14:08:33.426Z</time></trkpt><trkpt lat="46.0951836" lon="12.0826223"><ele>293.0</ele><time>2026-04-25T14:08:35.431Z</time></trkpt><trkpt lat="46.095122" lon="12.0827655"><ele>293.0</ele><time>2026-04-25T14:08:37.431Z</time></trkpt><trkpt lat="46.0950671" lon="12.0829009"><ele>293.0</ele><time>2026-04-25T14:08:39.431Z</time></trkpt><trkpt lat="46.09501" lon="12.0830325"><ele>293.0</ele><time>2026-04-25T14:08:41.427Z</time></trkpt><trkpt lat="46.0949549" lon="12.0831607"><ele>293.0</ele><time>2026-04-25T14:08:43.43Z</time></trkpt><trkpt lat="46.09489" lon="12.0832787"><ele>293.0</ele><time>2026-04-25T14:08:45.43Z</time></trkpt><trkpt lat="46.094829" lon="12.0834011"><ele>292.75</ele><time>2026-04-25T14:08:47.421Z</time></trkpt><trkpt lat="46.0947532" lon="12.083516"><ele>292.5</ele><time>2026-04-25T14:08:49.433Z</time></trkpt><trkpt lat="46.0946789" lon="12.0836404"><ele>292.25</ele><time>2026-04-25T14:08:51.432Z</time></trkpt><trkpt lat="46.094592" lon="12.0837528"><ele>292.0</ele><time>2026-04-25T14:08:53.421Z</time></trkpt><trkpt lat="46.0945015" lon="12.0838626"><ele>292.0</ele><time>2026-04-25T14:08:55.432Z</time></trkpt><trkpt lat="46.09441" lon="12.0839874"><ele>292.0</ele><time>2026-04-25T14:08:57.43Z</time></trkpt><trkpt lat="46.0943186" lon="12.0840914"><ele>292.0</ele><time>2026-04-25T14:08:59.428Z</time></trkpt><trkpt lat="46.0942038" lon="12.0841564"><ele>292.0</ele><time>2026-04-25T14:09:01.431Z</time></trkpt><trkpt lat="46.0940893" lon="12.0842029"><ele>292.0</ele><time>2026-04-25T14:09:03.431Z</time></trkpt><trkpt lat="46.0939781" lon="12.0842423"><ele>292.0</ele><time>2026-04-25T14:09:05.432Z</time></trkpt><trkpt lat="46.0938699" lon="12.0842827"><ele>292.0</ele><time>2026-04-25T14:09:07.428Z</time></trkpt><trkpt lat="46.0937674" lon="12.0843431"><ele>292.0</ele><time>2026-04-25T14:09:09.42Z</time></trkpt><trkpt lat="46.0936631" lon="12.0843971"><ele>292.0</ele><time>2026-04-25T14:09:11.433Z</time></trkpt><trkpt lat="46.0935624" lon="12.0844704"><ele>292.0</ele><time>2026-04-25T14:09:13.424Z</time></trkpt><trkpt lat="46.093463" lon="12.0845578"><ele>292.0</ele><time>2026-04-25T14:09:15.43Z</time></trkpt><trkpt lat="46.0933728" lon="12.0846593"><ele>292.0</ele><time>2026-04-25T14:09:17.419Z</time></trkpt><trkpt lat="46.0932923" lon="12.0847606"><ele>292.0</ele><time>2026-04-25T14:09:19.43Z</time></trkpt><trkpt lat="46.0932118" lon="12.0848533"><ele>292.0</ele><time>2026-04-25T14:09:21.424Z</time></trkpt><trkpt lat="46.0931347" lon="12.0849453"><ele>291.6</ele><time>2026-04-25T14:09:23.42Z</time></trkpt><trkpt lat="46.0930691" lon="12.0850659"><ele>291.2</ele><time>2026-04-25T14:09:25.42Z</time></trkpt><trkpt lat="46.0930619" lon="12.0852174"><ele>290.8</ele><time>2026-04-25T14:09:27.43Z</time></trkpt><trkpt lat="46.0930571" lon="12.0853806"><ele>290.4</ele><time>2026-04-25T14:09:29.432Z</time></trkpt><trkpt lat="46.0930407" lon="12.0855398"><ele>290.0</ele><time>2026-04-25T14:09:31.43Z</time></trkpt><trkpt lat="46.0930061" lon="12.0856879"><ele>290.4</ele><time>2026-04-25T14:09:33.431Z</time></trkpt><trkpt lat="46.0929662" lon="12.0858191"><ele>290.8</ele><time>2026-04-25T14:09:35.431Z</time></trkpt><trkpt lat="46.0929217" lon="12.0859386"><ele>291.2</ele><time>2026-04-25T14:09:37.431Z</time></trkpt><trkpt lat="46.092903" lon="12.0860716"><ele>291.6</ele><time>2026-04-25T14:09:39.419Z</time></trkpt><trkpt lat="46.0929101" lon="12.0862034"><ele>292.0</ele><time>2026-04-25T14:09:41.43Z</time></trkpt><trkpt lat="46.092953" lon="12.0863547"><ele>292.0</ele><time>2026-04-25T14:09:43.431Z</time></trkpt><trkpt lat="46.093031" lon="12.0864904"><ele>292.0</ele><time>2026-04-25T14:09:45.424Z</time></trkpt><trkpt lat="46.093118" lon="12.0866116"><ele>292.0</ele><time>2026-04-25T14:09:47.425Z</time></trkpt><trkpt lat="46.0932058" lon="12.0867235"><ele>292.0</ele><time>2026-04-25T14:09:49.432Z</time></trkpt><trkpt lat="46.0932793" lon="12.0868457"><ele>292.4</ele><time>2026-04-25T14:09:51.431Z</time></trkpt><trkpt lat="46.0933033" lon="12.0870052"><ele>292.79999999999995</ele><time>2026-04-25T14:09:53.43Z</time></trkpt><trkpt lat="46.0932539" lon="12.0871617"><ele>293.2</ele><time>2026-04-25T14:09:55.425Z</time></trkpt><trkpt lat="46.0931755" lon="12.0873023"><ele>293.59999999999997</ele><time>2026-04-25T14:09:57.431Z</time></trkpt><trkpt lat="46.0931348" lon="12.0873757"><ele>294.0</ele><time>2026-04-25T14:09:58.432Z</time></trkpt><trkpt lat="46.0930479" lon="12.0875033"><ele>294.1666666666667</ele><time>2026-04-25T14:10:00.43Z</time></trkpt><trkpt lat="46.092965" lon="12.0876349"><ele>294.3333333333333</ele><time>2026-04-25T14:10:02.43Z</time></trkpt><trkpt lat="46.0929332" lon="12.0877177"><ele>294.5</ele><time>2026-04-25T14:10:03.43Z</time></trkpt><trkpt lat="46.092908" lon="12.087809"><ele>294.66666666666663</ele><time>2026-04-25T14:10:04.433Z</time></trkpt><trkpt lat="46.092884" lon="12.0878965"><ele>294.8333333333333</ele><time>2026-04-25T14:10:05.43Z</time></trkpt><trkpt lat="46.0928452" lon="12.0880606"><ele>295.0</ele><time>2026-04-25T14:10:07.429Z</time></trkpt><trkpt lat="46.092809" lon="12.088225"><ele>294.75</ele><time>2026-04-25T14:10:09.429Z</time></trkpt><trkpt lat="46.092768" lon="12.0883961"><ele>294.5</ele><time>2026-04-25T14:10:11.429Z</time></trkpt><trkpt lat="46.0927306" lon="12.0885576"><ele>294.25</ele><time>2026-04-25T14:10:13.429Z</time></trkpt><trkpt lat="46.0926827" lon="12.0887253"><ele>294.0</ele><time>2026-04-25T14:10:15.429Z</time></trkpt><trkpt lat="46.0926351" lon="12.0888797"><ele>294.0</ele><time>2026-04-25T14:10:17.431Z</time></trkpt><trkpt lat="46.0925875" lon="12.0890327"><ele>294.0</ele><time>2026-04-25T14:10:19.43Z</time></trkpt><trkpt lat="46.0925598" lon="12.0891781"><ele>294.0</ele><time>2026-04-25T14:10:21.432Z</time></trkpt><trkpt lat="46.0925503" lon="12.0893243"><ele>294.0</ele><time>2026-04-25T14:10:23.432Z</time></trkpt><trkpt lat="46.0925705" lon="12.0894614"><ele>294.0</ele><time>2026-04-25T14:10:25.43Z</time></trkpt><trkpt lat="46.0926363" lon="12.0895832"><ele>294.0</ele><time>2026-04-25T14:10:27.422Z</time></trkpt><trkpt lat="46.0927247" lon="12.0896905"><ele>294.0</ele><time>2026-04-25T14:10:29.422Z</time></trkpt><trkpt lat="46.0928204" lon="12.0898034"><ele>294.0</ele><time>2026-04-25T14:10:31.429Z</time></trkpt><trkpt lat="46.0929146" lon="12.0899177"><ele>294.0</ele><time>2026-04-25T14:10:33.432Z</time></trkpt><trkpt lat="46.0929615" lon="12.0899793"><ele>294.0</ele><time>2026-04-25T14:10:34.421Z</time></trkpt><trkpt lat="46.0930531" lon="12.0900991"><ele>294.0</ele><time>2026-04-25T14:10:36.431Z</time></trkpt><trkpt lat="46.0931007" lon="12.090161"><ele>294.0</ele><time>2026-04-25T14:10:37.428Z</time></trkpt><trkpt lat="46.0931949" lon="12.0902747"><ele>294.0</ele><time>2026-04-25T14:10:39.43Z</time></trkpt><trkpt lat="46.0932895" lon="12.0903894"><ele>294.0</ele><time>2026-04-25T14:10:41.432Z</time></trkpt><trkpt lat="46.0933797" lon="12.090513"><ele>294.0</ele><time>2026-04-25T14:10:43.43Z</time></trkpt><trkpt lat="46.0934262" lon="12.0905764"><ele>294.0</ele><time>2026-04-25T14:10:44.431Z</time></trkpt><trkpt lat="46.0935122" lon="12.0907035"><ele>294.0</ele><time>2026-04-25T14:10:46.428Z</time></trkpt><trkpt lat="46.0935986" lon="12.0908238"><ele>294.0</ele><time>2026-04-25T14:10:48.431Z</time></trkpt><trkpt lat="46.0936843" lon="12.0909504"><ele>294.0</ele><time>2026-04-25T14:10:50.429Z</time></trkpt><trkpt lat="46.0937618" lon="12.0910878"><ele>294.4</ele><time>2026-04-25T14:10:52.422Z</time></trkpt><trkpt lat="46.0938026" lon="12.0911592"><ele>294.79999999999995</ele><time>2026-04-25T14:10:53.429Z</time></trkpt><trkpt lat="46.0938711" lon="12.0912949"><ele>295.20000000000005</ele><time>2026-04-25T14:10:55.431Z</time></trkpt><trkpt lat="46.0939184" lon="12.0914291"><ele>295.6</ele><time>2026-04-25T14:10:57.422Z</time></trkpt><trkpt lat="46.093941" lon="12.0915595"><ele>296.0</ele><time>2026-04-25T14:10:59.426Z</time></trkpt><trkpt lat="46.0939214" lon="12.0917031"><ele>296.0</ele><time>2026-04-25T14:11:01.429Z</time></trkpt><trkpt lat="46.0938905" lon="12.0918636"><ele>296.0</ele><time>2026-04-25T14:11:03.431Z</time></trkpt><trkpt lat="46.0938469" lon="12.092016"><ele>296.0</ele><time>2026-04-25T14:11:05.43Z</time></trkpt><trkpt lat="46.0937873" lon="12.0921631"><ele>296.0</ele><time>2026-04-25T14:11:07.423Z</time></trkpt><trkpt lat="46.0937282" lon="12.0922964"><ele>296.0</ele><time>2026-04-25T14:11:09.431Z</time></trkpt><trkpt lat="46.0936785" lon="12.0924228"><ele>296.0</ele><time>2026-04-25T14:11:11.431Z</time></trkpt><trkpt lat="46.0936057" lon="12.0925205"><ele>296.0</ele><time>2026-04-25T14:11:13.432Z</time></trkpt><trkpt lat="46.0935175" lon="12.0926133"><ele>296.0</ele><time>2026-04-25T14:11:15.427Z</time></trkpt><trkpt lat="46.0934401" lon="12.0927324"><ele>296.0</ele><time>2026-04-25T14:11:17.43Z</time></trkpt><trkpt lat="46.0933559" lon="12.0928568"><ele>296.0</ele><time>2026-04-25T14:11:19.431Z</time></trkpt><trkpt lat="46.0932728" lon="12.092987"><ele>296.0</ele><time>2026-04-25T14:11:21.533Z</time></trkpt><trkpt lat="46.0931948" lon="12.0931216"><ele>296.0</ele><time>2026-04-25T14:11:23.429Z</time></trkpt><trkpt lat="46.0931233" lon="12.093243"><ele>296.0</ele><time>2026-04-25T14:11:25.432Z</time></trkpt><trkpt lat="46.0930561" lon="12.0933494"><ele>296.0</ele><time>2026-04-25T14:11:27.43Z</time></trkpt><trkpt lat="46.0929912" lon="12.0934577"><ele>296.0</ele><time>2026-04-25T14:11:29.433Z</time></trkpt><trkpt lat="46.0929347" lon="12.0935875"><ele>296.0</ele><time>2026-04-25T14:11:31.431Z</time></trkpt><trkpt lat="46.0928919" lon="12.0937349"><ele>296.0</ele><time>2026-04-25T14:11:33.431Z</time></trkpt><trkpt lat="46.0928604" lon="12.0938962"><ele>296.0</ele><time>2026-04-25T14:11:35.43Z</time></trkpt><trkpt lat="46.0928206" lon="12.094058"><ele>296.0</ele><time>2026-04-25T14:11:37.429Z</time></trkpt><trkpt lat="46.0927904" lon="12.0942266"><ele>296.0</ele><time>2026-04-25T14:11:39.423Z</time></trkpt><trkpt lat="46.0927482" lon="12.0943761"><ele>296.0</ele><time>2026-04-25T14:11:41.434Z</time></trkpt><trkpt lat="46.0926749" lon="12.0944941"><ele>296.0</ele><time>2026-04-25T14:11:43.423Z</time></trkpt><trkpt lat="46.0926071" lon="12.0946202"><ele>296.0</ele><time>2026-04-25T14:11:45.431Z</time></trkpt><trkpt lat="46.0925728" lon="12.0947791"><ele>296.0</ele><time>2026-04-25T14:11:47.423Z</time></trkpt><trkpt lat="46.0925866" lon="12.0949458"><ele>296.0</ele><time>2026-04-25T14:11:49.429Z</time></trkpt><trkpt lat="46.0926246" lon="12.0951048"><ele>296.0</ele><time>2026-04-25T14:11:51.43Z</time></trkpt><trkpt lat="46.0926438" lon="12.0951914"><ele>296.0</ele><time>2026-04-25T14:11:52.43Z</time></trkpt><trkpt lat="46.0926801" lon="12.0953526"><ele>296.0</ele><time>2026-04-25T14:11:54.424Z</time></trkpt><trkpt lat="46.0927149" lon="12.0954935"><ele>296.0</ele><time>2026-04-25T14:11:56.43Z</time></trkpt><trkpt lat="46.0927406" lon="12.0956341"><ele>296.0</ele><time>2026-04-25T14:11:58.432Z</time></trkpt><trkpt lat="46.0927665" lon="12.0957741"><ele>296.0</ele><time>2026-04-25T14:12:00.431Z</time></trkpt><trkpt lat="46.0927891" lon="12.0959038"><ele>296.0</ele><time>2026-04-25T14:12:02.419Z</time></trkpt><trkpt lat="46.0928186" lon="12.0960289"><ele>295.8</ele><time>2026-04-25T14:12:04.42Z</time></trkpt><trkpt lat="46.0928456" lon="12.0961586"><ele>295.6</ele><time>2026-04-25T14:12:06.431Z</time></trkpt><trkpt lat="46.0928895" lon="12.0962904"><ele>295.4</ele><time>2026-04-25T14:12:08.426Z</time></trkpt><trkpt lat="46.092943" lon="12.0964256"><ele>295.2</ele><time>2026-04-25T14:12:10.423Z</time></trkpt><trkpt lat="46.0929864" lon="12.0965579"><ele>295.0</ele><time>2026-04-25T14:12:12.432Z</time></trkpt><trkpt lat="46.0930266" lon="12.0966812"><ele>294.8333333333333</ele><time>2026-04-25T14:12:14.423Z</time></trkpt><trkpt lat="46.0930657" lon="12.0967956"><ele>294.66666666666663</ele><time>2026-04-25T14:12:16.424Z</time></trkpt><trkpt lat="46.0930956" lon="12.0969106"><ele>294.5</ele><time>2026-04-25T14:12:18.421Z</time></trkpt><trkpt lat="46.0931075" lon="12.0968162"><ele>294.3333333333333</ele><time>2026-04-25T14:12:23.43Z</time></trkpt><trkpt lat="46.0930642" lon="12.0967094"><ele>294.1666666666667</ele><time>2026-04-25T14:12:25.417Z</time></trkpt><trkpt lat="46.0929741" lon="12.0966509"><ele>294.0</ele><time>2026-04-25T14:12:27.429Z</time></trkpt><trkpt lat="46.0928763" lon="12.0966806"><ele>294.0</ele><time>2026-04-25T14:12:29.425Z</time></trkpt><trkpt lat="46.0927924" lon="12.0967365"><ele>294.0</ele><time>2026-04-25T14:12:31.432Z</time></trkpt><trkpt lat="46.0927074" lon="12.0967535"><ele>294.0</ele><time>2026-04-25T14:12:33.431Z</time></trkpt><trkpt lat="46.0926272" lon="12.0966853"><ele>294.0</ele><time>2026-04-25T14:12:35.43Z</time></trkpt><trkpt lat="46.0925671" lon="12.0965745"><ele>294.0</ele><time>2026-04-25T14:12:37.423Z</time></trkpt><trkpt lat="46.0925203" lon="12.096441"><ele>294.2</ele><time>2026-04-25T14:12:39.428Z</time></trkpt><trkpt lat="46.0924881" lon="12.0963134"><ele>294.4</ele><time>2026-04-25T14:12:41.431Z</time></trkpt><trkpt lat="46.092459" lon="12.0961808"><ele>294.6</ele><time>2026-04-25T14:12:43.43Z</time></trkpt><trkpt lat="46.0924592" lon="12.0960505"><ele>294.8</ele><time>2026-04-25T14:12:45.42Z</time></trkpt><trkpt lat="46.0924971" lon="12.0959373"><ele>295.0</ele><time>2026-04-25T14:12:47.42Z</time></trkpt><trkpt lat="46.092545" lon="12.0958355"><ele>295.0</ele><time>2026-04-25T14:12:49.428Z</time></trkpt><trkpt lat="46.0925847" lon="12.0957394"><ele>295.0</ele><time>2026-04-25T14:12:51.431Z</time></trkpt><trkpt lat="46.0926178" lon="12.0956528"><ele>295.0</ele><time>2026-04-25T14:12:53.427Z</time></trkpt><trkpt lat="46.0926214" lon="12.0955489"><ele>295.0</ele><time>2026-04-25T14:12:56.429Z</time></trkpt><trkpt lat="46.0925663" lon="12.0956393"><ele>295.0</ele><time>2026-04-25T14:12:59.429Z</time></trkpt><trkpt lat="46.0925583" lon="12.0957435"><ele>295.0</ele><time>2026-04-25T14:13:00.428Z</time></trkpt><trkpt lat="46.0925059" lon="12.0958657"><ele>295.0</ele><time>2026-04-25T14:13:02.43Z</time></trkpt><trkpt lat="46.0924449" lon="12.09597"><ele>295.0</ele><time>2026-04-25T14:13:04.421Z</time></trkpt><trkpt lat="46.0923636" lon="12.0959614"><ele>295.0</ele><time>2026-04-25T14:13:06.431Z</time></trkpt><trkpt lat="46.0922828" lon="12.09587"><ele>295.0</ele><time>2026-04-25T14:13:08.43Z</time></trkpt><trkpt lat="46.0922008" lon="12.0957847"><ele>295.0</ele><time>2026-04-25T14:13:10.432Z</time></trkpt><trkpt lat="46.0921136" lon="12.0957533"><ele>295.0</ele><time>2026-04-25T14:13:12.428Z</time></trkpt><trkpt lat="46.092011" lon="12.0958084"><ele>295.0</ele><time>2026-04-25T14:13:14.422Z</time></trkpt><trkpt lat="46.0919098" lon="12.0958918"><ele>295.0</ele><time>2026-04-25T14:13:16.428Z</time></trkpt><trkpt lat="46.0918145" lon="12.0960024"><ele>295.0</ele><time>2026-04-25T14:13:18.422Z</time></trkpt><trkpt lat="46.0917231" lon="12.0961235"><ele>294.5</ele><time>2026-04-25T14:13:20.43Z</time></trkpt><trkpt lat="46.0915867" lon="12.0963017"><ele>294.0</ele><time>2026-04-25T14:13:23.428Z</time></trkpt><trkpt lat="46.0914945" lon="12.0963906"><ele>293.5</ele><time>2026-04-25T14:13:25.426Z</time></trkpt><trkpt lat="46.0914028" lon="12.096465"><ele>293.0</ele><time>2026-04-25T14:13:27.425Z</time></trkpt><trkpt lat="46.0913064" lon="12.0965137"><ele>293.0</ele><time>2026-04-25T14:13:29.43Z</time></trkpt><trkpt lat="46.0912117" lon="12.0965279"><ele>293.0</ele><time>2026-04-25T14:13:31.423Z</time></trkpt><trkpt lat="46.0911074" lon="12.0965138"><ele>293.0</ele><time>2026-04-25T14:13:33.424Z</time></trkpt><trkpt lat="46.0909992" lon="12.0965003"><ele>293.0</ele><time>2026-04-25T14:13:35.431Z</time></trkpt><trkpt lat="46.0909013" lon="12.0965486"><ele>293.0</ele><time>2026-04-25T14:13:37.431Z</time></trkpt><trkpt lat="46.0908219" lon="12.0966372"><ele>292.0</ele><time>2026-04-25T14:13:39.421Z</time></trkpt><trkpt lat="46.0907452" lon="12.0967319"><ele>291.0</ele><time>2026-04-25T14:13:41.423Z</time></trkpt><trkpt lat="46.0906625" lon="12.0968343"><ele>290.0</ele><time>2026-04-25T14:13:43.431Z</time></trkpt><trkpt lat="46.0905851" lon="12.0969302"><ele>289.0</ele><time>2026-04-25T14:13:45.423Z</time></trkpt><trkpt lat="46.0905062" lon="12.0970176"><ele>288.0</ele><time>2026-04-25T14:13:47.43Z</time></trkpt><trkpt lat="46.0904367" lon="12.0971119"><ele>288.0</ele><time>2026-04-25T14:13:49.428Z</time></trkpt><trkpt lat="46.0903587" lon="12.0971643"><ele>288.0</ele><time>2026-04-25T14:13:51.432Z</time></trkpt><trkpt lat="46.0902895" lon="12.0971278"><ele>288.0</ele><time>2026-04-25T14:13:53.43Z</time></trkpt><trkpt lat="46.0902506" lon="12.0970413"><ele>288.0</ele><time>2026-04-25T14:13:55.43Z</time></trkpt><trkpt lat="46.0902095" lon="12.0969101"><ele>288.0</ele><time>2026-04-25T14:13:57.43Z</time></trkpt><trkpt lat="46.0901803" lon="12.0968288"><ele>288.0</ele><time>2026-04-25T14:13:58.422Z</time></trkpt><trkpt lat="46.0901423" lon="12.0967437"><ele>288.0</ele><time>2026-04-25T14:13:59.429Z</time></trkpt><trkpt lat="46.0901023" lon="12.096658"><ele>288.0</ele><time>2026-04-25T14:14:00.432Z</time></trkpt><trkpt lat="46.0900367" lon="12.0965511"><ele>288.0</ele><time>2026-04-25T14:14:02.432Z</time></trkpt><trkpt lat="46.0899529" lon="12.0965857"><ele>288.0</ele><time>2026-04-25T14:14:05.424Z</time></trkpt><trkpt lat="46.0899326" lon="12.0967276"><ele>288.0</ele><time>2026-04-25T14:14:08.423Z</time></trkpt><trkpt lat="46.0899176" lon="12.0968488"><ele>288.0</ele><time>2026-04-25T14:14:10.43Z</time></trkpt><trkpt lat="46.0899117" lon="12.0969876"><ele>287.5</ele><time>2026-04-25T14:14:12.43Z</time></trkpt><trkpt lat="46.0898674" lon="12.0971209"><ele>287.0</ele><time>2026-04-25T14:14:14.425Z</time></trkpt><trkpt lat="46.0898387" lon="12.0972768"><ele>286.5</ele><time>2026-04-25T14:14:16.43Z</time></trkpt><trkpt lat="46.0898453" lon="12.0974558"><ele>286.0</ele><time>2026-04-25T14:14:18.434Z</time></trkpt><trkpt lat="46.0898521" lon="12.0976369"><ele>286.0</ele><time>2026-04-25T14:14:20.426Z</time></trkpt><trkpt lat="46.0898517" lon="12.0977302"><ele>286.0</ele><time>2026-04-25T14:14:21.423Z</time></trkpt><trkpt lat="46.0898466" lon="12.0978241"><ele>286.0</ele><time>2026-04-25T14:14:22.43Z</time></trkpt><trkpt lat="46.0898397" lon="12.0979171"><ele>286.0</ele><time>2026-04-25T14:14:23.431Z</time></trkpt><trkpt lat="46.089827" lon="12.098079"><ele>286.0</ele><time>2026-04-25T14:14:25.423Z</time></trkpt><trkpt lat="46.0898457" lon="12.0982009"><ele>286.0</ele><time>2026-04-25T14:14:27.431Z</time></trkpt><trkpt lat="46.0898672" lon="12.098329"><ele>286.0</ele><time>2026-04-25T14:14:30.425Z</time></trkpt><trkpt lat="46.0898876" lon="12.0984264"><ele>286.0</ele><time>2026-04-25T14:14:32.431Z</time></trkpt><trkpt lat="46.0899367" lon="12.0985177"><ele>286.0</ele><time>2026-04-25T14:14:34.423Z</time></trkpt><trkpt lat="46.089997" lon="12.0985996"><ele>286.0</ele><time>2026-04-25T14:14:36.429Z</time></trkpt><trkpt lat="46.0900812" lon="12.0986948"><ele>286.0</ele><time>2026-04-25T14:14:38.432Z</time></trkpt><trkpt lat="46.0901596" lon="12.0987752"><ele>286.0</ele><time>2026-04-25T14:14:40.423Z</time></trkpt><trkpt lat="46.0902576" lon="12.0988287"><ele>286.2</ele><time>2026-04-25T14:14:42.422Z</time></trkpt><trkpt lat="46.0903586" lon="12.0987981"><ele>286.40000000000003</ele><time>2026-04-25T14:14:44.428Z</time></trkpt><trkpt lat="46.0904581" lon="12.0987573"><ele>286.6</ele><time>2026-04-25T14:14:46.431Z</time></trkpt><trkpt lat="46.0905711" lon="12.0987562"><ele>286.8</ele><time>2026-04-25T14:14:48.422Z</time></trkpt><trkpt lat="46.0906791" lon="12.0988163"><ele>287.0</ele><time>2026-04-25T14:14:50.429Z</time></trkpt><trkpt lat="46.0907763" lon="12.0989179"><ele>287.0</ele><time>2026-04-25T14:14:52.429Z</time></trkpt><trkpt lat="46.0908636" lon="12.0990152"><ele>287.0</ele><time>2026-04-25T14:14:54.43Z</time></trkpt><trkpt lat="46.09088" lon="12.0991034"><ele>287.0</ele><time>2026-04-25T14:14:55.43Z</time></trkpt><trkpt lat="46.0909145" lon="12.0992515"><ele>287.0</ele><time>2026-04-25T14:14:57.422Z</time></trkpt><trkpt lat="46.0909389" lon="12.0993997"><ele>287.0</ele><time>2026-04-25T14:14:59.428Z</time></trkpt><trkpt lat="46.0909733" lon="12.0995374"><ele>287.0</ele><time>2026-04-25T14:15:01.425Z</time></trkpt><trkpt lat="46.0910325" lon="12.0996885"><ele>287.0</ele><time>2026-04-25T14:15:03.431Z</time></trkpt><trkpt lat="46.0910945" lon="12.0998467"><ele>287.0</ele><time>2026-04-25T14:15:05.43Z</time></trkpt><trkpt lat="46.0911495" lon="12.1000041"><ele>287.0</ele><time>2026-04-25T14:15:07.43Z</time></trkpt><trkpt lat="46.0912135" lon="12.1001379"><ele>287.0</ele><time>2026-04-25T14:15:09.423Z</time></trkpt><trkpt lat="46.0912784" lon="12.1002403"><ele>287.0</ele><time>2026-04-25T14:15:11.429Z</time></trkpt><trkpt lat="46.0913615" lon="12.1003334"><ele>287.0</ele><time>2026-04-25T14:15:13.42Z</time></trkpt><trkpt lat="46.0914561" lon="12.1003979"><ele>287.0</ele><time>2026-04-25T14:15:15.429Z</time></trkpt><trkpt lat="46.0915634" lon="12.1004659"><ele>287.0</ele><time>2026-04-25T14:15:17.421Z</time></trkpt><trkpt lat="46.091624" lon="12.1004927"><ele>287.0</ele><time>2026-04-25T14:15:18.431Z</time></trkpt><trkpt lat="46.0917223" lon="12.1005769"><ele>287.0</ele><time>2026-04-25T14:15:20.43Z</time></trkpt><trkpt lat="46.0917957" lon="12.1006857"><ele>287.0</ele><time>2026-04-25T14:15:22.429Z</time></trkpt><trkpt lat="46.0918673" lon="12.1007786"><ele>287.0</ele><time>2026-04-25T14:15:24.423Z</time></trkpt><trkpt lat="46.0919514" lon="12.1008415"><ele>287.0</ele><time>2026-04-25T14:15:26.43Z</time></trkpt><trkpt lat="46.0920239" lon="12.1009448"><ele>287.0</ele><time>2026-04-25T14:15:28.43Z</time></trkpt><trkpt lat="46.0920456" lon="12.1010684"><ele>287.0</ele><time>2026-04-25T14:15:30.432Z</time></trkpt><trkpt lat="46.0920185" lon="12.1012121"><ele>287.0</ele><time>2026-04-25T14:15:32.419Z</time></trkpt><trkpt lat="46.0919706" lon="12.1013509"><ele>287.0</ele><time>2026-04-25T14:15:34.429Z</time></trkpt><trkpt lat="46.0919874" lon="12.1014925"><ele>287.0</ele><time>2026-04-25T14:15:36.431Z</time></trkpt><trkpt lat="46.0920229" lon="12.1015871"><ele>287.0</ele><time>2026-04-25T14:15:38.432Z</time></trkpt><trkpt lat="46.0920215" lon="12.1016897"><ele>287.0</ele><time>2026-04-25T14:15:40.429Z</time></trkpt><trkpt lat="46.091966" lon="12.1018226"><ele>287.0</ele><time>2026-04-25T14:15:42.42Z</time></trkpt><trkpt lat="46.0919107" lon="12.1019632"><ele>287.0</ele><time>2026-04-25T14:15:44.431Z</time></trkpt><trkpt lat="46.0918721" lon="12.1020842"><ele>287.0</ele><time>2026-04-25T14:15:46.421Z</time></trkpt><trkpt lat="46.0918143" lon="12.1022004"><ele>287.0</ele><time>2026-04-25T14:15:48.421Z</time></trkpt><trkpt lat="46.0917711" lon="12.1022739"><ele>287.0</ele><time>2026-04-25T14:15:49.424Z</time></trkpt><trkpt lat="46.0917128" lon="12.1024302"><ele>287.0</ele><time>2026-04-25T14:15:51.421Z</time></trkpt><trkpt lat="46.0916896" lon="12.102595"><ele>287.0</ele><time>2026-04-25T14:15:53.421Z</time></trkpt><trkpt lat="46.091674" lon="12.1027536"><ele>287.0</ele><time>2026-04-25T14:15:55.424Z</time></trkpt><trkpt lat="46.0916649" lon="12.1029049"><ele>287.0</ele><time>2026-04-25T14:15:57.423Z</time></trkpt><trkpt lat="46.0917076" lon="12.1030362"><ele>287.0</ele><time>2026-04-25T14:15:59.428Z</time></trkpt><trkpt lat="46.0917518" lon="12.1031635"><ele>287.0</ele><time>2026-04-25T14:16:01.429Z</time></trkpt><trkpt lat="46.0917848" lon="12.1033298"><ele>287.0</ele><time>2026-04-25T14:16:03.42Z</time></trkpt><trkpt lat="46.0918089" lon="12.1034927"><ele>287.0</ele><time>2026-04-25T14:16:05.424Z</time></trkpt><trkpt lat="46.0918197" lon="12.1035825"><ele>287.33333333333337</ele><time>2026-04-25T14:16:06.417Z</time></trkpt><trkpt lat="46.0918639" lon="12.1037483"><ele>287.6666666666667</ele><time>2026-04-25T14:16:08.432Z</time></trkpt><trkpt lat="46.0918906" lon="12.1038329"><ele>288.0</ele><time>2026-04-25T14:16:09.422Z</time></trkpt><trkpt lat="46.0919188" lon="12.1039143"><ele>288.3333333333333</ele><time>2026-04-25T14:16:10.431Z</time></trkpt><trkpt lat="46.0919485" lon="12.1039953"><ele>288.66666666666663</ele><time>2026-04-25T14:16:11.431Z</time></trkpt><trkpt lat="46.0920203" lon="12.1041345"><ele>289.0</ele><time>2026-04-25T14:16:13.422Z</time></trkpt><trkpt lat="46.0921025" lon="12.1042711"><ele>289.16666666666663</ele><time>2026-04-25T14:16:15.43Z</time></trkpt><trkpt lat="46.0921377" lon="12.1043499"><ele>289.3333333333333</ele><time>2026-04-25T14:16:16.431Z</time></trkpt><trkpt lat="46.0921664" lon="12.1044318"><ele>289.5</ele><time>2026-04-25T14:16:17.423Z</time></trkpt><trkpt lat="46.0922051" lon="12.1045044"><ele>289.6666666666667</ele><time>2026-04-25T14:16:18.42Z</time></trkpt><trkpt lat="46.0922892" lon="12.1046398"><ele>289.83333333333337</ele><time>2026-04-25T14:16:20.419Z</time></trkpt><trkpt lat="46.092327" lon="12.1047168"><ele>290.0</ele><time>2026-04-25T14:16:21.421Z</time></trkpt><trkpt lat="46.0923403" lon="12.1048727"><ele>289.83333333333337</ele><time>2026-04-25T14:16:23.429Z</time></trkpt><trkpt lat="46.0923072" lon="12.1049736"><ele>289.6666666666667</ele><time>2026-04-25T14:16:25.43Z</time></trkpt><trkpt lat="46.092322" lon="12.1051086"><ele>289.5</ele><time>2026-04-25T14:16:27.431Z</time></trkpt><trkpt lat="46.0923213" lon="12.1052859"><ele>289.3333333333333</ele><time>2026-04-25T14:16:29.437Z</time></trkpt><trkpt lat="46.0923331" lon="12.1053819"><ele>289.16666666666663</ele><time>2026-04-25T14:16:30.423Z</time></trkpt><trkpt lat="46.092356" lon="12.105478"><ele>289.0</ele><time>2026-04-25T14:16:31.433Z</time></trkpt><trkpt lat="46.0923857" lon="12.105634"><ele>289.0</ele><time>2026-04-25T14:16:33.432Z</time></trkpt><trkpt lat="46.0924122" lon="12.1057208"><ele>289.0</ele><time>2026-04-25T14:16:34.424Z</time></trkpt><trkpt lat="46.0924612" lon="12.1058861"><ele>289.0</ele><time>2026-04-25T14:16:36.433Z</time></trkpt><trkpt lat="46.0925159" lon="12.1060413"><ele>289.0</ele><time>2026-04-25T14:16:38.426Z</time></trkpt><trkpt lat="46.092595" lon="12.1061601"><ele>289.0</ele><time>2026-04-25T14:16:40.43Z</time></trkpt><trkpt lat="46.0926697" lon="12.1062941"><ele>289.0</ele><time>2026-04-25T14:16:42.423Z</time></trkpt><trkpt lat="46.0927436" lon="12.1064279"><ele>289.0</ele><time>2026-04-25T14:16:44.431Z</time></trkpt><trkpt lat="46.0927825" lon="12.1065945"><ele>289.0</ele><time>2026-04-25T14:16:46.421Z</time></trkpt><trkpt lat="46.0927684" lon="12.1067539"><ele>289.0</ele><time>2026-04-25T14:16:48.424Z</time></trkpt><trkpt lat="46.0927744" lon="12.1068447"><ele>289.0</ele><time>2026-04-25T14:16:49.429Z</time></trkpt><trkpt lat="46.0927719" lon="12.1069977"><ele>289.25</ele><time>2026-04-25T14:16:51.431Z</time></trkpt><trkpt lat="46.0927697" lon="12.107175"><ele>289.5</ele><time>2026-04-25T14:16:53.43Z</time></trkpt><trkpt lat="46.0927543" lon="12.1073375"><ele>289.75</ele><time>2026-04-25T14:16:55.434Z</time></trkpt><trkpt lat="46.0927289" lon="12.1074903"><ele>290.0</ele><time>2026-04-25T14:16:57.421Z</time></trkpt><trkpt lat="46.0927195" lon="12.107662"><ele>290.0</ele><time>2026-04-25T14:16:59.432Z</time></trkpt><trkpt lat="46.0926921" lon="12.1078285"><ele>290.0</ele><time>2026-04-25T14:17:01.429Z</time></trkpt><trkpt lat="46.0926885" lon="12.1079202"><ele>290.0</ele><time>2026-04-25T14:17:02.419Z</time></trkpt><trkpt lat="46.0926752" lon="12.1080976"><ele>290.0</ele><time>2026-04-25T14:17:04.418Z</time></trkpt><trkpt lat="46.0926743" lon="12.1082735"><ele>290.0</ele><time>2026-04-25T14:17:06.421Z</time></trkpt><trkpt lat="46.0926802" lon="12.1083648"><ele>290.0</ele><time>2026-04-25T14:17:07.429Z</time></trkpt><trkpt lat="46.0926877" lon="12.1084557"><ele>290.0</ele><time>2026-04-25T14:17:08.43Z</time></trkpt><trkpt lat="46.0927072" lon="12.108612"><ele>290.0</ele><time>2026-04-25T14:17:10.422Z</time></trkpt><trkpt lat="46.0927476" lon="12.108743"><ele>290.0</ele><time>2026-04-25T14:17:12.426Z</time></trkpt><trkpt lat="46.0927529" lon="12.108877"><ele>290.0</ele><time>2026-04-25T14:17:14.429Z</time></trkpt><trkpt lat="46.0927525" lon="12.1090216"><ele>290.0</ele><time>2026-04-25T14:17:16.428Z</time></trkpt><trkpt lat="46.0927442" lon="12.1091825"><ele>290.0</ele><time>2026-04-25T14:17:18.43Z</time></trkpt><trkpt lat="46.0927391" lon="12.1093441"><ele>290.0</ele><time>2026-04-25T14:17:20.428Z</time></trkpt><trkpt lat="46.0927456" lon="12.1095109"><ele>290.0</ele><time>2026-04-25T14:17:22.431Z</time></trkpt><trkpt lat="46.0927755" lon="12.1096731"><ele>290.0</ele><time>2026-04-25T14:17:24.43Z</time></trkpt><trkpt lat="46.092775" lon="12.1097683"><ele>290.0</ele><time>2026-04-25T14:17:25.426Z</time></trkpt><trkpt lat="46.092764" lon="12.1099376"><ele>290.0</ele><time>2026-04-25T14:17:27.427Z</time></trkpt><trkpt lat="46.0927722" lon="12.1100933"><ele>290.0</ele><time>2026-04-25T14:17:29.429Z</time></trkpt><trkpt lat="46.0927516" lon="12.110214"><ele>290.0</ele><time>2026-04-25T14:17:31.429Z</time></trkpt><trkpt lat="46.0927443" lon="12.1103663"><ele>290.4</ele><time>2026-04-25T14:17:33.431Z</time></trkpt><trkpt lat="46.09273" lon="12.110511"><ele>290.8</ele><time>2026-04-25T14:17:35.424Z</time></trkpt><trkpt lat="46.0927263" lon="12.1106413"><ele>291.2</ele><time>2026-04-25T14:17:37.421Z</time></trkpt><trkpt lat="46.0927386" lon="12.1107802"><ele>291.6</ele><time>2026-04-25T14:17:39.428Z</time></trkpt><trkpt lat="46.0927368" lon="12.1109334"><ele>292.0</ele><time>2026-04-25T14:17:41.431Z</time></trkpt><trkpt lat="46.0927324" lon="12.1111067"><ele>292.0</ele><time>2026-04-25T14:17:43.422Z</time></trkpt><trkpt lat="46.0927323" lon="12.1111985"><ele>292.0</ele><time>2026-04-25T14:17:44.417Z</time></trkpt><trkpt lat="46.0927501" lon="12.1113606"><ele>292.0</ele><time>2026-04-25T14:17:46.43Z</time></trkpt><trkpt lat="46.0927692" lon="12.1114961"><ele>292.0</ele><time>2026-04-25T14:17:48.42Z</time></trkpt><trkpt lat="46.0927326" lon="12.1116254"><ele>292.0</ele><time>2026-04-25T14:17:50.427Z</time></trkpt><trkpt lat="46.0926758" lon="12.1117585"><ele>292.0</ele><time>2026-04-25T14:17:52.418Z</time></trkpt><trkpt lat="46.0926706" lon="12.1119029"><ele>292.0</ele><time>2026-04-25T14:17:54.429Z</time></trkpt><trkpt lat="46.0926966" lon="12.1120546"><ele>292.0</ele><time>2026-04-25T14:17:56.422Z</time></trkpt><trkpt lat="46.0927081" lon="12.1122173"><ele>292.0</ele><time>2026-04-25T14:17:58.429Z</time></trkpt><trkpt lat="46.0927275" lon="12.112366"><ele>292.0</ele><time>2026-04-25T14:18:00.419Z</time></trkpt><trkpt lat="46.0927672" lon="12.1125087"><ele>292.16666666666663</ele><time>2026-04-25T14:18:02.416Z</time></trkpt><trkpt lat="46.0927934" lon="12.1126639"><ele>292.3333333333333</ele><time>2026-04-25T14:18:04.43Z</time></trkpt><trkpt lat="46.0928105" lon="12.112753"><ele>292.5</ele><time>2026-04-25T14:18:05.432Z</time></trkpt><trkpt lat="46.0928179" lon="12.1128432"><ele>292.6666666666667</ele><time>2026-04-25T14:18:06.431Z</time></trkpt><trkpt lat="46.0928539" lon="12.1129966"><ele>292.83333333333337</ele><time>2026-04-25T14:18:08.423Z</time></trkpt><trkpt lat="46.0928912" lon="12.1131135"><ele>293.0</ele><time>2026-04-25T14:18:10.432Z</time></trkpt><trkpt lat="46.0929482" lon="12.1132124"><ele>293.2</ele><time>2026-04-25T14:18:12.421Z</time></trkpt><trkpt lat="46.0929625" lon="12.1133086"><ele>293.4</ele><time>2026-04-25T14:18:14.43Z</time></trkpt><trkpt lat="46.093048" lon="12.1133726"><ele>293.59999999999997</ele><time>2026-04-25T14:18:19.421Z</time></trkpt><trkpt lat="46.0931224" lon="12.1134443"><ele>293.8</ele><time>2026-04-25T14:18:21.421Z</time></trkpt><trkpt lat="46.0931886" lon="12.1135637"><ele>294.0</ele><time>2026-04-25T14:18:23.428Z</time></trkpt><trkpt lat="46.0932498" lon="12.1136743"><ele>294.25</ele><time>2026-04-25T14:18:25.429Z</time></trkpt><trkpt lat="46.0932934" lon="12.1138005"><ele>294.5</ele><time>2026-04-25T14:18:27.421Z</time></trkpt><trkpt lat="46.0933319" lon="12.1139593"><ele>294.75</ele><time>2026-04-25T14:18:29.43Z</time></trkpt><trkpt lat="46.0933553" lon="12.1141266"><ele>295.0</ele><time>2026-04-25T14:18:31.428Z</time></trkpt><trkpt lat="46.0933826" lon="12.1142972"><ele>295.16666666666663</ele><time>2026-04-25T14:18:33.423Z</time></trkpt><trkpt lat="46.0934118" lon="12.1144654"><ele>295.3333333333333</ele><time>2026-04-25T14:18:35.43Z</time></trkpt><trkpt lat="46.0934324" lon="12.1146026"><ele>295.5</ele><time>2026-04-25T14:18:37.429Z</time></trkpt><trkpt lat="46.0934232" lon="12.1147145"><ele>295.6666666666667</ele><time>2026-04-25T14:18:39.422Z</time></trkpt><trkpt lat="46.0933877" lon="12.1148074"><ele>295.83333333333337</ele><time>2026-04-25T14:18:41.426Z</time></trkpt><trkpt lat="46.0933252" lon="12.1148701"><ele>296.0</ele><time>2026-04-25T14:18:43.417Z</time></trkpt><trkpt lat="46.0932712" lon="12.1149732"><ele>295.40000000000003</ele><time>2026-04-25T14:18:45.43Z</time></trkpt><trkpt lat="46.0932345" lon="12.1151316"><ele>294.8</ele><time>2026-04-25T14:18:47.422Z</time></trkpt><trkpt lat="46.0932182" lon="12.1152664"><ele>294.20000000000005</ele><time>2026-04-25T14:18:49.421Z</time></trkpt><trkpt lat="46.0931997" lon="12.1153996"><ele>293.6</ele><time>2026-04-25T14:18:51.431Z</time></trkpt><trkpt lat="46.0931412" lon="12.1154902"><ele>293.0</ele><time>2026-04-25T14:18:53.421Z</time></trkpt><trkpt lat="46.0931186" lon="12.1156041"><ele>293.1666666666667</ele><time>2026-04-25T14:18:55.429Z</time></trkpt><trkpt lat="46.0931037" lon="12.1157392"><ele>293.33333333333337</ele><time>2026-04-25T14:18:57.427Z</time></trkpt><trkpt lat="46.0930974" lon="12.115851"><ele>293.5</ele><time>2026-04-25T14:18:59.428Z</time></trkpt><trkpt lat="46.093115" lon="12.1159773"><ele>293.6666666666667</ele><time>2026-04-25T14:19:01.428Z</time></trkpt><trkpt lat="46.0931134" lon="12.1161088"><ele>293.8333333333333</ele><time>2026-04-25T14:19:03.416Z</time></trkpt><trkpt lat="46.093111" lon="12.1162418"><ele>294.0</ele><time>2026-04-25T14:19:05.42Z</time></trkpt><trkpt lat="46.09308" lon="12.1163635"><ele>294.0</ele><time>2026-04-25T14:19:07.43Z</time></trkpt><trkpt lat="46.0930554" lon="12.1164551"><ele>294.0</ele><time>2026-04-25T14:20:00.424Z</time></trkpt><trkpt lat="46.093112" lon="12.1165279"><ele>294.0</ele><time>2026-04-25T14:20:09.431Z</time></trkpt><trkpt lat="46.0931461" lon="12.1166045"><ele>294.0</ele><time>2026-04-25T14:20:14.427Z</time></trkpt><trkpt lat="46.0932118" lon="12.1166049"><ele>294.0</ele><time>2026-04-25T14:20:23.423Z</time></trkpt><trkpt lat="46.093275" lon="12.1166325"><ele>294.0</ele><time>2026-04-25T14:20:35.42Z</time></trkpt><trkpt lat="46.0933272" lon="12.1165602"><ele>294.0</ele><time>2026-04-25T14:20:42.43Z</time></trkpt><trkpt lat="46.093363" lon="12.1164689"><ele>294.6666666666667</ele><time>2026-04-25T14:20:44.42Z</time></trkpt><trkpt lat="46.0934066" lon="12.1163691"><ele>295.3333333333333</ele><time>2026-04-25T14:20:46.426Z</time></trkpt><trkpt lat="46.093449" lon="12.1162659"><ele>296.0</ele><time>2026-04-25T14:20:48.42Z</time></trkpt><trkpt lat="46.0934906" lon="12.116158"><ele>296.66666666666663</ele><time>2026-04-25T14:20:50.423Z</time></trkpt><trkpt lat="46.0935351" lon="12.1160511"><ele>297.3333333333333</ele><time>2026-04-25T14:20:52.43Z</time></trkpt><trkpt lat="46.0935792" lon="12.1159355"><ele>298.0</ele><time>2026-04-25T14:20:54.426Z</time></trkpt><trkpt lat="46.0936228" lon="12.1158268"><ele>297.8333333333333</ele><time>2026-04-25T14:20:56.433Z</time></trkpt><trkpt lat="46.0936624" lon="12.1157221"><ele>297.66666666666663</ele><time>2026-04-25T14:20:58.435Z</time></trkpt><trkpt lat="46.0937066" lon="12.1156112"><ele>297.5</ele><time>2026-04-25T14:21:00.426Z</time></trkpt><trkpt lat="46.0937515" lon="12.1155107"><ele>297.3333333333333</ele><time>2026-04-25T14:21:02.422Z</time></trkpt><trkpt lat="46.0937956" lon="12.115406"><ele>297.1666666666667</ele><time>2026-04-25T14:21:04.421Z</time></trkpt><trkpt lat="46.0938431" lon="12.115311"><ele>297.0</ele><time>2026-04-25T14:21:06.428Z</time></trkpt><trkpt lat="46.0938871" lon="12.1152198"><ele>297.0</ele><time>2026-04-25T14:21:08.43Z</time></trkpt><trkpt lat="46.0939249" lon="12.1151329"><ele>297.0</ele><time>2026-04-25T14:21:10.427Z</time></trkpt><trkpt lat="46.093964" lon="12.1150506"><ele>297.0</ele><time>2026-04-25T14:21:12.42Z</time></trkpt><trkpt lat="46.0940051" lon="12.1149741"><ele>297.0</ele><time>2026-04-25T14:21:14.421Z</time></trkpt><trkpt lat="46.0940783" lon="12.1150109"><ele>297.0</ele><time>2026-04-25T14:21:17.422Z</time></trkpt><trkpt lat="46.0941061" lon="12.1151299"><ele>297.0</ele><time>2026-04-25T14:21:19.419Z</time></trkpt><trkpt lat="46.0940979" lon="12.1152331"><ele>297.0</ele><time>2026-04-25T14:21:20.429Z</time></trkpt><trkpt lat="46.0941054" lon="12.1153827"><ele>299.4</ele><time>2026-04-25T14:21:22.432Z</time></trkpt><trkpt lat="46.0941097" lon="12.1155566"><ele>301.79999999999995</ele><time>2026-04-25T14:21:24.43Z</time></trkpt><trkpt lat="46.0941104" lon="12.1156495"><ele>304.2</ele><time>2026-04-25T14:21:25.422Z</time></trkpt><trkpt lat="46.0941123" lon="12.1158301"><ele>306.59999999999997</ele><time>2026-04-25T14:21:27.423Z</time></trkpt><trkpt lat="46.0941105" lon="12.1159244"><ele>309.0</ele><time>2026-04-25T14:21:28.43Z</time></trkpt><trkpt lat="46.0941117" lon="12.1160967"><ele>309.5</ele><time>2026-04-25T14:21:30.423Z</time></trkpt><trkpt lat="46.0941071" lon="12.1162512"><ele>310.0</ele><time>2026-04-25T14:21:32.43Z</time></trkpt><trkpt lat="46.0940998" lon="12.1164131"><ele>310.5</ele><time>2026-04-25T14:21:34.428Z</time></trkpt><trkpt lat="46.0940881" lon="12.1165834"><ele>311.0</ele><time>2026-04-25T14:21:36.418Z</time></trkpt><trkpt lat="46.0940684" lon="12.1167535"><ele>310.5</ele><time>2026-04-25T14:21:38.431Z</time></trkpt><trkpt lat="46.0940481" lon="12.1169256"><ele>310.0</ele><time>2026-04-25T14:21:40.428Z</time></trkpt><trkpt lat="46.094024" lon="12.1170945"><ele>309.5</ele><time>2026-04-25T14:21:42.429Z</time></trkpt><trkpt lat="46.0939935" lon="12.1172625"><ele>309.0</ele><time>2026-04-25T14:21:44.421Z</time></trkpt><trkpt lat="46.093961" lon="12.1174313"><ele>309.0</ele><time>2026-04-25T14:21:46.428Z</time></trkpt><trkpt lat="46.0939256" lon="12.1176001"><ele>309.0</ele><time>2026-04-25T14:21:48.422Z</time></trkpt><trkpt lat="46.0938876" lon="12.1177589"><ele>309.0</ele><time>2026-04-25T14:21:50.429Z</time></trkpt><trkpt lat="46.0938395" lon="12.1179196"><ele>309.0</ele><time>2026-04-25T14:21:52.422Z</time></trkpt><trkpt lat="46.0937917" lon="12.1180797"><ele>309.0</ele><time>2026-04-25T14:21:54.428Z</time></trkpt><trkpt lat="46.0937661" lon="12.1181628"><ele>309.0</ele><time>2026-04-25T14:21:55.422Z</time></trkpt><trkpt lat="46.0937118" lon="12.1183274"><ele>309.0</ele><time>2026-04-25T14:21:57.42Z</time></trkpt><trkpt lat="46.0936589" lon="12.1184883"><ele>309.0</ele><time>2026-04-25T14:21:59.429Z</time></trkpt><trkpt lat="46.0936011" lon="12.1186428"><ele>309.0</ele><time>2026-04-25T14:22:01.425Z</time></trkpt><trkpt lat="46.0935482" lon="12.118805"><ele>310.4</ele><time>2026-04-25T14:22:03.429Z</time></trkpt><trkpt lat="46.0934952" lon="12.1189566"><ele>311.79999999999995</ele><time>2026-04-25T14:22:05.429Z</time></trkpt><trkpt lat="46.0934662" lon="12.1190397"><ele>313.20000000000005</ele><time>2026-04-25T14:22:06.421Z</time></trkpt><trkpt lat="46.0934153" lon="12.1192022"><ele>314.6</ele><time>2026-04-25T14:22:08.424Z</time></trkpt><trkpt lat="46.0933647" lon="12.1193646"><ele>316.0</ele><time>2026-04-25T14:22:10.428Z</time></trkpt><trkpt lat="46.0933112" lon="12.1195359"><ele>316.3333333333333</ele><time>2026-04-25T14:22:12.426Z</time></trkpt><trkpt lat="46.0932808" lon="12.1196189"><ele>316.66666666666663</ele><time>2026-04-25T14:22:13.43Z</time></trkpt><trkpt lat="46.0932436" lon="12.1197848"><ele>317.0</ele><time>2026-04-25T14:22:15.428Z</time></trkpt><trkpt lat="46.0932136" lon="12.1198699"><ele>317.3333333333333</ele><time>2026-04-25T14:22:16.424Z</time></trkpt><trkpt lat="46.0931936" lon="12.1199564"><ele>317.6666666666667</ele><time>2026-04-25T14:22:17.419Z</time></trkpt><trkpt lat="46.0931407" lon="12.1201204"><ele>318.0</ele><time>2026-04-25T14:22:19.424Z</time></trkpt><trkpt lat="46.0931012" lon="12.1202853"><ele>315.0</ele><time>2026-04-25T14:22:21.433Z</time></trkpt><trkpt lat="46.0930702" lon="12.1204499"><ele>312.0</ele><time>2026-04-25T14:22:23.433Z</time></trkpt><trkpt lat="46.0930372" lon="12.1206122"><ele>309.0</ele><time>2026-04-25T14:22:25.422Z</time></trkpt><trkpt lat="46.0930152" lon="12.1207773"><ele>306.0</ele><time>2026-04-25T14:22:27.43Z</time></trkpt><trkpt lat="46.0929678" lon="12.1209232"><ele>306.0</ele><time>2026-04-25T14:22:29.422Z</time></trkpt><trkpt lat="46.0928718" lon="12.1209979"><ele>306.0</ele><time>2026-04-25T14:22:31.422Z</time></trkpt><trkpt lat="46.0927692" lon="12.1210403"><ele>306.0</ele><time>2026-04-25T14:22:33.427Z</time></trkpt><trkpt lat="46.0927128" lon="12.1211701"><ele>306.0</ele><time>2026-04-25T14:22:35.431Z</time></trkpt><trkpt lat="46.0926775" lon="12.1213213"><ele>306.0</ele><time>2026-04-25T14:22:37.43Z</time></trkpt><trkpt lat="46.0926606" lon="12.1214672"><ele>305.8</ele><time>2026-04-25T14:22:39.429Z</time></trkpt><trkpt lat="46.0926502" lon="12.1216025"><ele>305.6</ele><time>2026-04-25T14:22:41.42Z</time></trkpt><trkpt lat="46.0926412" lon="12.1217359"><ele>305.4</ele><time>2026-04-25T14:22:43.43Z</time></trkpt><trkpt lat="46.0926408" lon="12.1218712"><ele>305.2</ele><time>2026-04-25T14:22:45.427Z</time></trkpt><trkpt lat="46.0926422" lon="12.1220115"><ele>305.0</ele><time>2026-04-25T14:22:47.429Z</time></trkpt><trkpt lat="46.092626" lon="12.1221524"><ele>305.0</ele><time>2026-04-25T14:22:49.426Z</time></trkpt><trkpt lat="46.0926161" lon="12.1222984"><ele>305.0</ele><time>2026-04-25T14:22:51.543Z</time></trkpt><trkpt lat="46.0926137" lon="12.1224583"><ele>305.0</ele><time>2026-04-25T14:22:53.43Z</time></trkpt><trkpt lat="46.0925976" lon="12.1226153"><ele>305.0</ele><time>2026-04-25T14:22:55.419Z</time></trkpt><trkpt lat="46.0925487" lon="12.1227688"><ele>305.0</ele><time>2026-04-25T14:22:57.43Z</time></trkpt><trkpt lat="46.0924781" lon="12.1229097"><ele>303.0</ele><time>2026-04-25T14:22:59.429Z</time></trkpt><trkpt lat="46.0923892" lon="12.1230417"><ele>301.0</ele><time>2026-04-25T14:23:01.429Z</time></trkpt><trkpt lat="46.0923398" lon="12.1231002"><ele>299.0</ele><time>2026-04-25T14:23:02.428Z</time></trkpt><trkpt lat="46.0922417" lon="12.1232087"><ele>297.0</ele><time>2026-04-25T14:23:04.43Z</time></trkpt><trkpt lat="46.0921456" lon="12.1233164"><ele>295.0</ele><time>2026-04-25T14:23:06.428Z</time></trkpt><trkpt lat="46.0921004" lon="12.1233837"><ele>295.0</ele><time>2026-04-25T14:23:07.429Z</time></trkpt><trkpt lat="46.0920603" lon="12.123458"><ele>295.0</ele><time>2026-04-25T14:23:08.423Z</time></trkpt><trkpt lat="46.0919848" lon="12.1235995"><ele>295.0</ele><time>2026-04-25T14:23:10.428Z</time></trkpt><trkpt lat="46.0919325" lon="12.1237592"><ele>295.0</ele><time>2026-04-25T14:23:12.434Z</time></trkpt><trkpt lat="46.0918885" lon="12.1239189"><ele>295.0</ele><time>2026-04-25T14:23:14.43Z</time></trkpt><trkpt lat="46.0918178" lon="12.124075"><ele>294.25</ele><time>2026-04-25T14:23:16.432Z</time></trkpt><trkpt lat="46.0917582" lon="12.124225"><ele>293.5</ele><time>2026-04-25T14:23:18.428Z</time></trkpt><trkpt lat="46.091699" lon="12.1243546"><ele>292.75</ele><time>2026-04-25T14:23:20.431Z</time></trkpt><trkpt lat="46.0916387" lon="12.124486"><ele>292.0</ele><time>2026-04-25T14:23:22.43Z</time></trkpt><trkpt lat="46.0915748" lon="12.1246225"><ele>292.0</ele><time>2026-04-25T14:23:24.429Z</time></trkpt><trkpt lat="46.0915378" lon="12.1247087"><ele>292.0</ele><time>2026-04-25T14:23:26.427Z</time></trkpt><trkpt lat="46.0914868" lon="12.1248044"><ele>292.0</ele><time>2026-04-25T14:23:36.431Z</time></trkpt><trkpt lat="46.0914503" lon="12.1248877"><ele>292.0</ele><time>2026-04-25T14:23:38.422Z</time></trkpt><trkpt lat="46.0914072" lon="12.1249884"><ele>292.0</ele><time>2026-04-25T14:23:40.431Z</time></trkpt><trkpt lat="46.0913516" lon="12.1251048"><ele>292.0</ele><time>2026-04-25T14:23:42.426Z</time></trkpt><trkpt lat="46.0912957" lon="12.1252316"><ele>291.8</ele><time>2026-04-25T14:23:44.43Z</time></trkpt><trkpt lat="46.0912343" lon="12.1253693"><ele>291.6</ele><time>2026-04-25T14:23:46.43Z</time></trkpt><trkpt lat="46.0911715" lon="12.1255073"><ele>291.40000000000003</ele><time>2026-04-25T14:23:48.43Z</time></trkpt><trkpt lat="46.0911152" lon="12.1256332"><ele>291.2</ele><time>2026-04-25T14:23:50.429Z</time></trkpt><trkpt lat="46.0910558" lon="12.1257604"><ele>291.0</ele><time>2026-04-25T14:23:52.429Z</time></trkpt><trkpt lat="46.0909943" lon="12.1258983"><ele>291.0</ele><time>2026-04-25T14:23:54.428Z</time></trkpt><trkpt lat="46.0909267" lon="12.1260403"><ele>291.0</ele><time>2026-04-25T14:23:56.421Z</time></trkpt><trkpt lat="46.0908669" lon="12.1261817"><ele>291.0</ele><time>2026-04-25T14:23:58.422Z</time></trkpt><trkpt lat="46.0908045" lon="12.126316"><ele>291.0</ele><time>2026-04-25T14:24:00.431Z</time></trkpt><trkpt lat="46.0907468" lon="12.1264473"><ele>291.6</ele><time>2026-04-25T14:24:02.429Z</time></trkpt><trkpt lat="46.0906853" lon="12.1265807"><ele>292.20000000000005</ele><time>2026-04-25T14:24:04.43Z</time></trkpt><trkpt lat="46.0906208" lon="12.1267163"><ele>292.79999999999995</ele><time>2026-04-25T14:24:06.428Z</time></trkpt><trkpt lat="46.0905589" lon="12.1268492"><ele>293.4</ele><time>2026-04-25T14:24:08.43Z</time></trkpt><trkpt lat="46.0904987" lon="12.1269814"><ele>294.0</ele><time>2026-04-25T14:24:10.431Z</time></trkpt><trkpt lat="46.0904336" lon="12.1271162"><ele>294.0</ele><time>2026-04-25T14:24:12.43Z</time></trkpt><trkpt lat="46.090373" lon="12.127249"><ele>294.0</ele><time>2026-04-25T14:24:14.429Z</time></trkpt><trkpt lat="46.0903191" lon="12.127373"><ele>294.0</ele><time>2026-04-25T14:24:16.431Z</time></trkpt><trkpt lat="46.0902664" lon="12.1274882"><ele>294.0</ele><time>2026-04-25T14:24:18.429Z</time></trkpt><trkpt lat="46.0902055" lon="12.1276161"><ele>294.0</ele><time>2026-04-25T14:24:20.431Z</time></trkpt><trkpt lat="46.0901417" lon="12.1277309"><ele>294.8</ele><time>2026-04-25T14:24:22.428Z</time></trkpt><trkpt lat="46.0900849" lon="12.1278516"><ele>295.59999999999997</ele><time>2026-04-25T14:24:24.428Z</time></trkpt><trkpt lat="46.0900171" lon="12.1279742"><ele>296.4</ele><time>2026-04-25T14:24:26.429Z</time></trkpt><trkpt lat="46.0899604" lon="12.1281014"><ele>297.2</ele><time>2026-04-25T14:24:28.432Z</time></trkpt><trkpt lat="46.0898928" lon="12.1282113"><ele>298.0</ele><time>2026-04-25T14:24:30.428Z</time></trkpt><trkpt lat="46.089828" lon="12.1283174"><ele>299.0</ele><time>2026-04-25T14:24:32.421Z</time></trkpt><trkpt lat="46.0897603" lon="12.1284323"><ele>300.0</ele><time>2026-04-25T14:24:34.43Z</time></trkpt><trkpt lat="46.089688" lon="12.1285393"><ele>301.0</ele><time>2026-04-25T14:24:36.432Z</time></trkpt><trkpt lat="46.0896154" lon="12.1286473"><ele>302.0</ele><time>2026-04-25T14:24:38.429Z</time></trkpt><trkpt lat="46.0895409" lon="12.1287515"><ele>303.0</ele><time>2026-04-25T14:24:40.43Z</time></trkpt><trkpt lat="46.0894608" lon="12.1288472"><ele>303.0</ele><time>2026-04-25T14:24:42.431Z</time></trkpt><trkpt lat="46.0893785" lon="12.1289498"><ele>303.0</ele><time>2026-04-25T14:24:44.429Z</time></trkpt><trkpt lat="46.089294" lon="12.1290551"><ele>303.0</ele><time>2026-04-25T14:24:46.424Z</time></trkpt><trkpt lat="46.0892128" lon="12.1291422"><ele>303.0</ele><time>2026-04-25T14:24:48.43Z</time></trkpt><trkpt lat="46.0891211" lon="12.1292328"><ele>303.0</ele><time>2026-04-25T14:24:50.428Z</time></trkpt><trkpt lat="46.0890249" lon="12.1293137"><ele>302.8333333333333</ele><time>2026-04-25T14:24:52.431Z</time></trkpt><trkpt lat="46.0889354" lon="12.1293896"><ele>302.6666666666667</ele><time>2026-04-25T14:24:54.429Z</time></trkpt><trkpt lat="46.0888549" lon="12.1294551"><ele>302.5</ele><time>2026-04-25T14:24:56.43Z</time></trkpt><trkpt lat="46.0887835" lon="12.1295118"><ele>302.33333333333337</ele><time>2026-04-25T14:24:58.428Z</time></trkpt><trkpt lat="46.0887156" lon="12.1295058"><ele>302.1666666666667</ele><time>2026-04-25T14:25:00.43Z</time></trkpt><trkpt lat="46.0886625" lon="12.1294402"><ele>302.0</ele><time>2026-04-25T14:25:02.427Z</time></trkpt><trkpt lat="46.0885882" lon="12.1294452"><ele>302.0</ele><time>2026-04-25T14:25:05.432Z</time></trkpt><trkpt lat="46.088621" lon="12.1295759"><ele>302.0</ele><time>2026-04-25T14:25:08.43Z</time></trkpt><trkpt lat="46.0886422" lon="12.1296677"><ele>302.0</ele><time>2026-04-25T14:25:11.414Z</time></trkpt><trkpt lat="46.0886563" lon="12.1297597"><ele>302.0</ele><time>2026-04-25T14:25:16.431Z</time></trkpt><trkpt lat="46.0887582" lon="12.1297418"><ele>302.0</ele><time>2026-04-25T14:25:18.43Z</time></trkpt><trkpt lat="46.0888484" lon="12.1296848"><ele>302.0</ele><time>2026-04-25T14:25:20.43Z</time></trkpt><trkpt lat="46.0889303" lon="12.1296212"><ele>302.0</ele><time>2026-04-25T14:25:22.43Z</time></trkpt><trkpt lat="46.0890112" lon="12.129546"><ele>302.0</ele><time>2026-04-25T14:25:24.425Z</time></trkpt><trkpt lat="46.0890914" lon="12.1294776"><ele>302.0</ele><time>2026-04-25T14:25:26.43Z</time></trkpt><trkpt lat="46.0891615" lon="12.1294248"><ele>302.0</ele><time>2026-04-25T14:25:28.428Z</time></trkpt><trkpt lat="46.0892169" lon="12.1294861"><ele>302.0</ele><time>2026-04-25T14:25:30.43Z</time></trkpt><trkpt lat="46.0892287" lon="12.1295772"><ele>302.0</ele><time>2026-04-25T14:25:31.416Z</time></trkpt><trkpt lat="46.0892809" lon="12.1297172"><ele>302.2</ele><time>2026-04-25T14:25:33.43Z</time></trkpt><trkpt lat="46.0893277" lon="12.1298495"><ele>302.4</ele><time>2026-04-25T14:25:35.431Z</time></trkpt><trkpt lat="46.0893962" lon="12.129978"><ele>302.6</ele><time>2026-04-25T14:25:37.427Z</time></trkpt><trkpt lat="46.0894474" lon="12.1300977"><ele>302.8</ele><time>2026-04-25T14:25:39.426Z</time></trkpt><trkpt lat="46.0894901" lon="12.130211"><ele>303.0</ele><time>2026-04-25T14:25:41.422Z</time></trkpt><trkpt lat="46.0895411" lon="12.1302943"><ele>303.0</ele><time>2026-04-25T14:25:43.43Z</time></trkpt><trkpt lat="46.0896064" lon="12.1303291"><ele>303.0</ele><time>2026-04-25T14:25:46.431Z</time></trkpt><trkpt lat="46.0895538" lon="12.1303906"><ele>303.0</ele><time>2026-04-25T14:26:05.42Z</time></trkpt><trkpt lat="46.0895189" lon="12.1302663"><ele>303.0</ele><time>2026-04-25T14:26:34.429Z</time></trkpt><trkpt lat="46.0894753" lon="12.1301642"><ele>303.0</ele><time>2026-04-25T14:26:36.42Z</time></trkpt><trkpt lat="46.0894269" lon="12.1300381"><ele>303.0</ele><time>2026-04-25T14:26:38.438Z</time></trkpt><trkpt lat="46.0893782" lon="12.1299299"><ele>303.0</ele><time>2026-04-25T14:26:40.42Z</time></trkpt><trkpt lat="46.0893264" lon="12.1298203"><ele>303.0</ele><time>2026-04-25T14:26:42.427Z</time></trkpt><trkpt lat="46.0892837" lon="12.1297158"><ele>303.0</ele><time>2026-04-25T14:26:44.43Z</time></trkpt><trkpt lat="46.0892338" lon="12.1296011"><ele>303.0</ele><time>2026-04-25T14:26:46.434Z</time></trkpt><trkpt lat="46.0891873" lon="12.1295095"><ele>303.0</ele><time>2026-04-25T14:26:48.433Z</time></trkpt><trkpt lat="46.089137" lon="12.1294224"><ele>303.0</ele><time>2026-04-25T14:26:51.421Z</time></trkpt><trkpt lat="46.0890791" lon="12.1294677"><ele>302.8333333333333</ele><time>2026-04-25T14:26:54.42Z</time></trkpt><trkpt lat="46.0889994" lon="12.1295445"><ele>302.6666666666667</ele><time>2026-04-25T14:26:57.432Z</time></trkpt><trkpt lat="46.088938" lon="12.1295738"><ele>302.5</ele><time>2026-04-25T14:26:59.433Z</time></trkpt><trkpt lat="46.0888508" lon="12.1295784"><ele>302.33333333333337</ele><time>2026-04-25T14:27:01.433Z</time></trkpt><trkpt lat="46.0887597" lon="12.1296169"><ele>302.1666666666667</ele><time>2026-04-25T14:27:03.427Z</time></trkpt><trkpt lat="46.0886708" lon="12.12967"><ele>302.0</ele><time>2026-04-25T14:27:05.419Z</time></trkpt><trkpt lat="46.0885829" lon="12.1297359"><ele>302.0</ele><time>2026-04-25T14:27:07.428Z</time></trkpt><trkpt lat="46.0884918" lon="12.1298067"><ele>302.0</ele><time>2026-04-25T14:27:09.429Z</time></trkpt><trkpt lat="46.0884058" lon="12.1298839"><ele>302.0</ele><time>2026-04-25T14:27:11.435Z</time></trkpt><trkpt lat="46.0883206" lon="12.129977"><ele>302.0</ele><time>2026-04-25T14:27:13.434Z</time></trkpt><trkpt lat="46.0882314" lon="12.1300569"><ele>302.0</ele><time>2026-04-25T14:27:15.419Z</time></trkpt><trkpt lat="46.0881433" lon="12.130131"><ele>302.6</ele><time>2026-04-25T14:27:17.418Z</time></trkpt><trkpt lat="46.0880536" lon="12.1301996"><ele>303.2</ele><time>2026-04-25T14:27:19.427Z</time></trkpt><trkpt lat="46.0879673" lon="12.1302705"><ele>303.8</ele><time>2026-04-25T14:27:21.43Z</time></trkpt><trkpt lat="46.0878805" lon="12.1303396"><ele>304.4</ele><time>2026-04-25T14:27:23.413Z</time></trkpt><trkpt lat="46.0878035" lon="12.1304036"><ele>305.0</ele><time>2026-04-25T14:27:25.432Z</time></trkpt><trkpt lat="46.0877228" lon="12.1304699"><ele>305.0</ele><time>2026-04-25T14:27:27.426Z</time></trkpt><trkpt lat="46.0876417" lon="12.1305331"><ele>305.0</ele><time>2026-04-25T14:27:29.416Z</time></trkpt><trkpt lat="46.0875615" lon="12.130606"><ele>305.0</ele><time>2026-04-25T14:27:31.42Z</time></trkpt><trkpt lat="46.0874767" lon="12.130675"><ele>305.0</ele><time>2026-04-25T14:27:33.428Z</time></trkpt><trkpt lat="46.0873905" lon="12.1307449"><ele>305.0</ele><time>2026-04-25T14:27:35.428Z</time></trkpt><trkpt lat="46.0873126" lon="12.130811"><ele>305.83333333333337</ele><time>2026-04-25T14:27:37.432Z</time></trkpt><trkpt lat="46.0872329" lon="12.1308827"><ele>306.6666666666667</ele><time>2026-04-25T14:27:39.421Z</time></trkpt><trkpt lat="46.0871653" lon="12.1309483"><ele>307.5</ele><time>2026-04-25T14:27:41.426Z</time></trkpt><trkpt lat="46.0871196" lon="12.1310519"><ele>308.3333333333333</ele><time>2026-04-25T14:27:43.423Z</time></trkpt><trkpt lat="46.0871324" lon="12.1311519"><ele>309.16666666666663</ele><time>2026-04-25T14:27:45.429Z</time></trkpt><trkpt lat="46.0871888" lon="12.1312288"><ele>310.0</ele><time>2026-04-25T14:27:47.419Z</time></trkpt><trkpt lat="46.0872589" lon="12.1313145"><ele>310.0</ele><time>2026-04-25T14:27:49.421Z</time></trkpt><trkpt lat="46.0873229" lon="12.1313973"><ele>310.0</ele><time>2026-04-25T14:27:51.427Z</time></trkpt><trkpt lat="46.0873772" lon="12.1314919"><ele>310.0</ele><time>2026-04-25T14:27:53.425Z</time></trkpt><trkpt lat="46.0874452" lon="12.1315738"><ele>310.0</ele><time>2026-04-25T14:27:55.429Z</time></trkpt><trkpt lat="46.0875122" lon="12.1316542"><ele>310.0</ele><time>2026-04-25T14:27:57.429Z</time></trkpt><trkpt lat="46.087578" lon="12.131738"><ele>310.0</ele><time>2026-04-25T14:27:59.426Z</time></trkpt><trkpt lat="46.0876393" lon="12.1318227"><ele>309.3333333333333</ele><time>2026-04-25T14:28:01.417Z</time></trkpt><trkpt lat="46.0876966" lon="12.131912"><ele>308.66666666666663</ele><time>2026-04-25T14:28:03.428Z</time></trkpt><trkpt lat="46.0877535" lon="12.1320043"><ele>308.0</ele><time>2026-04-25T14:28:05.424Z</time></trkpt><trkpt lat="46.0878175" lon="12.1320856"><ele>307.3333333333333</ele><time>2026-04-25T14:28:07.432Z</time></trkpt><trkpt lat="46.0878902" lon="12.1321608"><ele>306.6666666666667</ele><time>2026-04-25T14:28:09.424Z</time></trkpt><trkpt lat="46.0879685" lon="12.1322328"><ele>306.0</ele><time>2026-04-25T14:28:11.422Z</time></trkpt><trkpt lat="46.0880323" lon="12.1322891"><ele>306.0</ele><time>2026-04-25T14:28:13.424Z</time></trkpt><trkpt lat="46.0880951" lon="12.1322964"><ele>306.0</ele><time>2026-04-25T14:28:15.43Z</time></trkpt><trkpt lat="46.0881683" lon="12.1322703"><ele>306.0</ele><time>2026-04-25T14:28:17.427Z</time></trkpt><trkpt lat="46.0882574" lon="12.1322553"><ele>306.0</ele><time>2026-04-25T14:28:19.424Z</time></trkpt><trkpt lat="46.0883572" lon="12.1322175"><ele>306.0</ele><time>2026-04-25T14:28:21.431Z</time></trkpt><trkpt lat="46.0884214" lon="12.132122"><ele>306.0</ele><time>2026-04-25T14:28:23.428Z</time></trkpt><trkpt lat="46.0884746" lon="12.1319966"><ele>305.8</ele><time>2026-04-25T14:28:25.427Z</time></trkpt><trkpt lat="46.0885295" lon="12.1318571"><ele>305.6</ele><time>2026-04-25T14:28:27.428Z</time></trkpt><trkpt lat="46.0885813" lon="12.1317207"><ele>305.4</ele><time>2026-04-25T14:28:29.428Z</time></trkpt><trkpt lat="46.0886475" lon="12.1316261"><ele>305.2</ele><time>2026-04-25T14:28:31.422Z</time></trkpt><trkpt lat="46.0887172" lon="12.1315492"><ele>305.0</ele><time>2026-04-25T14:28:33.428Z</time></trkpt><trkpt lat="46.0887902" lon="12.1315008"><ele>304.8571428571429</ele><time>2026-04-25T14:28:35.43Z</time></trkpt><trkpt lat="46.0888517" lon="12.1314554"><ele>304.71428571428567</ele><time>2026-04-25T14:28:37.431Z</time></trkpt><trkpt lat="46.0889218" lon="12.1313901"><ele>304.57142857142856</ele><time>2026-04-25T14:28:40.431Z</time></trkpt><trkpt lat="46.0889768" lon="12.1313419"><ele>304.42857142857144</ele><time>2026-04-25T14:28:43.43Z</time></trkpt><trkpt lat="46.0889259" lon="12.1314165"><ele>304.28571428571433</ele><time>2026-04-25T14:28:49.43Z</time></trkpt><trkpt lat="46.0888542" lon="12.1314502"><ele>304.1428571428571</ele><time>2026-04-25T14:28:51.43Z</time></trkpt><trkpt lat="46.0887862" lon="12.1314968"><ele>304.0</ele><time>2026-04-25T14:28:53.428Z</time></trkpt><trkpt lat="46.088718" lon="12.1315446"><ele>304.16666666666663</ele><time>2026-04-25T14:28:55.429Z</time></trkpt><trkpt lat="46.0886526" lon="12.131593"><ele>304.3333333333333</ele><time>2026-04-25T14:28:57.428Z</time></trkpt><trkpt lat="46.0885912" lon="12.1316561"><ele>304.5</ele><time>2026-04-25T14:28:59.422Z</time></trkpt><trkpt lat="46.0885432" lon="12.1317762"><ele>304.6666666666667</ele><time>2026-04-25T14:29:01.543Z</time></trkpt><trkpt lat="46.0884964" lon="12.1318897"><ele>304.83333333333337</ele><time>2026-04-25T14:29:03.416Z</time></trkpt><trkpt lat="46.088452" lon="12.1320069"><ele>305.0</ele><time>2026-04-25T14:29:05.429Z</time></trkpt><trkpt lat="46.0884028" lon="12.1321232"><ele>305.0</ele><time>2026-04-25T14:29:07.418Z</time></trkpt><trkpt lat="46.0883452" lon="12.1321982"><ele>305.0</ele><time>2026-04-25T14:29:09.429Z</time></trkpt><trkpt lat="46.0882689" lon="12.1322304"><ele>305.0</ele><time>2026-04-25T14:29:11.427Z</time></trkpt><trkpt lat="46.0881909" lon="12.1322482"><ele>305.0</ele><time>2026-04-25T14:29:13.435Z</time></trkpt><trkpt lat="46.0881191" lon="12.1322752"><ele>305.0</ele><time>2026-04-25T14:29:15.427Z</time></trkpt><trkpt lat="46.0880824" lon="12.1323669"><ele>305.0</ele><time>2026-04-25T14:29:18.429Z</time></trkpt><trkpt lat="46.0881504" lon="12.1324609"><ele>305.0</ele><time>2026-04-25T14:29:20.428Z</time></trkpt><trkpt lat="46.0881944" lon="12.1325497"><ele>305.0</ele><time>2026-04-25T14:29:22.425Z</time></trkpt><trkpt lat="46.0882555" lon="12.1326428"><ele>305.0</ele><time>2026-04-25T14:29:47.432Z</time></trkpt><trkpt lat="46.088285" lon="12.1327241"><ele>305.0</ele><time>2026-04-25T14:29:49.432Z</time></trkpt><trkpt lat="46.088323" lon="12.1328231"><ele>305.0</ele><time>2026-04-25T14:29:51.428Z</time></trkpt><trkpt lat="46.088364" lon="12.1329066"><ele>305.0</ele><time>2026-04-25T14:29:53.429Z</time></trkpt><trkpt lat="46.0884015" lon="12.132989"><ele>305.0</ele><time>2026-04-25T14:29:55.431Z</time></trkpt><trkpt lat="46.0884468" lon="12.1330739"><ele>305.0</ele><time>2026-04-25T14:29:57.434Z</time></trkpt><trkpt lat="46.0885064" lon="12.133171"><ele>305.0</ele><time>2026-04-25T14:29:59.431Z</time></trkpt><trkpt lat="46.0885646" lon="12.1332896"><ele>305.0</ele><time>2026-04-25T14:30:01.418Z</time></trkpt><trkpt lat="46.0886456" lon="12.1333754"><ele>305.0</ele><time>2026-04-25T14:30:03.43Z</time></trkpt><trkpt lat="46.088744" lon="12.133368"><ele>305.0</ele><time>2026-04-25T14:30:05.433Z</time></trkpt><trkpt lat="46.0888284" lon="12.1332962"><ele>305.0</ele><time>2026-04-25T14:30:07.43Z</time></trkpt><trkpt lat="46.0888988" lon="12.1331994"><ele>305.0</ele><time>2026-04-25T14:30:09.433Z</time></trkpt><trkpt lat="46.0889677" lon="12.1331232"><ele>305.0</ele><time>2026-04-25T14:30:11.43Z</time></trkpt><trkpt lat="46.089043" lon="12.1330532"><ele>305.0</ele><time>2026-04-25T14:30:13.429Z</time></trkpt><trkpt lat="46.0891154" lon="12.1329819"><ele>305.0</ele><time>2026-04-25T14:30:15.427Z</time></trkpt><trkpt lat="46.0891851" lon="12.1329059"><ele>305.0</ele><time>2026-04-25T14:30:17.423Z</time></trkpt><trkpt lat="46.0892455" lon="12.1328186"><ele>304.33333333333337</ele><time>2026-04-25T14:30:19.433Z</time></trkpt><trkpt lat="46.0893048" lon="12.13273"><ele>303.6666666666667</ele><time>2026-04-25T14:30:21.435Z</time></trkpt><trkpt lat="46.0893616" lon="12.1326348"><ele>303.0</ele><time>2026-04-25T14:30:23.429Z</time></trkpt><trkpt lat="46.089451" lon="12.1326059"><ele>302.3333333333333</ele><time>2026-04-25T14:30:25.423Z</time></trkpt><trkpt lat="46.0894999" lon="12.1326919"><ele>301.66666666666663</ele><time>2026-04-25T14:30:27.42Z</time></trkpt><trkpt lat="46.0895477" lon="12.1327854"><ele>301.0</ele><time>2026-04-25T14:30:29.424Z</time></trkpt><trkpt lat="46.0896092" lon="12.1328745"><ele>301.0</ele><time>2026-04-25T14:30:31.43Z</time></trkpt><trkpt lat="46.0896856" lon="12.132958"><ele>301.0</ele><time>2026-04-25T14:30:33.436Z</time></trkpt><trkpt lat="46.0897689" lon="12.1330112"><ele>301.0</ele><time>2026-04-25T14:30:35.427Z</time></trkpt><trkpt lat="46.0898589" lon="12.1330561"><ele>301.0</ele><time>2026-04-25T14:30:37.425Z</time></trkpt><trkpt lat="46.0899769" lon="12.1331271"><ele>301.0</ele><time>2026-04-25T14:30:39.436Z</time></trkpt><trkpt lat="46.0900379" lon="12.1331519"><ele>301.0</ele><time>2026-04-25T14:30:40.44Z</time></trkpt><trkpt lat="46.0901112" lon="12.1331679"><ele>301.0</ele><time>2026-04-25T14:30:41.436Z</time></trkpt><trkpt lat="46.0901768" lon="12.1331755"><ele>301.0</ele><time>2026-04-25T14:30:42.419Z</time></trkpt><trkpt lat="46.0902899" lon="12.133208"><ele>301.0</ele><time>2026-04-25T14:30:44.422Z</time></trkpt><trkpt lat="46.0903772" lon="12.1332377"><ele>301.0</ele><time>2026-04-25T14:30:46.424Z</time></trkpt><trkpt lat="46.0904576" lon="12.133263"><ele>301.0</ele><time>2026-04-25T14:30:48.422Z</time></trkpt><trkpt lat="46.0905478" lon="12.1333033"><ele>301.0</ele><time>2026-04-25T14:30:51.43Z</time></trkpt><trkpt lat="46.0906298" lon="12.1333646"><ele>301.0</ele><time>2026-04-25T14:30:54.42Z</time></trkpt><trkpt lat="46.0906882" lon="12.1334114"><ele>301.0</ele><time>2026-04-25T14:30:56.428Z</time></trkpt><trkpt lat="46.0907573" lon="12.1334563"><ele>301.0</ele><time>2026-04-25T14:30:58.429Z</time></trkpt><trkpt lat="46.0908386" lon="12.1334982"><ele>301.0</ele><time>2026-04-25T14:31:00.432Z</time></trkpt><trkpt lat="46.0909163" lon="12.1335526"><ele>301.0</ele><time>2026-04-25T14:31:02.418Z</time></trkpt><trkpt lat="46.0909899" lon="12.1335958"><ele>300.2</ele><time>2026-04-25T14:31:04.43Z</time></trkpt><trkpt lat="46.0910685" lon="12.133658"><ele>299.40000000000003</ele><time>2026-04-25T14:31:06.43Z</time></trkpt><trkpt lat="46.0911371" lon="12.1337543"><ele>298.6</ele><time>2026-04-25T14:31:08.422Z</time></trkpt><trkpt lat="46.0911826" lon="12.1338419"><ele>297.8</ele><time>2026-04-25T14:31:10.426Z</time></trkpt><trkpt lat="46.0912335" lon="12.1339345"><ele>297.0</ele><time>2026-04-25T14:31:12.428Z</time></trkpt><trkpt lat="46.091311" lon="12.1340409"><ele>297.3333333333333</ele><time>2026-04-25T14:31:15.43Z</time></trkpt><trkpt lat="46.0913664" lon="12.1340946"><ele>297.6666666666667</ele><time>2026-04-25T14:31:17.429Z</time></trkpt><trkpt lat="46.0914313" lon="12.134124"><ele>298.0</ele><time>2026-04-25T14:31:19.429Z</time></trkpt><trkpt lat="46.0915116" lon="12.1341428"><ele>298.33333333333337</ele><time>2026-04-25T14:31:21.429Z</time></trkpt><trkpt lat="46.091604" lon="12.1341502"><ele>298.6666666666667</ele><time>2026-04-25T14:31:23.424Z</time></trkpt><trkpt lat="46.0916958" lon="12.1341646"><ele>299.0</ele><time>2026-04-25T14:31:25.429Z</time></trkpt><trkpt lat="46.0917854" lon="12.1342066"><ele>299.0</ele><time>2026-04-25T14:31:27.428Z</time></trkpt><trkpt lat="46.091857" lon="12.1342761"><ele>299.0</ele><time>2026-04-25T14:31:29.43Z</time></trkpt><trkpt lat="46.0919148" lon="12.1343661"><ele>299.0</ele><time>2026-04-25T14:31:31.429Z</time></trkpt><trkpt lat="46.0919561" lon="12.1344681"><ele>299.0</ele><time>2026-04-25T14:31:33.432Z</time></trkpt><trkpt lat="46.092012" lon="12.1345847"><ele>299.0</ele><time>2026-04-25T14:31:35.429Z</time></trkpt><trkpt lat="46.0920612" lon="12.1346921"><ele>299.0</ele><time>2026-04-25T14:31:37.426Z</time></trkpt><trkpt lat="46.0921043" lon="12.1347871"><ele>299.0</ele><time>2026-04-25T14:31:39.429Z</time></trkpt><trkpt lat="46.0921504" lon="12.1348771"><ele>299.0</ele><time>2026-04-25T14:31:41.42Z</time></trkpt><trkpt lat="46.0922001" lon="12.1349709"><ele>299.0</ele><time>2026-04-25T14:31:43.428Z</time></trkpt><trkpt lat="46.0922614" lon="12.1350554"><ele>299.0</ele><time>2026-04-25T14:31:45.43Z</time></trkpt><trkpt lat="46.0923358" lon="12.1351319"><ele>299.0</ele><time>2026-04-25T14:31:47.423Z</time></trkpt><trkpt lat="46.0924249" lon="12.1351829"><ele>299.0</ele><time>2026-04-25T14:31:49.42Z</time></trkpt><trkpt lat="46.0925158" lon="12.1352054"><ele>298.59999999999997</ele><time>2026-04-25T14:31:51.42Z</time></trkpt><trkpt lat="46.0926081" lon="12.1352155"><ele>298.2</ele><time>2026-04-25T14:31:53.428Z</time></trkpt><trkpt lat="46.0927051" lon="12.135201"><ele>297.79999999999995</ele><time>2026-04-25T14:31:55.423Z</time></trkpt><trkpt lat="46.092802" lon="12.1351704"><ele>297.4</ele><time>2026-04-25T14:31:57.42Z</time></trkpt><trkpt lat="46.092899" lon="12.1351414"><ele>297.0</ele><time>2026-04-25T14:31:59.418Z</time></trkpt><trkpt lat="46.0929913" lon="12.1351083"><ele>297.0</ele><time>2026-04-25T14:32:01.43Z</time></trkpt><trkpt lat="46.0930851" lon="12.1350914"><ele>297.0</ele><time>2026-04-25T14:32:03.43Z</time></trkpt><trkpt lat="46.0931666" lon="12.1351404"><ele>297.0</ele><time>2026-04-25T14:32:05.429Z</time></trkpt><trkpt lat="46.0931958" lon="12.1352569"><ele>297.0</ele><time>2026-04-25T14:32:07.42Z</time></trkpt><trkpt lat="46.0932117" lon="12.1353836"><ele>297.0</ele><time>2026-04-25T14:32:09.429Z</time></trkpt><trkpt lat="46.0932238" lon="12.1355172"><ele>297.0</ele><time>2026-04-25T14:32:11.43Z</time></trkpt><trkpt lat="46.0932383" lon="12.1356583"><ele>297.0</ele><time>2026-04-25T14:32:13.43Z</time></trkpt><trkpt lat="46.0932403" lon="12.1357964"><ele>297.0</ele><time>2026-04-25T14:32:15.429Z</time></trkpt><trkpt lat="46.0932369" lon="12.1359381"><ele>297.0</ele><time>2026-04-25T14:32:17.428Z</time></trkpt><trkpt lat="46.0932294" lon="12.1360687"><ele>297.0</ele><time>2026-04-25T14:32:19.429Z</time></trkpt><trkpt lat="46.0932209" lon="12.1362007"><ele>296.8333333333333</ele><time>2026-04-25T14:32:21.42Z</time></trkpt><trkpt lat="46.0932156" lon="12.1363223"><ele>296.6666666666667</ele><time>2026-04-25T14:32:23.426Z</time></trkpt><trkpt lat="46.0932077" lon="12.1364255"><ele>296.5</ele><time>2026-04-25T14:32:25.428Z</time></trkpt><trkpt lat="46.0931924" lon="12.1365503"><ele>296.33333333333337</ele><time>2026-04-25T14:32:28.421Z</time></trkpt><trkpt lat="46.0932074" lon="12.1366391"><ele>296.1666666666667</ele><time>2026-04-25T14:32:30.422Z</time></trkpt><trkpt lat="46.0932111" lon="12.1367375"><ele>296.0</ele><time>2026-04-25T14:32:32.43Z</time></trkpt><trkpt lat="46.0932196" lon="12.1368438"><ele>296.0</ele><time>2026-04-25T14:32:34.422Z</time></trkpt><trkpt lat="46.0932174" lon="12.136977"><ele>296.0</ele><time>2026-04-25T14:32:36.421Z</time></trkpt><trkpt lat="46.0932221" lon="12.1370966"><ele>296.0</ele><time>2026-04-25T14:32:38.422Z</time></trkpt><trkpt lat="46.0932191" lon="12.1371977"><ele>296.0</ele><time>2026-04-25T14:32:40.43Z</time></trkpt><trkpt lat="46.0931527" lon="12.1372845"><ele>296.0</ele><time>2026-04-25T14:32:43.43Z</time></trkpt><trkpt lat="46.0930867" lon="12.1373618"><ele>296.0</ele><time>2026-04-25T14:32:46.424Z</time></trkpt><trkpt lat="46.0930492" lon="12.1374379"><ele>296.1666666666667</ele><time>2026-04-25T14:32:48.43Z</time></trkpt><trkpt lat="46.0930231" lon="12.1375272"><ele>296.33333333333337</ele><time>2026-04-25T14:32:50.429Z</time></trkpt><trkpt lat="46.093002" lon="12.1376294"><ele>296.5</ele><time>2026-04-25T14:32:52.429Z</time></trkpt><trkpt lat="46.0929836" lon="12.1377501"><ele>296.6666666666667</ele><time>2026-04-25T14:32:54.423Z</time></trkpt><trkpt lat="46.0929589" lon="12.1378796"><ele>296.8333333333333</ele><time>2026-04-25T14:32:56.432Z</time></trkpt><trkpt lat="46.0929243" lon="12.137984"><ele>297.0</ele><time>2026-04-25T14:32:58.431Z</time></trkpt><trkpt lat="46.0928944" lon="12.1380843"><ele>297.0</ele><time>2026-04-25T14:33:00.431Z</time></trkpt><trkpt lat="46.0928744" lon="12.1381921"><ele>297.0</ele><time>2026-04-25T14:33:02.423Z</time></trkpt><trkpt lat="46.0928637" lon="12.1383173"><ele>297.0</ele><time>2026-04-25T14:33:04.431Z</time></trkpt><trkpt lat="46.0928401" lon="12.1384328"><ele>297.0</ele><time>2026-04-25T14:33:06.43Z</time></trkpt><trkpt lat="46.0928101" lon="12.138547"><ele>297.0</ele><time>2026-04-25T14:33:08.432Z</time></trkpt><trkpt lat="46.0927717" lon="12.1386455"><ele>297.0</ele><time>2026-04-25T14:33:10.424Z</time></trkpt><trkpt lat="46.092753" lon="12.1387442"><ele>297.3333333333333</ele><time>2026-04-25T14:33:12.429Z</time></trkpt><trkpt lat="46.0927378" lon="12.1388673"><ele>297.6666666666667</ele><time>2026-04-25T14:33:14.43Z</time></trkpt><trkpt lat="46.0927197" lon="12.1390061"><ele>298.0</ele><time>2026-04-25T14:33:16.429Z</time></trkpt><trkpt lat="46.0927313" lon="12.1391255"><ele>298.33333333333337</ele><time>2026-04-25T14:33:18.42Z</time></trkpt><trkpt lat="46.0927205" lon="12.1392255"><ele>298.6666666666667</ele><time>2026-04-25T14:33:20.421Z</time></trkpt><trkpt lat="46.0927232" lon="12.1393201"><ele>299.0</ele><time>2026-04-25T14:33:22.422Z</time></trkpt><trkpt lat="46.0927307" lon="12.1394471"><ele>299.1666666666667</ele><time>2026-04-25T14:33:25.432Z</time></trkpt><trkpt lat="46.0927841" lon="12.1395745"><ele>299.33333333333337</ele><time>2026-04-25T14:33:28.429Z</time></trkpt><trkpt lat="46.0927971" lon="12.1396857"><ele>299.5</ele><time>2026-04-25T14:33:30.428Z</time></trkpt><trkpt lat="46.0927778" lon="12.1397957"><ele>299.6666666666667</ele><time>2026-04-25T14:33:32.419Z</time></trkpt><trkpt lat="46.092754" lon="12.1398982"><ele>299.8333333333333</ele><time>2026-04-25T14:33:34.419Z</time></trkpt><trkpt lat="46.0927791" lon="12.1400204"><ele>300.0</ele><time>2026-04-25T14:33:37.43Z</time></trkpt><trkpt lat="46.0927682" lon="12.1401151"><ele>300.5</ele><time>2026-04-25T14:33:39.428Z</time></trkpt><trkpt lat="46.0927478" lon="12.140211"><ele>301.0</ele><time>2026-04-25T14:33:41.43Z</time></trkpt><trkpt lat="46.0927773" lon="12.1403134"><ele>301.5</ele><time>2026-04-25T14:33:43.43Z</time></trkpt><trkpt lat="46.0928341" lon="12.1404048"><ele>302.0</ele><time>2026-04-25T14:33:45.428Z</time></trkpt><trkpt lat="46.0928671" lon="12.1405047"><ele>302.5</ele><time>2026-04-25T14:33:47.429Z</time></trkpt><trkpt lat="46.0928714" lon="12.1406112"><ele>303.0</ele><time>2026-04-25T14:33:49.431Z</time></trkpt><trkpt lat="46.0928873" lon="12.1407113"><ele>303.2857142857143</ele><time>2026-04-25T14:33:51.431Z</time></trkpt><trkpt lat="46.0929301" lon="12.1408039"><ele>303.57142857142856</ele><time>2026-04-25T14:33:53.43Z</time></trkpt><trkpt lat="46.0929765" lon="12.140877"><ele>303.8571428571429</ele><time>2026-04-25T14:33:55.419Z</time></trkpt><trkpt lat="46.0930295" lon="12.1409368"><ele>304.1428571428571</ele><time>2026-04-25T14:33:57.436Z</time></trkpt><trkpt lat="46.0930956" lon="12.140987"><ele>304.4285714285714</ele><time>2026-04-25T14:33:59.426Z</time></trkpt><trkpt lat="46.0931317" lon="12.1410638"><ele>304.7142857142857</ele><time>2026-04-25T14:34:01.431Z</time></trkpt><trkpt lat="46.0931713" lon="12.1411618"><ele>305.0</ele><time>2026-04-25T14:34:03.419Z</time></trkpt><trkpt lat="46.0932199" lon="12.1412635"><ele>304.4</ele><time>2026-04-25T14:34:05.419Z</time></trkpt><trkpt lat="46.0932594" lon="12.1413702"><ele>303.8</ele><time>2026-04-25T14:34:07.429Z</time></trkpt><trkpt lat="46.0933023" lon="12.1414579"><ele>303.2</ele><time>2026-04-25T14:34:09.43Z</time></trkpt><trkpt lat="46.0933773" lon="12.1415581"><ele>302.6</ele><time>2026-04-25T14:34:11.42Z</time></trkpt><trkpt lat="46.0934408" lon="12.1416599"><ele>302.0</ele><time>2026-04-25T14:34:13.42Z</time></trkpt><trkpt lat="46.0935179" lon="12.1417414"><ele>302.0</ele><time>2026-04-25T14:34:15.429Z</time></trkpt><trkpt lat="46.0935915" lon="12.1418155"><ele>302.0</ele><time>2026-04-25T14:34:17.427Z</time></trkpt><trkpt lat="46.0936574" lon="12.1418679"><ele>302.0</ele><time>2026-04-25T14:34:19.419Z</time></trkpt><trkpt lat="46.0937338" lon="12.1419279"><ele>302.0</ele><time>2026-04-25T14:34:21.417Z</time></trkpt><trkpt lat="46.0938011" lon="12.1420058"><ele>302.0</ele><time>2026-04-25T14:34:23.43Z</time></trkpt><trkpt lat="46.0938627" lon="12.1420703"><ele>302.0</ele><time>2026-04-25T14:34:25.431Z</time></trkpt><trkpt lat="46.093957" lon="12.1420742"><ele>302.00000000000006</ele><time>2026-04-25T14:34:28.438Z</time></trkpt><trkpt lat="46.0940175" lon="12.1421118"><ele>302.0</ele><time>2026-04-25T14:34:30.419Z</time></trkpt><trkpt lat="46.0940918" lon="12.1421559"><ele>302.0</ele><time>2026-04-25T14:34:33.416Z</time></trkpt><trkpt lat="46.0941694" lon="12.1421894"><ele>302.0</ele><time>2026-04-25T14:34:36.417Z</time></trkpt><trkpt lat="46.0941959" lon="12.1422751"><ele>302.0</ele><time>2026-04-25T14:34:40.418Z</time></trkpt><trkpt lat="46.0942042" lon="12.1423797"><ele>302.00000000000006</ele><time>2026-04-25T14:34:43.419Z</time></trkpt><trkpt lat="46.094195" lon="12.1424827"><ele>302.0</ele><time>2026-04-25T14:34:45.415Z</time></trkpt><trkpt lat="46.0941891" lon="12.1425894"><ele>301.8</ele><time>2026-04-25T14:34:47.424Z</time></trkpt><trkpt lat="46.0942009" lon="12.1427099"><ele>301.6</ele><time>2026-04-25T14:34:49.419Z</time></trkpt><trkpt lat="46.094208" lon="12.142843"><ele>301.40000000000003</ele><time>2026-04-25T14:34:51.423Z</time></trkpt><trkpt lat="46.0942209" lon="12.1429826"><ele>301.2</ele><time>2026-04-25T14:34:53.429Z</time></trkpt><trkpt lat="46.0942337" lon="12.1431277"><ele>301.0</ele><time>2026-04-25T14:34:55.427Z</time></trkpt><trkpt lat="46.0942672" lon="12.1432671"><ele>301.0</ele><time>2026-04-25T14:34:57.421Z</time></trkpt><trkpt lat="46.0943031" lon="12.143397"><ele>301.0</ele><time>2026-04-25T14:34:59.428Z</time></trkpt><trkpt lat="46.0943336" lon="12.1435128"><ele>301.0</ele><time>2026-04-25T14:35:01.431Z</time></trkpt><trkpt lat="46.0943576" lon="12.1436031"><ele>301.0</ele><time>2026-04-25T14:35:03.429Z</time></trkpt><trkpt lat="46.0943845" lon="12.1437095"><ele>301.0</ele><time>2026-04-25T14:35:05.42Z</time></trkpt><trkpt lat="46.094421" lon="12.1438232"><ele>301.0</ele><time>2026-04-25T14:35:07.43Z</time></trkpt><trkpt lat="46.0944373" lon="12.1439152"><ele>301.0</ele><time>2026-04-25T14:35:09.421Z</time></trkpt><trkpt lat="46.0943974" lon="12.1439948"><ele>301.0</ele><time>2026-04-25T14:35:11.431Z</time></trkpt><trkpt lat="46.0943401" lon="12.1440462"><ele>301.0</ele><time>2026-04-25T14:35:13.429Z</time></trkpt><trkpt lat="46.0942936" lon="12.1441209"><ele>301.0</ele><time>2026-04-25T14:35:15.435Z</time></trkpt><trkpt lat="46.0942506" lon="12.1442181"><ele>301.0</ele><time>2026-04-25T14:35:17.43Z</time></trkpt><trkpt lat="46.0942261" lon="12.1443424"><ele>301.0</ele><time>2026-04-25T14:35:19.424Z</time></trkpt><trkpt lat="46.0941951" lon="12.1444621"><ele>301.66666666666663</ele><time>2026-04-25T14:35:21.427Z</time></trkpt><trkpt lat="46.0941665" lon="12.1445708"><ele>302.3333333333333</ele><time>2026-04-25T14:35:23.422Z</time></trkpt><trkpt lat="46.0941597" lon="12.1446908"><ele>303.0</ele><time>2026-04-25T14:35:25.43Z</time></trkpt><trkpt lat="46.0941343" lon="12.1448045"><ele>303.6666666666667</ele><time>2026-04-25T14:35:27.421Z</time></trkpt><trkpt lat="46.0941299" lon="12.144916"><ele>304.33333333333337</ele><time>2026-04-25T14:35:29.43Z</time></trkpt><trkpt lat="46.0941161" lon="12.1450298"><ele>305.0</ele><time>2026-04-25T14:35:31.434Z</time></trkpt><trkpt lat="46.0941004" lon="12.1451438"><ele>305.1666666666667</ele><time>2026-04-25T14:35:33.43Z</time></trkpt><trkpt lat="46.0940788" lon="12.1452703"><ele>305.33333333333337</ele><time>2026-04-25T14:35:35.416Z</time></trkpt><trkpt lat="46.0940455" lon="12.1453907"><ele>305.5</ele><time>2026-04-25T14:35:37.417Z</time></trkpt><trkpt lat="46.0940018" lon="12.1455066"><ele>305.6666666666667</ele><time>2026-04-25T14:35:39.43Z</time></trkpt><trkpt lat="46.0939486" lon="12.1455976"><ele>305.8333333333333</ele><time>2026-04-25T14:35:41.417Z</time></trkpt><trkpt lat="46.0938734" lon="12.1456274"><ele>306.0</ele><time>2026-04-25T14:35:43.417Z</time></trkpt><trkpt lat="46.0937928" lon="12.1456482"><ele>306.0</ele><time>2026-04-25T14:35:45.429Z</time></trkpt><trkpt lat="46.0937167" lon="12.1456699"><ele>306.0</ele><time>2026-04-25T14:35:47.426Z</time></trkpt><trkpt lat="46.0936406" lon="12.1457205"><ele>306.0</ele><time>2026-04-25T14:35:50.429Z</time></trkpt><trkpt lat="46.0936321" lon="12.1458146"><ele>306.0</ele><time>2026-04-25T14:35:52.419Z</time></trkpt><trkpt lat="46.093641" lon="12.1459271"><ele>306.0</ele><time>2026-04-25T14:35:54.428Z</time></trkpt><trkpt lat="46.0936546" lon="12.1460379"><ele>306.0</ele><time>2026-04-25T14:35:56.422Z</time></trkpt><trkpt lat="46.093674" lon="12.1461466"><ele>305.8333333333333</ele><time>2026-04-25T14:35:58.427Z</time></trkpt><trkpt lat="46.0936984" lon="12.1462529"><ele>305.6666666666667</ele><time>2026-04-25T14:36:00.43Z</time></trkpt><trkpt lat="46.0937246" lon="12.1463595"><ele>305.5</ele><time>2026-04-25T14:36:02.425Z</time></trkpt><trkpt lat="46.0937477" lon="12.14647"><ele>305.33333333333337</ele><time>2026-04-25T14:36:04.419Z</time></trkpt><trkpt lat="46.0937597" lon="12.1465737"><ele>305.1666666666667</ele><time>2026-04-25T14:36:06.43Z</time></trkpt><trkpt lat="46.0937966" lon="12.1466776"><ele>305.0</ele><time>2026-04-25T14:36:09.428Z</time></trkpt><trkpt lat="46.0938798" lon="12.1467432"><ele>305.33333333333337</ele><time>2026-04-25T14:36:12.428Z</time></trkpt><trkpt lat="46.0939206" lon="12.1468255"><ele>305.6666666666667</ele><time>2026-04-25T14:36:14.417Z</time></trkpt><trkpt lat="46.0939531" lon="12.1469129"><ele>306.0</ele><time>2026-04-25T14:36:16.427Z</time></trkpt><trkpt lat="46.0940093" lon="12.1470195"><ele>306.3333333333333</ele><time>2026-04-25T14:36:19.419Z</time></trkpt><trkpt lat="46.0940825" lon="12.1471097"><ele>306.66666666666663</ele><time>2026-04-25T14:36:22.428Z</time></trkpt><trkpt lat="46.0941429" lon="12.1471556"><ele>307.0</ele><time>2026-04-25T14:36:24.421Z</time></trkpt><trkpt lat="46.0942059" lon="12.1471895"><ele>307.0</ele><time>2026-04-25T14:36:26.428Z</time></trkpt><trkpt lat="46.09427" lon="12.1472198"><ele>307.0</ele><time>2026-04-25T14:36:28.43Z</time></trkpt><trkpt lat="46.0943294" lon="12.1472545"><ele>307.0</ele><time>2026-04-25T14:36:30.43Z</time></trkpt><trkpt lat="46.0944099" lon="12.1473222"><ele>307.0</ele><time>2026-04-25T14:36:33.428Z</time></trkpt><trkpt lat="46.0944611" lon="12.1473821"><ele>307.0</ele><time>2026-04-25T14:36:35.419Z</time></trkpt><trkpt lat="46.0945161" lon="12.1474536"><ele>307.0</ele><time>2026-04-25T14:36:37.429Z</time></trkpt><trkpt lat="46.09458" lon="12.1475441"><ele>308.0</ele><time>2026-04-25T14:36:39.436Z</time></trkpt><trkpt lat="46.0946537" lon="12.147638"><ele>309.0</ele><time>2026-04-25T14:36:41.429Z</time></trkpt><trkpt lat="46.0947395" lon="12.1477404"><ele>310.0</ele><time>2026-04-25T14:36:43.429Z</time></trkpt><trkpt lat="46.0948322" lon="12.1478552"><ele>311.0</ele><time>2026-04-25T14:36:45.419Z</time></trkpt><trkpt lat="46.0949299" lon="12.1479741"><ele>311.2</ele><time>2026-04-25T14:36:47.429Z</time></trkpt><trkpt lat="46.0950208" lon="12.1480898"><ele>311.40000000000003</ele><time>2026-04-25T14:36:49.428Z</time></trkpt><trkpt lat="46.0951036" lon="12.1481939"><ele>311.6</ele><time>2026-04-25T14:36:51.419Z</time></trkpt><trkpt lat="46.0951767" lon="12.1482892"><ele>311.8</ele><time>2026-04-25T14:36:53.426Z</time></trkpt><trkpt lat="46.0952573" lon="12.1483851"><ele>312.0</ele><time>2026-04-25T14:36:55.418Z</time></trkpt><trkpt lat="46.0953385" lon="12.1484819"><ele>312.0</ele><time>2026-04-25T14:36:57.428Z</time></trkpt><trkpt lat="46.0954292" lon="12.148571"><ele>312.0</ele><time>2026-04-25T14:36:59.422Z</time></trkpt><trkpt lat="46.0955319" lon="12.1486436"><ele>312.0</ele><time>2026-04-25T14:37:01.429Z</time></trkpt><trkpt lat="46.0956405" lon="12.14871"><ele>312.0</ele><time>2026-04-25T14:37:03.417Z</time></trkpt><trkpt lat="46.0957503" lon="12.1487808"><ele>312.6</ele><time>2026-04-25T14:37:05.414Z</time></trkpt><trkpt lat="46.0958511" lon="12.1488501"><ele>313.2</ele><time>2026-04-25T14:37:07.423Z</time></trkpt><trkpt lat="46.0959411" lon="12.1489156"><ele>313.8</ele><time>2026-04-25T14:37:09.428Z</time></trkpt><trkpt lat="46.0960239" lon="12.1489948"><ele>314.4</ele><time>2026-04-25T14:37:11.42Z</time></trkpt><trkpt lat="46.0961037" lon="12.149065"><ele>315.0</ele><time>2026-04-25T14:37:13.419Z</time></trkpt><trkpt lat="46.0961823" lon="12.14914"><ele>315.0</ele><time>2026-04-25T14:37:15.419Z</time></trkpt><trkpt lat="46.096278" lon="12.1492179"><ele>315.0</ele><time>2026-04-25T14:37:17.417Z</time></trkpt><trkpt lat="46.0963751" lon="12.149305"><ele>315.0</ele><time>2026-04-25T14:37:19.428Z</time></trkpt><trkpt lat="46.0964779" lon="12.1493962"><ele>315.0</ele><time>2026-04-25T14:37:21.42Z</time></trkpt><trkpt lat="46.0965797" lon="12.149489"><ele>314.75</ele><time>2026-04-25T14:37:23.427Z</time></trkpt><trkpt lat="46.0966793" lon="12.1495638"><ele>314.5</ele><time>2026-04-25T14:37:25.419Z</time></trkpt><trkpt lat="46.0967761" lon="12.1496363"><ele>314.25</ele><time>2026-04-25T14:37:27.423Z</time></trkpt><trkpt lat="46.0968764" lon="12.1497208"><ele>314.0</ele><time>2026-04-25T14:37:29.428Z</time></trkpt><trkpt lat="46.0969884" lon="12.1497927"><ele>314.0</ele><time>2026-04-25T14:37:31.418Z</time></trkpt><trkpt lat="46.0970976" lon="12.1498763"><ele>314.0</ele><time>2026-04-25T14:37:33.427Z</time></trkpt><trkpt lat="46.0972062" lon="12.149945"><ele>314.0</ele><time>2026-04-25T14:37:35.427Z</time></trkpt><trkpt lat="46.0973068" lon="12.1500014"><ele>314.0</ele><time>2026-04-25T14:37:37.428Z</time></trkpt><trkpt lat="46.0974075" lon="12.150073"><ele>314.25</ele><time>2026-04-25T14:37:39.416Z</time></trkpt><trkpt lat="46.0975159" lon="12.1501323"><ele>314.5</ele><time>2026-04-25T14:37:41.425Z</time></trkpt><trkpt lat="46.0976281" lon="12.1502005"><ele>314.75</ele><time>2026-04-25T14:37:43.418Z</time></trkpt><trkpt lat="46.0977471" lon="12.1502657"><ele>315.0</ele><time>2026-04-25T14:37:45.418Z</time></trkpt><trkpt lat="46.0978586" lon="12.1503349"><ele>315.0</ele><time>2026-04-25T14:37:47.427Z</time></trkpt><trkpt lat="46.0979157" lon="12.1503735"><ele>315.0</ele><time>2026-04-25T14:37:48.419Z</time></trkpt><trkpt lat="46.0980266" lon="12.150447"><ele>315.0</ele><time>2026-04-25T14:37:50.42Z</time></trkpt><trkpt lat="46.0981342" lon="12.1505245"><ele>315.0</ele><time>2026-04-25T14:37:52.428Z</time></trkpt><trkpt lat="46.0982392" lon="12.1506144"><ele>315.0</ele><time>2026-04-25T14:37:54.415Z</time></trkpt><trkpt lat="46.0983412" lon="12.1507086"><ele>314.75</ele><time>2026-04-25T14:37:56.426Z</time></trkpt><trkpt lat="46.0984335" lon="12.1508065"><ele>314.5</ele><time>2026-04-25T14:37:58.428Z</time></trkpt><trkpt lat="46.0985173" lon="12.1509012"><ele>314.25</ele><time>2026-04-25T14:38:00.416Z</time></trkpt><trkpt lat="46.0986081" lon="12.1510059"><ele>314.0</ele><time>2026-04-25T14:38:02.432Z</time></trkpt><trkpt lat="46.098705" lon="12.1511192"><ele>314.0</ele><time>2026-04-25T14:38:04.428Z</time></trkpt><trkpt lat="46.0988034" lon="12.1512349"><ele>314.0</ele><time>2026-04-25T14:38:06.427Z</time></trkpt><trkpt lat="46.0988522" lon="12.1512936"><ele>314.0</ele><time>2026-04-25T14:38:07.419Z</time></trkpt><trkpt lat="46.0989505" lon="12.1514031"><ele>314.0</ele><time>2026-04-25T14:38:09.429Z</time></trkpt><trkpt lat="46.0990038" lon="12.1514532"><ele>314.0</ele><time>2026-04-25T14:38:10.429Z</time></trkpt><trkpt lat="46.0990569" lon="12.151503"><ele>314.0</ele><time>2026-04-25T14:38:11.417Z</time></trkpt><trkpt lat="46.0991642" lon="12.1516041"><ele>314.59999999999997</ele><time>2026-04-25T14:38:13.418Z</time></trkpt><trkpt lat="46.0992661" lon="12.1517008"><ele>315.2</ele><time>2026-04-25T14:38:15.415Z</time></trkpt><trkpt lat="46.099372" lon="12.1517875"><ele>315.79999999999995</ele><time>2026-04-25T14:38:17.418Z</time></trkpt><trkpt lat="46.099482" lon="12.1518699"><ele>316.4</ele><time>2026-04-25T14:38:19.428Z</time></trkpt><trkpt lat="46.099534" lon="12.1519229"><ele>317.0</ele><time>2026-04-25T14:38:20.418Z</time></trkpt><trkpt lat="46.0995902" lon="12.1519703"><ele>317.0</ele><time>2026-04-25T14:38:21.43Z</time></trkpt><trkpt lat="46.0996888" lon="12.152067"><ele>317.0</ele><time>2026-04-25T14:38:23.418Z</time></trkpt><trkpt lat="46.0997666" lon="12.1521821"><ele>317.0</ele><time>2026-04-25T14:38:25.417Z</time></trkpt><trkpt lat="46.0998285" lon="12.1523137"><ele>317.0</ele><time>2026-04-25T14:38:27.427Z</time></trkpt><trkpt lat="46.0999" lon="12.1524477"><ele>318.2</ele><time>2026-04-25T14:38:29.418Z</time></trkpt><trkpt lat="46.0999703" lon="12.1525811"><ele>319.4</ele><time>2026-04-25T14:38:31.432Z</time></trkpt><trkpt lat="46.1000369" lon="12.1527084"><ele>320.59999999999997</ele><time>2026-04-25T14:38:33.425Z</time></trkpt><trkpt lat="46.100099" lon="12.1528214"><ele>321.79999999999995</ele><time>2026-04-25T14:38:35.429Z</time></trkpt><trkpt lat="46.1001528" lon="12.152932"><ele>323.0</ele><time>2026-04-25T14:38:37.419Z</time></trkpt><trkpt lat="46.100201" lon="12.1530235"><ele>323.0</ele><time>2026-04-25T14:38:39.43Z</time></trkpt><trkpt lat="46.1002476" lon="12.1531117"><ele>323.0</ele><time>2026-04-25T14:38:41.427Z</time></trkpt><trkpt lat="46.100295" lon="12.1531938"><ele>323.0</ele><time>2026-04-25T14:38:43.422Z</time></trkpt><trkpt lat="46.1003584" lon="12.1533008"><ele>323.0</ele><time>2026-04-25T14:38:45.412Z</time></trkpt><trkpt lat="46.1004231" lon="12.1534186"><ele>323.0</ele><time>2026-04-25T14:38:47.418Z</time></trkpt><trkpt lat="46.1004864" lon="12.1535467"><ele>323.25</ele><time>2026-04-25T14:38:49.417Z</time></trkpt><trkpt lat="46.1005603" lon="12.1536807"><ele>323.5</ele><time>2026-04-25T14:38:51.419Z</time></trkpt><trkpt lat="46.1006295" lon="12.1538185"><ele>323.75</ele><time>2026-04-25T14:38:53.421Z</time></trkpt><trkpt lat="46.1007001" lon="12.1539559"><ele>324.0</ele><time>2026-04-25T14:38:55.418Z</time></trkpt><trkpt lat="46.1007722" lon="12.1540928"><ele>324.0</ele><time>2026-04-25T14:38:57.425Z</time></trkpt><trkpt lat="46.1008423" lon="12.1542341"><ele>324.0</ele><time>2026-04-25T14:38:59.419Z</time></trkpt><trkpt lat="46.1009112" lon="12.1543722"><ele>324.0</ele><time>2026-04-25T14:39:01.425Z</time></trkpt><trkpt lat="46.1009834" lon="12.154511"><ele>324.0</ele><time>2026-04-25T14:39:03.434Z</time></trkpt><trkpt lat="46.101062" lon="12.1546457"><ele>324.0</ele><time>2026-04-25T14:39:05.43Z</time></trkpt><trkpt lat="46.1011281" lon="12.1547818"><ele>324.0</ele><time>2026-04-25T14:39:07.424Z</time></trkpt><trkpt lat="46.101198" lon="12.1549091"><ele>324.0</ele><time>2026-04-25T14:39:09.431Z</time></trkpt><trkpt lat="46.1012625" lon="12.155034"><ele>324.0</ele><time>2026-04-25T14:39:11.421Z</time></trkpt><trkpt lat="46.1013359" lon="12.1551584"><ele>324.0</ele><time>2026-04-25T14:39:13.426Z</time></trkpt><trkpt lat="46.1014044" lon="12.1552866"><ele>323.5</ele><time>2026-04-25T14:39:15.418Z</time></trkpt><trkpt lat="46.1014669" lon="12.1554189"><ele>323.0</ele><time>2026-04-25T14:39:17.423Z</time></trkpt><trkpt lat="46.1015382" lon="12.1555498"><ele>322.5</ele><time>2026-04-25T14:39:19.439Z</time></trkpt><trkpt lat="46.1016463" lon="12.1557468"><ele>322.0</ele><time>2026-04-25T14:39:22.428Z</time></trkpt><trkpt lat="46.1017127" lon="12.1558802"><ele>322.0</ele><time>2026-04-25T14:39:24.412Z</time></trkpt><trkpt lat="46.1017776" lon="12.1560102"><ele>322.0</ele><time>2026-04-25T14:39:26.431Z</time></trkpt><trkpt lat="46.1018329" lon="12.1561265"><ele>322.0</ele><time>2026-04-25T14:39:28.423Z</time></trkpt><trkpt lat="46.1018924" lon="12.1562207"><ele>322.0</ele><time>2026-04-25T14:39:30.432Z</time></trkpt><trkpt lat="46.1019505" lon="12.1562979"><ele>322.0</ele><time>2026-04-25T14:39:32.428Z</time></trkpt><trkpt lat="46.1020187" lon="12.1563312"><ele>322.0</ele><time>2026-04-25T14:39:34.43Z</time></trkpt><trkpt lat="46.1021119" lon="12.1563119"><ele>322.0</ele><time>2026-04-25T14:39:36.426Z</time></trkpt><trkpt lat="46.1022005" lon="12.1563705"><ele>322.0</ele><time>2026-04-25T14:39:38.432Z</time></trkpt><trkpt lat="46.1022618" lon="12.156499"><ele>322.0</ele><time>2026-04-25T14:39:40.423Z</time></trkpt><trkpt lat="46.1023214" lon="12.1566359"><ele>322.0</ele><time>2026-04-25T14:39:42.417Z</time></trkpt><trkpt lat="46.1023804" lon="12.1567824"><ele>322.0</ele><time>2026-04-25T14:39:44.43Z</time></trkpt><trkpt lat="46.1024402" lon="12.1569316"><ele>322.0</ele><time>2026-04-25T14:39:46.421Z</time></trkpt><trkpt lat="46.1024721" lon="12.1570111"><ele>322.0</ele><time>2026-04-25T14:39:47.425Z</time></trkpt><trkpt lat="46.1025309" lon="12.1571622"><ele>322.0</ele><time>2026-04-25T14:39:49.429Z</time></trkpt><trkpt lat="46.1025912" lon="12.157313"><ele>322.0</ele><time>2026-04-25T14:39:51.429Z</time></trkpt><trkpt lat="46.102655" lon="12.1574675"><ele>322.0</ele><time>2026-04-25T14:39:53.426Z</time></trkpt><trkpt lat="46.1026883" lon="12.1575493"><ele>322.0</ele><time>2026-04-25T14:39:54.426Z</time></trkpt><trkpt lat="46.102742" lon="12.1576968"><ele>322.0</ele><time>2026-04-25T14:39:56.428Z</time></trkpt><trkpt lat="46.1027971" lon="12.1578444"><ele>322.0</ele><time>2026-04-25T14:39:58.421Z</time></trkpt><trkpt lat="46.1028548" lon="12.1579976"><ele>322.0</ele><time>2026-04-25T14:40:00.428Z</time></trkpt><trkpt lat="46.102887" lon="12.158144"><ele>322.3333333333333</ele><time>2026-04-25T14:40:02.426Z</time></trkpt><trkpt lat="46.1028318" lon="12.158247"><ele>322.66666666666663</ele><time>2026-04-25T14:40:04.427Z</time></trkpt><trkpt lat="46.102742" lon="12.1583568"><ele>323.0</ele><time>2026-04-25T14:40:06.423Z</time></trkpt><trkpt lat="46.1026899" lon="12.1584191"><ele>323.3333333333333</ele><time>2026-04-25T14:40:07.419Z</time></trkpt><trkpt lat="46.1026348" lon="12.158481"><ele>323.6666666666667</ele><time>2026-04-25T14:40:08.427Z</time></trkpt><trkpt lat="46.1025795" lon="12.1585418"><ele>324.0</ele><time>2026-04-25T14:40:09.425Z</time></trkpt><trkpt lat="46.1025298" lon="12.158602"><ele>324.0</ele><time>2026-04-25T14:40:10.425Z</time></trkpt><trkpt lat="46.10243" lon="12.1587101"><ele>324.0</ele><time>2026-04-25T14:40:12.428Z</time></trkpt><trkpt lat="46.1023365" lon="12.1588255"><ele>324.0</ele><time>2026-04-25T14:40:14.429Z</time></trkpt><trkpt lat="46.1022471" lon="12.158928"><ele>324.0</ele><time>2026-04-25T14:40:16.429Z</time></trkpt><trkpt lat="46.1021636" lon="12.1590242"><ele>323.5</ele><time>2026-04-25T14:40:18.437Z</time></trkpt><trkpt lat="46.1020827" lon="12.1591149"><ele>323.0</ele><time>2026-04-25T14:40:20.426Z</time></trkpt><trkpt lat="46.1019975" lon="12.1592255"><ele>322.5</ele><time>2026-04-25T14:40:22.427Z</time></trkpt><trkpt lat="46.1019306" lon="12.1593636"><ele>322.0</ele><time>2026-04-25T14:40:24.433Z</time></trkpt><trkpt lat="46.1018914" lon="12.1595209"><ele>322.0</ele><time>2026-04-25T14:40:26.425Z</time></trkpt><trkpt lat="46.1018577" lon="12.1596778"><ele>322.0</ele><time>2026-04-25T14:40:28.429Z</time></trkpt><trkpt lat="46.1018352" lon="12.1598396"><ele>322.0</ele><time>2026-04-25T14:40:30.424Z</time></trkpt><trkpt lat="46.1018193" lon="12.1600035"><ele>322.0</ele><time>2026-04-25T14:40:32.425Z</time></trkpt><trkpt lat="46.1018004" lon="12.1601707"><ele>321.75</ele><time>2026-04-25T14:40:34.434Z</time></trkpt><trkpt lat="46.1017866" lon="12.1603396"><ele>321.5</ele><time>2026-04-25T14:40:36.416Z</time></trkpt><trkpt lat="46.1017587" lon="12.160509"><ele>321.25</ele><time>2026-04-25T14:40:38.427Z</time></trkpt><trkpt lat="46.1017302" lon="12.160678"><ele>321.0</ele><time>2026-04-25T14:40:40.427Z</time></trkpt><trkpt lat="46.1016893" lon="12.1608376"><ele>321.0</ele><time>2026-04-25T14:40:42.426Z</time></trkpt><trkpt lat="46.1016315" lon="12.1609897"><ele>321.0</ele><time>2026-04-25T14:40:44.432Z</time></trkpt><trkpt lat="46.1015702" lon="12.1611332"><ele>321.0</ele><time>2026-04-25T14:40:46.431Z</time></trkpt><trkpt lat="46.1015117" lon="12.1612773"><ele>321.0</ele><time>2026-04-25T14:40:48.431Z</time></trkpt><trkpt lat="46.101443" lon="12.1614135"><ele>320.0</ele><time>2026-04-25T14:40:50.428Z</time></trkpt><trkpt lat="46.1013762" lon="12.1615503"><ele>319.0</ele><time>2026-04-25T14:40:52.413Z</time></trkpt><trkpt lat="46.1013083" lon="12.1616869"><ele>318.0</ele><time>2026-04-25T14:40:54.421Z</time></trkpt><trkpt lat="46.1012414" lon="12.161825"><ele>317.0</ele><time>2026-04-25T14:40:56.428Z</time></trkpt><trkpt lat="46.1011893" lon="12.1619572"><ele>317.0</ele><time>2026-04-25T14:40:58.423Z</time></trkpt><trkpt lat="46.1011349" lon="12.1620889"><ele>317.0</ele><time>2026-04-25T14:41:00.42Z</time></trkpt><trkpt lat="46.1010827" lon="12.1622323"><ele>317.0</ele><time>2026-04-25T14:41:02.421Z</time></trkpt><trkpt lat="46.1010277" lon="12.1623781"><ele>317.0</ele><time>2026-04-25T14:41:04.419Z</time></trkpt><trkpt lat="46.1009448" lon="12.1625715"><ele>318.0</ele><time>2026-04-25T14:41:07.419Z</time></trkpt><trkpt lat="46.1009007" lon="12.1627088"><ele>319.0</ele><time>2026-04-25T14:41:09.419Z</time></trkpt><trkpt lat="46.1008666" lon="12.1628608"><ele>320.0</ele><time>2026-04-25T14:41:11.432Z</time></trkpt><trkpt lat="46.1008261" lon="12.163025"><ele>321.0</ele><time>2026-04-25T14:41:13.427Z</time></trkpt><trkpt lat="46.1007871" lon="12.1631955"><ele>321.20000000000005</ele><time>2026-04-25T14:41:15.416Z</time></trkpt><trkpt lat="46.1007577" lon="12.1633684"><ele>321.40000000000003</ele><time>2026-04-25T14:41:17.421Z</time></trkpt><trkpt lat="46.1007436" lon="12.1634648"><ele>321.6</ele><time>2026-04-25T14:41:18.419Z</time></trkpt><trkpt lat="46.1007216" lon="12.163643"><ele>321.8</ele><time>2026-04-25T14:41:20.426Z</time></trkpt><trkpt lat="46.1007081" lon="12.1637331"><ele>322.0</ele><time>2026-04-25T14:41:21.42Z</time></trkpt><trkpt lat="46.1006662" lon="12.1639043"><ele>322.6</ele><time>2026-04-25T14:41:23.429Z</time></trkpt><trkpt lat="46.1005987" lon="12.1640491"><ele>323.20000000000005</ele><time>2026-04-25T14:41:25.418Z</time></trkpt><trkpt lat="46.1005197" lon="12.1641758"><ele>323.8</ele><time>2026-04-25T14:41:27.419Z</time></trkpt><trkpt lat="46.1004531" lon="12.1643013"><ele>324.4</ele><time>2026-04-25T14:41:29.42Z</time></trkpt><trkpt lat="46.1004287" lon="12.1644382"><ele>325.0</ele><time>2026-04-25T14:41:31.419Z</time></trkpt><trkpt lat="46.100442" lon="12.1646003"><ele>325.0</ele><time>2026-04-25T14:41:33.428Z</time></trkpt><trkpt lat="46.1004585" lon="12.1647629"><ele>325.0</ele><time>2026-04-25T14:41:35.426Z</time></trkpt><trkpt lat="46.1004716" lon="12.1649179"><ele>325.0</ele><time>2026-04-25T14:41:37.416Z</time></trkpt><trkpt lat="46.1004836" lon="12.1650857"><ele>325.0</ele><time>2026-04-25T14:41:39.419Z</time></trkpt><trkpt lat="46.1004899" lon="12.1652645"><ele>325.0</ele><time>2026-04-25T14:41:41.415Z</time></trkpt><trkpt lat="46.1004979" lon="12.1654351"><ele>325.0</ele><time>2026-04-25T14:41:43.42Z</time></trkpt><trkpt lat="46.1004922" lon="12.1656048"><ele>325.0</ele><time>2026-04-25T14:41:45.418Z</time></trkpt><trkpt lat="46.1004903" lon="12.1657742"><ele>325.0</ele><time>2026-04-25T14:41:47.416Z</time></trkpt><trkpt lat="46.1004809" lon="12.1659322"><ele>325.0</ele><time>2026-04-25T14:41:49.419Z</time></trkpt><trkpt lat="46.100484" lon="12.1660936"><ele>325.0</ele><time>2026-04-25T14:41:51.419Z</time></trkpt><trkpt lat="46.1004987" lon="12.1662581"><ele>325.0</ele><time>2026-04-25T14:41:53.42Z</time></trkpt><trkpt lat="46.1005113" lon="12.1664318"><ele>325.0</ele><time>2026-04-25T14:41:55.423Z</time></trkpt><trkpt lat="46.1005264" lon="12.1666059"><ele>325.0</ele><time>2026-04-25T14:41:57.428Z</time></trkpt><trkpt lat="46.1005455" lon="12.166777"><ele>325.0</ele><time>2026-04-25T14:41:59.42Z</time></trkpt><trkpt lat="46.1005535" lon="12.1668679"><ele>325.0</ele><time>2026-04-25T14:42:00.429Z</time></trkpt><trkpt lat="46.10057" lon="12.1670418"><ele>325.0</ele><time>2026-04-25T14:42:02.425Z</time></trkpt><trkpt lat="46.100584" lon="12.1672196"><ele>325.0</ele><time>2026-04-25T14:42:04.428Z</time></trkpt><trkpt lat="46.1005898" lon="12.1673922"><ele>325.5</ele><time>2026-04-25T14:42:06.427Z</time></trkpt><trkpt lat="46.1005991" lon="12.1675682"><ele>326.0</ele><time>2026-04-25T14:42:08.427Z</time></trkpt><trkpt lat="46.1006086" lon="12.1677475"><ele>326.5</ele><time>2026-04-25T14:42:10.424Z</time></trkpt><trkpt lat="46.1006073" lon="12.1679139"><ele>327.0</ele><time>2026-04-25T14:42:12.428Z</time></trkpt><trkpt lat="46.1005988" lon="12.1680682"><ele>327.20000000000005</ele><time>2026-04-25T14:42:14.427Z</time></trkpt><trkpt lat="46.1005763" lon="12.1682243"><ele>327.4</ele><time>2026-04-25T14:42:16.429Z</time></trkpt><trkpt lat="46.1005255" lon="12.1683743"><ele>327.6</ele><time>2026-04-25T14:42:18.426Z</time></trkpt><trkpt lat="46.1004578" lon="12.1685084"><ele>327.79999999999995</ele><time>2026-04-25T14:42:20.422Z</time></trkpt><trkpt lat="46.100383" lon="12.1686137"><ele>328.0</ele><time>2026-04-25T14:42:22.428Z</time></trkpt><trkpt lat="46.1003066" lon="12.1687171"><ele>328.0</ele><time>2026-04-25T14:42:24.419Z</time></trkpt><trkpt lat="46.1002387" lon="12.1688249"><ele>328.0</ele><time>2026-04-25T14:42:26.42Z</time></trkpt><trkpt lat="46.1001665" lon="12.1689493"><ele>328.0</ele><time>2026-04-25T14:42:28.428Z</time></trkpt><trkpt lat="46.1001031" lon="12.1690842"><ele>328.0</ele><time>2026-04-25T14:42:30.428Z</time></trkpt><trkpt lat="46.1000389" lon="12.1692241"><ele>328.0</ele><time>2026-04-25T14:42:32.413Z</time></trkpt><trkpt lat="46.0999727" lon="12.1693555"><ele>328.5</ele><time>2026-04-25T14:42:34.427Z</time></trkpt><trkpt lat="46.0999106" lon="12.1694864"><ele>329.0</ele><time>2026-04-25T14:42:36.427Z</time></trkpt><trkpt lat="46.0998311" lon="12.1696758"><ele>329.5</ele><time>2026-04-25T14:42:39.429Z</time></trkpt><trkpt lat="46.0997706" lon="12.1697978"><ele>330.0</ele><time>2026-04-25T14:42:41.417Z</time></trkpt><trkpt lat="46.0997388" lon="12.1699406"><ele>331.2</ele><time>2026-04-25T14:42:43.429Z</time></trkpt><trkpt lat="46.0997108" lon="12.1700877"><ele>332.4</ele><time>2026-04-25T14:42:45.416Z</time></trkpt><trkpt lat="46.0996861" lon="12.1702293"><ele>333.6</ele><time>2026-04-25T14:42:47.425Z</time></trkpt><trkpt lat="46.0996652" lon="12.1703778"><ele>334.8</ele><time>2026-04-25T14:42:49.43Z</time></trkpt><trkpt lat="46.099648" lon="12.1705318"><ele>336.0</ele><time>2026-04-25T14:42:51.43Z</time></trkpt><trkpt lat="46.0996344" lon="12.170684"><ele>336.8</ele><time>2026-04-25T14:42:53.421Z</time></trkpt><trkpt lat="46.0996291" lon="12.1708371"><ele>337.6</ele><time>2026-04-25T14:42:55.426Z</time></trkpt><trkpt lat="46.0996389" lon="12.1709857"><ele>338.4</ele><time>2026-04-25T14:42:57.427Z</time></trkpt><trkpt lat="46.0996502" lon="12.1711411"><ele>339.2</ele><time>2026-04-25T14:42:59.419Z</time></trkpt><trkpt lat="46.0996666" lon="12.1712996"><ele>340.0</ele><time>2026-04-25T14:43:01.42Z</time></trkpt><trkpt lat="46.0996793" lon="12.1714517"><ele>340.4</ele><time>2026-04-25T14:43:03.423Z</time></trkpt><trkpt lat="46.0996995" lon="12.1715985"><ele>340.8</ele><time>2026-04-25T14:43:05.419Z</time></trkpt><trkpt lat="46.0997241" lon="12.1717463"><ele>341.20000000000005</ele><time>2026-04-25T14:43:07.429Z</time></trkpt><trkpt lat="46.0997387" lon="12.1718906"><ele>341.6</ele><time>2026-04-25T14:43:09.417Z</time></trkpt><trkpt lat="46.0997607" lon="12.1720392"><ele>342.0</ele><time>2026-04-25T14:43:11.422Z</time></trkpt><trkpt lat="46.099752" lon="12.1721674"><ele>342.0</ele><time>2026-04-25T14:43:13.429Z</time></trkpt><trkpt lat="46.0996998" lon="12.172231"><ele>342.0</ele><time>2026-04-25T14:43:15.419Z</time></trkpt><trkpt lat="46.0996446" lon="12.1723437"><ele>342.0</ele><time>2026-04-25T14:43:17.418Z</time></trkpt><trkpt lat="46.0996186" lon="12.1724934"><ele>342.0</ele><time>2026-04-25T14:43:19.43Z</time></trkpt><trkpt lat="46.0995524" lon="12.1726091"><ele>342.0</ele><time>2026-04-25T14:43:21.424Z</time></trkpt><trkpt lat="46.0994518" lon="12.1726318"><ele>342.20000000000005</ele><time>2026-04-25T14:43:23.417Z</time></trkpt><trkpt lat="46.0993458" lon="12.172656"><ele>342.4</ele><time>2026-04-25T14:43:25.427Z</time></trkpt><trkpt lat="46.0992442" lon="12.1726596"><ele>342.6</ele><time>2026-04-25T14:43:27.424Z</time></trkpt><trkpt lat="46.099151" lon="12.1726486"><ele>342.79999999999995</ele><time>2026-04-25T14:43:29.419Z</time></trkpt><trkpt lat="46.0990617" lon="12.1726649"><ele>343.0</ele><time>2026-04-25T14:43:31.418Z</time></trkpt><trkpt lat="46.0990473" lon="12.1727924"><ele>343.3333333333333</ele><time>2026-04-25T14:43:33.427Z</time></trkpt><trkpt lat="46.09903" lon="12.1729054"><ele>343.66666666666663</ele><time>2026-04-25T14:43:35.426Z</time></trkpt><trkpt lat="46.0990145" lon="12.1730077"><ele>344.0</ele><time>2026-04-25T14:43:37.428Z</time></trkpt><trkpt lat="46.0989953" lon="12.1731076"><ele>344.3333333333333</ele><time>2026-04-25T14:43:39.428Z</time></trkpt><trkpt lat="46.098956" lon="12.1732024"><ele>344.6666666666667</ele><time>2026-04-25T14:43:41.419Z</time></trkpt><trkpt lat="46.0988964" lon="12.1732673"><ele>345.0</ele><time>2026-04-25T14:43:43.424Z</time></trkpt><trkpt lat="46.0988247" lon="12.1733139"><ele>345.6666666666667</ele><time>2026-04-25T14:43:45.423Z</time></trkpt><trkpt lat="46.0987692" lon="12.1733902"><ele>346.3333333333333</ele><time>2026-04-25T14:43:47.424Z</time></trkpt><trkpt lat="46.0987428" lon="12.1734799"><ele>347.0</ele><time>2026-04-25T14:43:49.428Z</time></trkpt><trkpt lat="46.0987246" lon="12.1735728"><ele>347.66666666666663</ele><time>2026-04-25T14:43:51.418Z</time></trkpt><trkpt lat="46.0987045" lon="12.1736836"><ele>348.3333333333333</ele><time>2026-04-25T14:43:53.428Z</time></trkpt><trkpt lat="46.098683" lon="12.1737988"><ele>349.0</ele><time>2026-04-25T14:43:55.427Z</time></trkpt><trkpt lat="46.0986576" lon="12.1739031"><ele>349.0</ele><time>2026-04-25T14:43:57.429Z</time></trkpt><trkpt lat="46.0986264" lon="12.1739844"><ele>349.0</ele><time>2026-04-25T14:43:59.422Z</time></trkpt><trkpt lat="46.0985603" lon="12.1740214"><ele>349.0</ele><time>2026-04-25T14:44:01.42Z</time></trkpt><trkpt lat="46.0984645" lon="12.1739966"><ele>349.0</ele><time>2026-04-25T14:44:03.427Z</time></trkpt><trkpt lat="46.0983997" lon="12.1740692"><ele>353.0</ele><time>2026-04-25T14:44:05.427Z</time></trkpt></trkseg></trk></gpx>